<?xml version="1.0" encoding="UTF-8" standalone="no" ?>
<gpx xmlns="http://www.topografix.com/GPX/1/1" xmlns:xsi="http://www.w3.org/2001/XMLSchema-instance" xsi:schemaLocation="http://www.topografix.com/GPX/1/1 http://www.topografix.com/GPX/1/1/gpx.xsd" version="1.1" creator="VisuGPX - https://www.visugpx.com">
  <metadata>
    <name>Causse &amp; Muse</name>
    <desc><![CDATA[Belle balade à travers le Causse Rouge et la vallée de la Muse]]></desc>
  </metadata>
  <trk>
    <name><![CDATA[Causse & Muse on GPSies.com]]></name>
    <trkseg>
      <trkpt lat="44.10627" lon="3.07331">
        <ele>387</ele>
        <time>2010-01-01T00:00:00Z</time>
      </trkpt>
      <trkpt lat="44.10626" lon="3.07332">
        <ele>387</ele>
        <time>2010-01-01T00:00:00Z</time>
      </trkpt>
      <trkpt lat="44.10622" lon="3.07329">
        <ele>386</ele>
        <time>2010-01-01T00:00:02Z</time>
      </trkpt>
      <trkpt lat="44.1062" lon="3.07328">
        <ele>386</ele>
        <time>2010-01-01T00:00:03Z</time>
      </trkpt>
      <trkpt lat="44.10619" lon="3.07328">
        <ele>386</ele>
        <time>2010-01-01T00:00:03Z</time>
      </trkpt>
      <trkpt lat="44.10617" lon="3.07327">
        <ele>385</ele>
        <time>2010-01-01T00:00:04Z</time>
      </trkpt>
      <trkpt lat="44.10614" lon="3.07325">
        <ele>385</ele>
        <time>2010-01-01T00:00:05Z</time>
      </trkpt>
      <trkpt lat="44.10609" lon="3.07328">
        <ele>385</ele>
        <time>2010-01-01T00:00:07Z</time>
      </trkpt>
      <trkpt lat="44.10603" lon="3.07335">
        <ele>384</ele>
        <time>2010-01-01T00:00:10Z</time>
      </trkpt>
      <trkpt lat="44.10598" lon="3.07339">
        <ele>383</ele>
        <time>2010-01-01T00:00:13Z</time>
      </trkpt>
      <trkpt lat="44.10593" lon="3.07343">
        <ele>383</ele>
        <time>2010-01-01T00:00:15Z</time>
      </trkpt>
      <trkpt lat="44.10588" lon="3.07348">
        <ele>382</ele>
        <time>2010-01-01T00:00:18Z</time>
      </trkpt>
      <trkpt lat="44.10581" lon="3.07353">
        <ele>382</ele>
        <time>2010-01-01T00:00:21Z</time>
      </trkpt>
      <trkpt lat="44.1058" lon="3.07362">
        <ele>382</ele>
        <time>2010-01-01T00:00:23Z</time>
      </trkpt>
      <trkpt lat="44.10583" lon="3.07371">
        <ele>382</ele>
        <time>2010-01-01T00:00:26Z</time>
      </trkpt>
      <trkpt lat="44.10586" lon="3.07379">
        <ele>382</ele>
        <time>2010-01-01T00:00:29Z</time>
      </trkpt>
      <trkpt lat="44.10589" lon="3.07387">
        <ele>382</ele>
        <time>2010-01-01T00:00:31Z</time>
      </trkpt>
      <trkpt lat="44.10592" lon="3.07396">
        <ele>381</ele>
        <time>2010-01-01T00:00:34Z</time>
      </trkpt>
      <trkpt lat="44.10593" lon="3.07406">
        <ele>381</ele>
        <time>2010-01-01T00:00:37Z</time>
      </trkpt>
      <trkpt lat="44.10594" lon="3.07421">
        <ele>381</ele>
        <time>2010-01-01T00:00:41Z</time>
      </trkpt>
      <trkpt lat="44.10594" lon="3.07431">
        <ele>381</ele>
        <time>2010-01-01T00:00:44Z</time>
      </trkpt>
      <trkpt lat="44.10594" lon="3.07441">
        <ele>381</ele>
        <time>2010-01-01T00:00:47Z</time>
      </trkpt>
      <trkpt lat="44.10593" lon="3.0745">
        <ele>381</ele>
        <time>2010-01-01T00:00:49Z</time>
      </trkpt>
      <trkpt lat="44.10595" lon="3.07462">
        <ele>381</ele>
        <time>2010-01-01T00:00:53Z</time>
      </trkpt>
      <trkpt lat="44.10598" lon="3.07471">
        <ele>381</ele>
        <time>2010-01-01T00:00:56Z</time>
      </trkpt>
      <trkpt lat="44.10601" lon="3.07479">
        <ele>382</ele>
        <time>2010-01-01T00:00:59Z</time>
      </trkpt>
      <trkpt lat="44.10598" lon="3.07486">
        <ele>382</ele>
        <time>2010-01-01T00:01:01Z</time>
      </trkpt>
      <trkpt lat="44.10591" lon="3.07491">
        <ele>383</ele>
        <time>2010-01-01T00:01:04Z</time>
      </trkpt>
      <trkpt lat="44.10585" lon="3.07496">
        <ele>383</ele>
        <time>2010-01-01T00:01:07Z</time>
      </trkpt>
      <trkpt lat="44.10579" lon="3.07502">
        <ele>383</ele>
        <time>2010-01-01T00:01:10Z</time>
      </trkpt>
      <trkpt lat="44.10571" lon="3.07505">
        <ele>383</ele>
        <time>2010-01-01T00:01:13Z</time>
      </trkpt>
      <trkpt lat="44.10564" lon="3.07508">
        <ele>383</ele>
        <time>2010-01-01T00:01:16Z</time>
      </trkpt>
      <trkpt lat="44.10556" lon="3.07513">
        <ele>383</ele>
        <time>2010-01-01T00:01:19Z</time>
      </trkpt>
      <trkpt lat="44.10543" lon="3.07519">
        <ele>382</ele>
        <time>2010-01-01T00:01:25Z</time>
      </trkpt>
      <trkpt lat="44.10535" lon="3.07524">
        <ele>381</ele>
        <time>2010-01-01T00:01:28Z</time>
      </trkpt>
      <trkpt lat="44.10526" lon="3.07528">
        <ele>381</ele>
        <time>2010-01-01T00:01:32Z</time>
      </trkpt>
      <trkpt lat="44.10514" lon="3.07534">
        <ele>381</ele>
        <time>2010-01-01T00:01:37Z</time>
      </trkpt>
      <trkpt lat="44.10502" lon="3.07541">
        <ele>381</ele>
        <time>2010-01-01T00:01:42Z</time>
      </trkpt>
      <trkpt lat="44.10494" lon="3.07547">
        <ele>381</ele>
        <time>2010-01-01T00:01:46Z</time>
      </trkpt>
      <trkpt lat="44.10481" lon="3.07556">
        <ele>381</ele>
        <time>2010-01-01T00:01:52Z</time>
      </trkpt>
      <trkpt lat="44.10467" lon="3.07562">
        <ele>381</ele>
        <time>2010-01-01T00:01:58Z</time>
      </trkpt>
      <trkpt lat="44.10455" lon="3.07569">
        <ele>382</ele>
        <time>2010-01-01T00:02:03Z</time>
      </trkpt>
      <trkpt lat="44.10446" lon="3.07574">
        <ele>382</ele>
        <time>2010-01-01T00:02:07Z</time>
      </trkpt>
      <trkpt lat="44.10438" lon="3.0758">
        <ele>382</ele>
        <time>2010-01-01T00:02:10Z</time>
      </trkpt>
      <trkpt lat="44.10429" lon="3.07586">
        <ele>383</ele>
        <time>2010-01-01T00:02:15Z</time>
      </trkpt>
      <trkpt lat="44.10419" lon="3.07592">
        <ele>383</ele>
        <time>2010-01-01T00:02:19Z</time>
      </trkpt>
      <trkpt lat="44.10409" lon="3.07597">
        <ele>382</ele>
        <time>2010-01-01T00:02:23Z</time>
      </trkpt>
      <trkpt lat="44.104" lon="3.07603">
        <ele>382</ele>
        <time>2010-01-01T00:02:27Z</time>
      </trkpt>
      <trkpt lat="44.10391" lon="3.07609">
        <ele>381</ele>
        <time>2010-01-01T00:02:31Z</time>
      </trkpt>
      <trkpt lat="44.10382" lon="3.07615">
        <ele>380</ele>
        <time>2010-01-01T00:02:35Z</time>
      </trkpt>
      <trkpt lat="44.10373" lon="3.0762">
        <ele>380</ele>
        <time>2010-01-01T00:02:39Z</time>
      </trkpt>
      <trkpt lat="44.10362" lon="3.07625">
        <ele>379</ele>
        <time>2010-01-01T00:02:44Z</time>
      </trkpt>
      <trkpt lat="44.10352" lon="3.07631">
        <ele>379</ele>
        <time>2010-01-01T00:02:48Z</time>
      </trkpt>
      <trkpt lat="44.10343" lon="3.07637">
        <ele>379</ele>
        <time>2010-01-01T00:02:52Z</time>
      </trkpt>
      <trkpt lat="44.10333" lon="3.07643">
        <ele>380</ele>
        <time>2010-01-01T00:02:56Z</time>
      </trkpt>
      <trkpt lat="44.10325" lon="3.07648">
        <ele>380</ele>
        <time>2010-01-01T00:03:00Z</time>
      </trkpt>
      <trkpt lat="44.10316" lon="3.07654">
        <ele>380</ele>
        <time>2010-01-01T00:03:04Z</time>
      </trkpt>
      <trkpt lat="44.10307" lon="3.0766">
        <ele>380</ele>
        <time>2010-01-01T00:03:08Z</time>
      </trkpt>
      <trkpt lat="44.10297" lon="3.07665">
        <ele>381</ele>
        <time>2010-01-01T00:03:12Z</time>
      </trkpt>
      <trkpt lat="44.10287" lon="3.07671">
        <ele>380</ele>
        <time>2010-01-01T00:03:16Z</time>
      </trkpt>
      <trkpt lat="44.10278" lon="3.07678">
        <ele>380</ele>
        <time>2010-01-01T00:03:21Z</time>
      </trkpt>
      <trkpt lat="44.10258" lon="3.07691">
        <ele>379</ele>
        <time>2010-01-01T00:03:29Z</time>
      </trkpt>
      <trkpt lat="44.10243" lon="3.077">
        <ele>378</ele>
        <time>2010-01-01T00:03:36Z</time>
      </trkpt>
      <trkpt lat="44.10232" lon="3.07706">
        <ele>378</ele>
        <time>2010-01-01T00:03:41Z</time>
      </trkpt>
      <trkpt lat="44.1022" lon="3.07712">
        <ele>378</ele>
        <time>2010-01-01T00:03:46Z</time>
      </trkpt>
      <trkpt lat="44.1021" lon="3.07718">
        <ele>378</ele>
        <time>2010-01-01T00:03:50Z</time>
      </trkpt>
      <trkpt lat="44.10199" lon="3.07724">
        <ele>378</ele>
        <time>2010-01-01T00:03:55Z</time>
      </trkpt>
      <trkpt lat="44.10188" lon="3.07729">
        <ele>379</ele>
        <time>2010-01-01T00:03:59Z</time>
      </trkpt>
      <trkpt lat="44.10178" lon="3.07735">
        <ele>379</ele>
        <time>2010-01-01T00:04:04Z</time>
      </trkpt>
      <trkpt lat="44.10168" lon="3.07742">
        <ele>379</ele>
        <time>2010-01-01T00:04:08Z</time>
      </trkpt>
      <trkpt lat="44.10158" lon="3.07748">
        <ele>378</ele>
        <time>2010-01-01T00:04:13Z</time>
      </trkpt>
      <trkpt lat="44.10147" lon="3.07754">
        <ele>378</ele>
        <time>2010-01-01T00:04:17Z</time>
      </trkpt>
      <trkpt lat="44.10138" lon="3.0776">
        <ele>378</ele>
        <time>2010-01-01T00:04:21Z</time>
      </trkpt>
      <trkpt lat="44.10123" lon="3.0777">
        <ele>378</ele>
        <time>2010-01-01T00:04:28Z</time>
      </trkpt>
      <trkpt lat="44.10113" lon="3.07776">
        <ele>378</ele>
        <time>2010-01-01T00:04:32Z</time>
      </trkpt>
      <trkpt lat="44.10103" lon="3.07782">
        <ele>379</ele>
        <time>2010-01-01T00:04:37Z</time>
      </trkpt>
      <trkpt lat="44.10094" lon="3.07788">
        <ele>379</ele>
        <time>2010-01-01T00:04:41Z</time>
      </trkpt>
      <trkpt lat="44.10084" lon="3.07794">
        <ele>380</ele>
        <time>2010-01-01T00:04:45Z</time>
      </trkpt>
      <trkpt lat="44.10074" lon="3.078">
        <ele>380</ele>
        <time>2010-01-01T00:04:49Z</time>
      </trkpt>
      <trkpt lat="44.10064" lon="3.07806">
        <ele>381</ele>
        <time>2010-01-01T00:04:54Z</time>
      </trkpt>
      <trkpt lat="44.10048" lon="3.07814">
        <ele>380</ele>
        <time>2010-01-01T00:05:01Z</time>
      </trkpt>
      <trkpt lat="44.10034" lon="3.07823">
        <ele>380</ele>
        <time>2010-01-01T00:05:07Z</time>
      </trkpt>
      <trkpt lat="44.10025" lon="3.0783">
        <ele>379</ele>
        <time>2010-01-01T00:05:11Z</time>
      </trkpt>
      <trkpt lat="44.10016" lon="3.07837">
        <ele>379</ele>
        <time>2010-01-01T00:05:15Z</time>
      </trkpt>
      <trkpt lat="44.10001" lon="3.07845">
        <ele>378</ele>
        <time>2010-01-01T00:05:21Z</time>
      </trkpt>
      <trkpt lat="44.09991" lon="3.07849">
        <ele>378</ele>
        <time>2010-01-01T00:05:26Z</time>
      </trkpt>
      <trkpt lat="44.0998" lon="3.07845">
        <ele>378</ele>
        <time>2010-01-01T00:05:30Z</time>
      </trkpt>
      <trkpt lat="44.09966" lon="3.07837">
        <ele>379</ele>
        <time>2010-01-01T00:05:36Z</time>
      </trkpt>
      <trkpt lat="44.09956" lon="3.07831">
        <ele>379</ele>
        <time>2010-01-01T00:05:40Z</time>
      </trkpt>
      <trkpt lat="44.0994" lon="3.07812">
        <ele>380</ele>
        <time>2010-01-01T00:05:49Z</time>
      </trkpt>
      <trkpt lat="44.09932" lon="3.07793">
        <ele>380</ele>
        <time>2010-01-01T00:05:55Z</time>
      </trkpt>
      <trkpt lat="44.09925" lon="3.07774">
        <ele>381</ele>
        <time>2010-01-01T00:06:01Z</time>
      </trkpt>
      <trkpt lat="44.09916" lon="3.0775">
        <ele>380</ele>
        <time>2010-01-01T00:06:09Z</time>
      </trkpt>
      <trkpt lat="44.09907" lon="3.07727">
        <ele>380</ele>
        <time>2010-01-01T00:06:17Z</time>
      </trkpt>
      <trkpt lat="44.0989" lon="3.07711">
        <ele>379</ele>
        <time>2010-01-01T00:06:25Z</time>
      </trkpt>
      <trkpt lat="44.09875" lon="3.07701">
        <ele>379</ele>
        <time>2010-01-01T00:06:31Z</time>
      </trkpt>
      <trkpt lat="44.0986" lon="3.07695">
        <ele>379</ele>
        <time>2010-01-01T00:06:38Z</time>
      </trkpt>
      <trkpt lat="44.09845" lon="3.07691">
        <ele>379</ele>
        <time>2010-01-01T00:06:44Z</time>
      </trkpt>
      <trkpt lat="44.09836" lon="3.07689">
        <ele>378</ele>
        <time>2010-01-01T00:06:48Z</time>
      </trkpt>
      <trkpt lat="44.09825" lon="3.07688">
        <ele>378</ele>
        <time>2010-01-01T00:06:52Z</time>
      </trkpt>
      <trkpt lat="44.09814" lon="3.07686">
        <ele>378</ele>
        <time>2010-01-01T00:06:57Z</time>
      </trkpt>
      <trkpt lat="44.09798" lon="3.07685">
        <ele>377</ele>
        <time>2010-01-01T00:07:03Z</time>
      </trkpt>
      <trkpt lat="44.09776" lon="3.07683">
        <ele>376</ele>
        <time>2010-01-01T00:07:12Z</time>
      </trkpt>
      <trkpt lat="44.09754" lon="3.0768">
        <ele>376</ele>
        <time>2010-01-01T00:07:21Z</time>
      </trkpt>
      <trkpt lat="44.09732" lon="3.07678">
        <ele>376</ele>
        <time>2010-01-01T00:07:29Z</time>
      </trkpt>
      <trkpt lat="44.09717" lon="3.07678">
        <ele>376</ele>
        <time>2010-01-01T00:07:35Z</time>
      </trkpt>
      <trkpt lat="44.09706" lon="3.07677">
        <ele>375</ele>
        <time>2010-01-01T00:07:40Z</time>
      </trkpt>
      <trkpt lat="44.0969" lon="3.07676">
        <ele>374</ele>
        <time>2010-01-01T00:07:46Z</time>
      </trkpt>
      <trkpt lat="44.09677" lon="3.07674">
        <ele>374</ele>
        <time>2010-01-01T00:07:52Z</time>
      </trkpt>
      <trkpt lat="44.09664" lon="3.07672">
        <ele>373</ele>
        <time>2010-01-01T00:07:57Z</time>
      </trkpt>
      <trkpt lat="44.09653" lon="3.07671">
        <ele>373</ele>
        <time>2010-01-01T00:08:01Z</time>
      </trkpt>
      <trkpt lat="44.09641" lon="3.0767">
        <ele>373</ele>
        <time>2010-01-01T00:08:06Z</time>
      </trkpt>
      <trkpt lat="44.09629" lon="3.07669">
        <ele>373</ele>
        <time>2010-01-01T00:08:11Z</time>
      </trkpt>
      <trkpt lat="44.09608" lon="3.07667">
        <ele>372</ele>
        <time>2010-01-01T00:08:19Z</time>
      </trkpt>
      <trkpt lat="44.09583" lon="3.07664">
        <ele>371</ele>
        <time>2010-01-01T00:08:29Z</time>
      </trkpt>
      <trkpt lat="44.09563" lon="3.07659">
        <ele>369</ele>
        <time>2010-01-01T00:08:37Z</time>
      </trkpt>
      <trkpt lat="44.09554" lon="3.07648">
        <ele>368</ele>
        <time>2010-01-01T00:08:42Z</time>
      </trkpt>
      <trkpt lat="44.09543" lon="3.07623">
        <ele>367</ele>
        <time>2010-01-01T00:08:50Z</time>
      </trkpt>
      <trkpt lat="44.0952" lon="3.07575">
        <ele>364</ele>
        <time>2010-01-01T00:09:07Z</time>
      </trkpt>
      <trkpt lat="44.09485" lon="3.07501">
        <ele>365</ele>
        <time>2010-01-01T00:09:32Z</time>
      </trkpt>
      <trkpt lat="44.09467" lon="3.07459">
        <ele>365</ele>
        <time>2010-01-01T00:09:47Z</time>
      </trkpt>
      <trkpt lat="44.09459" lon="3.07442">
        <ele>365</ele>
        <time>2010-01-01T00:09:52Z</time>
      </trkpt>
      <trkpt lat="44.09455" lon="3.0743">
        <ele>366</ele>
        <time>2010-01-01T00:09:56Z</time>
      </trkpt>
      <trkpt lat="44.0945" lon="3.07408">
        <ele>367</ele>
        <time>2010-01-01T00:10:03Z</time>
      </trkpt>
      <trkpt lat="44.09445" lon="3.07384">
        <ele>367</ele>
        <time>2010-01-01T00:10:10Z</time>
      </trkpt>
      <trkpt lat="44.09441" lon="3.07369">
        <ele>367</ele>
        <time>2010-01-01T00:10:15Z</time>
      </trkpt>
      <trkpt lat="44.09437" lon="3.07355">
        <ele>367</ele>
        <time>2010-01-01T00:10:19Z</time>
      </trkpt>
      <trkpt lat="44.09429" lon="3.07325">
        <ele>365</ele>
        <time>2010-01-01T00:10:28Z</time>
      </trkpt>
      <trkpt lat="44.09414" lon="3.07271">
        <ele>366</ele>
        <time>2010-01-01T00:10:45Z</time>
      </trkpt>
      <trkpt lat="44.09403" lon="3.07228">
        <ele>367</ele>
        <time>2010-01-01T00:10:58Z</time>
      </trkpt>
      <trkpt lat="44.09391" lon="3.07185">
        <ele>367</ele>
        <time>2010-01-01T00:11:11Z</time>
      </trkpt>
      <trkpt lat="44.09381" lon="3.07149">
        <ele>367</ele>
        <time>2010-01-01T00:11:22Z</time>
      </trkpt>
      <trkpt lat="44.09377" lon="3.07135">
        <ele>367</ele>
        <time>2010-01-01T00:11:27Z</time>
      </trkpt>
      <trkpt lat="44.09373" lon="3.0712">
        <ele>367</ele>
        <time>2010-01-01T00:11:31Z</time>
      </trkpt>
      <trkpt lat="44.09369" lon="3.07098">
        <ele>368</ele>
        <time>2010-01-01T00:11:38Z</time>
      </trkpt>
      <trkpt lat="44.09364" lon="3.07053">
        <ele>368</ele>
        <time>2010-01-01T00:11:51Z</time>
      </trkpt>
      <trkpt lat="44.0936" lon="3.07009">
        <ele>367</ele>
        <time>2010-01-01T00:12:04Z</time>
      </trkpt>
      <trkpt lat="44.09357" lon="3.06979">
        <ele>367</ele>
        <time>2010-01-01T00:12:12Z</time>
      </trkpt>
      <trkpt lat="44.09353" lon="3.06941">
        <ele>366</ele>
        <time>2010-01-01T00:12:23Z</time>
      </trkpt>
      <trkpt lat="44.0935" lon="3.06895">
        <ele>365</ele>
        <time>2010-01-01T00:12:37Z</time>
      </trkpt>
      <trkpt lat="44.09347" lon="3.06865">
        <ele>364</ele>
        <time>2010-01-01T00:12:45Z</time>
      </trkpt>
      <trkpt lat="44.09345" lon="3.06842">
        <ele>364</ele>
        <time>2010-01-01T00:12:52Z</time>
      </trkpt>
      <trkpt lat="44.09344" lon="3.06826">
        <ele>365</ele>
        <time>2010-01-01T00:12:57Z</time>
      </trkpt>
      <trkpt lat="44.09342" lon="3.06803">
        <ele>365</ele>
        <time>2010-01-01T00:13:03Z</time>
      </trkpt>
      <trkpt lat="44.09339" lon="3.06772">
        <ele>365</ele>
        <time>2010-01-01T00:13:12Z</time>
      </trkpt>
      <trkpt lat="44.09337" lon="3.06749">
        <ele>365</ele>
        <time>2010-01-01T00:13:19Z</time>
      </trkpt>
      <trkpt lat="44.09335" lon="3.06734">
        <ele>365</ele>
        <time>2010-01-01T00:13:23Z</time>
      </trkpt>
      <trkpt lat="44.09332" lon="3.06703">
        <ele>364</ele>
        <time>2010-01-01T00:13:32Z</time>
      </trkpt>
      <trkpt lat="44.09329" lon="3.06682">
        <ele>364</ele>
        <time>2010-01-01T00:13:39Z</time>
      </trkpt>
      <trkpt lat="44.09326" lon="3.06667">
        <ele>364</ele>
        <time>2010-01-01T00:13:43Z</time>
      </trkpt>
      <trkpt lat="44.09323" lon="3.06653">
        <ele>364</ele>
        <time>2010-01-01T00:13:47Z</time>
      </trkpt>
      <trkpt lat="44.09319" lon="3.06638">
        <ele>363</ele>
        <time>2010-01-01T00:13:52Z</time>
      </trkpt>
      <trkpt lat="44.09315" lon="3.06624">
        <ele>363</ele>
        <time>2010-01-01T00:13:56Z</time>
      </trkpt>
      <trkpt lat="44.0931" lon="3.0661">
        <ele>363</ele>
        <time>2010-01-01T00:14:01Z</time>
      </trkpt>
      <trkpt lat="44.09304" lon="3.06589">
        <ele>363</ele>
        <time>2010-01-01T00:14:07Z</time>
      </trkpt>
      <trkpt lat="44.09296" lon="3.06562">
        <ele>364</ele>
        <time>2010-01-01T00:14:15Z</time>
      </trkpt>
      <trkpt lat="44.09291" lon="3.06541">
        <ele>366</ele>
        <time>2010-01-01T00:14:22Z</time>
      </trkpt>
      <trkpt lat="44.09287" lon="3.06527">
        <ele>366</ele>
        <time>2010-01-01T00:14:26Z</time>
      </trkpt>
      <trkpt lat="44.09283" lon="3.06514">
        <ele>367</ele>
        <time>2010-01-01T00:14:30Z</time>
      </trkpt>
      <trkpt lat="44.09275" lon="3.06487">
        <ele>368</ele>
        <time>2010-01-01T00:14:39Z</time>
      </trkpt>
      <trkpt lat="44.09269" lon="3.06466">
        <ele>368</ele>
        <time>2010-01-01T00:14:45Z</time>
      </trkpt>
      <trkpt lat="44.09264" lon="3.06453">
        <ele>367</ele>
        <time>2010-01-01T00:14:49Z</time>
      </trkpt>
      <trkpt lat="44.0926" lon="3.0644">
        <ele>367</ele>
        <time>2010-01-01T00:14:53Z</time>
      </trkpt>
      <trkpt lat="44.0926" lon="3.06422">
        <ele>368</ele>
        <time>2010-01-01T00:14:58Z</time>
      </trkpt>
      <trkpt lat="44.09263" lon="3.06405">
        <ele>370</ele>
        <time>2010-01-01T00:15:03Z</time>
      </trkpt>
      <trkpt lat="44.09259" lon="3.06395">
        <ele>369</ele>
        <time>2010-01-01T00:15:07Z</time>
      </trkpt>
      <trkpt lat="44.09252" lon="3.06386">
        <ele>369</ele>
        <time>2010-01-01T00:15:11Z</time>
      </trkpt>
      <trkpt lat="44.09245" lon="3.06375">
        <ele>368</ele>
        <time>2010-01-01T00:15:15Z</time>
      </trkpt>
      <trkpt lat="44.09239" lon="3.06362">
        <ele>368</ele>
        <time>2010-01-01T00:15:19Z</time>
      </trkpt>
      <trkpt lat="44.09233" lon="3.06351">
        <ele>368</ele>
        <time>2010-01-01T00:15:24Z</time>
      </trkpt>
      <trkpt lat="44.09224" lon="3.06333">
        <ele>367</ele>
        <time>2010-01-01T00:15:30Z</time>
      </trkpt>
      <trkpt lat="44.09214" lon="3.06316">
        <ele>366</ele>
        <time>2010-01-01T00:15:36Z</time>
      </trkpt>
      <trkpt lat="44.09207" lon="3.06305">
        <ele>366</ele>
        <time>2010-01-01T00:15:40Z</time>
      </trkpt>
      <trkpt lat="44.092" lon="3.06294">
        <ele>366</ele>
        <time>2010-01-01T00:15:44Z</time>
      </trkpt>
      <trkpt lat="44.09193" lon="3.06284">
        <ele>365</ele>
        <time>2010-01-01T00:15:48Z</time>
      </trkpt>
      <trkpt lat="44.09186" lon="3.06273">
        <ele>366</ele>
        <time>2010-01-01T00:15:53Z</time>
      </trkpt>
      <trkpt lat="44.09178" lon="3.06264">
        <ele>366</ele>
        <time>2010-01-01T00:15:57Z</time>
      </trkpt>
      <trkpt lat="44.09171" lon="3.06255">
        <ele>367</ele>
        <time>2010-01-01T00:16:01Z</time>
      </trkpt>
      <trkpt lat="44.09163" lon="3.06245">
        <ele>367</ele>
        <time>2010-01-01T00:16:05Z</time>
      </trkpt>
      <trkpt lat="44.09146" lon="3.06228">
        <ele>368</ele>
        <time>2010-01-01T00:16:13Z</time>
      </trkpt>
      <trkpt lat="44.09134" lon="3.06216">
        <ele>368</ele>
        <time>2010-01-01T00:16:19Z</time>
      </trkpt>
      <trkpt lat="44.09125" lon="3.06209">
        <ele>369</ele>
        <time>2010-01-01T00:16:23Z</time>
      </trkpt>
      <trkpt lat="44.09107" lon="3.06194">
        <ele>370</ele>
        <time>2010-01-01T00:16:32Z</time>
      </trkpt>
      <trkpt lat="44.09092" lon="3.06183">
        <ele>371</ele>
        <time>2010-01-01T00:16:38Z</time>
      </trkpt>
      <trkpt lat="44.09082" lon="3.06177">
        <ele>373</ele>
        <time>2010-01-01T00:16:43Z</time>
      </trkpt>
      <trkpt lat="44.09072" lon="3.06171">
        <ele>373</ele>
        <time>2010-01-01T00:16:47Z</time>
      </trkpt>
      <trkpt lat="44.09062" lon="3.06166">
        <ele>374</ele>
        <time>2010-01-01T00:16:51Z</time>
      </trkpt>
      <trkpt lat="44.09047" lon="3.06161">
        <ele>373</ele>
        <time>2010-01-01T00:16:58Z</time>
      </trkpt>
      <trkpt lat="44.09031" lon="3.06159">
        <ele>373</ele>
        <time>2010-01-01T00:17:04Z</time>
      </trkpt>
      <trkpt lat="44.09022" lon="3.06159">
        <ele>372</ele>
        <time>2010-01-01T00:17:08Z</time>
      </trkpt>
      <trkpt lat="44.09011" lon="3.06158">
        <ele>371</ele>
        <time>2010-01-01T00:17:12Z</time>
      </trkpt>
      <trkpt lat="44.09" lon="3.06156">
        <ele>370</ele>
        <time>2010-01-01T00:17:17Z</time>
      </trkpt>
      <trkpt lat="44.08989" lon="3.06155">
        <ele>370</ele>
        <time>2010-01-01T00:17:21Z</time>
      </trkpt>
      <trkpt lat="44.08979" lon="3.06153">
        <ele>369</ele>
        <time>2010-01-01T00:17:25Z</time>
      </trkpt>
      <trkpt lat="44.08969" lon="3.06151">
        <ele>369</ele>
        <time>2010-01-01T00:17:29Z</time>
      </trkpt>
      <trkpt lat="44.08958" lon="3.06147">
        <ele>369</ele>
        <time>2010-01-01T00:17:33Z</time>
      </trkpt>
      <trkpt lat="44.08948" lon="3.06142">
        <ele>369</ele>
        <time>2010-01-01T00:17:38Z</time>
      </trkpt>
      <trkpt lat="44.08938" lon="3.06137">
        <ele>369</ele>
        <time>2010-01-01T00:17:42Z</time>
      </trkpt>
      <trkpt lat="44.08929" lon="3.0613">
        <ele>368</ele>
        <time>2010-01-01T00:17:46Z</time>
      </trkpt>
      <trkpt lat="44.08921" lon="3.06121">
        <ele>368</ele>
        <time>2010-01-01T00:17:50Z</time>
      </trkpt>
      <trkpt lat="44.08913" lon="3.06111">
        <ele>368</ele>
        <time>2010-01-01T00:17:55Z</time>
      </trkpt>
      <trkpt lat="44.08906" lon="3.061">
        <ele>369</ele>
        <time>2010-01-01T00:17:59Z</time>
      </trkpt>
      <trkpt lat="44.089" lon="3.06088">
        <ele>370</ele>
        <time>2010-01-01T00:18:03Z</time>
      </trkpt>
      <trkpt lat="44.08895" lon="3.06075">
        <ele>370</ele>
        <time>2010-01-01T00:18:07Z</time>
      </trkpt>
      <trkpt lat="44.08889" lon="3.06056">
        <ele>371</ele>
        <time>2010-01-01T00:18:13Z</time>
      </trkpt>
      <trkpt lat="44.08885" lon="3.06042">
        <ele>372</ele>
        <time>2010-01-01T00:18:17Z</time>
      </trkpt>
      <trkpt lat="44.08882" lon="3.06022">
        <ele>374</ele>
        <time>2010-01-01T00:18:23Z</time>
      </trkpt>
      <trkpt lat="44.0888" lon="3.06">
        <ele>375</ele>
        <time>2010-01-01T00:18:30Z</time>
      </trkpt>
      <trkpt lat="44.0888" lon="3.05986">
        <ele>376</ele>
        <time>2010-01-01T00:18:34Z</time>
      </trkpt>
      <trkpt lat="44.0888" lon="3.05971">
        <ele>377</ele>
        <time>2010-01-01T00:18:38Z</time>
      </trkpt>
      <trkpt lat="44.08881" lon="3.05956">
        <ele>378</ele>
        <time>2010-01-01T00:18:42Z</time>
      </trkpt>
      <trkpt lat="44.08884" lon="3.05925">
        <ele>378</ele>
        <time>2010-01-01T00:18:51Z</time>
      </trkpt>
      <trkpt lat="44.08888" lon="3.05895">
        <ele>376</ele>
        <time>2010-01-01T00:19:00Z</time>
      </trkpt>
      <trkpt lat="44.08892" lon="3.05866">
        <ele>374</ele>
        <time>2010-01-01T00:19:09Z</time>
      </trkpt>
      <trkpt lat="44.08898" lon="3.05837">
        <ele>375</ele>
        <time>2010-01-01T00:19:17Z</time>
      </trkpt>
      <trkpt lat="44.08902" lon="3.05816">
        <ele>375</ele>
        <time>2010-01-01T00:19:24Z</time>
      </trkpt>
      <trkpt lat="44.08905" lon="3.05801">
        <ele>375</ele>
        <time>2010-01-01T00:19:28Z</time>
      </trkpt>
      <trkpt lat="44.08908" lon="3.05787">
        <ele>375</ele>
        <time>2010-01-01T00:19:32Z</time>
      </trkpt>
      <trkpt lat="44.08912" lon="3.05763">
        <ele>374</ele>
        <time>2010-01-01T00:19:39Z</time>
      </trkpt>
      <trkpt lat="44.08917" lon="3.05731">
        <ele>373</ele>
        <time>2010-01-01T00:19:49Z</time>
      </trkpt>
      <trkpt lat="44.08923" lon="3.05696">
        <ele>372</ele>
        <time>2010-01-01T00:19:59Z</time>
      </trkpt>
      <trkpt lat="44.08928" lon="3.0567">
        <ele>373</ele>
        <time>2010-01-01T00:20:07Z</time>
      </trkpt>
      <trkpt lat="44.0893" lon="3.05652">
        <ele>372</ele>
        <time>2010-01-01T00:20:12Z</time>
      </trkpt>
      <trkpt lat="44.08933" lon="3.05626">
        <ele>372</ele>
        <time>2010-01-01T00:20:20Z</time>
      </trkpt>
      <trkpt lat="44.08936" lon="3.05609">
        <ele>373</ele>
        <time>2010-01-01T00:20:25Z</time>
      </trkpt>
      <trkpt lat="44.08939" lon="3.05592">
        <ele>373</ele>
        <time>2010-01-01T00:20:30Z</time>
      </trkpt>
      <trkpt lat="44.08942" lon="3.05576">
        <ele>374</ele>
        <time>2010-01-01T00:20:35Z</time>
      </trkpt>
      <trkpt lat="44.08945" lon="3.05559">
        <ele>374</ele>
        <time>2010-01-01T00:20:39Z</time>
      </trkpt>
      <trkpt lat="44.08948" lon="3.05543">
        <ele>373</ele>
        <time>2010-01-01T00:20:44Z</time>
      </trkpt>
      <trkpt lat="44.08952" lon="3.05526">
        <ele>373</ele>
        <time>2010-01-01T00:20:49Z</time>
      </trkpt>
      <trkpt lat="44.08955" lon="3.0551">
        <ele>372</ele>
        <time>2010-01-01T00:20:54Z</time>
      </trkpt>
      <trkpt lat="44.08958" lon="3.05493">
        <ele>372</ele>
        <time>2010-01-01T00:20:59Z</time>
      </trkpt>
      <trkpt lat="44.08961" lon="3.05476">
        <ele>371</ele>
        <time>2010-01-01T00:21:04Z</time>
      </trkpt>
      <trkpt lat="44.08964" lon="3.0546">
        <ele>371</ele>
        <time>2010-01-01T00:21:09Z</time>
      </trkpt>
      <trkpt lat="44.08967" lon="3.05444">
        <ele>371</ele>
        <time>2010-01-01T00:21:14Z</time>
      </trkpt>
      <trkpt lat="44.08972" lon="3.05428">
        <ele>371</ele>
        <time>2010-01-01T00:21:19Z</time>
      </trkpt>
      <trkpt lat="44.08978" lon="3.05413">
        <ele>372</ele>
        <time>2010-01-01T00:21:24Z</time>
      </trkpt>
      <trkpt lat="44.08985" lon="3.05398">
        <ele>372</ele>
        <time>2010-01-01T00:21:29Z</time>
      </trkpt>
      <trkpt lat="44.08992" lon="3.05383">
        <ele>372</ele>
        <time>2010-01-01T00:21:34Z</time>
      </trkpt>
      <trkpt lat="44.08999" lon="3.05367">
        <ele>372</ele>
        <time>2010-01-01T00:21:39Z</time>
      </trkpt>
      <trkpt lat="44.09006" lon="3.05352">
        <ele>371</ele>
        <time>2010-01-01T00:21:45Z</time>
      </trkpt>
      <trkpt lat="44.09013" lon="3.05336">
        <ele>369</ele>
        <time>2010-01-01T00:21:50Z</time>
      </trkpt>
      <trkpt lat="44.0902" lon="3.05321">
        <ele>367</ele>
        <time>2010-01-01T00:21:55Z</time>
      </trkpt>
      <trkpt lat="44.09028" lon="3.05305">
        <ele>364</ele>
        <time>2010-01-01T00:22:01Z</time>
      </trkpt>
      <trkpt lat="44.09035" lon="3.05289">
        <ele>365</ele>
        <time>2010-01-01T00:22:06Z</time>
      </trkpt>
      <trkpt lat="44.09043" lon="3.05273">
        <ele>364</ele>
        <time>2010-01-01T00:22:12Z</time>
      </trkpt>
      <trkpt lat="44.0905" lon="3.05257">
        <ele>364</ele>
        <time>2010-01-01T00:22:17Z</time>
      </trkpt>
      <trkpt lat="44.09058" lon="3.05241">
        <ele>363</ele>
        <time>2010-01-01T00:22:23Z</time>
      </trkpt>
      <trkpt lat="44.09067" lon="3.05225">
        <ele>362</ele>
        <time>2010-01-01T00:22:28Z</time>
      </trkpt>
      <trkpt lat="44.09075" lon="3.0521">
        <ele>362</ele>
        <time>2010-01-01T00:22:34Z</time>
      </trkpt>
      <trkpt lat="44.09084" lon="3.05195">
        <ele>362</ele>
        <time>2010-01-01T00:22:39Z</time>
      </trkpt>
      <trkpt lat="44.09093" lon="3.05181">
        <ele>362</ele>
        <time>2010-01-01T00:22:45Z</time>
      </trkpt>
      <trkpt lat="44.09101" lon="3.05167">
        <ele>362</ele>
        <time>2010-01-01T00:22:50Z</time>
      </trkpt>
      <trkpt lat="44.0911" lon="3.05153">
        <ele>362</ele>
        <time>2010-01-01T00:22:55Z</time>
      </trkpt>
      <trkpt lat="44.09118" lon="3.05139">
        <ele>363</ele>
        <time>2010-01-01T00:23:01Z</time>
      </trkpt>
      <trkpt lat="44.09127" lon="3.05125">
        <ele>363</ele>
        <time>2010-01-01T00:23:06Z</time>
      </trkpt>
      <trkpt lat="44.09135" lon="3.05111">
        <ele>363</ele>
        <time>2010-01-01T00:23:11Z</time>
      </trkpt>
      <trkpt lat="44.09143" lon="3.05098">
        <ele>363</ele>
        <time>2010-01-01T00:23:16Z</time>
      </trkpt>
      <trkpt lat="44.0915" lon="3.05084">
        <ele>363</ele>
        <time>2010-01-01T00:23:21Z</time>
      </trkpt>
      <trkpt lat="44.09158" lon="3.0507">
        <ele>364</ele>
        <time>2010-01-01T00:23:26Z</time>
      </trkpt>
      <trkpt lat="44.09164" lon="3.05056">
        <ele>365</ele>
        <time>2010-01-01T00:23:31Z</time>
      </trkpt>
      <trkpt lat="44.09171" lon="3.05041">
        <ele>365</ele>
        <time>2010-01-01T00:23:36Z</time>
      </trkpt>
      <trkpt lat="44.09176" lon="3.05026">
        <ele>365</ele>
        <time>2010-01-01T00:23:40Z</time>
      </trkpt>
      <trkpt lat="44.09181" lon="3.05011">
        <ele>365</ele>
        <time>2010-01-01T00:23:45Z</time>
      </trkpt>
      <trkpt lat="44.09186" lon="3.04995">
        <ele>365</ele>
        <time>2010-01-01T00:23:50Z</time>
      </trkpt>
      <trkpt lat="44.0919" lon="3.04979">
        <ele>365</ele>
        <time>2010-01-01T00:23:55Z</time>
      </trkpt>
      <trkpt lat="44.09193" lon="3.04962">
        <ele>364</ele>
        <time>2010-01-01T00:24:00Z</time>
      </trkpt>
      <trkpt lat="44.09197" lon="3.04945">
        <ele>365</ele>
        <time>2010-01-01T00:24:05Z</time>
      </trkpt>
      <trkpt lat="44.092" lon="3.04929">
        <ele>365</ele>
        <time>2010-01-01T00:24:10Z</time>
      </trkpt>
      <trkpt lat="44.09203" lon="3.04912">
        <ele>365</ele>
        <time>2010-01-01T00:24:15Z</time>
      </trkpt>
      <trkpt lat="44.09206" lon="3.04895">
        <ele>366</ele>
        <time>2010-01-01T00:24:20Z</time>
      </trkpt>
      <trkpt lat="44.09208" lon="3.04879">
        <ele>367</ele>
        <time>2010-01-01T00:24:25Z</time>
      </trkpt>
      <trkpt lat="44.09211" lon="3.04863">
        <ele>368</ele>
        <time>2010-01-01T00:24:30Z</time>
      </trkpt>
      <trkpt lat="44.09214" lon="3.04847">
        <ele>368</ele>
        <time>2010-01-01T00:24:34Z</time>
      </trkpt>
      <trkpt lat="44.09216" lon="3.0483">
        <ele>368</ele>
        <time>2010-01-01T00:24:39Z</time>
      </trkpt>
      <trkpt lat="44.09217" lon="3.04813">
        <ele>369</ele>
        <time>2010-01-01T00:24:44Z</time>
      </trkpt>
      <trkpt lat="44.09217" lon="3.04796">
        <ele>369</ele>
        <time>2010-01-01T00:24:49Z</time>
      </trkpt>
      <trkpt lat="44.09218" lon="3.04779">
        <ele>370</ele>
        <time>2010-01-01T00:24:54Z</time>
      </trkpt>
      <trkpt lat="44.09217" lon="3.04762">
        <ele>370</ele>
        <time>2010-01-01T00:24:59Z</time>
      </trkpt>
      <trkpt lat="44.09217" lon="3.04745">
        <ele>370</ele>
        <time>2010-01-01T00:25:04Z</time>
      </trkpt>
      <trkpt lat="44.09216" lon="3.04728">
        <ele>368</ele>
        <time>2010-01-01T00:25:09Z</time>
      </trkpt>
      <trkpt lat="44.09214" lon="3.04711">
        <ele>367</ele>
        <time>2010-01-01T00:25:14Z</time>
      </trkpt>
      <trkpt lat="44.09212" lon="3.04694">
        <ele>366</ele>
        <time>2010-01-01T00:25:19Z</time>
      </trkpt>
      <trkpt lat="44.09209" lon="3.04677">
        <ele>367</ele>
        <time>2010-01-01T00:25:23Z</time>
      </trkpt>
      <trkpt lat="44.09207" lon="3.04661">
        <ele>367</ele>
        <time>2010-01-01T00:25:28Z</time>
      </trkpt>
      <trkpt lat="44.09204" lon="3.04645">
        <ele>368</ele>
        <time>2010-01-01T00:25:33Z</time>
      </trkpt>
      <trkpt lat="44.09201" lon="3.04628">
        <ele>367</ele>
        <time>2010-01-01T00:25:38Z</time>
      </trkpt>
      <trkpt lat="44.09199" lon="3.04612">
        <ele>367</ele>
        <time>2010-01-01T00:25:43Z</time>
      </trkpt>
      <trkpt lat="44.09196" lon="3.04595">
        <ele>366</ele>
        <time>2010-01-01T00:25:48Z</time>
      </trkpt>
      <trkpt lat="44.09193" lon="3.04579">
        <ele>366</ele>
        <time>2010-01-01T00:25:53Z</time>
      </trkpt>
      <trkpt lat="44.09189" lon="3.04562">
        <ele>367</ele>
        <time>2010-01-01T00:25:57Z</time>
      </trkpt>
      <trkpt lat="44.09186" lon="3.04547">
        <ele>368</ele>
        <time>2010-01-01T00:26:02Z</time>
      </trkpt>
      <trkpt lat="44.09183" lon="3.04531">
        <ele>368</ele>
        <time>2010-01-01T00:26:07Z</time>
      </trkpt>
      <trkpt lat="44.09179" lon="3.04515">
        <ele>368</ele>
        <time>2010-01-01T00:26:12Z</time>
      </trkpt>
      <trkpt lat="44.09176" lon="3.04499">
        <ele>368</ele>
        <time>2010-01-01T00:26:17Z</time>
      </trkpt>
      <trkpt lat="44.09172" lon="3.04483">
        <ele>366</ele>
        <time>2010-01-01T00:26:21Z</time>
      </trkpt>
      <trkpt lat="44.09168" lon="3.04467">
        <ele>364</ele>
        <time>2010-01-01T00:26:26Z</time>
      </trkpt>
      <trkpt lat="44.09164" lon="3.04451">
        <ele>362</ele>
        <time>2010-01-01T00:26:31Z</time>
      </trkpt>
      <trkpt lat="44.09161" lon="3.04434">
        <ele>361</ele>
        <time>2010-01-01T00:26:36Z</time>
      </trkpt>
      <trkpt lat="44.09157" lon="3.04418">
        <ele>360</ele>
        <time>2010-01-01T00:26:41Z</time>
      </trkpt>
      <trkpt lat="44.09154" lon="3.04402">
        <ele>360</ele>
        <time>2010-01-01T00:26:46Z</time>
      </trkpt>
      <trkpt lat="44.09151" lon="3.04386">
        <ele>361</ele>
        <time>2010-01-01T00:26:51Z</time>
      </trkpt>
      <trkpt lat="44.09148" lon="3.04369">
        <ele>361</ele>
        <time>2010-01-01T00:26:55Z</time>
      </trkpt>
      <trkpt lat="44.09146" lon="3.04353">
        <ele>362</ele>
        <time>2010-01-01T00:27:00Z</time>
      </trkpt>
      <trkpt lat="44.09144" lon="3.04336">
        <ele>363</ele>
        <time>2010-01-01T00:27:05Z</time>
      </trkpt>
      <trkpt lat="44.09142" lon="3.04318">
        <ele>363</ele>
        <time>2010-01-01T00:27:10Z</time>
      </trkpt>
      <trkpt lat="44.09142" lon="3.04301">
        <ele>364</ele>
        <time>2010-01-01T00:27:15Z</time>
      </trkpt>
      <trkpt lat="44.09142" lon="3.04284">
        <ele>364</ele>
        <time>2010-01-01T00:27:20Z</time>
      </trkpt>
      <trkpt lat="44.09142" lon="3.04267">
        <ele>364</ele>
        <time>2010-01-01T00:27:25Z</time>
      </trkpt>
      <trkpt lat="44.09143" lon="3.0425">
        <ele>363</ele>
        <time>2010-01-01T00:27:30Z</time>
      </trkpt>
      <trkpt lat="44.09145" lon="3.04233">
        <ele>363</ele>
        <time>2010-01-01T00:27:35Z</time>
      </trkpt>
      <trkpt lat="44.09147" lon="3.04216">
        <ele>363</ele>
        <time>2010-01-01T00:27:40Z</time>
      </trkpt>
      <trkpt lat="44.09151" lon="3.04199">
        <ele>362</ele>
        <time>2010-01-01T00:27:45Z</time>
      </trkpt>
      <trkpt lat="44.09155" lon="3.04183">
        <ele>362</ele>
        <time>2010-01-01T00:27:50Z</time>
      </trkpt>
      <trkpt lat="44.0916" lon="3.04167">
        <ele>362</ele>
        <time>2010-01-01T00:27:55Z</time>
      </trkpt>
      <trkpt lat="44.09166" lon="3.04152">
        <ele>361</ele>
        <time>2010-01-01T00:28:00Z</time>
      </trkpt>
      <trkpt lat="44.09173" lon="3.04137">
        <ele>361</ele>
        <time>2010-01-01T00:28:05Z</time>
      </trkpt>
      <trkpt lat="44.0918" lon="3.04123">
        <ele>361</ele>
        <time>2010-01-01T00:28:10Z</time>
      </trkpt>
      <trkpt lat="44.09188" lon="3.0411">
        <ele>360</ele>
        <time>2010-01-01T00:28:15Z</time>
      </trkpt>
      <trkpt lat="44.09197" lon="3.04097">
        <ele>358</ele>
        <time>2010-01-01T00:28:20Z</time>
      </trkpt>
      <trkpt lat="44.09205" lon="3.04084">
        <ele>356</ele>
        <time>2010-01-01T00:28:25Z</time>
      </trkpt>
      <trkpt lat="44.09213" lon="3.04072">
        <ele>356</ele>
        <time>2010-01-01T00:28:30Z</time>
      </trkpt>
      <trkpt lat="44.09221" lon="3.0406">
        <ele>355</ele>
        <time>2010-01-01T00:28:34Z</time>
      </trkpt>
      <trkpt lat="44.09229" lon="3.04048">
        <ele>356</ele>
        <time>2010-01-01T00:28:39Z</time>
      </trkpt>
      <trkpt lat="44.09237" lon="3.04036">
        <ele>357</ele>
        <time>2010-01-01T00:28:44Z</time>
      </trkpt>
      <trkpt lat="44.09246" lon="3.04023">
        <ele>359</ele>
        <time>2010-01-01T00:28:49Z</time>
      </trkpt>
      <trkpt lat="44.09255" lon="3.04011">
        <ele>360</ele>
        <time>2010-01-01T00:28:54Z</time>
      </trkpt>
      <trkpt lat="44.09263" lon="3.03999">
        <ele>363</ele>
        <time>2010-01-01T00:28:59Z</time>
      </trkpt>
      <trkpt lat="44.09272" lon="3.03987">
        <ele>363</ele>
        <time>2010-01-01T00:29:03Z</time>
      </trkpt>
      <trkpt lat="44.0928" lon="3.03975">
        <ele>364</ele>
        <time>2010-01-01T00:29:08Z</time>
      </trkpt>
      <trkpt lat="44.09288" lon="3.03962">
        <ele>363</ele>
        <time>2010-01-01T00:29:13Z</time>
      </trkpt>
      <trkpt lat="44.09296" lon="3.0395">
        <ele>363</ele>
        <time>2010-01-01T00:29:18Z</time>
      </trkpt>
      <trkpt lat="44.09304" lon="3.03937">
        <ele>361</ele>
        <time>2010-01-01T00:29:23Z</time>
      </trkpt>
      <trkpt lat="44.09312" lon="3.03925">
        <ele>361</ele>
        <time>2010-01-01T00:29:28Z</time>
      </trkpt>
      <trkpt lat="44.09319" lon="3.03912">
        <ele>362</ele>
        <time>2010-01-01T00:29:32Z</time>
      </trkpt>
      <trkpt lat="44.09327" lon="3.03899">
        <ele>362</ele>
        <time>2010-01-01T00:29:37Z</time>
      </trkpt>
      <trkpt lat="44.09334" lon="3.03885">
        <ele>362</ele>
        <time>2010-01-01T00:29:42Z</time>
      </trkpt>
      <trkpt lat="44.09342" lon="3.03872">
        <ele>363</ele>
        <time>2010-01-01T00:29:47Z</time>
      </trkpt>
      <trkpt lat="44.09349" lon="3.03858">
        <ele>364</ele>
        <time>2010-01-01T00:29:52Z</time>
      </trkpt>
      <trkpt lat="44.09356" lon="3.03844">
        <ele>365</ele>
        <time>2010-01-01T00:29:57Z</time>
      </trkpt>
      <trkpt lat="44.09363" lon="3.03828">
        <ele>364</ele>
        <time>2010-01-01T00:30:02Z</time>
      </trkpt>
      <trkpt lat="44.0937" lon="3.03812">
        <ele>364</ele>
        <time>2010-01-01T00:30:07Z</time>
      </trkpt>
      <trkpt lat="44.09376" lon="3.03796">
        <ele>363</ele>
        <time>2010-01-01T00:30:13Z</time>
      </trkpt>
      <trkpt lat="44.09381" lon="3.03779">
        <ele>361</ele>
        <time>2010-01-01T00:30:18Z</time>
      </trkpt>
      <trkpt lat="44.09386" lon="3.03762">
        <ele>361</ele>
        <time>2010-01-01T00:30:23Z</time>
      </trkpt>
      <trkpt lat="44.09391" lon="3.03745">
        <ele>360</ele>
        <time>2010-01-01T00:30:29Z</time>
      </trkpt>
      <trkpt lat="44.09396" lon="3.03728">
        <ele>361</ele>
        <time>2010-01-01T00:30:34Z</time>
      </trkpt>
      <trkpt lat="44.09399" lon="3.03711">
        <ele>362</ele>
        <time>2010-01-01T00:30:39Z</time>
      </trkpt>
      <trkpt lat="44.09403" lon="3.03694">
        <ele>362</ele>
        <time>2010-01-01T00:30:44Z</time>
      </trkpt>
      <trkpt lat="44.09406" lon="3.03677">
        <ele>361</ele>
        <time>2010-01-01T00:30:49Z</time>
      </trkpt>
      <trkpt lat="44.09409" lon="3.0366">
        <ele>361</ele>
        <time>2010-01-01T00:30:54Z</time>
      </trkpt>
      <trkpt lat="44.09411" lon="3.03644">
        <ele>360</ele>
        <time>2010-01-01T00:30:59Z</time>
      </trkpt>
      <trkpt lat="44.09413" lon="3.03626">
        <ele>360</ele>
        <time>2010-01-01T00:31:04Z</time>
      </trkpt>
      <trkpt lat="44.09415" lon="3.0361">
        <ele>360</ele>
        <time>2010-01-01T00:31:09Z</time>
      </trkpt>
      <trkpt lat="44.09417" lon="3.03593">
        <ele>360</ele>
        <time>2010-01-01T00:31:14Z</time>
      </trkpt>
      <trkpt lat="44.09418" lon="3.03576">
        <ele>361</ele>
        <time>2010-01-01T00:31:19Z</time>
      </trkpt>
      <trkpt lat="44.0942" lon="3.03559">
        <ele>362</ele>
        <time>2010-01-01T00:31:23Z</time>
      </trkpt>
      <trkpt lat="44.09421" lon="3.03543">
        <ele>362</ele>
        <time>2010-01-01T00:31:28Z</time>
      </trkpt>
      <trkpt lat="44.09423" lon="3.03526">
        <ele>361</ele>
        <time>2010-01-01T00:31:33Z</time>
      </trkpt>
      <trkpt lat="44.09424" lon="3.03509">
        <ele>360</ele>
        <time>2010-01-01T00:31:38Z</time>
      </trkpt>
      <trkpt lat="44.09426" lon="3.03493">
        <ele>359</ele>
        <time>2010-01-01T00:31:43Z</time>
      </trkpt>
      <trkpt lat="44.09428" lon="3.03476">
        <ele>358</ele>
        <time>2010-01-01T00:31:47Z</time>
      </trkpt>
      <trkpt lat="44.0943" lon="3.0346">
        <ele>358</ele>
        <time>2010-01-01T00:31:52Z</time>
      </trkpt>
      <trkpt lat="44.09431" lon="3.03443">
        <ele>358</ele>
        <time>2010-01-01T00:31:57Z</time>
      </trkpt>
      <trkpt lat="44.09432" lon="3.03426">
        <ele>359</ele>
        <time>2010-01-01T00:32:02Z</time>
      </trkpt>
      <trkpt lat="44.09433" lon="3.0341">
        <ele>359</ele>
        <time>2010-01-01T00:32:07Z</time>
      </trkpt>
      <trkpt lat="44.09432" lon="3.03393">
        <ele>360</ele>
        <time>2010-01-01T00:32:11Z</time>
      </trkpt>
      <trkpt lat="44.09431" lon="3.03376">
        <ele>361</ele>
        <time>2010-01-01T00:32:16Z</time>
      </trkpt>
      <trkpt lat="44.09429" lon="3.0336">
        <ele>361</ele>
        <time>2010-01-01T00:32:21Z</time>
      </trkpt>
      <trkpt lat="44.09425" lon="3.03344">
        <ele>361</ele>
        <time>2010-01-01T00:32:26Z</time>
      </trkpt>
      <trkpt lat="44.09422" lon="3.03328">
        <ele>361</ele>
        <time>2010-01-01T00:32:31Z</time>
      </trkpt>
      <trkpt lat="44.09418" lon="3.03312">
        <ele>360</ele>
        <time>2010-01-01T00:32:36Z</time>
      </trkpt>
      <trkpt lat="44.09414" lon="3.03296">
        <ele>361</ele>
        <time>2010-01-01T00:32:40Z</time>
      </trkpt>
      <trkpt lat="44.09409" lon="3.0328">
        <ele>362</ele>
        <time>2010-01-01T00:32:45Z</time>
      </trkpt>
      <trkpt lat="44.09405" lon="3.03265">
        <ele>364</ele>
        <time>2010-01-01T00:32:50Z</time>
      </trkpt>
      <trkpt lat="44.09399" lon="3.03249">
        <ele>365</ele>
        <time>2010-01-01T00:32:55Z</time>
      </trkpt>
      <trkpt lat="44.09394" lon="3.03234">
        <ele>365</ele>
        <time>2010-01-01T00:33:00Z</time>
      </trkpt>
      <trkpt lat="44.09388" lon="3.03219">
        <ele>365</ele>
        <time>2010-01-01T00:33:05Z</time>
      </trkpt>
      <trkpt lat="44.09382" lon="3.03205">
        <ele>366</ele>
        <time>2010-01-01T00:33:10Z</time>
      </trkpt>
      <trkpt lat="44.09376" lon="3.03191">
        <ele>367</ele>
        <time>2010-01-01T00:33:14Z</time>
      </trkpt>
      <trkpt lat="44.0937" lon="3.03177">
        <ele>368</ele>
        <time>2010-01-01T00:33:19Z</time>
      </trkpt>
      <trkpt lat="44.09362" lon="3.03164">
        <ele>368</ele>
        <time>2010-01-01T00:33:24Z</time>
      </trkpt>
      <trkpt lat="44.09355" lon="3.03151">
        <ele>367</ele>
        <time>2010-01-01T00:33:29Z</time>
      </trkpt>
      <trkpt lat="44.09347" lon="3.03139">
        <ele>366</ele>
        <time>2010-01-01T00:33:33Z</time>
      </trkpt>
      <trkpt lat="44.09339" lon="3.03126">
        <ele>365</ele>
        <time>2010-01-01T00:33:38Z</time>
      </trkpt>
      <trkpt lat="44.09331" lon="3.03115">
        <ele>365</ele>
        <time>2010-01-01T00:33:43Z</time>
      </trkpt>
      <trkpt lat="44.09322" lon="3.03103">
        <ele>365</ele>
        <time>2010-01-01T00:33:48Z</time>
      </trkpt>
      <trkpt lat="44.09314" lon="3.03092">
        <ele>364</ele>
        <time>2010-01-01T00:33:52Z</time>
      </trkpt>
      <trkpt lat="44.09305" lon="3.0308">
        <ele>363</ele>
        <time>2010-01-01T00:33:57Z</time>
      </trkpt>
      <trkpt lat="44.09296" lon="3.03069">
        <ele>363</ele>
        <time>2010-01-01T00:34:02Z</time>
      </trkpt>
      <trkpt lat="44.09287" lon="3.03058">
        <ele>362</ele>
        <time>2010-01-01T00:34:07Z</time>
      </trkpt>
      <trkpt lat="44.09277" lon="3.03048">
        <ele>362</ele>
        <time>2010-01-01T00:34:11Z</time>
      </trkpt>
      <trkpt lat="44.09267" lon="3.03038">
        <ele>363</ele>
        <time>2010-01-01T00:34:17Z</time>
      </trkpt>
      <trkpt lat="44.09258" lon="3.03029">
        <ele>364</ele>
        <time>2010-01-01T00:34:21Z</time>
      </trkpt>
      <trkpt lat="44.09247" lon="3.03019">
        <ele>364</ele>
        <time>2010-01-01T00:34:26Z</time>
      </trkpt>
      <trkpt lat="44.09237" lon="3.0301">
        <ele>364</ele>
        <time>2010-01-01T00:34:31Z</time>
      </trkpt>
      <trkpt lat="44.09226" lon="3.03001">
        <ele>363</ele>
        <time>2010-01-01T00:34:36Z</time>
      </trkpt>
      <trkpt lat="44.09214" lon="3.02991">
        <ele>363</ele>
        <time>2010-01-01T00:34:42Z</time>
      </trkpt>
      <trkpt lat="44.09203" lon="3.02982">
        <ele>363</ele>
        <time>2010-01-01T00:34:47Z</time>
      </trkpt>
      <trkpt lat="44.09192" lon="3.02973">
        <ele>363</ele>
        <time>2010-01-01T00:34:52Z</time>
      </trkpt>
      <trkpt lat="44.09181" lon="3.02963">
        <ele>362</ele>
        <time>2010-01-01T00:34:57Z</time>
      </trkpt>
      <trkpt lat="44.0917" lon="3.02953">
        <ele>360</ele>
        <time>2010-01-01T00:35:03Z</time>
      </trkpt>
      <trkpt lat="44.09159" lon="3.02943">
        <ele>359</ele>
        <time>2010-01-01T00:35:08Z</time>
      </trkpt>
      <trkpt lat="44.09148" lon="3.02934">
        <ele>359</ele>
        <time>2010-01-01T00:35:13Z</time>
      </trkpt>
      <trkpt lat="44.09138" lon="3.02925">
        <ele>358</ele>
        <time>2010-01-01T00:35:18Z</time>
      </trkpt>
      <trkpt lat="44.09127" lon="3.02915">
        <ele>359</ele>
        <time>2010-01-01T00:35:23Z</time>
      </trkpt>
      <trkpt lat="44.09116" lon="3.02906">
        <ele>360</ele>
        <time>2010-01-01T00:35:28Z</time>
      </trkpt>
      <trkpt lat="44.09105" lon="3.02897">
        <ele>360</ele>
        <time>2010-01-01T00:35:33Z</time>
      </trkpt>
      <trkpt lat="44.09095" lon="3.02888">
        <ele>360</ele>
        <time>2010-01-01T00:35:38Z</time>
      </trkpt>
      <trkpt lat="44.09084" lon="3.02878">
        <ele>361</ele>
        <time>2010-01-01T00:35:43Z</time>
      </trkpt>
      <trkpt lat="44.09072" lon="3.0287">
        <ele>362</ele>
        <time>2010-01-01T00:35:48Z</time>
      </trkpt>
      <trkpt lat="44.0906" lon="3.02863">
        <ele>362</ele>
        <time>2010-01-01T00:35:54Z</time>
      </trkpt>
      <trkpt lat="44.09047" lon="3.02858">
        <ele>362</ele>
        <time>2010-01-01T00:35:59Z</time>
      </trkpt>
      <trkpt lat="44.09034" lon="3.02853">
        <ele>363</ele>
        <time>2010-01-01T00:36:04Z</time>
      </trkpt>
      <trkpt lat="44.09021" lon="3.02848">
        <ele>363</ele>
        <time>2010-01-01T00:36:10Z</time>
      </trkpt>
      <trkpt lat="44.09009" lon="3.02842">
        <ele>363</ele>
        <time>2010-01-01T00:36:15Z</time>
      </trkpt>
      <trkpt lat="44.08997" lon="3.02836">
        <ele>363</ele>
        <time>2010-01-01T00:36:20Z</time>
      </trkpt>
      <trkpt lat="44.08985" lon="3.0283">
        <ele>361</ele>
        <time>2010-01-01T00:36:25Z</time>
      </trkpt>
      <trkpt lat="44.08973" lon="3.02825">
        <ele>360</ele>
        <time>2010-01-01T00:36:30Z</time>
      </trkpt>
      <trkpt lat="44.08961" lon="3.02819">
        <ele>359</ele>
        <time>2010-01-01T00:36:35Z</time>
      </trkpt>
      <trkpt lat="44.08949" lon="3.02813">
        <ele>358</ele>
        <time>2010-01-01T00:36:40Z</time>
      </trkpt>
      <trkpt lat="44.08937" lon="3.02806">
        <ele>356</ele>
        <time>2010-01-01T00:36:45Z</time>
      </trkpt>
      <trkpt lat="44.08926" lon="3.02798">
        <ele>356</ele>
        <time>2010-01-01T00:36:51Z</time>
      </trkpt>
      <trkpt lat="44.08915" lon="3.0279">
        <ele>356</ele>
        <time>2010-01-01T00:36:56Z</time>
      </trkpt>
      <trkpt lat="44.08904" lon="3.02781">
        <ele>356</ele>
        <time>2010-01-01T00:37:00Z</time>
      </trkpt>
      <trkpt lat="44.08894" lon="3.02772">
        <ele>357</ele>
        <time>2010-01-01T00:37:05Z</time>
      </trkpt>
      <trkpt lat="44.08883" lon="3.02763">
        <ele>357</ele>
        <time>2010-01-01T00:37:10Z</time>
      </trkpt>
      <trkpt lat="44.08872" lon="3.02755">
        <ele>357</ele>
        <time>2010-01-01T00:37:15Z</time>
      </trkpt>
      <trkpt lat="44.08861" lon="3.02745">
        <ele>356</ele>
        <time>2010-01-01T00:37:21Z</time>
      </trkpt>
      <trkpt lat="44.0885" lon="3.02735">
        <ele>356</ele>
        <time>2010-01-01T00:37:26Z</time>
      </trkpt>
      <trkpt lat="44.0884" lon="3.02726">
        <ele>355</ele>
        <time>2010-01-01T00:37:31Z</time>
      </trkpt>
      <trkpt lat="44.0883" lon="3.02716">
        <ele>355</ele>
        <time>2010-01-01T00:37:36Z</time>
      </trkpt>
      <trkpt lat="44.0882" lon="3.02705">
        <ele>355</ele>
        <time>2010-01-01T00:37:41Z</time>
      </trkpt>
      <trkpt lat="44.0881" lon="3.02694">
        <ele>355</ele>
        <time>2010-01-01T00:37:46Z</time>
      </trkpt>
      <trkpt lat="44.088" lon="3.02683">
        <ele>355</ele>
        <time>2010-01-01T00:37:51Z</time>
      </trkpt>
      <trkpt lat="44.08791" lon="3.02671">
        <ele>355</ele>
        <time>2010-01-01T00:37:56Z</time>
      </trkpt>
      <trkpt lat="44.08783" lon="3.02659">
        <ele>355</ele>
        <time>2010-01-01T00:38:01Z</time>
      </trkpt>
      <trkpt lat="44.08774" lon="3.02646">
        <ele>356</ele>
        <time>2010-01-01T00:38:06Z</time>
      </trkpt>
      <trkpt lat="44.08765" lon="3.02633">
        <ele>356</ele>
        <time>2010-01-01T00:38:11Z</time>
      </trkpt>
      <trkpt lat="44.08757" lon="3.0262">
        <ele>357</ele>
        <time>2010-01-01T00:38:16Z</time>
      </trkpt>
      <trkpt lat="44.08749" lon="3.02607">
        <ele>357</ele>
        <time>2010-01-01T00:38:21Z</time>
      </trkpt>
      <trkpt lat="44.08741" lon="3.02594">
        <ele>357</ele>
        <time>2010-01-01T00:38:26Z</time>
      </trkpt>
      <trkpt lat="44.08734" lon="3.02581">
        <ele>357</ele>
        <time>2010-01-01T00:38:31Z</time>
      </trkpt>
      <trkpt lat="44.08727" lon="3.02567">
        <ele>357</ele>
        <time>2010-01-01T00:38:35Z</time>
      </trkpt>
      <trkpt lat="44.0872" lon="3.02553">
        <ele>356</ele>
        <time>2010-01-01T00:38:40Z</time>
      </trkpt>
      <trkpt lat="44.08713" lon="3.02538">
        <ele>355</ele>
        <time>2010-01-01T00:38:45Z</time>
      </trkpt>
      <trkpt lat="44.08707" lon="3.02523">
        <ele>354</ele>
        <time>2010-01-01T00:38:50Z</time>
      </trkpt>
      <trkpt lat="44.08701" lon="3.02508">
        <ele>354</ele>
        <time>2010-01-01T00:38:55Z</time>
      </trkpt>
      <trkpt lat="44.08695" lon="3.02493">
        <ele>354</ele>
        <time>2010-01-01T00:39:00Z</time>
      </trkpt>
      <trkpt lat="44.08689" lon="3.02478">
        <ele>354</ele>
        <time>2010-01-01T00:39:05Z</time>
      </trkpt>
      <trkpt lat="44.08683" lon="3.02462">
        <ele>355</ele>
        <time>2010-01-01T00:39:10Z</time>
      </trkpt>
      <trkpt lat="44.08678" lon="3.02447">
        <ele>356</ele>
        <time>2010-01-01T00:39:15Z</time>
      </trkpt>
      <trkpt lat="44.08672" lon="3.02431">
        <ele>357</ele>
        <time>2010-01-01T00:39:20Z</time>
      </trkpt>
      <trkpt lat="44.08667" lon="3.02416">
        <ele>358</ele>
        <time>2010-01-01T00:39:25Z</time>
      </trkpt>
      <trkpt lat="44.08661" lon="3.024">
        <ele>358</ele>
        <time>2010-01-01T00:39:30Z</time>
      </trkpt>
      <trkpt lat="44.08656" lon="3.02385">
        <ele>359</ele>
        <time>2010-01-01T00:39:35Z</time>
      </trkpt>
      <trkpt lat="44.08651" lon="3.02369">
        <ele>358</ele>
        <time>2010-01-01T00:39:40Z</time>
      </trkpt>
      <trkpt lat="44.08645" lon="3.02354">
        <ele>357</ele>
        <time>2010-01-01T00:39:45Z</time>
      </trkpt>
      <trkpt lat="44.0864" lon="3.02338">
        <ele>357</ele>
        <time>2010-01-01T00:39:50Z</time>
      </trkpt>
      <trkpt lat="44.08635" lon="3.02322">
        <ele>357</ele>
        <time>2010-01-01T00:39:55Z</time>
      </trkpt>
      <trkpt lat="44.08629" lon="3.02307">
        <ele>357</ele>
        <time>2010-01-01T00:40:00Z</time>
      </trkpt>
      <trkpt lat="44.08624" lon="3.02292">
        <ele>357</ele>
        <time>2010-01-01T00:40:05Z</time>
      </trkpt>
      <trkpt lat="44.08619" lon="3.02277">
        <ele>358</ele>
        <time>2010-01-01T00:40:09Z</time>
      </trkpt>
      <trkpt lat="44.08614" lon="3.02263">
        <ele>357</ele>
        <time>2010-01-01T00:40:14Z</time>
      </trkpt>
      <trkpt lat="44.08609" lon="3.02248">
        <ele>356</ele>
        <time>2010-01-01T00:40:19Z</time>
      </trkpt>
      <trkpt lat="44.08603" lon="3.02232">
        <ele>356</ele>
        <time>2010-01-01T00:40:24Z</time>
      </trkpt>
      <trkpt lat="44.08598" lon="3.02217">
        <ele>355</ele>
        <time>2010-01-01T00:40:29Z</time>
      </trkpt>
      <trkpt lat="44.08592" lon="3.02201">
        <ele>354</ele>
        <time>2010-01-01T00:40:34Z</time>
      </trkpt>
      <trkpt lat="44.08587" lon="3.02185">
        <ele>353</ele>
        <time>2010-01-01T00:40:39Z</time>
      </trkpt>
      <trkpt lat="44.08581" lon="3.02168">
        <ele>352</ele>
        <time>2010-01-01T00:40:44Z</time>
      </trkpt>
      <trkpt lat="44.08576" lon="3.02151">
        <ele>353</ele>
        <time>2010-01-01T00:40:49Z</time>
      </trkpt>
      <trkpt lat="44.08571" lon="3.02133">
        <ele>353</ele>
        <time>2010-01-01T00:40:55Z</time>
      </trkpt>
      <trkpt lat="44.08566" lon="3.02116">
        <ele>352</ele>
        <time>2010-01-01T00:41:00Z</time>
      </trkpt>
      <trkpt lat="44.08562" lon="3.02099">
        <ele>352</ele>
        <time>2010-01-01T00:41:05Z</time>
      </trkpt>
      <trkpt lat="44.08558" lon="3.02083">
        <ele>352</ele>
        <time>2010-01-01T00:41:10Z</time>
      </trkpt>
      <trkpt lat="44.08554" lon="3.02067">
        <ele>353</ele>
        <time>2010-01-01T00:41:15Z</time>
      </trkpt>
      <trkpt lat="44.08551" lon="3.02051">
        <ele>354</ele>
        <time>2010-01-01T00:41:20Z</time>
      </trkpt>
      <trkpt lat="44.08547" lon="3.02035">
        <ele>355</ele>
        <time>2010-01-01T00:41:25Z</time>
      </trkpt>
      <trkpt lat="44.08543" lon="3.0202">
        <ele>355</ele>
        <time>2010-01-01T00:41:29Z</time>
      </trkpt>
      <trkpt lat="44.0854" lon="3.02004">
        <ele>354</ele>
        <time>2010-01-01T00:41:34Z</time>
      </trkpt>
      <trkpt lat="44.08536" lon="3.01988">
        <ele>353</ele>
        <time>2010-01-01T00:41:39Z</time>
      </trkpt>
      <trkpt lat="44.08532" lon="3.01972">
        <ele>352</ele>
        <time>2010-01-01T00:41:44Z</time>
      </trkpt>
      <trkpt lat="44.08529" lon="3.01956">
        <ele>352</ele>
        <time>2010-01-01T00:41:49Z</time>
      </trkpt>
      <trkpt lat="44.08525" lon="3.0194">
        <ele>352</ele>
        <time>2010-01-01T00:41:54Z</time>
      </trkpt>
      <trkpt lat="44.08521" lon="3.01924">
        <ele>353</ele>
        <time>2010-01-01T00:41:58Z</time>
      </trkpt>
      <trkpt lat="44.08518" lon="3.01908">
        <ele>353</ele>
        <time>2010-01-01T00:42:03Z</time>
      </trkpt>
      <trkpt lat="44.08514" lon="3.01892">
        <ele>353</ele>
        <time>2010-01-01T00:42:08Z</time>
      </trkpt>
      <trkpt lat="44.0851" lon="3.01876">
        <ele>353</ele>
        <time>2010-01-01T00:42:13Z</time>
      </trkpt>
      <trkpt lat="44.08507" lon="3.01858">
        <ele>353</ele>
        <time>2010-01-01T00:42:18Z</time>
      </trkpt>
      <trkpt lat="44.08503" lon="3.01841">
        <ele>352</ele>
        <time>2010-01-01T00:42:23Z</time>
      </trkpt>
      <trkpt lat="44.085" lon="3.01824">
        <ele>352</ele>
        <time>2010-01-01T00:42:28Z</time>
      </trkpt>
      <trkpt lat="44.08496" lon="3.01806">
        <ele>353</ele>
        <time>2010-01-01T00:42:34Z</time>
      </trkpt>
      <trkpt lat="44.08492" lon="3.01788">
        <ele>354</ele>
        <time>2010-01-01T00:42:39Z</time>
      </trkpt>
      <trkpt lat="44.08489" lon="3.01771">
        <ele>353</ele>
        <time>2010-01-01T00:42:44Z</time>
      </trkpt>
      <trkpt lat="44.08485" lon="3.01754">
        <ele>353</ele>
        <time>2010-01-01T00:42:49Z</time>
      </trkpt>
      <trkpt lat="44.08482" lon="3.01737">
        <ele>352</ele>
        <time>2010-01-01T00:42:54Z</time>
      </trkpt>
      <trkpt lat="44.08479" lon="3.0172">
        <ele>351</ele>
        <time>2010-01-01T00:42:59Z</time>
      </trkpt>
      <trkpt lat="44.08475" lon="3.01703">
        <ele>351</ele>
        <time>2010-01-01T00:43:05Z</time>
      </trkpt>
      <trkpt lat="44.08472" lon="3.01686">
        <ele>351</ele>
        <time>2010-01-01T00:43:10Z</time>
      </trkpt>
      <trkpt lat="44.08469" lon="3.01669">
        <ele>351</ele>
        <time>2010-01-01T00:43:15Z</time>
      </trkpt>
      <trkpt lat="44.08465" lon="3.01653">
        <ele>351</ele>
        <time>2010-01-01T00:43:19Z</time>
      </trkpt>
      <trkpt lat="44.08462" lon="3.01636">
        <ele>351</ele>
        <time>2010-01-01T00:43:25Z</time>
      </trkpt>
      <trkpt lat="44.08459" lon="3.01619">
        <ele>350</ele>
        <time>2010-01-01T00:43:30Z</time>
      </trkpt>
      <trkpt lat="44.08456" lon="3.01602">
        <ele>350</ele>
        <time>2010-01-01T00:43:35Z</time>
      </trkpt>
      <trkpt lat="44.08453" lon="3.01585">
        <ele>350</ele>
        <time>2010-01-01T00:43:40Z</time>
      </trkpt>
      <trkpt lat="44.08451" lon="3.01568">
        <ele>350</ele>
        <time>2010-01-01T00:43:45Z</time>
      </trkpt>
      <trkpt lat="44.0845" lon="3.0155">
        <ele>350</ele>
        <time>2010-01-01T00:43:50Z</time>
      </trkpt>
      <trkpt lat="44.0845" lon="3.01532">
        <ele>350</ele>
        <time>2010-01-01T00:43:55Z</time>
      </trkpt>
      <trkpt lat="44.0845" lon="3.01514">
        <ele>350</ele>
        <time>2010-01-01T00:44:00Z</time>
      </trkpt>
      <trkpt lat="44.0845" lon="3.01496">
        <ele>350</ele>
        <time>2010-01-01T00:44:05Z</time>
      </trkpt>
      <trkpt lat="44.08451" lon="3.01477">
        <ele>351</ele>
        <time>2010-01-01T00:44:11Z</time>
      </trkpt>
      <trkpt lat="44.08452" lon="3.01459">
        <ele>352</ele>
        <time>2010-01-01T00:44:16Z</time>
      </trkpt>
      <trkpt lat="44.08454" lon="3.01441">
        <ele>352</ele>
        <time>2010-01-01T00:44:21Z</time>
      </trkpt>
      <trkpt lat="44.08457" lon="3.01423">
        <ele>352</ele>
        <time>2010-01-01T00:44:26Z</time>
      </trkpt>
      <trkpt lat="44.08461" lon="3.01406">
        <ele>352</ele>
        <time>2010-01-01T00:44:32Z</time>
      </trkpt>
      <trkpt lat="44.08464" lon="3.01389">
        <ele>352</ele>
        <time>2010-01-01T00:44:37Z</time>
      </trkpt>
      <trkpt lat="44.08467" lon="3.01372">
        <ele>351</ele>
        <time>2010-01-01T00:44:42Z</time>
      </trkpt>
      <trkpt lat="44.08471" lon="3.01355">
        <ele>351</ele>
        <time>2010-01-01T00:44:47Z</time>
      </trkpt>
      <trkpt lat="44.08475" lon="3.01338">
        <ele>350</ele>
        <time>2010-01-01T00:44:52Z</time>
      </trkpt>
      <trkpt lat="44.08478" lon="3.01322">
        <ele>350</ele>
        <time>2010-01-01T00:44:57Z</time>
      </trkpt>
      <trkpt lat="44.08482" lon="3.01305">
        <ele>350</ele>
        <time>2010-01-01T00:45:02Z</time>
      </trkpt>
      <trkpt lat="44.08486" lon="3.01288">
        <ele>350</ele>
        <time>2010-01-01T00:45:07Z</time>
      </trkpt>
      <trkpt lat="44.08489" lon="3.01271">
        <ele>351</ele>
        <time>2010-01-01T00:45:12Z</time>
      </trkpt>
      <trkpt lat="44.08493" lon="3.01255">
        <ele>352</ele>
        <time>2010-01-01T00:45:17Z</time>
      </trkpt>
      <trkpt lat="44.08497" lon="3.01238">
        <ele>352</ele>
        <time>2010-01-01T00:45:22Z</time>
      </trkpt>
      <trkpt lat="44.08501" lon="3.01221">
        <ele>353</ele>
        <time>2010-01-01T00:45:27Z</time>
      </trkpt>
      <trkpt lat="44.08505" lon="3.01204">
        <ele>352</ele>
        <time>2010-01-01T00:45:32Z</time>
      </trkpt>
      <trkpt lat="44.08508" lon="3.01187">
        <ele>350</ele>
        <time>2010-01-01T00:45:37Z</time>
      </trkpt>
      <trkpt lat="44.08512" lon="3.0117">
        <ele>349</ele>
        <time>2010-01-01T00:45:42Z</time>
      </trkpt>
      <trkpt lat="44.08516" lon="3.01153">
        <ele>350</ele>
        <time>2010-01-01T00:45:48Z</time>
      </trkpt>
      <trkpt lat="44.0852" lon="3.01136">
        <ele>351</ele>
        <time>2010-01-01T00:45:53Z</time>
      </trkpt>
      <trkpt lat="44.08524" lon="3.01119">
        <ele>352</ele>
        <time>2010-01-01T00:45:58Z</time>
      </trkpt>
      <trkpt lat="44.08529" lon="3.01102">
        <ele>353</ele>
        <time>2010-01-01T00:46:03Z</time>
      </trkpt>
      <trkpt lat="44.08533" lon="3.01085">
        <ele>353</ele>
        <time>2010-01-01T00:46:08Z</time>
      </trkpt>
      <trkpt lat="44.08538" lon="3.01069">
        <ele>353</ele>
        <time>2010-01-01T00:46:13Z</time>
      </trkpt>
      <trkpt lat="44.08543" lon="3.01053">
        <ele>353</ele>
        <time>2010-01-01T00:46:18Z</time>
      </trkpt>
      <trkpt lat="44.08548" lon="3.01037">
        <ele>353</ele>
        <time>2010-01-01T00:46:23Z</time>
      </trkpt>
      <trkpt lat="44.08553" lon="3.01022">
        <ele>353</ele>
        <time>2010-01-01T00:46:28Z</time>
      </trkpt>
      <trkpt lat="44.08559" lon="3.01006">
        <ele>353</ele>
        <time>2010-01-01T00:46:33Z</time>
      </trkpt>
      <trkpt lat="44.08565" lon="3.00992">
        <ele>353</ele>
        <time>2010-01-01T00:46:38Z</time>
      </trkpt>
      <trkpt lat="44.08571" lon="3.00977">
        <ele>352</ele>
        <time>2010-01-01T00:46:43Z</time>
      </trkpt>
      <trkpt lat="44.08577" lon="3.00963">
        <ele>353</ele>
        <time>2010-01-01T00:46:48Z</time>
      </trkpt>
      <trkpt lat="44.08583" lon="3.00948">
        <ele>353</ele>
        <time>2010-01-01T00:46:53Z</time>
      </trkpt>
      <trkpt lat="44.0859" lon="3.00934">
        <ele>353</ele>
        <time>2010-01-01T00:46:57Z</time>
      </trkpt>
      <trkpt lat="44.08597" lon="3.00921">
        <ele>353</ele>
        <time>2010-01-01T00:47:02Z</time>
      </trkpt>
      <trkpt lat="44.08604" lon="3.00907">
        <ele>353</ele>
        <time>2010-01-01T00:47:07Z</time>
      </trkpt>
      <trkpt lat="44.08611" lon="3.00894">
        <ele>353</ele>
        <time>2010-01-01T00:47:12Z</time>
      </trkpt>
      <trkpt lat="44.08618" lon="3.0088">
        <ele>353</ele>
        <time>2010-01-01T00:47:17Z</time>
      </trkpt>
      <trkpt lat="44.08625" lon="3.00867">
        <ele>353</ele>
        <time>2010-01-01T00:47:21Z</time>
      </trkpt>
      <trkpt lat="44.08632" lon="3.00854">
        <ele>353</ele>
        <time>2010-01-01T00:47:26Z</time>
      </trkpt>
      <trkpt lat="44.08639" lon="3.0084">
        <ele>353</ele>
        <time>2010-01-01T00:47:31Z</time>
      </trkpt>
      <trkpt lat="44.08646" lon="3.00827">
        <ele>353</ele>
        <time>2010-01-01T00:47:36Z</time>
      </trkpt>
      <trkpt lat="44.08654" lon="3.00814">
        <ele>353</ele>
        <time>2010-01-01T00:47:40Z</time>
      </trkpt>
      <trkpt lat="44.08661" lon="3.008">
        <ele>353</ele>
        <time>2010-01-01T00:47:45Z</time>
      </trkpt>
      <trkpt lat="44.08669" lon="3.00786">
        <ele>353</ele>
        <time>2010-01-01T00:47:50Z</time>
      </trkpt>
      <trkpt lat="44.08677" lon="3.00772">
        <ele>353</ele>
        <time>2010-01-01T00:47:56Z</time>
      </trkpt>
      <trkpt lat="44.08686" lon="3.00758">
        <ele>352</ele>
        <time>2010-01-01T00:48:01Z</time>
      </trkpt>
      <trkpt lat="44.08695" lon="3.00744">
        <ele>351</ele>
        <time>2010-01-01T00:48:06Z</time>
      </trkpt>
      <trkpt lat="44.08704" lon="3.00731">
        <ele>351</ele>
        <time>2010-01-01T00:48:12Z</time>
      </trkpt>
      <trkpt lat="44.08714" lon="3.00718">
        <ele>351</ele>
        <time>2010-01-01T00:48:17Z</time>
      </trkpt>
      <trkpt lat="44.08724" lon="3.00706">
        <ele>352</ele>
        <time>2010-01-01T00:48:22Z</time>
      </trkpt>
      <trkpt lat="44.08734" lon="3.00694">
        <ele>353</ele>
        <time>2010-01-01T00:48:28Z</time>
      </trkpt>
      <trkpt lat="44.08745" lon="3.00683">
        <ele>353</ele>
        <time>2010-01-01T00:48:33Z</time>
      </trkpt>
      <trkpt lat="44.08756" lon="3.00673">
        <ele>353</ele>
        <time>2010-01-01T00:48:38Z</time>
      </trkpt>
      <trkpt lat="44.08767" lon="3.00664">
        <ele>353</ele>
        <time>2010-01-01T00:48:44Z</time>
      </trkpt>
      <trkpt lat="44.08778" lon="3.00655">
        <ele>352</ele>
        <time>2010-01-01T00:48:49Z</time>
      </trkpt>
      <trkpt lat="44.08789" lon="3.00646">
        <ele>352</ele>
        <time>2010-01-01T00:48:54Z</time>
      </trkpt>
      <trkpt lat="44.088" lon="3.00638">
        <ele>351</ele>
        <time>2010-01-01T00:48:59Z</time>
      </trkpt>
      <trkpt lat="44.08811" lon="3.00629">
        <ele>351</ele>
        <time>2010-01-01T00:49:04Z</time>
      </trkpt>
      <trkpt lat="44.08822" lon="3.00621">
        <ele>351</ele>
        <time>2010-01-01T00:49:09Z</time>
      </trkpt>
      <trkpt lat="44.08832" lon="3.00612">
        <ele>351</ele>
        <time>2010-01-01T00:49:13Z</time>
      </trkpt>
      <trkpt lat="44.08843" lon="3.00604">
        <ele>352</ele>
        <time>2010-01-01T00:49:18Z</time>
      </trkpt>
      <trkpt lat="44.08853" lon="3.00596">
        <ele>353</ele>
        <time>2010-01-01T00:49:23Z</time>
      </trkpt>
      <trkpt lat="44.08864" lon="3.00588">
        <ele>354</ele>
        <time>2010-01-01T00:49:28Z</time>
      </trkpt>
      <trkpt lat="44.08874" lon="3.00579">
        <ele>355</ele>
        <time>2010-01-01T00:49:33Z</time>
      </trkpt>
      <trkpt lat="44.08884" lon="3.00571">
        <ele>355</ele>
        <time>2010-01-01T00:49:38Z</time>
      </trkpt>
      <trkpt lat="44.08894" lon="3.00561">
        <ele>354</ele>
        <time>2010-01-01T00:49:42Z</time>
      </trkpt>
      <trkpt lat="44.08904" lon="3.00551">
        <ele>354</ele>
        <time>2010-01-01T00:49:47Z</time>
      </trkpt>
      <trkpt lat="44.08914" lon="3.00542">
        <ele>354</ele>
        <time>2010-01-01T00:49:52Z</time>
      </trkpt>
      <trkpt lat="44.08924" lon="3.00531">
        <ele>353</ele>
        <time>2010-01-01T00:49:57Z</time>
      </trkpt>
      <trkpt lat="44.08934" lon="3.00521">
        <ele>353</ele>
        <time>2010-01-01T00:50:02Z</time>
      </trkpt>
      <trkpt lat="44.08944" lon="3.00511">
        <ele>353</ele>
        <time>2010-01-01T00:50:07Z</time>
      </trkpt>
      <trkpt lat="44.08953" lon="3.005">
        <ele>353</ele>
        <time>2010-01-01T00:50:12Z</time>
      </trkpt>
      <trkpt lat="44.08963" lon="3.0049">
        <ele>353</ele>
        <time>2010-01-01T00:50:17Z</time>
      </trkpt>
      <trkpt lat="44.08973" lon="3.00479">
        <ele>353</ele>
        <time>2010-01-01T00:50:22Z</time>
      </trkpt>
      <trkpt lat="44.08982" lon="3.00467">
        <ele>353</ele>
        <time>2010-01-01T00:50:27Z</time>
      </trkpt>
      <trkpt lat="44.0899" lon="3.00455">
        <ele>354</ele>
        <time>2010-01-01T00:50:31Z</time>
      </trkpt>
      <trkpt lat="44.08998" lon="3.00442">
        <ele>354</ele>
        <time>2010-01-01T00:50:36Z</time>
      </trkpt>
      <trkpt lat="44.09006" lon="3.00429">
        <ele>353</ele>
        <time>2010-01-01T00:50:41Z</time>
      </trkpt>
      <trkpt lat="44.09013" lon="3.00414">
        <ele>351</ele>
        <time>2010-01-01T00:50:46Z</time>
      </trkpt>
      <trkpt lat="44.09021" lon="3.00399">
        <ele>350</ele>
        <time>2010-01-01T00:50:52Z</time>
      </trkpt>
      <trkpt lat="44.09028" lon="3.00383">
        <ele>349</ele>
        <time>2010-01-01T00:50:57Z</time>
      </trkpt>
      <trkpt lat="44.09035" lon="3.00367">
        <ele>349</ele>
        <time>2010-01-01T00:51:03Z</time>
      </trkpt>
      <trkpt lat="44.09042" lon="3.0035">
        <ele>348</ele>
        <time>2010-01-01T00:51:08Z</time>
      </trkpt>
      <trkpt lat="44.09049" lon="3.00333">
        <ele>347</ele>
        <time>2010-01-01T00:51:14Z</time>
      </trkpt>
      <trkpt lat="44.09057" lon="3.00317">
        <ele>347</ele>
        <time>2010-01-01T00:51:19Z</time>
      </trkpt>
      <trkpt lat="44.09064" lon="3.00301">
        <ele>348</ele>
        <time>2010-01-01T00:51:25Z</time>
      </trkpt>
      <trkpt lat="44.09072" lon="3.00285">
        <ele>349</ele>
        <time>2010-01-01T00:51:30Z</time>
      </trkpt>
      <trkpt lat="44.09077" lon="3.0027">
        <ele>350</ele>
        <time>2010-01-01T00:51:35Z</time>
      </trkpt>
      <trkpt lat="44.09083" lon="3.00255">
        <ele>351</ele>
        <time>2010-01-01T00:51:40Z</time>
      </trkpt>
      <trkpt lat="44.09089" lon="3.00241">
        <ele>352</ele>
        <time>2010-01-01T00:51:45Z</time>
      </trkpt>
      <trkpt lat="44.09094" lon="3.00226">
        <ele>353</ele>
        <time>2010-01-01T00:51:49Z</time>
      </trkpt>
      <trkpt lat="44.091" lon="3.00213">
        <ele>354</ele>
        <time>2010-01-01T00:51:54Z</time>
      </trkpt>
      <trkpt lat="44.09107" lon="3.002">
        <ele>354</ele>
        <time>2010-01-01T00:51:59Z</time>
      </trkpt>
      <trkpt lat="44.09112" lon="3.00185">
        <ele>354</ele>
        <time>2010-01-01T00:52:03Z</time>
      </trkpt>
      <trkpt lat="44.09117" lon="3.00171">
        <ele>354</ele>
        <time>2010-01-01T00:52:08Z</time>
      </trkpt>
      <trkpt lat="44.09121" lon="3.00156">
        <ele>352</ele>
        <time>2010-01-01T00:52:12Z</time>
      </trkpt>
      <trkpt lat="44.09127" lon="3.00142">
        <ele>351</ele>
        <time>2010-01-01T00:52:17Z</time>
      </trkpt>
      <trkpt lat="44.09132" lon="3.00128">
        <ele>351</ele>
        <time>2010-01-01T00:52:22Z</time>
      </trkpt>
      <trkpt lat="44.09136" lon="3.00115">
        <ele>352</ele>
        <time>2010-01-01T00:52:26Z</time>
      </trkpt>
      <trkpt lat="44.0914" lon="3.00103">
        <ele>353</ele>
        <time>2010-01-01T00:52:30Z</time>
      </trkpt>
      <trkpt lat="44.09144" lon="3.00091">
        <ele>353</ele>
        <time>2010-01-01T00:52:33Z</time>
      </trkpt>
      <trkpt lat="44.09148" lon="3.0008">
        <ele>355</ele>
        <time>2010-01-01T00:52:37Z</time>
      </trkpt>
      <trkpt lat="44.09152" lon="3.0007">
        <ele>356</ele>
        <time>2010-01-01T00:52:40Z</time>
      </trkpt>
      <trkpt lat="44.09154" lon="3.00062">
        <ele>356</ele>
        <time>2010-01-01T00:52:43Z</time>
      </trkpt>
      <trkpt lat="44.09155" lon="3.00052">
        <ele>357</ele>
        <time>2010-01-01T00:52:45Z</time>
      </trkpt>
      <trkpt lat="44.09156" lon="3.00043">
        <ele>357</ele>
        <time>2010-01-01T00:52:48Z</time>
      </trkpt>
      <trkpt lat="44.09157" lon="3.00034">
        <ele>358</ele>
        <time>2010-01-01T00:52:51Z</time>
      </trkpt>
      <trkpt lat="44.09159" lon="3.00026">
        <ele>359</ele>
        <time>2010-01-01T00:52:53Z</time>
      </trkpt>
      <trkpt lat="44.09161" lon="3.00017">
        <ele>360</ele>
        <time>2010-01-01T00:52:56Z</time>
      </trkpt>
      <trkpt lat="44.09165" lon="3.00009">
        <ele>361</ele>
        <time>2010-01-01T00:52:59Z</time>
      </trkpt>
      <trkpt lat="44.09169" lon="3.00003">
        <ele>362</ele>
        <time>2010-01-01T00:53:01Z</time>
      </trkpt>
      <trkpt lat="44.09173" lon="3.00002">
        <ele>363</ele>
        <time>2010-01-01T00:53:02Z</time>
      </trkpt>
      <trkpt lat="44.09172" lon="3.00007">
        <ele>362</ele>
        <time>2010-01-01T00:53:04Z</time>
      </trkpt>
      <trkpt lat="44.09169" lon="3.00013">
        <ele>361</ele>
        <time>2010-01-01T00:53:06Z</time>
      </trkpt>
      <trkpt lat="44.09167" lon="3.0002">
        <ele>361</ele>
        <time>2010-01-01T00:53:08Z</time>
      </trkpt>
      <trkpt lat="44.09167" lon="3.00028">
        <ele>361</ele>
        <time>2010-01-01T00:53:10Z</time>
      </trkpt>
      <trkpt lat="44.09167" lon="3.00034">
        <ele>360</ele>
        <time>2010-01-01T00:53:12Z</time>
      </trkpt>
      <trkpt lat="44.0917" lon="3.0004">
        <ele>361</ele>
        <time>2010-01-01T00:53:14Z</time>
      </trkpt>
      <trkpt lat="44.09173" lon="3.00044">
        <ele>361</ele>
        <time>2010-01-01T00:53:16Z</time>
      </trkpt>
      <trkpt lat="44.09177" lon="3.00045">
        <ele>362</ele>
        <time>2010-01-01T00:53:17Z</time>
      </trkpt>
      <trkpt lat="44.09181" lon="3.00043">
        <ele>363</ele>
        <time>2010-01-01T00:53:19Z</time>
      </trkpt>
      <trkpt lat="44.09185" lon="3.00041">
        <ele>363</ele>
        <time>2010-01-01T00:53:21Z</time>
      </trkpt>
      <trkpt lat="44.09187" lon="3.0004">
        <ele>364</ele>
        <time>2010-01-01T00:53:22Z</time>
      </trkpt>
      <trkpt lat="44.0919" lon="3.00035">
        <ele>364</ele>
        <time>2010-01-01T00:53:24Z</time>
      </trkpt>
      <trkpt lat="44.0919" lon="3.0003">
        <ele>365</ele>
        <time>2010-01-01T00:53:25Z</time>
      </trkpt>
      <trkpt lat="44.0919" lon="3.00024">
        <ele>365</ele>
        <time>2010-01-01T00:53:27Z</time>
      </trkpt>
      <trkpt lat="44.09191" lon="3.00019">
        <ele>366</ele>
        <time>2010-01-01T00:53:28Z</time>
      </trkpt>
      <trkpt lat="44.09191" lon="3.00013">
        <ele>366</ele>
        <time>2010-01-01T00:53:30Z</time>
      </trkpt>
      <trkpt lat="44.09191" lon="3.00008">
        <ele>367</ele>
        <time>2010-01-01T00:53:31Z</time>
      </trkpt>
      <trkpt lat="44.0919" lon="3.00002">
        <ele>367</ele>
        <time>2010-01-01T00:53:33Z</time>
      </trkpt>
      <trkpt lat="44.09189" lon="2.99996">
        <ele>368</ele>
        <time>2010-01-01T00:53:35Z</time>
      </trkpt>
      <trkpt lat="44.09189" lon="2.99991">
        <ele>368</ele>
        <time>2010-01-01T00:53:36Z</time>
      </trkpt>
      <trkpt lat="44.09189" lon="2.99985">
        <ele>369</ele>
        <time>2010-01-01T00:53:38Z</time>
      </trkpt>
      <trkpt lat="44.09188" lon="2.99979">
        <ele>370</ele>
        <time>2010-01-01T00:53:40Z</time>
      </trkpt>
      <trkpt lat="44.09186" lon="2.99974">
        <ele>370</ele>
        <time>2010-01-01T00:53:41Z</time>
      </trkpt>
      <trkpt lat="44.09185" lon="2.99969">
        <ele>370</ele>
        <time>2010-01-01T00:53:43Z</time>
      </trkpt>
      <trkpt lat="44.09183" lon="2.99966">
        <ele>371</ele>
        <time>2010-01-01T00:53:44Z</time>
      </trkpt>
      <trkpt lat="44.09181" lon="2.99961">
        <ele>371</ele>
        <time>2010-01-01T00:53:46Z</time>
      </trkpt>
      <trkpt lat="44.09179" lon="2.99956">
        <ele>371</ele>
        <time>2010-01-01T00:53:47Z</time>
      </trkpt>
      <trkpt lat="44.09177" lon="2.99952">
        <ele>372</ele>
        <time>2010-01-01T00:53:49Z</time>
      </trkpt>
      <trkpt lat="44.09175" lon="2.99948">
        <ele>372</ele>
        <time>2010-01-01T00:53:50Z</time>
      </trkpt>
      <trkpt lat="44.09173" lon="2.99944">
        <ele>372</ele>
        <time>2010-01-01T00:53:52Z</time>
      </trkpt>
      <trkpt lat="44.09171" lon="2.9994">
        <ele>373</ele>
        <time>2010-01-01T00:53:53Z</time>
      </trkpt>
      <trkpt lat="44.09169" lon="2.99936">
        <ele>373</ele>
        <time>2010-01-01T00:53:54Z</time>
      </trkpt>
      <trkpt lat="44.09167" lon="2.99932">
        <ele>373</ele>
        <time>2010-01-01T00:53:56Z</time>
      </trkpt>
      <trkpt lat="44.09165" lon="2.99927">
        <ele>374</ele>
        <time>2010-01-01T00:53:57Z</time>
      </trkpt>
      <trkpt lat="44.09164" lon="2.99923">
        <ele>374</ele>
        <time>2010-01-01T00:53:59Z</time>
      </trkpt>
      <trkpt lat="44.09162" lon="2.99919">
        <ele>375</ele>
        <time>2010-01-01T00:54:00Z</time>
      </trkpt>
      <trkpt lat="44.09161" lon="2.99914">
        <ele>375</ele>
        <time>2010-01-01T00:54:01Z</time>
      </trkpt>
      <trkpt lat="44.09161" lon="2.99911">
        <ele>376</ele>
        <time>2010-01-01T00:54:02Z</time>
      </trkpt>
      <trkpt lat="44.09163" lon="2.99911">
        <ele>376</ele>
        <time>2010-01-01T00:54:03Z</time>
      </trkpt>
      <trkpt lat="44.09165" lon="2.99914">
        <ele>377</ele>
        <time>2010-01-01T00:54:04Z</time>
      </trkpt>
      <trkpt lat="44.09167" lon="2.99916">
        <ele>377</ele>
        <time>2010-01-01T00:54:05Z</time>
      </trkpt>
      <trkpt lat="44.0917" lon="2.99919">
        <ele>377</ele>
        <time>2010-01-01T00:54:07Z</time>
      </trkpt>
      <trkpt lat="44.09174" lon="2.9992">
        <ele>378</ele>
        <time>2010-01-01T00:54:08Z</time>
      </trkpt>
      <trkpt lat="44.09177" lon="2.99921">
        <ele>378</ele>
        <time>2010-01-01T00:54:09Z</time>
      </trkpt>
      <trkpt lat="44.09179" lon="2.99922">
        <ele>379</ele>
        <time>2010-01-01T00:54:10Z</time>
      </trkpt>
      <trkpt lat="44.09182" lon="2.99922">
        <ele>380</ele>
        <time>2010-01-01T00:54:12Z</time>
      </trkpt>
      <trkpt lat="44.09186" lon="2.99923">
        <ele>381</ele>
        <time>2010-01-01T00:54:13Z</time>
      </trkpt>
      <trkpt lat="44.0919" lon="2.99925">
        <ele>382</ele>
        <time>2010-01-01T00:54:15Z</time>
      </trkpt>
      <trkpt lat="44.09193" lon="2.99926">
        <ele>382</ele>
        <time>2010-01-01T00:54:16Z</time>
      </trkpt>
      <trkpt lat="44.09197" lon="2.99925">
        <ele>383</ele>
        <time>2010-01-01T00:54:18Z</time>
      </trkpt>
      <trkpt lat="44.09201" lon="2.99927">
        <ele>384</ele>
        <time>2010-01-01T00:54:19Z</time>
      </trkpt>
      <trkpt lat="44.09205" lon="2.99928">
        <ele>385</ele>
        <time>2010-01-01T00:54:21Z</time>
      </trkpt>
      <trkpt lat="44.09208" lon="2.9993">
        <ele>386</ele>
        <time>2010-01-01T00:54:22Z</time>
      </trkpt>
      <trkpt lat="44.09211" lon="2.99931">
        <ele>386</ele>
        <time>2010-01-01T00:54:24Z</time>
      </trkpt>
      <trkpt lat="44.09215" lon="2.99932">
        <ele>387</ele>
        <time>2010-01-01T00:54:25Z</time>
      </trkpt>
      <trkpt lat="44.09218" lon="2.99934">
        <ele>387</ele>
        <time>2010-01-01T00:54:26Z</time>
      </trkpt>
      <trkpt lat="44.09221" lon="2.99935">
        <ele>388</ele>
        <time>2010-01-01T00:54:28Z</time>
      </trkpt>
      <trkpt lat="44.09225" lon="2.99936">
        <ele>388</ele>
        <time>2010-01-01T00:54:29Z</time>
      </trkpt>
      <trkpt lat="44.09228" lon="2.99937">
        <ele>389</ele>
        <time>2010-01-01T00:54:31Z</time>
      </trkpt>
      <trkpt lat="44.09232" lon="2.99938">
        <ele>389</ele>
        <time>2010-01-01T00:54:32Z</time>
      </trkpt>
      <trkpt lat="44.09236" lon="2.99939">
        <ele>389</ele>
        <time>2010-01-01T00:54:34Z</time>
      </trkpt>
      <trkpt lat="44.09239" lon="2.9994">
        <ele>389</ele>
        <time>2010-01-01T00:54:35Z</time>
      </trkpt>
      <trkpt lat="44.09243" lon="2.99941">
        <ele>390</ele>
        <time>2010-01-01T00:54:37Z</time>
      </trkpt>
      <trkpt lat="44.09246" lon="2.99942">
        <ele>390</ele>
        <time>2010-01-01T00:54:38Z</time>
      </trkpt>
      <trkpt lat="44.09249" lon="2.99943">
        <ele>390</ele>
        <time>2010-01-01T00:54:39Z</time>
      </trkpt>
      <trkpt lat="44.09253" lon="2.99943">
        <ele>391</ele>
        <time>2010-01-01T00:54:41Z</time>
      </trkpt>
      <trkpt lat="44.09256" lon="2.99943">
        <ele>392</ele>
        <time>2010-01-01T00:54:42Z</time>
      </trkpt>
      <trkpt lat="44.0926" lon="2.99944">
        <ele>392</ele>
        <time>2010-01-01T00:54:43Z</time>
      </trkpt>
      <trkpt lat="44.09263" lon="2.99945">
        <ele>393</ele>
        <time>2010-01-01T00:54:45Z</time>
      </trkpt>
      <trkpt lat="44.09266" lon="2.99948">
        <ele>393</ele>
        <time>2010-01-01T00:54:46Z</time>
      </trkpt>
      <trkpt lat="44.0927" lon="2.99949">
        <ele>394</ele>
        <time>2010-01-01T00:54:48Z</time>
      </trkpt>
      <trkpt lat="44.09273" lon="2.99951">
        <ele>394</ele>
        <time>2010-01-01T00:54:49Z</time>
      </trkpt>
      <trkpt lat="44.09276" lon="2.99954">
        <ele>394</ele>
        <time>2010-01-01T00:54:51Z</time>
      </trkpt>
      <trkpt lat="44.0928" lon="2.99958">
        <ele>395</ele>
        <time>2010-01-01T00:54:52Z</time>
      </trkpt>
      <trkpt lat="44.09283" lon="2.99961">
        <ele>395</ele>
        <time>2010-01-01T00:54:54Z</time>
      </trkpt>
      <trkpt lat="44.09286" lon="2.99965">
        <ele>396</ele>
        <time>2010-01-01T00:54:56Z</time>
      </trkpt>
      <trkpt lat="44.09289" lon="2.99969">
        <ele>396</ele>
        <time>2010-01-01T00:54:57Z</time>
      </trkpt>
      <trkpt lat="44.09292" lon="2.99972">
        <ele>396</ele>
        <time>2010-01-01T00:54:59Z</time>
      </trkpt>
      <trkpt lat="44.09294" lon="2.99976">
        <ele>397</ele>
        <time>2010-01-01T00:55:00Z</time>
      </trkpt>
      <trkpt lat="44.09297" lon="2.99979">
        <ele>397</ele>
        <time>2010-01-01T00:55:02Z</time>
      </trkpt>
      <trkpt lat="44.093" lon="2.99983">
        <ele>398</ele>
        <time>2010-01-01T00:55:03Z</time>
      </trkpt>
      <trkpt lat="44.09303" lon="2.99987">
        <ele>399</ele>
        <time>2010-01-01T00:55:05Z</time>
      </trkpt>
      <trkpt lat="44.09305" lon="2.99992">
        <ele>399</ele>
        <time>2010-01-01T00:55:07Z</time>
      </trkpt>
      <trkpt lat="44.09308" lon="2.99996">
        <ele>400</ele>
        <time>2010-01-01T00:55:08Z</time>
      </trkpt>
      <trkpt lat="44.09311" lon="3.00001">
        <ele>401</ele>
        <time>2010-01-01T00:55:10Z</time>
      </trkpt>
      <trkpt lat="44.09313" lon="3.00006">
        <ele>401</ele>
        <time>2010-01-01T00:55:12Z</time>
      </trkpt>
      <trkpt lat="44.09315" lon="3.0001">
        <ele>402</ele>
        <time>2010-01-01T00:55:13Z</time>
      </trkpt>
      <trkpt lat="44.09317" lon="3.00015">
        <ele>403</ele>
        <time>2010-01-01T00:55:15Z</time>
      </trkpt>
      <trkpt lat="44.09319" lon="3.0002">
        <ele>403</ele>
        <time>2010-01-01T00:55:17Z</time>
      </trkpt>
      <trkpt lat="44.09321" lon="3.00025">
        <ele>403</ele>
        <time>2010-01-01T00:55:18Z</time>
      </trkpt>
      <trkpt lat="44.09323" lon="3.0003">
        <ele>404</ele>
        <time>2010-01-01T00:55:20Z</time>
      </trkpt>
      <trkpt lat="44.09326" lon="3.00034">
        <ele>405</ele>
        <time>2010-01-01T00:55:21Z</time>
      </trkpt>
      <trkpt lat="44.0933" lon="3.00034">
        <ele>406</ele>
        <time>2010-01-01T00:55:23Z</time>
      </trkpt>
      <trkpt lat="44.09331" lon="3.0003">
        <ele>407</ele>
        <time>2010-01-01T00:55:24Z</time>
      </trkpt>
      <trkpt lat="44.09331" lon="3.00025">
        <ele>407</ele>
        <time>2010-01-01T00:55:26Z</time>
      </trkpt>
      <trkpt lat="44.09331" lon="3.0002">
        <ele>407</ele>
        <time>2010-01-01T00:55:27Z</time>
      </trkpt>
      <trkpt lat="44.09331" lon="3.00015">
        <ele>408</ele>
        <time>2010-01-01T00:55:29Z</time>
      </trkpt>
      <trkpt lat="44.0933" lon="3.0001">
        <ele>408</ele>
        <time>2010-01-01T00:55:30Z</time>
      </trkpt>
      <trkpt lat="44.0933" lon="3.00005">
        <ele>409</ele>
        <time>2010-01-01T00:55:32Z</time>
      </trkpt>
      <trkpt lat="44.0933" lon="2.99999">
        <ele>409</ele>
        <time>2010-01-01T00:55:33Z</time>
      </trkpt>
      <trkpt lat="44.09329" lon="2.99994">
        <ele>409</ele>
        <time>2010-01-01T00:55:35Z</time>
      </trkpt>
      <trkpt lat="44.09329" lon="2.99989">
        <ele>410</ele>
        <time>2010-01-01T00:55:36Z</time>
      </trkpt>
      <trkpt lat="44.09329" lon="2.99983">
        <ele>410</ele>
        <time>2010-01-01T00:55:38Z</time>
      </trkpt>
      <trkpt lat="44.09328" lon="2.99978">
        <ele>410</ele>
        <time>2010-01-01T00:55:39Z</time>
      </trkpt>
      <trkpt lat="44.09327" lon="2.99972">
        <ele>410</ele>
        <time>2010-01-01T00:55:41Z</time>
      </trkpt>
      <trkpt lat="44.09326" lon="2.99967">
        <ele>411</ele>
        <time>2010-01-01T00:55:42Z</time>
      </trkpt>
      <trkpt lat="44.09325" lon="2.99962">
        <ele>411</ele>
        <time>2010-01-01T00:55:44Z</time>
      </trkpt>
      <trkpt lat="44.09324" lon="2.99957">
        <ele>412</ele>
        <time>2010-01-01T00:55:46Z</time>
      </trkpt>
      <trkpt lat="44.09323" lon="2.99952">
        <ele>412</ele>
        <time>2010-01-01T00:55:47Z</time>
      </trkpt>
      <trkpt lat="44.09322" lon="2.99947">
        <ele>412</ele>
        <time>2010-01-01T00:55:49Z</time>
      </trkpt>
      <trkpt lat="44.0932" lon="2.99942">
        <ele>412</ele>
        <time>2010-01-01T00:55:50Z</time>
      </trkpt>
      <trkpt lat="44.09319" lon="2.99937">
        <ele>413</ele>
        <time>2010-01-01T00:55:52Z</time>
      </trkpt>
      <trkpt lat="44.09317" lon="2.99933">
        <ele>413</ele>
        <time>2010-01-01T00:55:53Z</time>
      </trkpt>
      <trkpt lat="44.09316" lon="2.99928">
        <ele>413</ele>
        <time>2010-01-01T00:55:54Z</time>
      </trkpt>
      <trkpt lat="44.09314" lon="2.99924">
        <ele>413</ele>
        <time>2010-01-01T00:55:56Z</time>
      </trkpt>
      <trkpt lat="44.09312" lon="2.99919">
        <ele>413</ele>
        <time>2010-01-01T00:55:57Z</time>
      </trkpt>
      <trkpt lat="44.0931" lon="2.99915">
        <ele>413</ele>
        <time>2010-01-01T00:55:59Z</time>
      </trkpt>
      <trkpt lat="44.09308" lon="2.99911">
        <ele>413</ele>
        <time>2010-01-01T00:56:00Z</time>
      </trkpt>
      <trkpt lat="44.09305" lon="2.99908">
        <ele>413</ele>
        <time>2010-01-01T00:56:02Z</time>
      </trkpt>
      <trkpt lat="44.09302" lon="2.99904">
        <ele>413</ele>
        <time>2010-01-01T00:56:03Z</time>
      </trkpt>
      <trkpt lat="44.093" lon="2.999">
        <ele>413</ele>
        <time>2010-01-01T00:56:05Z</time>
      </trkpt>
      <trkpt lat="44.09297" lon="2.99896">
        <ele>414</ele>
        <time>2010-01-01T00:56:06Z</time>
      </trkpt>
      <trkpt lat="44.09295" lon="2.99892">
        <ele>414</ele>
        <time>2010-01-01T00:56:08Z</time>
      </trkpt>
      <trkpt lat="44.09292" lon="2.99888">
        <ele>415</ele>
        <time>2010-01-01T00:56:09Z</time>
      </trkpt>
      <trkpt lat="44.09289" lon="2.99885">
        <ele>415</ele>
        <time>2010-01-01T00:56:11Z</time>
      </trkpt>
      <trkpt lat="44.09287" lon="2.99882">
        <ele>415</ele>
        <time>2010-01-01T00:56:12Z</time>
      </trkpt>
      <trkpt lat="44.09283" lon="2.99879">
        <ele>415</ele>
        <time>2010-01-01T00:56:14Z</time>
      </trkpt>
      <trkpt lat="44.0928" lon="2.99875">
        <ele>415</ele>
        <time>2010-01-01T00:56:15Z</time>
      </trkpt>
      <trkpt lat="44.09277" lon="2.99872">
        <ele>416</ele>
        <time>2010-01-01T00:56:17Z</time>
      </trkpt>
      <trkpt lat="44.09274" lon="2.99868">
        <ele>416</ele>
        <time>2010-01-01T00:56:19Z</time>
      </trkpt>
      <trkpt lat="44.09271" lon="2.99864">
        <ele>416</ele>
        <time>2010-01-01T00:56:20Z</time>
      </trkpt>
      <trkpt lat="44.09267" lon="2.9986">
        <ele>417</ele>
        <time>2010-01-01T00:56:22Z</time>
      </trkpt>
      <trkpt lat="44.09264" lon="2.99856">
        <ele>417</ele>
        <time>2010-01-01T00:56:24Z</time>
      </trkpt>
      <trkpt lat="44.09261" lon="2.99852">
        <ele>417</ele>
        <time>2010-01-01T00:56:26Z</time>
      </trkpt>
      <trkpt lat="44.09258" lon="2.99847">
        <ele>417</ele>
        <time>2010-01-01T00:56:28Z</time>
      </trkpt>
      <trkpt lat="44.09255" lon="2.99842">
        <ele>417</ele>
        <time>2010-01-01T00:56:29Z</time>
      </trkpt>
      <trkpt lat="44.09252" lon="2.99837">
        <ele>417</ele>
        <time>2010-01-01T00:56:31Z</time>
      </trkpt>
      <trkpt lat="44.09249" lon="2.99833">
        <ele>417</ele>
        <time>2010-01-01T00:56:33Z</time>
      </trkpt>
      <trkpt lat="44.09246" lon="2.99828">
        <ele>417</ele>
        <time>2010-01-01T00:56:35Z</time>
      </trkpt>
      <trkpt lat="44.09243" lon="2.99823">
        <ele>417</ele>
        <time>2010-01-01T00:56:37Z</time>
      </trkpt>
      <trkpt lat="44.09241" lon="2.99817">
        <ele>417</ele>
        <time>2010-01-01T00:56:39Z</time>
      </trkpt>
      <trkpt lat="44.09238" lon="2.99812">
        <ele>417</ele>
        <time>2010-01-01T00:56:40Z</time>
      </trkpt>
      <trkpt lat="44.09235" lon="2.99807">
        <ele>417</ele>
        <time>2010-01-01T00:56:42Z</time>
      </trkpt>
      <trkpt lat="44.09232" lon="2.99801">
        <ele>417</ele>
        <time>2010-01-01T00:56:44Z</time>
      </trkpt>
      <trkpt lat="44.09229" lon="2.99795">
        <ele>417</ele>
        <time>2010-01-01T00:56:46Z</time>
      </trkpt>
      <trkpt lat="44.09227" lon="2.9979">
        <ele>417</ele>
        <time>2010-01-01T00:56:48Z</time>
      </trkpt>
      <trkpt lat="44.09223" lon="2.99783">
        <ele>417</ele>
        <time>2010-01-01T00:56:51Z</time>
      </trkpt>
      <trkpt lat="44.09221" lon="2.99777">
        <ele>417</ele>
        <time>2010-01-01T00:56:53Z</time>
      </trkpt>
      <trkpt lat="44.09218" lon="2.9977">
        <ele>417</ele>
        <time>2010-01-01T00:56:55Z</time>
      </trkpt>
      <trkpt lat="44.09215" lon="2.99763">
        <ele>417</ele>
        <time>2010-01-01T00:56:57Z</time>
      </trkpt>
      <trkpt lat="44.09212" lon="2.99756">
        <ele>417</ele>
        <time>2010-01-01T00:57:00Z</time>
      </trkpt>
      <trkpt lat="44.09209" lon="2.99748">
        <ele>417</ele>
        <time>2010-01-01T00:57:02Z</time>
      </trkpt>
      <trkpt lat="44.09207" lon="2.9974">
        <ele>417</ele>
        <time>2010-01-01T00:57:05Z</time>
      </trkpt>
      <trkpt lat="44.09204" lon="2.99731">
        <ele>417</ele>
        <time>2010-01-01T00:57:07Z</time>
      </trkpt>
      <trkpt lat="44.09203" lon="2.99721">
        <ele>417</ele>
        <time>2010-01-01T00:57:10Z</time>
      </trkpt>
      <trkpt lat="44.09203" lon="2.99711">
        <ele>418</ele>
        <time>2010-01-01T00:57:13Z</time>
      </trkpt>
      <trkpt lat="44.09204" lon="2.99702">
        <ele>418</ele>
        <time>2010-01-01T00:57:16Z</time>
      </trkpt>
      <trkpt lat="44.09205" lon="2.99694">
        <ele>418</ele>
        <time>2010-01-01T00:57:18Z</time>
      </trkpt>
      <trkpt lat="44.09206" lon="2.99686">
        <ele>419</ele>
        <time>2010-01-01T00:57:20Z</time>
      </trkpt>
      <trkpt lat="44.09206" lon="2.99678">
        <ele>419</ele>
        <time>2010-01-01T00:57:23Z</time>
      </trkpt>
      <trkpt lat="44.09206" lon="2.9967">
        <ele>419</ele>
        <time>2010-01-01T00:57:25Z</time>
      </trkpt>
      <trkpt lat="44.09207" lon="2.99663">
        <ele>420</ele>
        <time>2010-01-01T00:57:27Z</time>
      </trkpt>
      <trkpt lat="44.09208" lon="2.99655">
        <ele>420</ele>
        <time>2010-01-01T00:57:29Z</time>
      </trkpt>
      <trkpt lat="44.09208" lon="2.99647">
        <ele>421</ele>
        <time>2010-01-01T00:57:32Z</time>
      </trkpt>
      <trkpt lat="44.09209" lon="2.9964">
        <ele>421</ele>
        <time>2010-01-01T00:57:34Z</time>
      </trkpt>
      <trkpt lat="44.09209" lon="2.99633">
        <ele>421</ele>
        <time>2010-01-01T00:57:36Z</time>
      </trkpt>
      <trkpt lat="44.09207" lon="2.99627">
        <ele>422</ele>
        <time>2010-01-01T00:57:38Z</time>
      </trkpt>
      <trkpt lat="44.09204" lon="2.99622">
        <ele>422</ele>
        <time>2010-01-01T00:57:40Z</time>
      </trkpt>
      <trkpt lat="44.092" lon="2.99617">
        <ele>422</ele>
        <time>2010-01-01T00:57:42Z</time>
      </trkpt>
      <trkpt lat="44.09196" lon="2.99612">
        <ele>422</ele>
        <time>2010-01-01T00:57:44Z</time>
      </trkpt>
      <trkpt lat="44.09192" lon="2.99609">
        <ele>422</ele>
        <time>2010-01-01T00:57:46Z</time>
      </trkpt>
      <trkpt lat="44.09188" lon="2.99607">
        <ele>422</ele>
        <time>2010-01-01T00:57:47Z</time>
      </trkpt>
      <trkpt lat="44.09185" lon="2.99605">
        <ele>422</ele>
        <time>2010-01-01T00:57:49Z</time>
      </trkpt>
      <trkpt lat="44.09182" lon="2.99601">
        <ele>422</ele>
        <time>2010-01-01T00:57:50Z</time>
      </trkpt>
      <trkpt lat="44.0918" lon="2.99595">
        <ele>422</ele>
        <time>2010-01-01T00:57:52Z</time>
      </trkpt>
      <trkpt lat="44.09181" lon="2.99589">
        <ele>423</ele>
        <time>2010-01-01T00:57:54Z</time>
      </trkpt>
      <trkpt lat="44.09183" lon="2.99585">
        <ele>424</ele>
        <time>2010-01-01T00:57:55Z</time>
      </trkpt>
      <trkpt lat="44.09185" lon="2.9958">
        <ele>424</ele>
        <time>2010-01-01T00:57:57Z</time>
      </trkpt>
      <trkpt lat="44.09187" lon="2.99576">
        <ele>424</ele>
        <time>2010-01-01T00:57:58Z</time>
      </trkpt>
      <trkpt lat="44.09188" lon="2.99572">
        <ele>425</ele>
        <time>2010-01-01T00:58:00Z</time>
      </trkpt>
      <trkpt lat="44.0919" lon="2.99567">
        <ele>425</ele>
        <time>2010-01-01T00:58:01Z</time>
      </trkpt>
      <trkpt lat="44.09192" lon="2.99563">
        <ele>426</ele>
        <time>2010-01-01T00:58:03Z</time>
      </trkpt>
      <trkpt lat="44.09194" lon="2.99559">
        <ele>426</ele>
        <time>2010-01-01T00:58:04Z</time>
      </trkpt>
      <trkpt lat="44.09195" lon="2.99555">
        <ele>427</ele>
        <time>2010-01-01T00:58:05Z</time>
      </trkpt>
      <trkpt lat="44.09197" lon="2.99551">
        <ele>427</ele>
        <time>2010-01-01T00:58:07Z</time>
      </trkpt>
      <trkpt lat="44.09198" lon="2.99547">
        <ele>428</ele>
        <time>2010-01-01T00:58:08Z</time>
      </trkpt>
      <trkpt lat="44.092" lon="2.99543">
        <ele>428</ele>
        <time>2010-01-01T00:58:09Z</time>
      </trkpt>
      <trkpt lat="44.09201" lon="2.99539">
        <ele>429</ele>
        <time>2010-01-01T00:58:10Z</time>
      </trkpt>
      <trkpt lat="44.09203" lon="2.99535">
        <ele>429</ele>
        <time>2010-01-01T00:58:12Z</time>
      </trkpt>
      <trkpt lat="44.09204" lon="2.99531">
        <ele>430</ele>
        <time>2010-01-01T00:58:13Z</time>
      </trkpt>
      <trkpt lat="44.09206" lon="2.99527">
        <ele>430</ele>
        <time>2010-01-01T00:58:14Z</time>
      </trkpt>
      <trkpt lat="44.09207" lon="2.99523">
        <ele>431</ele>
        <time>2010-01-01T00:58:16Z</time>
      </trkpt>
      <trkpt lat="44.09209" lon="2.99519">
        <ele>432</ele>
        <time>2010-01-01T00:58:17Z</time>
      </trkpt>
      <trkpt lat="44.0921" lon="2.99515">
        <ele>432</ele>
        <time>2010-01-01T00:58:18Z</time>
      </trkpt>
      <trkpt lat="44.09211" lon="2.99512">
        <ele>433</ele>
        <time>2010-01-01T00:58:19Z</time>
      </trkpt>
      <trkpt lat="44.09212" lon="2.99508">
        <ele>434</ele>
        <time>2010-01-01T00:58:20Z</time>
      </trkpt>
      <trkpt lat="44.09214" lon="2.99505">
        <ele>435</ele>
        <time>2010-01-01T00:58:22Z</time>
      </trkpt>
      <trkpt lat="44.09215" lon="2.99502">
        <ele>435</ele>
        <time>2010-01-01T00:58:22Z</time>
      </trkpt>
      <trkpt lat="44.09216" lon="2.99499">
        <ele>436</ele>
        <time>2010-01-01T00:58:23Z</time>
      </trkpt>
      <trkpt lat="44.09217" lon="2.99496">
        <ele>436</ele>
        <time>2010-01-01T00:58:24Z</time>
      </trkpt>
      <trkpt lat="44.09218" lon="2.99494">
        <ele>437</ele>
        <time>2010-01-01T00:58:25Z</time>
      </trkpt>
      <trkpt lat="44.09219" lon="2.99491">
        <ele>437</ele>
        <time>2010-01-01T00:58:26Z</time>
      </trkpt>
      <trkpt lat="44.0922" lon="2.99488">
        <ele>438</ele>
        <time>2010-01-01T00:58:27Z</time>
      </trkpt>
      <trkpt lat="44.0922" lon="2.99486">
        <ele>438</ele>
        <time>2010-01-01T00:58:27Z</time>
      </trkpt>
      <trkpt lat="44.09221" lon="2.99485">
        <ele>439</ele>
        <time>2010-01-01T00:58:28Z</time>
      </trkpt>
      <trkpt lat="44.09222" lon="2.99483">
        <ele>439</ele>
        <time>2010-01-01T00:58:29Z</time>
      </trkpt>
      <trkpt lat="44.09222" lon="2.9948">
        <ele>439</ele>
        <time>2010-01-01T00:58:29Z</time>
      </trkpt>
      <trkpt lat="44.09223" lon="2.99479">
        <ele>440</ele>
        <time>2010-01-01T00:58:30Z</time>
      </trkpt>
      <trkpt lat="44.09223" lon="2.99477">
        <ele>440</ele>
        <time>2010-01-01T00:58:30Z</time>
      </trkpt>
      <trkpt lat="44.09224" lon="2.99475">
        <ele>440</ele>
        <time>2010-01-01T00:58:31Z</time>
      </trkpt>
      <trkpt lat="44.09225" lon="2.99474">
        <ele>441</ele>
        <time>2010-01-01T00:58:32Z</time>
      </trkpt>
      <trkpt lat="44.09226" lon="2.99471">
        <ele>441</ele>
        <time>2010-01-01T00:58:32Z</time>
      </trkpt>
      <trkpt lat="44.09226" lon="2.9947">
        <ele>442</ele>
        <time>2010-01-01T00:58:33Z</time>
      </trkpt>
      <trkpt lat="44.09227" lon="2.99467">
        <ele>442</ele>
        <time>2010-01-01T00:58:34Z</time>
      </trkpt>
      <trkpt lat="44.09228" lon="2.99465">
        <ele>443</ele>
        <time>2010-01-01T00:58:34Z</time>
      </trkpt>
      <trkpt lat="44.09228" lon="2.99463">
        <ele>444</ele>
        <time>2010-01-01T00:58:35Z</time>
      </trkpt>
      <trkpt lat="44.09229" lon="2.99461">
        <ele>444</ele>
        <time>2010-01-01T00:58:36Z</time>
      </trkpt>
      <trkpt lat="44.09229" lon="2.99459">
        <ele>444</ele>
        <time>2010-01-01T00:58:36Z</time>
      </trkpt>
      <trkpt lat="44.09229" lon="2.99457">
        <ele>445</ele>
        <time>2010-01-01T00:58:37Z</time>
      </trkpt>
      <trkpt lat="44.0923" lon="2.99455">
        <ele>445</ele>
        <time>2010-01-01T00:58:37Z</time>
      </trkpt>
      <trkpt lat="44.09231" lon="2.99453">
        <ele>446</ele>
        <time>2010-01-01T00:58:38Z</time>
      </trkpt>
      <trkpt lat="44.09231" lon="2.99451">
        <ele>446</ele>
        <time>2010-01-01T00:58:38Z</time>
      </trkpt>
      <trkpt lat="44.09231" lon="2.99449">
        <ele>447</ele>
        <time>2010-01-01T00:58:39Z</time>
      </trkpt>
      <trkpt lat="44.09232" lon="2.99447">
        <ele>447</ele>
        <time>2010-01-01T00:58:40Z</time>
      </trkpt>
      <trkpt lat="44.09232" lon="2.99445">
        <ele>448</ele>
        <time>2010-01-01T00:58:40Z</time>
      </trkpt>
      <trkpt lat="44.09232" lon="2.99443">
        <ele>448</ele>
        <time>2010-01-01T00:58:41Z</time>
      </trkpt>
      <trkpt lat="44.09232" lon="2.99441">
        <ele>449</ele>
        <time>2010-01-01T00:58:41Z</time>
      </trkpt>
      <trkpt lat="44.09233" lon="2.9944">
        <ele>449</ele>
        <time>2010-01-01T00:58:42Z</time>
      </trkpt>
      <trkpt lat="44.09234" lon="2.99438">
        <ele>450</ele>
        <time>2010-01-01T00:58:42Z</time>
      </trkpt>
      <trkpt lat="44.09234" lon="2.99437">
        <ele>450</ele>
        <time>2010-01-01T00:58:43Z</time>
      </trkpt>
      <trkpt lat="44.09235" lon="2.99436">
        <ele>450</ele>
        <time>2010-01-01T00:58:43Z</time>
      </trkpt>
      <trkpt lat="44.09235" lon="2.99435">
        <ele>451</ele>
        <time>2010-01-01T00:58:44Z</time>
      </trkpt>
      <trkpt lat="44.09237" lon="2.99428">
        <ele>453</ele>
        <time>2010-01-01T00:58:46Z</time>
      </trkpt>
      <trkpt lat="44.09238" lon="2.99427">
        <ele>453</ele>
        <time>2010-01-01T00:58:46Z</time>
      </trkpt>
      <trkpt lat="44.09239" lon="2.99425">
        <ele>454</ele>
        <time>2010-01-01T00:58:47Z</time>
      </trkpt>
      <trkpt lat="44.0924" lon="2.99423">
        <ele>455</ele>
        <time>2010-01-01T00:58:48Z</time>
      </trkpt>
      <trkpt lat="44.09241" lon="2.99421">
        <ele>455</ele>
        <time>2010-01-01T00:58:48Z</time>
      </trkpt>
      <trkpt lat="44.09241" lon="2.99419">
        <ele>456</ele>
        <time>2010-01-01T00:58:49Z</time>
      </trkpt>
      <trkpt lat="44.09241" lon="2.99417">
        <ele>456</ele>
        <time>2010-01-01T00:58:49Z</time>
      </trkpt>
      <trkpt lat="44.09242" lon="2.99416">
        <ele>457</ele>
        <time>2010-01-01T00:58:50Z</time>
      </trkpt>
      <trkpt lat="44.09244" lon="2.99415">
        <ele>457</ele>
        <time>2010-01-01T00:58:50Z</time>
      </trkpt>
      <trkpt lat="44.09244" lon="2.99414">
        <ele>458</ele>
        <time>2010-01-01T00:58:51Z</time>
      </trkpt>
      <trkpt lat="44.09244" lon="2.99413">
        <ele>458</ele>
        <time>2010-01-01T00:58:51Z</time>
      </trkpt>
      <trkpt lat="44.09245" lon="2.99411">
        <ele>459</ele>
        <time>2010-01-01T00:58:52Z</time>
      </trkpt>
      <trkpt lat="44.09246" lon="2.9941">
        <ele>459</ele>
        <time>2010-01-01T00:58:52Z</time>
      </trkpt>
      <trkpt lat="44.09246" lon="2.99408">
        <ele>460</ele>
        <time>2010-01-01T00:58:53Z</time>
      </trkpt>
      <trkpt lat="44.09246" lon="2.99406">
        <ele>460</ele>
        <time>2010-01-01T00:58:53Z</time>
      </trkpt>
      <trkpt lat="44.09246" lon="2.99405">
        <ele>461</ele>
        <time>2010-01-01T00:58:54Z</time>
      </trkpt>
      <trkpt lat="44.09246" lon="2.99403">
        <ele>461</ele>
        <time>2010-01-01T00:58:54Z</time>
      </trkpt>
      <trkpt lat="44.09245" lon="2.99401">
        <ele>461</ele>
        <time>2010-01-01T00:58:55Z</time>
      </trkpt>
      <trkpt lat="44.09244" lon="2.994">
        <ele>461</ele>
        <time>2010-01-01T00:58:55Z</time>
      </trkpt>
      <trkpt lat="44.09244" lon="2.99398">
        <ele>462</ele>
        <time>2010-01-01T00:58:56Z</time>
      </trkpt>
      <trkpt lat="44.09243" lon="2.99397">
        <ele>462</ele>
        <time>2010-01-01T00:58:57Z</time>
      </trkpt>
      <trkpt lat="44.09242" lon="2.99395">
        <ele>462</ele>
        <time>2010-01-01T00:58:57Z</time>
      </trkpt>
      <trkpt lat="44.0924" lon="2.99394">
        <ele>462</ele>
        <time>2010-01-01T00:58:58Z</time>
      </trkpt>
      <trkpt lat="44.0924" lon="2.99392">
        <ele>462</ele>
        <time>2010-01-01T00:58:58Z</time>
      </trkpt>
      <trkpt lat="44.09239" lon="2.9939">
        <ele>462</ele>
        <time>2010-01-01T00:58:59Z</time>
      </trkpt>
      <trkpt lat="44.09238" lon="2.99388">
        <ele>463</ele>
        <time>2010-01-01T00:59:00Z</time>
      </trkpt>
      <trkpt lat="44.09237" lon="2.99386">
        <ele>463</ele>
        <time>2010-01-01T00:59:01Z</time>
      </trkpt>
      <trkpt lat="44.09236" lon="2.99384">
        <ele>463</ele>
        <time>2010-01-01T00:59:01Z</time>
      </trkpt>
      <trkpt lat="44.09236" lon="2.99381">
        <ele>464</ele>
        <time>2010-01-01T00:59:02Z</time>
      </trkpt>
      <trkpt lat="44.09235" lon="2.99379">
        <ele>464</ele>
        <time>2010-01-01T00:59:03Z</time>
      </trkpt>
      <trkpt lat="44.09234" lon="2.99376">
        <ele>464</ele>
        <time>2010-01-01T00:59:03Z</time>
      </trkpt>
      <trkpt lat="44.09233" lon="2.99374">
        <ele>465</ele>
        <time>2010-01-01T00:59:04Z</time>
      </trkpt>
      <trkpt lat="44.09231" lon="2.99372">
        <ele>465</ele>
        <time>2010-01-01T00:59:05Z</time>
      </trkpt>
      <trkpt lat="44.09229" lon="2.99369">
        <ele>465</ele>
        <time>2010-01-01T00:59:06Z</time>
      </trkpt>
      <trkpt lat="44.09228" lon="2.99366">
        <ele>465</ele>
        <time>2010-01-01T00:59:07Z</time>
      </trkpt>
      <trkpt lat="44.09226" lon="2.99363">
        <ele>465</ele>
        <time>2010-01-01T00:59:08Z</time>
      </trkpt>
      <trkpt lat="44.09224" lon="2.9936">
        <ele>465</ele>
        <time>2010-01-01T00:59:09Z</time>
      </trkpt>
      <trkpt lat="44.09223" lon="2.99357">
        <ele>466</ele>
        <time>2010-01-01T00:59:11Z</time>
      </trkpt>
      <trkpt lat="44.09221" lon="2.99354">
        <ele>466</ele>
        <time>2010-01-01T00:59:12Z</time>
      </trkpt>
      <trkpt lat="44.09219" lon="2.99351">
        <ele>467</ele>
        <time>2010-01-01T00:59:13Z</time>
      </trkpt>
      <trkpt lat="44.09217" lon="2.99348">
        <ele>467</ele>
        <time>2010-01-01T00:59:14Z</time>
      </trkpt>
      <trkpt lat="44.09215" lon="2.99345">
        <ele>467</ele>
        <time>2010-01-01T00:59:15Z</time>
      </trkpt>
      <trkpt lat="44.09213" lon="2.99342">
        <ele>468</ele>
        <time>2010-01-01T00:59:16Z</time>
      </trkpt>
      <trkpt lat="44.09212" lon="2.99338">
        <ele>468</ele>
        <time>2010-01-01T00:59:17Z</time>
      </trkpt>
      <trkpt lat="44.09211" lon="2.99335">
        <ele>469</ele>
        <time>2010-01-01T00:59:19Z</time>
      </trkpt>
      <trkpt lat="44.09209" lon="2.99332">
        <ele>469</ele>
        <time>2010-01-01T00:59:20Z</time>
      </trkpt>
      <trkpt lat="44.09207" lon="2.99329">
        <ele>469</ele>
        <time>2010-01-01T00:59:21Z</time>
      </trkpt>
      <trkpt lat="44.09205" lon="2.99327">
        <ele>469</ele>
        <time>2010-01-01T00:59:22Z</time>
      </trkpt>
      <trkpt lat="44.09204" lon="2.99324">
        <ele>469</ele>
        <time>2010-01-01T00:59:23Z</time>
      </trkpt>
      <trkpt lat="44.09202" lon="2.99321">
        <ele>469</ele>
        <time>2010-01-01T00:59:24Z</time>
      </trkpt>
      <trkpt lat="44.092" lon="2.99318">
        <ele>470</ele>
        <time>2010-01-01T00:59:25Z</time>
      </trkpt>
      <trkpt lat="44.09198" lon="2.99315">
        <ele>470</ele>
        <time>2010-01-01T00:59:26Z</time>
      </trkpt>
      <trkpt lat="44.09196" lon="2.99313">
        <ele>470</ele>
        <time>2010-01-01T00:59:27Z</time>
      </trkpt>
      <trkpt lat="44.09194" lon="2.99311">
        <ele>469</ele>
        <time>2010-01-01T00:59:28Z</time>
      </trkpt>
      <trkpt lat="44.09192" lon="2.99308">
        <ele>469</ele>
        <time>2010-01-01T00:59:30Z</time>
      </trkpt>
      <trkpt lat="44.0919" lon="2.99306">
        <ele>469</ele>
        <time>2010-01-01T00:59:31Z</time>
      </trkpt>
      <trkpt lat="44.09187" lon="2.99305">
        <ele>468</ele>
        <time>2010-01-01T00:59:32Z</time>
      </trkpt>
      <trkpt lat="44.09184" lon="2.99302">
        <ele>468</ele>
        <time>2010-01-01T00:59:33Z</time>
      </trkpt>
      <trkpt lat="44.09181" lon="2.99299">
        <ele>468</ele>
        <time>2010-01-01T00:59:35Z</time>
      </trkpt>
      <trkpt lat="44.09178" lon="2.99296">
        <ele>468</ele>
        <time>2010-01-01T00:59:36Z</time>
      </trkpt>
      <trkpt lat="44.09176" lon="2.99292">
        <ele>468</ele>
        <time>2010-01-01T00:59:37Z</time>
      </trkpt>
      <trkpt lat="44.09175" lon="2.99287">
        <ele>468</ele>
        <time>2010-01-01T00:59:39Z</time>
      </trkpt>
      <trkpt lat="44.09174" lon="2.99283">
        <ele>469</ele>
        <time>2010-01-01T00:59:40Z</time>
      </trkpt>
      <trkpt lat="44.09173" lon="2.9928">
        <ele>469</ele>
        <time>2010-01-01T00:59:41Z</time>
      </trkpt>
      <trkpt lat="44.09173" lon="2.99276">
        <ele>470</ele>
        <time>2010-01-01T00:59:42Z</time>
      </trkpt>
      <trkpt lat="44.09173" lon="2.99272">
        <ele>471</ele>
        <time>2010-01-01T00:59:43Z</time>
      </trkpt>
      <trkpt lat="44.09173" lon="2.99268">
        <ele>471</ele>
        <time>2010-01-01T00:59:44Z</time>
      </trkpt>
      <trkpt lat="44.09172" lon="2.99265">
        <ele>472</ele>
        <time>2010-01-01T00:59:46Z</time>
      </trkpt>
      <trkpt lat="44.09172" lon="2.9926">
        <ele>472</ele>
        <time>2010-01-01T00:59:47Z</time>
      </trkpt>
      <trkpt lat="44.09172" lon="2.99256">
        <ele>473</ele>
        <time>2010-01-01T00:59:48Z</time>
      </trkpt>
      <trkpt lat="44.09172" lon="2.99253">
        <ele>474</ele>
        <time>2010-01-01T00:59:49Z</time>
      </trkpt>
      <trkpt lat="44.09171" lon="2.99248">
        <ele>474</ele>
        <time>2010-01-01T00:59:50Z</time>
      </trkpt>
      <trkpt lat="44.09171" lon="2.99242">
        <ele>474</ele>
        <time>2010-01-01T00:59:52Z</time>
      </trkpt>
      <trkpt lat="44.09171" lon="2.99239">
        <ele>475</ele>
        <time>2010-01-01T00:59:53Z</time>
      </trkpt>
      <trkpt lat="44.09171" lon="2.99237">
        <ele>475</ele>
        <time>2010-01-01T00:59:54Z</time>
      </trkpt>
      <trkpt lat="44.0917" lon="2.99235">
        <ele>475</ele>
        <time>2010-01-01T00:59:54Z</time>
      </trkpt>
      <trkpt lat="44.0917" lon="2.99232">
        <ele>475</ele>
        <time>2010-01-01T00:59:55Z</time>
      </trkpt>
      <trkpt lat="44.0917" lon="2.9923">
        <ele>475</ele>
        <time>2010-01-01T00:59:56Z</time>
      </trkpt>
      <trkpt lat="44.0917" lon="2.99229">
        <ele>475</ele>
        <time>2010-01-01T00:59:56Z</time>
      </trkpt>
      <trkpt lat="44.0917" lon="2.99229">
        <ele>475</ele>
        <time>2010-01-01T00:59:56Z</time>
      </trkpt>
      <trkpt lat="44.0917" lon="2.99229">
        <ele>475</ele>
        <time>2010-01-01T00:59:56Z</time>
      </trkpt>
      <trkpt lat="44.0917" lon="2.99223">
        <ele>476</ele>
        <time>2010-01-01T00:59:58Z</time>
      </trkpt>
      <trkpt lat="44.09169" lon="2.9922">
        <ele>476</ele>
        <time>2010-01-01T00:59:59Z</time>
      </trkpt>
      <trkpt lat="44.09169" lon="2.99215">
        <ele>476</ele>
        <time>2010-01-01T01:00:00Z</time>
      </trkpt>
      <trkpt lat="44.09169" lon="2.9921">
        <ele>476</ele>
        <time>2010-01-01T01:00:01Z</time>
      </trkpt>
      <trkpt lat="44.09168" lon="2.99205">
        <ele>476</ele>
        <time>2010-01-01T01:00:03Z</time>
      </trkpt>
      <trkpt lat="44.09167" lon="2.992">
        <ele>476</ele>
        <time>2010-01-01T01:00:04Z</time>
      </trkpt>
      <trkpt lat="44.09166" lon="2.99194">
        <ele>476</ele>
        <time>2010-01-01T01:00:06Z</time>
      </trkpt>
      <trkpt lat="44.09166" lon="2.99187">
        <ele>476</ele>
        <time>2010-01-01T01:00:08Z</time>
      </trkpt>
      <trkpt lat="44.09165" lon="2.99182">
        <ele>476</ele>
        <time>2010-01-01T01:00:10Z</time>
      </trkpt>
      <trkpt lat="44.09164" lon="2.99177">
        <ele>476</ele>
        <time>2010-01-01T01:00:11Z</time>
      </trkpt>
      <trkpt lat="44.09163" lon="2.99171">
        <ele>476</ele>
        <time>2010-01-01T01:00:13Z</time>
      </trkpt>
      <trkpt lat="44.09162" lon="2.99166">
        <ele>476</ele>
        <time>2010-01-01T01:00:14Z</time>
      </trkpt>
      <trkpt lat="44.09162" lon="2.99161">
        <ele>476</ele>
        <time>2010-01-01T01:00:16Z</time>
      </trkpt>
      <trkpt lat="44.09161" lon="2.99154">
        <ele>476</ele>
        <time>2010-01-01T01:00:18Z</time>
      </trkpt>
      <trkpt lat="44.0916" lon="2.99149">
        <ele>476</ele>
        <time>2010-01-01T01:00:20Z</time>
      </trkpt>
      <trkpt lat="44.0916" lon="2.99142">
        <ele>477</ele>
        <time>2010-01-01T01:00:21Z</time>
      </trkpt>
      <trkpt lat="44.0916" lon="2.99137">
        <ele>477</ele>
        <time>2010-01-01T01:00:23Z</time>
      </trkpt>
      <trkpt lat="44.0916" lon="2.99132">
        <ele>476</ele>
        <time>2010-01-01T01:00:24Z</time>
      </trkpt>
      <trkpt lat="44.09159" lon="2.99125">
        <ele>476</ele>
        <time>2010-01-01T01:00:26Z</time>
      </trkpt>
      <trkpt lat="44.09158" lon="2.99118">
        <ele>476</ele>
        <time>2010-01-01T01:00:29Z</time>
      </trkpt>
      <trkpt lat="44.09158" lon="2.9911">
        <ele>476</ele>
        <time>2010-01-01T01:00:31Z</time>
      </trkpt>
      <trkpt lat="44.09159" lon="2.99102">
        <ele>476</ele>
        <time>2010-01-01T01:00:33Z</time>
      </trkpt>
      <trkpt lat="44.09159" lon="2.99094">
        <ele>475</ele>
        <time>2010-01-01T01:00:35Z</time>
      </trkpt>
      <trkpt lat="44.09159" lon="2.99087">
        <ele>475</ele>
        <time>2010-01-01T01:00:37Z</time>
      </trkpt>
      <trkpt lat="44.0916" lon="2.99079">
        <ele>475</ele>
        <time>2010-01-01T01:00:40Z</time>
      </trkpt>
      <trkpt lat="44.09161" lon="2.99071">
        <ele>476</ele>
        <time>2010-01-01T01:00:42Z</time>
      </trkpt>
      <trkpt lat="44.09159" lon="2.99063">
        <ele>476</ele>
        <time>2010-01-01T01:00:44Z</time>
      </trkpt>
      <trkpt lat="44.09158" lon="2.99056">
        <ele>476</ele>
        <time>2010-01-01T01:00:47Z</time>
      </trkpt>
      <trkpt lat="44.09157" lon="2.99048">
        <ele>476</ele>
        <time>2010-01-01T01:00:49Z</time>
      </trkpt>
      <trkpt lat="44.09156" lon="2.99039">
        <ele>475</ele>
        <time>2010-01-01T01:00:51Z</time>
      </trkpt>
      <trkpt lat="44.09155" lon="2.99031">
        <ele>475</ele>
        <time>2010-01-01T01:00:54Z</time>
      </trkpt>
      <trkpt lat="44.09155" lon="2.99023">
        <ele>475</ele>
        <time>2010-01-01T01:00:56Z</time>
      </trkpt>
      <trkpt lat="44.09155" lon="2.99015">
        <ele>475</ele>
        <time>2010-01-01T01:00:58Z</time>
      </trkpt>
      <trkpt lat="44.09155" lon="2.99008">
        <ele>476</ele>
        <time>2010-01-01T01:01:01Z</time>
      </trkpt>
      <trkpt lat="44.09154" lon="2.99001">
        <ele>476</ele>
        <time>2010-01-01T01:01:03Z</time>
      </trkpt>
      <trkpt lat="44.09153" lon="2.98993">
        <ele>476</ele>
        <time>2010-01-01T01:01:05Z</time>
      </trkpt>
      <trkpt lat="44.09153" lon="2.98986">
        <ele>476</ele>
        <time>2010-01-01T01:01:07Z</time>
      </trkpt>
      <trkpt lat="44.09153" lon="2.98978">
        <ele>477</ele>
        <time>2010-01-01T01:01:09Z</time>
      </trkpt>
      <trkpt lat="44.09154" lon="2.98971">
        <ele>477</ele>
        <time>2010-01-01T01:01:11Z</time>
      </trkpt>
      <trkpt lat="44.09154" lon="2.98964">
        <ele>477</ele>
        <time>2010-01-01T01:01:13Z</time>
      </trkpt>
      <trkpt lat="44.09153" lon="2.98957">
        <ele>477</ele>
        <time>2010-01-01T01:01:15Z</time>
      </trkpt>
      <trkpt lat="44.09153" lon="2.9895">
        <ele>477</ele>
        <time>2010-01-01T01:01:17Z</time>
      </trkpt>
      <trkpt lat="44.09154" lon="2.98943">
        <ele>477</ele>
        <time>2010-01-01T01:01:19Z</time>
      </trkpt>
      <trkpt lat="44.09156" lon="2.98938">
        <ele>477</ele>
        <time>2010-01-01T01:01:21Z</time>
      </trkpt>
      <trkpt lat="44.09159" lon="2.98934">
        <ele>478</ele>
        <time>2010-01-01T01:01:23Z</time>
      </trkpt>
      <trkpt lat="44.09159" lon="2.98929">
        <ele>478</ele>
        <time>2010-01-01T01:01:24Z</time>
      </trkpt>
      <trkpt lat="44.09161" lon="2.98925">
        <ele>478</ele>
        <time>2010-01-01T01:01:25Z</time>
      </trkpt>
      <trkpt lat="44.09162" lon="2.9892">
        <ele>478</ele>
        <time>2010-01-01T01:01:27Z</time>
      </trkpt>
      <trkpt lat="44.09162" lon="2.98913">
        <ele>478</ele>
        <time>2010-01-01T01:01:29Z</time>
      </trkpt>
      <trkpt lat="44.09163" lon="2.98906">
        <ele>478</ele>
        <time>2010-01-01T01:01:31Z</time>
      </trkpt>
      <trkpt lat="44.09166" lon="2.98901">
        <ele>478</ele>
        <time>2010-01-01T01:01:33Z</time>
      </trkpt>
      <trkpt lat="44.0917" lon="2.98897">
        <ele>479</ele>
        <time>2010-01-01T01:01:35Z</time>
      </trkpt>
      <trkpt lat="44.09171" lon="2.98892">
        <ele>479</ele>
        <time>2010-01-01T01:01:36Z</time>
      </trkpt>
      <trkpt lat="44.09172" lon="2.98885">
        <ele>479</ele>
        <time>2010-01-01T01:01:38Z</time>
      </trkpt>
      <trkpt lat="44.09173" lon="2.98878">
        <ele>479</ele>
        <time>2010-01-01T01:01:40Z</time>
      </trkpt>
      <trkpt lat="44.09174" lon="2.98871">
        <ele>478</ele>
        <time>2010-01-01T01:01:43Z</time>
      </trkpt>
      <trkpt lat="44.09173" lon="2.98863">
        <ele>478</ele>
        <time>2010-01-01T01:01:45Z</time>
      </trkpt>
      <trkpt lat="44.09172" lon="2.98857">
        <ele>477</ele>
        <time>2010-01-01T01:01:47Z</time>
      </trkpt>
      <trkpt lat="44.09171" lon="2.98849">
        <ele>476</ele>
        <time>2010-01-01T01:01:49Z</time>
      </trkpt>
      <trkpt lat="44.09173" lon="2.98842">
        <ele>475</ele>
        <time>2010-01-01T01:01:51Z</time>
      </trkpt>
      <trkpt lat="44.09176" lon="2.98837">
        <ele>475</ele>
        <time>2010-01-01T01:01:53Z</time>
      </trkpt>
      <trkpt lat="44.09179" lon="2.98832">
        <ele>474</ele>
        <time>2010-01-01T01:01:55Z</time>
      </trkpt>
      <trkpt lat="44.09183" lon="2.98831">
        <ele>475</ele>
        <time>2010-01-01T01:01:56Z</time>
      </trkpt>
      <trkpt lat="44.09188" lon="2.98832">
        <ele>476</ele>
        <time>2010-01-01T01:01:58Z</time>
      </trkpt>
      <trkpt lat="44.09192" lon="2.98831">
        <ele>476</ele>
        <time>2010-01-01T01:02:00Z</time>
      </trkpt>
      <trkpt lat="44.09196" lon="2.9883">
        <ele>476</ele>
        <time>2010-01-01T01:02:02Z</time>
      </trkpt>
      <trkpt lat="44.09201" lon="2.98827">
        <ele>476</ele>
        <time>2010-01-01T01:02:04Z</time>
      </trkpt>
      <trkpt lat="44.09207" lon="2.98823">
        <ele>475</ele>
        <time>2010-01-01T01:02:06Z</time>
      </trkpt>
      <trkpt lat="44.09212" lon="2.98819">
        <ele>474</ele>
        <time>2010-01-01T01:02:09Z</time>
      </trkpt>
      <trkpt lat="44.09216" lon="2.98814">
        <ele>473</ele>
        <time>2010-01-01T01:02:11Z</time>
      </trkpt>
      <trkpt lat="44.0922" lon="2.98811">
        <ele>473</ele>
        <time>2010-01-01T01:02:13Z</time>
      </trkpt>
      <trkpt lat="44.09224" lon="2.98807">
        <ele>472</ele>
        <time>2010-01-01T01:02:15Z</time>
      </trkpt>
      <trkpt lat="44.09228" lon="2.98806">
        <ele>472</ele>
        <time>2010-01-01T01:02:16Z</time>
      </trkpt>
      <trkpt lat="44.09231" lon="2.98805">
        <ele>472</ele>
        <time>2010-01-01T01:02:17Z</time>
      </trkpt>
      <trkpt lat="44.09231" lon="2.98805">
        <ele>472</ele>
        <time>2010-01-01T01:02:17Z</time>
      </trkpt>
      <trkpt lat="44.09231" lon="2.98805">
        <ele>472</ele>
        <time>2010-01-01T01:02:18Z</time>
      </trkpt>
      <trkpt lat="44.09231" lon="2.98805">
        <ele>472</ele>
        <time>2010-01-01T01:02:18Z</time>
      </trkpt>
      <trkpt lat="44.09239" lon="2.98804">
        <ele>473</ele>
        <time>2010-01-01T01:02:21Z</time>
      </trkpt>
      <trkpt lat="44.09244" lon="2.98803">
        <ele>473</ele>
        <time>2010-01-01T01:02:23Z</time>
      </trkpt>
      <trkpt lat="44.09248" lon="2.988">
        <ele>472</ele>
        <time>2010-01-01T01:02:24Z</time>
      </trkpt>
      <trkpt lat="44.09252" lon="2.98797">
        <ele>471</ele>
        <time>2010-01-01T01:02:26Z</time>
      </trkpt>
      <trkpt lat="44.09256" lon="2.98796">
        <ele>472</ele>
        <time>2010-01-01T01:02:28Z</time>
      </trkpt>
      <trkpt lat="44.09261" lon="2.98795">
        <ele>472</ele>
        <time>2010-01-01T01:02:30Z</time>
      </trkpt>
      <trkpt lat="44.09265" lon="2.98794">
        <ele>473</ele>
        <time>2010-01-01T01:02:32Z</time>
      </trkpt>
      <trkpt lat="44.0927" lon="2.98794">
        <ele>474</ele>
        <time>2010-01-01T01:02:34Z</time>
      </trkpt>
      <trkpt lat="44.09274" lon="2.98793">
        <ele>475</ele>
        <time>2010-01-01T01:02:35Z</time>
      </trkpt>
      <trkpt lat="44.09279" lon="2.98793">
        <ele>476</ele>
        <time>2010-01-01T01:02:37Z</time>
      </trkpt>
      <trkpt lat="44.09284" lon="2.98793">
        <ele>477</ele>
        <time>2010-01-01T01:02:39Z</time>
      </trkpt>
      <trkpt lat="44.09289" lon="2.98792">
        <ele>478</ele>
        <time>2010-01-01T01:02:41Z</time>
      </trkpt>
      <trkpt lat="44.09293" lon="2.98792">
        <ele>479</ele>
        <time>2010-01-01T01:02:43Z</time>
      </trkpt>
      <trkpt lat="44.09297" lon="2.98792">
        <ele>480</ele>
        <time>2010-01-01T01:02:45Z</time>
      </trkpt>
      <trkpt lat="44.09302" lon="2.98792">
        <ele>481</ele>
        <time>2010-01-01T01:02:46Z</time>
      </trkpt>
      <trkpt lat="44.09306" lon="2.98791">
        <ele>481</ele>
        <time>2010-01-01T01:02:48Z</time>
      </trkpt>
      <trkpt lat="44.0931" lon="2.9879">
        <ele>482</ele>
        <time>2010-01-01T01:02:50Z</time>
      </trkpt>
      <trkpt lat="44.09314" lon="2.98789">
        <ele>483</ele>
        <time>2010-01-01T01:02:51Z</time>
      </trkpt>
      <trkpt lat="44.09318" lon="2.98788">
        <ele>483</ele>
        <time>2010-01-01T01:02:53Z</time>
      </trkpt>
      <trkpt lat="44.09323" lon="2.98785">
        <ele>484</ele>
        <time>2010-01-01T01:02:55Z</time>
      </trkpt>
      <trkpt lat="44.09327" lon="2.98783">
        <ele>484</ele>
        <time>2010-01-01T01:02:57Z</time>
      </trkpt>
      <trkpt lat="44.09332" lon="2.98779">
        <ele>484</ele>
        <time>2010-01-01T01:02:59Z</time>
      </trkpt>
      <trkpt lat="44.09338" lon="2.98775">
        <ele>485</ele>
        <time>2010-01-01T01:03:02Z</time>
      </trkpt>
      <trkpt lat="44.09344" lon="2.98772">
        <ele>485</ele>
        <time>2010-01-01T01:03:05Z</time>
      </trkpt>
      <trkpt lat="44.09351" lon="2.98767">
        <ele>485</ele>
        <time>2010-01-01T01:03:07Z</time>
      </trkpt>
      <trkpt lat="44.09357" lon="2.98762">
        <ele>484</ele>
        <time>2010-01-01T01:03:10Z</time>
      </trkpt>
      <trkpt lat="44.09363" lon="2.98758">
        <ele>484</ele>
        <time>2010-01-01T01:03:13Z</time>
      </trkpt>
      <trkpt lat="44.09369" lon="2.98754">
        <ele>484</ele>
        <time>2010-01-01T01:03:15Z</time>
      </trkpt>
      <trkpt lat="44.09374" lon="2.9875">
        <ele>484</ele>
        <time>2010-01-01T01:03:18Z</time>
      </trkpt>
      <trkpt lat="44.09379" lon="2.98746">
        <ele>484</ele>
        <time>2010-01-01T01:03:20Z</time>
      </trkpt>
      <trkpt lat="44.09385" lon="2.98741">
        <ele>483</ele>
        <time>2010-01-01T01:03:23Z</time>
      </trkpt>
      <trkpt lat="44.09391" lon="2.98736">
        <ele>483</ele>
        <time>2010-01-01T01:03:26Z</time>
      </trkpt>
      <trkpt lat="44.09398" lon="2.98732">
        <ele>481</ele>
        <time>2010-01-01T01:03:29Z</time>
      </trkpt>
      <trkpt lat="44.09406" lon="2.98729">
        <ele>480</ele>
        <time>2010-01-01T01:03:32Z</time>
      </trkpt>
      <trkpt lat="44.09415" lon="2.98727">
        <ele>480</ele>
        <time>2010-01-01T01:03:36Z</time>
      </trkpt>
      <trkpt lat="44.09423" lon="2.98725">
        <ele>479</ele>
        <time>2010-01-01T01:03:39Z</time>
      </trkpt>
      <trkpt lat="44.09431" lon="2.98725">
        <ele>479</ele>
        <time>2010-01-01T01:03:42Z</time>
      </trkpt>
      <trkpt lat="44.09439" lon="2.98725">
        <ele>480</ele>
        <time>2010-01-01T01:03:46Z</time>
      </trkpt>
      <trkpt lat="44.09449" lon="2.98725">
        <ele>481</ele>
        <time>2010-01-01T01:03:49Z</time>
      </trkpt>
      <trkpt lat="44.09458" lon="2.98726">
        <ele>483</ele>
        <time>2010-01-01T01:03:53Z</time>
      </trkpt>
      <trkpt lat="44.09467" lon="2.98726">
        <ele>484</ele>
        <time>2010-01-01T01:03:57Z</time>
      </trkpt>
      <trkpt lat="44.09477" lon="2.98727">
        <ele>486</ele>
        <time>2010-01-01T01:04:01Z</time>
      </trkpt>
      <trkpt lat="44.09485" lon="2.98729">
        <ele>487</ele>
        <time>2010-01-01T01:04:04Z</time>
      </trkpt>
      <trkpt lat="44.09494" lon="2.9873">
        <ele>488</ele>
        <time>2010-01-01T01:04:08Z</time>
      </trkpt>
      <trkpt lat="44.09503" lon="2.98731">
        <ele>489</ele>
        <time>2010-01-01T01:04:11Z</time>
      </trkpt>
      <trkpt lat="44.09511" lon="2.98731">
        <ele>490</ele>
        <time>2010-01-01T01:04:14Z</time>
      </trkpt>
      <trkpt lat="44.09519" lon="2.9873">
        <ele>490</ele>
        <time>2010-01-01T01:04:17Z</time>
      </trkpt>
      <trkpt lat="44.09526" lon="2.98728">
        <ele>489</ele>
        <time>2010-01-01T01:04:21Z</time>
      </trkpt>
      <trkpt lat="44.09535" lon="2.98723">
        <ele>488</ele>
        <time>2010-01-01T01:04:24Z</time>
      </trkpt>
      <trkpt lat="44.09543" lon="2.98717">
        <ele>489</ele>
        <time>2010-01-01T01:04:28Z</time>
      </trkpt>
      <trkpt lat="44.09548" lon="2.98706">
        <ele>488</ele>
        <time>2010-01-01T01:04:32Z</time>
      </trkpt>
      <trkpt lat="44.09546" lon="2.98698">
        <ele>487</ele>
        <time>2010-01-01T01:04:34Z</time>
      </trkpt>
      <trkpt lat="44.09542" lon="2.9869">
        <ele>486</ele>
        <time>2010-01-01T01:04:37Z</time>
      </trkpt>
      <trkpt lat="44.09538" lon="2.98681">
        <ele>484</ele>
        <time>2010-01-01T01:04:40Z</time>
      </trkpt>
      <trkpt lat="44.09536" lon="2.9867">
        <ele>483</ele>
        <time>2010-01-01T01:04:43Z</time>
      </trkpt>
      <trkpt lat="44.09535" lon="2.98659">
        <ele>482</ele>
        <time>2010-01-01T01:04:46Z</time>
      </trkpt>
      <trkpt lat="44.09534" lon="2.9865">
        <ele>482</ele>
        <time>2010-01-01T01:04:49Z</time>
      </trkpt>
      <trkpt lat="44.09534" lon="2.98639">
        <ele>481</ele>
        <time>2010-01-01T01:04:52Z</time>
      </trkpt>
      <trkpt lat="44.09533" lon="2.98628">
        <ele>481</ele>
        <time>2010-01-01T01:04:55Z</time>
      </trkpt>
      <trkpt lat="44.09533" lon="2.98614">
        <ele>480</ele>
        <time>2010-01-01T01:04:59Z</time>
      </trkpt>
      <trkpt lat="44.09533" lon="2.986">
        <ele>479</ele>
        <time>2010-01-01T01:05:03Z</time>
      </trkpt>
      <trkpt lat="44.09533" lon="2.98587">
        <ele>479</ele>
        <time>2010-01-01T01:05:07Z</time>
      </trkpt>
      <trkpt lat="44.09539" lon="2.98578">
        <ele>481</ele>
        <time>2010-01-01T01:05:11Z</time>
      </trkpt>
      <trkpt lat="44.09545" lon="2.9857">
        <ele>482</ele>
        <time>2010-01-01T01:05:14Z</time>
      </trkpt>
      <trkpt lat="44.0955" lon="2.98562">
        <ele>483</ele>
        <time>2010-01-01T01:05:17Z</time>
      </trkpt>
      <trkpt lat="44.09555" lon="2.98555">
        <ele>484</ele>
        <time>2010-01-01T01:05:20Z</time>
      </trkpt>
      <trkpt lat="44.09561" lon="2.98548">
        <ele>485</ele>
        <time>2010-01-01T01:05:23Z</time>
      </trkpt>
      <trkpt lat="44.09566" lon="2.98543">
        <ele>486</ele>
        <time>2010-01-01T01:05:25Z</time>
      </trkpt>
      <trkpt lat="44.09571" lon="2.98537">
        <ele>487</ele>
        <time>2010-01-01T01:05:28Z</time>
      </trkpt>
      <trkpt lat="44.09576" lon="2.98532">
        <ele>488</ele>
        <time>2010-01-01T01:05:31Z</time>
      </trkpt>
      <trkpt lat="44.09581" lon="2.98525">
        <ele>488</ele>
        <time>2010-01-01T01:05:33Z</time>
      </trkpt>
      <trkpt lat="44.09585" lon="2.98519">
        <ele>488</ele>
        <time>2010-01-01T01:05:36Z</time>
      </trkpt>
      <trkpt lat="44.09589" lon="2.98513">
        <ele>487</ele>
        <time>2010-01-01T01:05:38Z</time>
      </trkpt>
      <trkpt lat="44.09594" lon="2.98507">
        <ele>487</ele>
        <time>2010-01-01T01:05:41Z</time>
      </trkpt>
      <trkpt lat="44.09599" lon="2.98501">
        <ele>486</ele>
        <time>2010-01-01T01:05:43Z</time>
      </trkpt>
      <trkpt lat="44.09603" lon="2.98496">
        <ele>486</ele>
        <time>2010-01-01T01:05:45Z</time>
      </trkpt>
      <trkpt lat="44.09608" lon="2.98491">
        <ele>486</ele>
        <time>2010-01-01T01:05:48Z</time>
      </trkpt>
      <trkpt lat="44.09613" lon="2.98487">
        <ele>487</ele>
        <time>2010-01-01T01:05:50Z</time>
      </trkpt>
      <trkpt lat="44.09617" lon="2.98482">
        <ele>487</ele>
        <time>2010-01-01T01:05:52Z</time>
      </trkpt>
      <trkpt lat="44.09622" lon="2.98478">
        <ele>487</ele>
        <time>2010-01-01T01:05:55Z</time>
      </trkpt>
      <trkpt lat="44.09627" lon="2.98475">
        <ele>488</ele>
        <time>2010-01-01T01:05:57Z</time>
      </trkpt>
      <trkpt lat="44.09633" lon="2.98473">
        <ele>489</ele>
        <time>2010-01-01T01:05:59Z</time>
      </trkpt>
      <trkpt lat="44.09638" lon="2.9847">
        <ele>490</ele>
        <time>2010-01-01T01:06:01Z</time>
      </trkpt>
      <trkpt lat="44.09643" lon="2.98468">
        <ele>490</ele>
        <time>2010-01-01T01:06:04Z</time>
      </trkpt>
      <trkpt lat="44.09648" lon="2.98466">
        <ele>492</ele>
        <time>2010-01-01T01:06:06Z</time>
      </trkpt>
      <trkpt lat="44.09653" lon="2.98464">
        <ele>493</ele>
        <time>2010-01-01T01:06:08Z</time>
      </trkpt>
      <trkpt lat="44.09658" lon="2.98463">
        <ele>493</ele>
        <time>2010-01-01T01:06:10Z</time>
      </trkpt>
      <trkpt lat="44.09663" lon="2.98461">
        <ele>494</ele>
        <time>2010-01-01T01:06:12Z</time>
      </trkpt>
      <trkpt lat="44.09668" lon="2.98459">
        <ele>495</ele>
        <time>2010-01-01T01:06:14Z</time>
      </trkpt>
      <trkpt lat="44.09673" lon="2.98457">
        <ele>494</ele>
        <time>2010-01-01T01:06:16Z</time>
      </trkpt>
      <trkpt lat="44.09678" lon="2.98455">
        <ele>494</ele>
        <time>2010-01-01T01:06:18Z</time>
      </trkpt>
      <trkpt lat="44.09683" lon="2.98452">
        <ele>494</ele>
        <time>2010-01-01T01:06:20Z</time>
      </trkpt>
      <trkpt lat="44.09688" lon="2.9845">
        <ele>494</ele>
        <time>2010-01-01T01:06:22Z</time>
      </trkpt>
      <trkpt lat="44.09693" lon="2.98448">
        <ele>494</ele>
        <time>2010-01-01T01:06:24Z</time>
      </trkpt>
      <trkpt lat="44.09698" lon="2.98446">
        <ele>494</ele>
        <time>2010-01-01T01:06:27Z</time>
      </trkpt>
      <trkpt lat="44.09704" lon="2.98443">
        <ele>494</ele>
        <time>2010-01-01T01:06:29Z</time>
      </trkpt>
      <trkpt lat="44.0971" lon="2.9844">
        <ele>494</ele>
        <time>2010-01-01T01:06:31Z</time>
      </trkpt>
      <trkpt lat="44.09716" lon="2.98437">
        <ele>494</ele>
        <time>2010-01-01T01:06:34Z</time>
      </trkpt>
      <trkpt lat="44.09722" lon="2.98434">
        <ele>493</ele>
        <time>2010-01-01T01:06:37Z</time>
      </trkpt>
      <trkpt lat="44.09728" lon="2.98431">
        <ele>493</ele>
        <time>2010-01-01T01:06:39Z</time>
      </trkpt>
      <trkpt lat="44.09734" lon="2.98428">
        <ele>492</ele>
        <time>2010-01-01T01:06:42Z</time>
      </trkpt>
      <trkpt lat="44.0974" lon="2.98425">
        <ele>491</ele>
        <time>2010-01-01T01:06:44Z</time>
      </trkpt>
      <trkpt lat="44.09747" lon="2.98421">
        <ele>490</ele>
        <time>2010-01-01T01:06:47Z</time>
      </trkpt>
      <trkpt lat="44.09754" lon="2.98418">
        <ele>490</ele>
        <time>2010-01-01T01:06:50Z</time>
      </trkpt>
      <trkpt lat="44.09761" lon="2.98415">
        <ele>489</ele>
        <time>2010-01-01T01:06:53Z</time>
      </trkpt>
      <trkpt lat="44.0977" lon="2.98413">
        <ele>490</ele>
        <time>2010-01-01T01:06:57Z</time>
      </trkpt>
      <trkpt lat="44.09778" lon="2.98411">
        <ele>490</ele>
        <time>2010-01-01T01:07:00Z</time>
      </trkpt>
      <trkpt lat="44.09788" lon="2.98408">
        <ele>491</ele>
        <time>2010-01-01T01:07:04Z</time>
      </trkpt>
      <trkpt lat="44.09797" lon="2.98404">
        <ele>492</ele>
        <time>2010-01-01T01:07:08Z</time>
      </trkpt>
      <trkpt lat="44.09806" lon="2.984">
        <ele>492</ele>
        <time>2010-01-01T01:07:12Z</time>
      </trkpt>
      <trkpt lat="44.09816" lon="2.98397">
        <ele>492</ele>
        <time>2010-01-01T01:07:16Z</time>
      </trkpt>
      <trkpt lat="44.09826" lon="2.98394">
        <ele>493</ele>
        <time>2010-01-01T01:07:20Z</time>
      </trkpt>
      <trkpt lat="44.09835" lon="2.98392">
        <ele>493</ele>
        <time>2010-01-01T01:07:24Z</time>
      </trkpt>
      <trkpt lat="44.09845" lon="2.9839">
        <ele>493</ele>
        <time>2010-01-01T01:07:28Z</time>
      </trkpt>
      <trkpt lat="44.09855" lon="2.9839">
        <ele>493</ele>
        <time>2010-01-01T01:07:31Z</time>
      </trkpt>
      <trkpt lat="44.09864" lon="2.98391">
        <ele>495</ele>
        <time>2010-01-01T01:07:35Z</time>
      </trkpt>
      <trkpt lat="44.09873" lon="2.98392">
        <ele>497</ele>
        <time>2010-01-01T01:07:39Z</time>
      </trkpt>
      <trkpt lat="44.09882" lon="2.98393">
        <ele>499</ele>
        <time>2010-01-01T01:07:43Z</time>
      </trkpt>
      <trkpt lat="44.0989" lon="2.98392">
        <ele>500</ele>
        <time>2010-01-01T01:07:46Z</time>
      </trkpt>
      <trkpt lat="44.09893" lon="2.98384">
        <ele>501</ele>
        <time>2010-01-01T01:07:48Z</time>
      </trkpt>
      <trkpt lat="44.09892" lon="2.98378">
        <ele>501</ele>
        <time>2010-01-01T01:07:50Z</time>
      </trkpt>
      <trkpt lat="44.09891" lon="2.98373">
        <ele>502</ele>
        <time>2010-01-01T01:07:51Z</time>
      </trkpt>
      <trkpt lat="44.09889" lon="2.98368">
        <ele>502</ele>
        <time>2010-01-01T01:07:53Z</time>
      </trkpt>
      <trkpt lat="44.09887" lon="2.98363">
        <ele>501</ele>
        <time>2010-01-01T01:07:55Z</time>
      </trkpt>
      <trkpt lat="44.09883" lon="2.98358">
        <ele>501</ele>
        <time>2010-01-01T01:07:57Z</time>
      </trkpt>
      <trkpt lat="44.09878" lon="2.98353">
        <ele>500</ele>
        <time>2010-01-01T01:07:59Z</time>
      </trkpt>
      <trkpt lat="44.09874" lon="2.98349">
        <ele>499</ele>
        <time>2010-01-01T01:08:01Z</time>
      </trkpt>
      <trkpt lat="44.0987" lon="2.98344">
        <ele>498</ele>
        <time>2010-01-01T01:08:04Z</time>
      </trkpt>
      <trkpt lat="44.09867" lon="2.98338">
        <ele>497</ele>
        <time>2010-01-01T01:08:06Z</time>
      </trkpt>
      <trkpt lat="44.09863" lon="2.98333">
        <ele>496</ele>
        <time>2010-01-01T01:08:08Z</time>
      </trkpt>
      <trkpt lat="44.0986" lon="2.98328">
        <ele>496</ele>
        <time>2010-01-01T01:08:10Z</time>
      </trkpt>
      <trkpt lat="44.09856" lon="2.98324">
        <ele>496</ele>
        <time>2010-01-01T01:08:12Z</time>
      </trkpt>
      <trkpt lat="44.09852" lon="2.98319">
        <ele>496</ele>
        <time>2010-01-01T01:08:14Z</time>
      </trkpt>
      <trkpt lat="44.09849" lon="2.98314">
        <ele>496</ele>
        <time>2010-01-01T01:08:16Z</time>
      </trkpt>
      <trkpt lat="44.09845" lon="2.98311">
        <ele>496</ele>
        <time>2010-01-01T01:08:17Z</time>
      </trkpt>
      <trkpt lat="44.09842" lon="2.98308">
        <ele>495</ele>
        <time>2010-01-01T01:08:19Z</time>
      </trkpt>
      <trkpt lat="44.09838" lon="2.98305">
        <ele>495</ele>
        <time>2010-01-01T01:08:21Z</time>
      </trkpt>
      <trkpt lat="44.09834" lon="2.98301">
        <ele>495</ele>
        <time>2010-01-01T01:08:22Z</time>
      </trkpt>
      <trkpt lat="44.09831" lon="2.98297">
        <ele>495</ele>
        <time>2010-01-01T01:08:24Z</time>
      </trkpt>
      <trkpt lat="44.09828" lon="2.98293">
        <ele>495</ele>
        <time>2010-01-01T01:08:26Z</time>
      </trkpt>
      <trkpt lat="44.09826" lon="2.98289">
        <ele>495</ele>
        <time>2010-01-01T01:08:27Z</time>
      </trkpt>
      <trkpt lat="44.09823" lon="2.98285">
        <ele>495</ele>
        <time>2010-01-01T01:08:29Z</time>
      </trkpt>
      <trkpt lat="44.09821" lon="2.98282">
        <ele>495</ele>
        <time>2010-01-01T01:08:30Z</time>
      </trkpt>
      <trkpt lat="44.09818" lon="2.98278">
        <ele>495</ele>
        <time>2010-01-01T01:08:32Z</time>
      </trkpt>
      <trkpt lat="44.09815" lon="2.98274">
        <ele>494</ele>
        <time>2010-01-01T01:08:33Z</time>
      </trkpt>
      <trkpt lat="44.09813" lon="2.9827">
        <ele>494</ele>
        <time>2010-01-01T01:08:35Z</time>
      </trkpt>
      <trkpt lat="44.0981" lon="2.98265">
        <ele>494</ele>
        <time>2010-01-01T01:08:37Z</time>
      </trkpt>
      <trkpt lat="44.09808" lon="2.98261">
        <ele>493</ele>
        <time>2010-01-01T01:08:38Z</time>
      </trkpt>
      <trkpt lat="44.09808" lon="2.98254">
        <ele>494</ele>
        <time>2010-01-01T01:08:40Z</time>
      </trkpt>
      <trkpt lat="44.09811" lon="2.98246">
        <ele>494</ele>
        <time>2010-01-01T01:08:43Z</time>
      </trkpt>
      <trkpt lat="44.09814" lon="2.98239">
        <ele>495</ele>
        <time>2010-01-01T01:08:45Z</time>
      </trkpt>
      <trkpt lat="44.09819" lon="2.98232">
        <ele>495</ele>
        <time>2010-01-01T01:08:48Z</time>
      </trkpt>
      <trkpt lat="44.09823" lon="2.98227">
        <ele>496</ele>
        <time>2010-01-01T01:08:50Z</time>
      </trkpt>
      <trkpt lat="44.09827" lon="2.98222">
        <ele>497</ele>
        <time>2010-01-01T01:08:52Z</time>
      </trkpt>
      <trkpt lat="44.09831" lon="2.98216">
        <ele>498</ele>
        <time>2010-01-01T01:08:54Z</time>
      </trkpt>
      <trkpt lat="44.09835" lon="2.98209">
        <ele>498</ele>
        <time>2010-01-01T01:08:57Z</time>
      </trkpt>
      <trkpt lat="44.09839" lon="2.98202">
        <ele>498</ele>
        <time>2010-01-01T01:09:00Z</time>
      </trkpt>
      <trkpt lat="44.09845" lon="2.98196">
        <ele>499</ele>
        <time>2010-01-01T01:09:03Z</time>
      </trkpt>
      <trkpt lat="44.0985" lon="2.98189">
        <ele>499</ele>
        <time>2010-01-01T01:09:05Z</time>
      </trkpt>
      <trkpt lat="44.09855" lon="2.98182">
        <ele>499</ele>
        <time>2010-01-01T01:09:08Z</time>
      </trkpt>
      <trkpt lat="44.0986" lon="2.98177">
        <ele>499</ele>
        <time>2010-01-01T01:09:11Z</time>
      </trkpt>
      <trkpt lat="44.09864" lon="2.9817">
        <ele>499</ele>
        <time>2010-01-01T01:09:13Z</time>
      </trkpt>
      <trkpt lat="44.09869" lon="2.98163">
        <ele>499</ele>
        <time>2010-01-01T01:09:16Z</time>
      </trkpt>
      <trkpt lat="44.09874" lon="2.98156">
        <ele>499</ele>
        <time>2010-01-01T01:09:19Z</time>
      </trkpt>
      <trkpt lat="44.09879" lon="2.98148">
        <ele>499</ele>
        <time>2010-01-01T01:09:22Z</time>
      </trkpt>
      <trkpt lat="44.09885" lon="2.98139">
        <ele>499</ele>
        <time>2010-01-01T01:09:25Z</time>
      </trkpt>
      <trkpt lat="44.09892" lon="2.98132">
        <ele>499</ele>
        <time>2010-01-01T01:09:29Z</time>
      </trkpt>
      <trkpt lat="44.09901" lon="2.98127">
        <ele>500</ele>
        <time>2010-01-01T01:09:33Z</time>
      </trkpt>
      <trkpt lat="44.09909" lon="2.98122">
        <ele>500</ele>
        <time>2010-01-01T01:09:36Z</time>
      </trkpt>
      <trkpt lat="44.09916" lon="2.98118">
        <ele>501</ele>
        <time>2010-01-01T01:09:39Z</time>
      </trkpt>
      <trkpt lat="44.09923" lon="2.98114">
        <ele>501</ele>
        <time>2010-01-01T01:09:42Z</time>
      </trkpt>
      <trkpt lat="44.09929" lon="2.9811">
        <ele>501</ele>
        <time>2010-01-01T01:09:45Z</time>
      </trkpt>
      <trkpt lat="44.09936" lon="2.98106">
        <ele>502</ele>
        <time>2010-01-01T01:09:48Z</time>
      </trkpt>
      <trkpt lat="44.09942" lon="2.98102">
        <ele>502</ele>
        <time>2010-01-01T01:09:51Z</time>
      </trkpt>
      <trkpt lat="44.09948" lon="2.98098">
        <ele>503</ele>
        <time>2010-01-01T01:09:53Z</time>
      </trkpt>
      <trkpt lat="44.09954" lon="2.98094">
        <ele>504</ele>
        <time>2010-01-01T01:09:56Z</time>
      </trkpt>
      <trkpt lat="44.0996" lon="2.98089">
        <ele>505</ele>
        <time>2010-01-01T01:09:59Z</time>
      </trkpt>
      <trkpt lat="44.09966" lon="2.98085">
        <ele>505</ele>
        <time>2010-01-01T01:10:01Z</time>
      </trkpt>
      <trkpt lat="44.09971" lon="2.98082">
        <ele>506</ele>
        <time>2010-01-01T01:10:04Z</time>
      </trkpt>
      <trkpt lat="44.09977" lon="2.98078">
        <ele>507</ele>
        <time>2010-01-01T01:10:06Z</time>
      </trkpt>
      <trkpt lat="44.09982" lon="2.98074">
        <ele>508</ele>
        <time>2010-01-01T01:10:09Z</time>
      </trkpt>
      <trkpt lat="44.09988" lon="2.98071">
        <ele>509</ele>
        <time>2010-01-01T01:10:11Z</time>
      </trkpt>
      <trkpt lat="44.09993" lon="2.98068">
        <ele>509</ele>
        <time>2010-01-01T01:10:13Z</time>
      </trkpt>
      <trkpt lat="44.09999" lon="2.98066">
        <ele>510</ele>
        <time>2010-01-01T01:10:16Z</time>
      </trkpt>
      <trkpt lat="44.10003" lon="2.98063">
        <ele>510</ele>
        <time>2010-01-01T01:10:18Z</time>
      </trkpt>
      <trkpt lat="44.10008" lon="2.98061">
        <ele>510</ele>
        <time>2010-01-01T01:10:20Z</time>
      </trkpt>
      <trkpt lat="44.10013" lon="2.98059">
        <ele>510</ele>
        <time>2010-01-01T01:10:22Z</time>
      </trkpt>
      <trkpt lat="44.10018" lon="2.98057">
        <ele>510</ele>
        <time>2010-01-01T01:10:24Z</time>
      </trkpt>
      <trkpt lat="44.10023" lon="2.98056">
        <ele>510</ele>
        <time>2010-01-01T01:10:26Z</time>
      </trkpt>
      <trkpt lat="44.10028" lon="2.98055">
        <ele>510</ele>
        <time>2010-01-01T01:10:28Z</time>
      </trkpt>
      <trkpt lat="44.10033" lon="2.98054">
        <ele>511</ele>
        <time>2010-01-01T01:10:30Z</time>
      </trkpt>
      <trkpt lat="44.10037" lon="2.98053">
        <ele>512</ele>
        <time>2010-01-01T01:10:32Z</time>
      </trkpt>
      <trkpt lat="44.10042" lon="2.98053">
        <ele>513</ele>
        <time>2010-01-01T01:10:34Z</time>
      </trkpt>
      <trkpt lat="44.10047" lon="2.98052">
        <ele>514</ele>
        <time>2010-01-01T01:10:36Z</time>
      </trkpt>
      <trkpt lat="44.10052" lon="2.9805">
        <ele>515</ele>
        <time>2010-01-01T01:10:38Z</time>
      </trkpt>
      <trkpt lat="44.10056" lon="2.98049">
        <ele>516</ele>
        <time>2010-01-01T01:10:39Z</time>
      </trkpt>
      <trkpt lat="44.10061" lon="2.98048">
        <ele>517</ele>
        <time>2010-01-01T01:10:41Z</time>
      </trkpt>
      <trkpt lat="44.10065" lon="2.98045">
        <ele>518</ele>
        <time>2010-01-01T01:10:43Z</time>
      </trkpt>
      <trkpt lat="44.10071" lon="2.98042">
        <ele>518</ele>
        <time>2010-01-01T01:10:46Z</time>
      </trkpt>
      <trkpt lat="44.10076" lon="2.98039">
        <ele>519</ele>
        <time>2010-01-01T01:10:48Z</time>
      </trkpt>
      <trkpt lat="44.10082" lon="2.98035">
        <ele>519</ele>
        <time>2010-01-01T01:10:50Z</time>
      </trkpt>
      <trkpt lat="44.10087" lon="2.98033">
        <ele>520</ele>
        <time>2010-01-01T01:10:53Z</time>
      </trkpt>
      <trkpt lat="44.10094" lon="2.98031">
        <ele>520</ele>
        <time>2010-01-01T01:10:55Z</time>
      </trkpt>
      <trkpt lat="44.10099" lon="2.98028">
        <ele>521</ele>
        <time>2010-01-01T01:10:58Z</time>
      </trkpt>
      <trkpt lat="44.10103" lon="2.98028">
        <ele>521</ele>
        <time>2010-01-01T01:10:59Z</time>
      </trkpt>
      <trkpt lat="44.10106" lon="2.98027">
        <ele>522</ele>
        <time>2010-01-01T01:11:00Z</time>
      </trkpt>
      <trkpt lat="44.1011" lon="2.98027">
        <ele>522</ele>
        <time>2010-01-01T01:11:02Z</time>
      </trkpt>
      <trkpt lat="44.10113" lon="2.98026">
        <ele>523</ele>
        <time>2010-01-01T01:11:03Z</time>
      </trkpt>
      <trkpt lat="44.10117" lon="2.98026">
        <ele>524</ele>
        <time>2010-01-01T01:11:05Z</time>
      </trkpt>
      <trkpt lat="44.1012" lon="2.98025">
        <ele>525</ele>
        <time>2010-01-01T01:11:06Z</time>
      </trkpt>
      <trkpt lat="44.10124" lon="2.98024">
        <ele>525</ele>
        <time>2010-01-01T01:11:08Z</time>
      </trkpt>
      <trkpt lat="44.10128" lon="2.98024">
        <ele>526</ele>
        <time>2010-01-01T01:11:09Z</time>
      </trkpt>
      <trkpt lat="44.10131" lon="2.98024">
        <ele>527</ele>
        <time>2010-01-01T01:11:11Z</time>
      </trkpt>
      <trkpt lat="44.10134" lon="2.98025">
        <ele>527</ele>
        <time>2010-01-01T01:11:12Z</time>
      </trkpt>
      <trkpt lat="44.10137" lon="2.98024">
        <ele>528</ele>
        <time>2010-01-01T01:11:13Z</time>
      </trkpt>
      <trkpt lat="44.10141" lon="2.98023">
        <ele>528</ele>
        <time>2010-01-01T01:11:14Z</time>
      </trkpt>
      <trkpt lat="44.10143" lon="2.98023">
        <ele>529</ele>
        <time>2010-01-01T01:11:15Z</time>
      </trkpt>
      <trkpt lat="44.10146" lon="2.98023">
        <ele>529</ele>
        <time>2010-01-01T01:11:17Z</time>
      </trkpt>
      <trkpt lat="44.10149" lon="2.98024">
        <ele>530</ele>
        <time>2010-01-01T01:11:18Z</time>
      </trkpt>
      <trkpt lat="44.10152" lon="2.98024">
        <ele>530</ele>
        <time>2010-01-01T01:11:19Z</time>
      </trkpt>
      <trkpt lat="44.10154" lon="2.98024">
        <ele>530</ele>
        <time>2010-01-01T01:11:20Z</time>
      </trkpt>
      <trkpt lat="44.10157" lon="2.98025">
        <ele>531</ele>
        <time>2010-01-01T01:11:21Z</time>
      </trkpt>
      <trkpt lat="44.1016" lon="2.98025">
        <ele>531</ele>
        <time>2010-01-01T01:11:22Z</time>
      </trkpt>
      <trkpt lat="44.10162" lon="2.98025">
        <ele>531</ele>
        <time>2010-01-01T01:11:23Z</time>
      </trkpt>
      <trkpt lat="44.10165" lon="2.98025">
        <ele>532</ele>
        <time>2010-01-01T01:11:24Z</time>
      </trkpt>
      <trkpt lat="44.10167" lon="2.98025">
        <ele>532</ele>
        <time>2010-01-01T01:11:25Z</time>
      </trkpt>
      <trkpt lat="44.1017" lon="2.98025">
        <ele>532</ele>
        <time>2010-01-01T01:11:26Z</time>
      </trkpt>
      <trkpt lat="44.10172" lon="2.98025">
        <ele>533</ele>
        <time>2010-01-01T01:11:27Z</time>
      </trkpt>
      <trkpt lat="44.10175" lon="2.98025">
        <ele>533</ele>
        <time>2010-01-01T01:11:28Z</time>
      </trkpt>
      <trkpt lat="44.10178" lon="2.98025">
        <ele>534</ele>
        <time>2010-01-01T01:11:29Z</time>
      </trkpt>
      <trkpt lat="44.10181" lon="2.98025">
        <ele>534</ele>
        <time>2010-01-01T01:11:31Z</time>
      </trkpt>
      <trkpt lat="44.10183" lon="2.98024">
        <ele>535</ele>
        <time>2010-01-01T01:11:32Z</time>
      </trkpt>
      <trkpt lat="44.10186" lon="2.98024">
        <ele>535</ele>
        <time>2010-01-01T01:11:33Z</time>
      </trkpt>
      <trkpt lat="44.10189" lon="2.98023">
        <ele>536</ele>
        <time>2010-01-01T01:11:34Z</time>
      </trkpt>
      <trkpt lat="44.10191" lon="2.98023">
        <ele>536</ele>
        <time>2010-01-01T01:11:35Z</time>
      </trkpt>
      <trkpt lat="44.10194" lon="2.98023">
        <ele>537</ele>
        <time>2010-01-01T01:11:36Z</time>
      </trkpt>
      <trkpt lat="44.10197" lon="2.98023">
        <ele>537</ele>
        <time>2010-01-01T01:11:37Z</time>
      </trkpt>
      <trkpt lat="44.102" lon="2.98024">
        <ele>538</ele>
        <time>2010-01-01T01:11:38Z</time>
      </trkpt>
      <trkpt lat="44.10203" lon="2.98024">
        <ele>538</ele>
        <time>2010-01-01T01:11:40Z</time>
      </trkpt>
      <trkpt lat="44.10206" lon="2.98024">
        <ele>539</ele>
        <time>2010-01-01T01:11:41Z</time>
      </trkpt>
      <trkpt lat="44.10209" lon="2.98023">
        <ele>540</ele>
        <time>2010-01-01T01:11:42Z</time>
      </trkpt>
      <trkpt lat="44.10212" lon="2.98023">
        <ele>540</ele>
        <time>2010-01-01T01:11:43Z</time>
      </trkpt>
      <trkpt lat="44.10215" lon="2.98023">
        <ele>541</ele>
        <time>2010-01-01T01:11:44Z</time>
      </trkpt>
      <trkpt lat="44.10218" lon="2.98023">
        <ele>542</ele>
        <time>2010-01-01T01:11:45Z</time>
      </trkpt>
      <trkpt lat="44.1022" lon="2.98023">
        <ele>542</ele>
        <time>2010-01-01T01:11:46Z</time>
      </trkpt>
      <trkpt lat="44.10222" lon="2.98023">
        <ele>543</ele>
        <time>2010-01-01T01:11:47Z</time>
      </trkpt>
      <trkpt lat="44.10225" lon="2.98022">
        <ele>543</ele>
        <time>2010-01-01T01:11:48Z</time>
      </trkpt>
      <trkpt lat="44.10228" lon="2.98021">
        <ele>543</ele>
        <time>2010-01-01T01:11:50Z</time>
      </trkpt>
      <trkpt lat="44.1023" lon="2.9802">
        <ele>544</ele>
        <time>2010-01-01T01:11:50Z</time>
      </trkpt>
      <trkpt lat="44.10234" lon="2.9802">
        <ele>544</ele>
        <time>2010-01-01T01:11:52Z</time>
      </trkpt>
      <trkpt lat="44.10237" lon="2.9802">
        <ele>544</ele>
        <time>2010-01-01T01:11:53Z</time>
      </trkpt>
      <trkpt lat="44.1024" lon="2.98019">
        <ele>545</ele>
        <time>2010-01-01T01:11:54Z</time>
      </trkpt>
      <trkpt lat="44.10243" lon="2.9802">
        <ele>545</ele>
        <time>2010-01-01T01:11:56Z</time>
      </trkpt>
      <trkpt lat="44.10246" lon="2.9802">
        <ele>545</ele>
        <time>2010-01-01T01:11:57Z</time>
      </trkpt>
      <trkpt lat="44.10249" lon="2.9802">
        <ele>546</ele>
        <time>2010-01-01T01:11:58Z</time>
      </trkpt>
      <trkpt lat="44.10252" lon="2.9802">
        <ele>546</ele>
        <time>2010-01-01T01:11:59Z</time>
      </trkpt>
      <trkpt lat="44.10254" lon="2.98019">
        <ele>546</ele>
        <time>2010-01-01T01:12:00Z</time>
      </trkpt>
      <trkpt lat="44.10257" lon="2.98018">
        <ele>546</ele>
        <time>2010-01-01T01:12:01Z</time>
      </trkpt>
      <trkpt lat="44.10259" lon="2.98016">
        <ele>547</ele>
        <time>2010-01-01T01:12:02Z</time>
      </trkpt>
      <trkpt lat="44.10262" lon="2.98014">
        <ele>547</ele>
        <time>2010-01-01T01:12:03Z</time>
      </trkpt>
      <trkpt lat="44.10264" lon="2.98013">
        <ele>547</ele>
        <time>2010-01-01T01:12:04Z</time>
      </trkpt>
      <trkpt lat="44.10266" lon="2.98011">
        <ele>547</ele>
        <time>2010-01-01T01:12:05Z</time>
      </trkpt>
      <trkpt lat="44.10269" lon="2.9801">
        <ele>548</ele>
        <time>2010-01-01T01:12:07Z</time>
      </trkpt>
      <trkpt lat="44.10271" lon="2.98008">
        <ele>548</ele>
        <time>2010-01-01T01:12:08Z</time>
      </trkpt>
      <trkpt lat="44.10274" lon="2.98007">
        <ele>548</ele>
        <time>2010-01-01T01:12:09Z</time>
      </trkpt>
      <trkpt lat="44.10276" lon="2.98006">
        <ele>548</ele>
        <time>2010-01-01T01:12:10Z</time>
      </trkpt>
      <trkpt lat="44.10278" lon="2.98005">
        <ele>548</ele>
        <time>2010-01-01T01:12:11Z</time>
      </trkpt>
      <trkpt lat="44.1028" lon="2.98004">
        <ele>549</ele>
        <time>2010-01-01T01:12:12Z</time>
      </trkpt>
      <trkpt lat="44.10283" lon="2.98002">
        <ele>549</ele>
        <time>2010-01-01T01:12:13Z</time>
      </trkpt>
      <trkpt lat="44.10284" lon="2.97999">
        <ele>550</ele>
        <time>2010-01-01T01:12:14Z</time>
      </trkpt>
      <trkpt lat="44.10286" lon="2.97996">
        <ele>551</ele>
        <time>2010-01-01T01:12:15Z</time>
      </trkpt>
      <trkpt lat="44.10289" lon="2.97996">
        <ele>551</ele>
        <time>2010-01-01T01:12:16Z</time>
      </trkpt>
      <trkpt lat="44.10292" lon="2.97995">
        <ele>551</ele>
        <time>2010-01-01T01:12:17Z</time>
      </trkpt>
      <trkpt lat="44.10295" lon="2.97994">
        <ele>552</ele>
        <time>2010-01-01T01:12:18Z</time>
      </trkpt>
      <trkpt lat="44.10297" lon="2.97992">
        <ele>552</ele>
        <time>2010-01-01T01:12:19Z</time>
      </trkpt>
      <trkpt lat="44.10298" lon="2.97991">
        <ele>553</ele>
        <time>2010-01-01T01:12:20Z</time>
      </trkpt>
      <trkpt lat="44.10301" lon="2.97989">
        <ele>553</ele>
        <time>2010-01-01T01:12:21Z</time>
      </trkpt>
      <trkpt lat="44.10302" lon="2.97987">
        <ele>554</ele>
        <time>2010-01-01T01:12:22Z</time>
      </trkpt>
      <trkpt lat="44.10305" lon="2.97984">
        <ele>554</ele>
        <time>2010-01-01T01:12:23Z</time>
      </trkpt>
      <trkpt lat="44.10308" lon="2.97983">
        <ele>554</ele>
        <time>2010-01-01T01:12:24Z</time>
      </trkpt>
      <trkpt lat="44.10311" lon="2.97981">
        <ele>555</ele>
        <time>2010-01-01T01:12:26Z</time>
      </trkpt>
      <trkpt lat="44.10313" lon="2.97979">
        <ele>555</ele>
        <time>2010-01-01T01:12:27Z</time>
      </trkpt>
      <trkpt lat="44.10315" lon="2.97978">
        <ele>555</ele>
        <time>2010-01-01T01:12:28Z</time>
      </trkpt>
      <trkpt lat="44.10318" lon="2.97976">
        <ele>555</ele>
        <time>2010-01-01T01:12:29Z</time>
      </trkpt>
      <trkpt lat="44.1032" lon="2.97975">
        <ele>555</ele>
        <time>2010-01-01T01:12:30Z</time>
      </trkpt>
      <trkpt lat="44.10322" lon="2.97973">
        <ele>555</ele>
        <time>2010-01-01T01:12:31Z</time>
      </trkpt>
      <trkpt lat="44.10325" lon="2.97971">
        <ele>556</ele>
        <time>2010-01-01T01:12:32Z</time>
      </trkpt>
      <trkpt lat="44.10328" lon="2.97969">
        <ele>556</ele>
        <time>2010-01-01T01:12:33Z</time>
      </trkpt>
      <trkpt lat="44.10329" lon="2.97966">
        <ele>557</ele>
        <time>2010-01-01T01:12:34Z</time>
      </trkpt>
      <trkpt lat="44.10333" lon="2.97964">
        <ele>557</ele>
        <time>2010-01-01T01:12:36Z</time>
      </trkpt>
      <trkpt lat="44.10335" lon="2.97962">
        <ele>558</ele>
        <time>2010-01-01T01:12:37Z</time>
      </trkpt>
      <trkpt lat="44.10338" lon="2.9796">
        <ele>558</ele>
        <time>2010-01-01T01:12:38Z</time>
      </trkpt>
      <trkpt lat="44.1034" lon="2.97957">
        <ele>559</ele>
        <time>2010-01-01T01:12:39Z</time>
      </trkpt>
      <trkpt lat="44.10342" lon="2.97956">
        <ele>559</ele>
        <time>2010-01-01T01:12:40Z</time>
      </trkpt>
      <trkpt lat="44.10344" lon="2.97955">
        <ele>559</ele>
        <time>2010-01-01T01:12:41Z</time>
      </trkpt>
      <trkpt lat="44.10346" lon="2.97954">
        <ele>559</ele>
        <time>2010-01-01T01:12:42Z</time>
      </trkpt>
      <trkpt lat="44.10348" lon="2.97952">
        <ele>559</ele>
        <time>2010-01-01T01:12:43Z</time>
      </trkpt>
      <trkpt lat="44.10352" lon="2.9795">
        <ele>560</ele>
        <time>2010-01-01T01:12:45Z</time>
      </trkpt>
      <trkpt lat="44.10355" lon="2.97948">
        <ele>560</ele>
        <time>2010-01-01T01:12:46Z</time>
      </trkpt>
      <trkpt lat="44.10358" lon="2.97946">
        <ele>560</ele>
        <time>2010-01-01T01:12:48Z</time>
      </trkpt>
      <trkpt lat="44.10361" lon="2.97945">
        <ele>560</ele>
        <time>2010-01-01T01:12:49Z</time>
      </trkpt>
      <trkpt lat="44.10364" lon="2.97943">
        <ele>560</ele>
        <time>2010-01-01T01:12:50Z</time>
      </trkpt>
      <trkpt lat="44.10366" lon="2.97941">
        <ele>560</ele>
        <time>2010-01-01T01:12:51Z</time>
      </trkpt>
      <trkpt lat="44.10369" lon="2.9794">
        <ele>560</ele>
        <time>2010-01-01T01:12:52Z</time>
      </trkpt>
      <trkpt lat="44.10372" lon="2.97938">
        <ele>561</ele>
        <time>2010-01-01T01:12:54Z</time>
      </trkpt>
      <trkpt lat="44.10374" lon="2.97934">
        <ele>561</ele>
        <time>2010-01-01T01:12:55Z</time>
      </trkpt>
      <trkpt lat="44.10376" lon="2.97932">
        <ele>562</ele>
        <time>2010-01-01T01:12:56Z</time>
      </trkpt>
      <trkpt lat="44.10379" lon="2.97931">
        <ele>562</ele>
        <time>2010-01-01T01:12:57Z</time>
      </trkpt>
      <trkpt lat="44.10382" lon="2.97929">
        <ele>562</ele>
        <time>2010-01-01T01:12:59Z</time>
      </trkpt>
      <trkpt lat="44.10385" lon="2.97927">
        <ele>562</ele>
        <time>2010-01-01T01:13:00Z</time>
      </trkpt>
      <trkpt lat="44.10389" lon="2.97927">
        <ele>562</ele>
        <time>2010-01-01T01:13:01Z</time>
      </trkpt>
      <trkpt lat="44.10392" lon="2.97926">
        <ele>562</ele>
        <time>2010-01-01T01:13:02Z</time>
      </trkpt>
      <trkpt lat="44.10395" lon="2.97926">
        <ele>563</ele>
        <time>2010-01-01T01:13:04Z</time>
      </trkpt>
      <trkpt lat="44.10399" lon="2.97925">
        <ele>563</ele>
        <time>2010-01-01T01:13:05Z</time>
      </trkpt>
      <trkpt lat="44.10402" lon="2.97924">
        <ele>563</ele>
        <time>2010-01-01T01:13:07Z</time>
      </trkpt>
      <trkpt lat="44.10406" lon="2.97922">
        <ele>564</ele>
        <time>2010-01-01T01:13:08Z</time>
      </trkpt>
      <trkpt lat="44.10409" lon="2.9792">
        <ele>564</ele>
        <time>2010-01-01T01:13:10Z</time>
      </trkpt>
      <trkpt lat="44.10412" lon="2.9792">
        <ele>564</ele>
        <time>2010-01-01T01:13:11Z</time>
      </trkpt>
      <trkpt lat="44.10416" lon="2.97921">
        <ele>564</ele>
        <time>2010-01-01T01:13:12Z</time>
      </trkpt>
      <trkpt lat="44.1042" lon="2.9792">
        <ele>565</ele>
        <time>2010-01-01T01:13:14Z</time>
      </trkpt>
      <trkpt lat="44.10423" lon="2.97918">
        <ele>565</ele>
        <time>2010-01-01T01:13:15Z</time>
      </trkpt>
      <trkpt lat="44.10425" lon="2.97917">
        <ele>565</ele>
        <time>2010-01-01T01:13:16Z</time>
      </trkpt>
      <trkpt lat="44.10427" lon="2.97916">
        <ele>565</ele>
        <time>2010-01-01T01:13:17Z</time>
      </trkpt>
      <trkpt lat="44.1043" lon="2.97914">
        <ele>566</ele>
        <time>2010-01-01T01:13:18Z</time>
      </trkpt>
      <trkpt lat="44.10433" lon="2.97912">
        <ele>566</ele>
        <time>2010-01-01T01:13:20Z</time>
      </trkpt>
      <trkpt lat="44.10435" lon="2.97909">
        <ele>567</ele>
        <time>2010-01-01T01:13:21Z</time>
      </trkpt>
      <trkpt lat="44.10439" lon="2.97907">
        <ele>568</ele>
        <time>2010-01-01T01:13:22Z</time>
      </trkpt>
      <trkpt lat="44.10442" lon="2.97906">
        <ele>568</ele>
        <time>2010-01-01T01:13:24Z</time>
      </trkpt>
      <trkpt lat="44.10445" lon="2.97905">
        <ele>568</ele>
        <time>2010-01-01T01:13:25Z</time>
      </trkpt>
      <trkpt lat="44.10447" lon="2.97904">
        <ele>568</ele>
        <time>2010-01-01T01:13:26Z</time>
      </trkpt>
      <trkpt lat="44.1045" lon="2.97904">
        <ele>569</ele>
        <time>2010-01-01T01:13:27Z</time>
      </trkpt>
      <trkpt lat="44.10453" lon="2.97904">
        <ele>569</ele>
        <time>2010-01-01T01:13:28Z</time>
      </trkpt>
      <trkpt lat="44.10456" lon="2.97904">
        <ele>569</ele>
        <time>2010-01-01T01:13:29Z</time>
      </trkpt>
      <trkpt lat="44.10459" lon="2.97903">
        <ele>569</ele>
        <time>2010-01-01T01:13:31Z</time>
      </trkpt>
      <trkpt lat="44.10463" lon="2.97902">
        <ele>570</ele>
        <time>2010-01-01T01:13:32Z</time>
      </trkpt>
      <trkpt lat="44.10465" lon="2.97901">
        <ele>570</ele>
        <time>2010-01-01T01:13:33Z</time>
      </trkpt>
      <trkpt lat="44.10468" lon="2.97899">
        <ele>570</ele>
        <time>2010-01-01T01:13:34Z</time>
      </trkpt>
      <trkpt lat="44.1047" lon="2.97899">
        <ele>571</ele>
        <time>2010-01-01T01:13:35Z</time>
      </trkpt>
      <trkpt lat="44.10473" lon="2.97897">
        <ele>571</ele>
        <time>2010-01-01T01:13:37Z</time>
      </trkpt>
      <trkpt lat="44.10476" lon="2.97896">
        <ele>571</ele>
        <time>2010-01-01T01:13:38Z</time>
      </trkpt>
      <trkpt lat="44.10479" lon="2.97895">
        <ele>572</ele>
        <time>2010-01-01T01:13:39Z</time>
      </trkpt>
      <trkpt lat="44.10481" lon="2.97893">
        <ele>572</ele>
        <time>2010-01-01T01:13:40Z</time>
      </trkpt>
      <trkpt lat="44.10483" lon="2.97892">
        <ele>573</ele>
        <time>2010-01-01T01:13:41Z</time>
      </trkpt>
      <trkpt lat="44.10486" lon="2.9789">
        <ele>573</ele>
        <time>2010-01-01T01:13:42Z</time>
      </trkpt>
      <trkpt lat="44.1049" lon="2.97889">
        <ele>573</ele>
        <time>2010-01-01T01:13:44Z</time>
      </trkpt>
      <trkpt lat="44.10493" lon="2.97889">
        <ele>574</ele>
        <time>2010-01-01T01:13:45Z</time>
      </trkpt>
      <trkpt lat="44.10496" lon="2.9789">
        <ele>574</ele>
        <time>2010-01-01T01:13:46Z</time>
      </trkpt>
      <trkpt lat="44.10499" lon="2.97889">
        <ele>574</ele>
        <time>2010-01-01T01:13:47Z</time>
      </trkpt>
      <trkpt lat="44.10502" lon="2.97889">
        <ele>575</ele>
        <time>2010-01-01T01:13:49Z</time>
      </trkpt>
      <trkpt lat="44.10505" lon="2.97889">
        <ele>575</ele>
        <time>2010-01-01T01:13:50Z</time>
      </trkpt>
      <trkpt lat="44.10508" lon="2.97888">
        <ele>576</ele>
        <time>2010-01-01T01:13:51Z</time>
      </trkpt>
      <trkpt lat="44.10511" lon="2.97887">
        <ele>576</ele>
        <time>2010-01-01T01:13:52Z</time>
      </trkpt>
      <trkpt lat="44.10514" lon="2.97886">
        <ele>577</ele>
        <time>2010-01-01T01:13:53Z</time>
      </trkpt>
      <trkpt lat="44.10517" lon="2.97884">
        <ele>578</ele>
        <time>2010-01-01T01:13:55Z</time>
      </trkpt>
      <trkpt lat="44.1052" lon="2.97883">
        <ele>578</ele>
        <time>2010-01-01T01:13:56Z</time>
      </trkpt>
      <trkpt lat="44.10522" lon="2.97882">
        <ele>579</ele>
        <time>2010-01-01T01:13:57Z</time>
      </trkpt>
      <trkpt lat="44.10525" lon="2.9788">
        <ele>579</ele>
        <time>2010-01-01T01:13:58Z</time>
      </trkpt>
      <trkpt lat="44.10527" lon="2.97878">
        <ele>580</ele>
        <time>2010-01-01T01:13:59Z</time>
      </trkpt>
      <trkpt lat="44.1053" lon="2.97877">
        <ele>580</ele>
        <time>2010-01-01T01:14:01Z</time>
      </trkpt>
      <trkpt lat="44.10533" lon="2.97875">
        <ele>580</ele>
        <time>2010-01-01T01:14:02Z</time>
      </trkpt>
      <trkpt lat="44.10536" lon="2.97874">
        <ele>580</ele>
        <time>2010-01-01T01:14:03Z</time>
      </trkpt>
      <trkpt lat="44.10539" lon="2.97872">
        <ele>580</ele>
        <time>2010-01-01T01:14:04Z</time>
      </trkpt>
      <trkpt lat="44.10541" lon="2.9787">
        <ele>581</ele>
        <time>2010-01-01T01:14:05Z</time>
      </trkpt>
      <trkpt lat="44.10544" lon="2.97868">
        <ele>581</ele>
        <time>2010-01-01T01:14:07Z</time>
      </trkpt>
      <trkpt lat="44.10547" lon="2.97867">
        <ele>581</ele>
        <time>2010-01-01T01:14:08Z</time>
      </trkpt>
      <trkpt lat="44.10549" lon="2.97865">
        <ele>581</ele>
        <time>2010-01-01T01:14:09Z</time>
      </trkpt>
      <trkpt lat="44.10552" lon="2.97863">
        <ele>581</ele>
        <time>2010-01-01T01:14:10Z</time>
      </trkpt>
      <trkpt lat="44.10555" lon="2.97862">
        <ele>581</ele>
        <time>2010-01-01T01:14:11Z</time>
      </trkpt>
      <trkpt lat="44.10558" lon="2.9786">
        <ele>581</ele>
        <time>2010-01-01T01:14:13Z</time>
      </trkpt>
      <trkpt lat="44.10561" lon="2.97859">
        <ele>581</ele>
        <time>2010-01-01T01:14:14Z</time>
      </trkpt>
      <trkpt lat="44.10564" lon="2.97857">
        <ele>581</ele>
        <time>2010-01-01T01:14:15Z</time>
      </trkpt>
      <trkpt lat="44.10567" lon="2.97855">
        <ele>582</ele>
        <time>2010-01-01T01:14:16Z</time>
      </trkpt>
      <trkpt lat="44.10569" lon="2.97854">
        <ele>582</ele>
        <time>2010-01-01T01:14:17Z</time>
      </trkpt>
      <trkpt lat="44.10572" lon="2.97853">
        <ele>582</ele>
        <time>2010-01-01T01:14:19Z</time>
      </trkpt>
      <trkpt lat="44.10575" lon="2.97851">
        <ele>582</ele>
        <time>2010-01-01T01:14:20Z</time>
      </trkpt>
      <trkpt lat="44.10578" lon="2.9785">
        <ele>583</ele>
        <time>2010-01-01T01:14:21Z</time>
      </trkpt>
      <trkpt lat="44.10581" lon="2.97848">
        <ele>583</ele>
        <time>2010-01-01T01:14:23Z</time>
      </trkpt>
      <trkpt lat="44.10584" lon="2.97847">
        <ele>583</ele>
        <time>2010-01-01T01:14:24Z</time>
      </trkpt>
      <trkpt lat="44.10587" lon="2.97845">
        <ele>583</ele>
        <time>2010-01-01T01:14:25Z</time>
      </trkpt>
      <trkpt lat="44.1059" lon="2.97843">
        <ele>584</ele>
        <time>2010-01-01T01:14:26Z</time>
      </trkpt>
      <trkpt lat="44.10593" lon="2.97842">
        <ele>584</ele>
        <time>2010-01-01T01:14:28Z</time>
      </trkpt>
      <trkpt lat="44.10595" lon="2.9784">
        <ele>584</ele>
        <time>2010-01-01T01:14:29Z</time>
      </trkpt>
      <trkpt lat="44.10598" lon="2.97838">
        <ele>584</ele>
        <time>2010-01-01T01:14:30Z</time>
      </trkpt>
      <trkpt lat="44.10601" lon="2.97836">
        <ele>584</ele>
        <time>2010-01-01T01:14:31Z</time>
      </trkpt>
      <trkpt lat="44.10603" lon="2.97833">
        <ele>584</ele>
        <time>2010-01-01T01:14:32Z</time>
      </trkpt>
      <trkpt lat="44.10606" lon="2.97831">
        <ele>585</ele>
        <time>2010-01-01T01:14:34Z</time>
      </trkpt>
      <trkpt lat="44.10609" lon="2.97829">
        <ele>585</ele>
        <time>2010-01-01T01:14:35Z</time>
      </trkpt>
      <trkpt lat="44.10612" lon="2.97827">
        <ele>585</ele>
        <time>2010-01-01T01:14:36Z</time>
      </trkpt>
      <trkpt lat="44.10615" lon="2.97825">
        <ele>586</ele>
        <time>2010-01-01T01:14:38Z</time>
      </trkpt>
      <trkpt lat="44.10618" lon="2.97823">
        <ele>586</ele>
        <time>2010-01-01T01:14:39Z</time>
      </trkpt>
      <trkpt lat="44.10621" lon="2.97821">
        <ele>586</ele>
        <time>2010-01-01T01:14:40Z</time>
      </trkpt>
      <trkpt lat="44.10624" lon="2.9782">
        <ele>586</ele>
        <time>2010-01-01T01:14:42Z</time>
      </trkpt>
      <trkpt lat="44.10627" lon="2.97819">
        <ele>587</ele>
        <time>2010-01-01T01:14:43Z</time>
      </trkpt>
      <trkpt lat="44.1063" lon="2.97818">
        <ele>587</ele>
        <time>2010-01-01T01:14:44Z</time>
      </trkpt>
      <trkpt lat="44.10632" lon="2.97816">
        <ele>587</ele>
        <time>2010-01-01T01:14:45Z</time>
      </trkpt>
      <trkpt lat="44.10635" lon="2.97815">
        <ele>587</ele>
        <time>2010-01-01T01:14:46Z</time>
      </trkpt>
      <trkpt lat="44.10638" lon="2.97814">
        <ele>587</ele>
        <time>2010-01-01T01:14:48Z</time>
      </trkpt>
      <trkpt lat="44.10641" lon="2.97812">
        <ele>587</ele>
        <time>2010-01-01T01:14:49Z</time>
      </trkpt>
      <trkpt lat="44.10644" lon="2.97811">
        <ele>587</ele>
        <time>2010-01-01T01:14:50Z</time>
      </trkpt>
      <trkpt lat="44.10647" lon="2.9781">
        <ele>588</ele>
        <time>2010-01-01T01:14:51Z</time>
      </trkpt>
      <trkpt lat="44.1065" lon="2.97808">
        <ele>588</ele>
        <time>2010-01-01T01:14:52Z</time>
      </trkpt>
      <trkpt lat="44.10653" lon="2.97807">
        <ele>588</ele>
        <time>2010-01-01T01:14:54Z</time>
      </trkpt>
      <trkpt lat="44.10656" lon="2.97806">
        <ele>588</ele>
        <time>2010-01-01T01:14:55Z</time>
      </trkpt>
      <trkpt lat="44.10659" lon="2.97805">
        <ele>588</ele>
        <time>2010-01-01T01:14:56Z</time>
      </trkpt>
      <trkpt lat="44.10662" lon="2.97805">
        <ele>588</ele>
        <time>2010-01-01T01:14:57Z</time>
      </trkpt>
      <trkpt lat="44.10665" lon="2.97803">
        <ele>589</ele>
        <time>2010-01-01T01:14:59Z</time>
      </trkpt>
      <trkpt lat="44.10669" lon="2.97802">
        <ele>589</ele>
        <time>2010-01-01T01:15:00Z</time>
      </trkpt>
      <trkpt lat="44.10673" lon="2.97801">
        <ele>590</ele>
        <time>2010-01-01T01:15:02Z</time>
      </trkpt>
      <trkpt lat="44.10676" lon="2.978">
        <ele>591</ele>
        <time>2010-01-01T01:15:03Z</time>
      </trkpt>
      <trkpt lat="44.1068" lon="2.97799">
        <ele>591</ele>
        <time>2010-01-01T01:15:05Z</time>
      </trkpt>
      <trkpt lat="44.10683" lon="2.97798">
        <ele>592</ele>
        <time>2010-01-01T01:15:06Z</time>
      </trkpt>
      <trkpt lat="44.10687" lon="2.97796">
        <ele>592</ele>
        <time>2010-01-01T01:15:08Z</time>
      </trkpt>
      <trkpt lat="44.1069" lon="2.97794">
        <ele>593</ele>
        <time>2010-01-01T01:15:09Z</time>
      </trkpt>
      <trkpt lat="44.10693" lon="2.97791">
        <ele>593</ele>
        <time>2010-01-01T01:15:11Z</time>
      </trkpt>
      <trkpt lat="44.10696" lon="2.97788">
        <ele>594</ele>
        <time>2010-01-01T01:15:12Z</time>
      </trkpt>
      <trkpt lat="44.10698" lon="2.97784">
        <ele>595</ele>
        <time>2010-01-01T01:15:14Z</time>
      </trkpt>
      <trkpt lat="44.10701" lon="2.97781">
        <ele>595</ele>
        <time>2010-01-01T01:15:15Z</time>
      </trkpt>
      <trkpt lat="44.10704" lon="2.97778">
        <ele>595</ele>
        <time>2010-01-01T01:15:16Z</time>
      </trkpt>
      <trkpt lat="44.10706" lon="2.97776">
        <ele>596</ele>
        <time>2010-01-01T01:15:18Z</time>
      </trkpt>
      <trkpt lat="44.10709" lon="2.97774">
        <ele>596</ele>
        <time>2010-01-01T01:15:19Z</time>
      </trkpt>
      <trkpt lat="44.10711" lon="2.97772">
        <ele>597</ele>
        <time>2010-01-01T01:15:20Z</time>
      </trkpt>
      <trkpt lat="44.10711" lon="2.97772">
        <ele>597</ele>
        <time>2010-01-01T01:15:20Z</time>
      </trkpt>
      <trkpt lat="44.10711" lon="2.97771">
        <ele>597</ele>
        <time>2010-01-01T01:15:20Z</time>
      </trkpt>
      <trkpt lat="44.10711" lon="2.97757">
        <ele>598</ele>
        <time>2010-01-01T01:15:24Z</time>
      </trkpt>
      <trkpt lat="44.10711" lon="2.97755">
        <ele>598</ele>
        <time>2010-01-01T01:15:25Z</time>
      </trkpt>
      <trkpt lat="44.1071" lon="2.97753">
        <ele>598</ele>
        <time>2010-01-01T01:15:25Z</time>
      </trkpt>
      <trkpt lat="44.10711" lon="2.9775">
        <ele>599</ele>
        <time>2010-01-01T01:15:26Z</time>
      </trkpt>
      <trkpt lat="44.10712" lon="2.97748">
        <ele>599</ele>
        <time>2010-01-01T01:15:27Z</time>
      </trkpt>
      <trkpt lat="44.10712" lon="2.97746">
        <ele>599</ele>
        <time>2010-01-01T01:15:27Z</time>
      </trkpt>
      <trkpt lat="44.10713" lon="2.97744">
        <ele>600</ele>
        <time>2010-01-01T01:15:28Z</time>
      </trkpt>
      <trkpt lat="44.10714" lon="2.97742">
        <ele>600</ele>
        <time>2010-01-01T01:15:29Z</time>
      </trkpt>
      <trkpt lat="44.10715" lon="2.9774">
        <ele>600</ele>
        <time>2010-01-01T01:15:29Z</time>
      </trkpt>
      <trkpt lat="44.10716" lon="2.97738">
        <ele>601</ele>
        <time>2010-01-01T01:15:30Z</time>
      </trkpt>
      <trkpt lat="44.10717" lon="2.97735">
        <ele>601</ele>
        <time>2010-01-01T01:15:31Z</time>
      </trkpt>
      <trkpt lat="44.10718" lon="2.97734">
        <ele>601</ele>
        <time>2010-01-01T01:15:31Z</time>
      </trkpt>
      <trkpt lat="44.10719" lon="2.97732">
        <ele>601</ele>
        <time>2010-01-01T01:15:32Z</time>
      </trkpt>
      <trkpt lat="44.10719" lon="2.9773">
        <ele>602</ele>
        <time>2010-01-01T01:15:33Z</time>
      </trkpt>
      <trkpt lat="44.1072" lon="2.97727">
        <ele>602</ele>
        <time>2010-01-01T01:15:33Z</time>
      </trkpt>
      <trkpt lat="44.1072" lon="2.97725">
        <ele>602</ele>
        <time>2010-01-01T01:15:34Z</time>
      </trkpt>
      <trkpt lat="44.10721" lon="2.97722">
        <ele>603</ele>
        <time>2010-01-01T01:15:35Z</time>
      </trkpt>
      <trkpt lat="44.10721" lon="2.9772">
        <ele>603</ele>
        <time>2010-01-01T01:15:36Z</time>
      </trkpt>
      <trkpt lat="44.10722" lon="2.97718">
        <ele>603</ele>
        <time>2010-01-01T01:15:36Z</time>
      </trkpt>
      <trkpt lat="44.10721" lon="2.97718">
        <ele>603</ele>
        <time>2010-01-01T01:15:36Z</time>
      </trkpt>
      <trkpt lat="44.10724" lon="2.9771">
        <ele>605</ele>
        <time>2010-01-01T01:15:39Z</time>
      </trkpt>
      <trkpt lat="44.10725" lon="2.97707">
        <ele>606</ele>
        <time>2010-01-01T01:15:40Z</time>
      </trkpt>
      <trkpt lat="44.10726" lon="2.97704">
        <ele>606</ele>
        <time>2010-01-01T01:15:41Z</time>
      </trkpt>
      <trkpt lat="44.10727" lon="2.97701">
        <ele>607</ele>
        <time>2010-01-01T01:15:42Z</time>
      </trkpt>
      <trkpt lat="44.10728" lon="2.97697">
        <ele>608</ele>
        <time>2010-01-01T01:15:43Z</time>
      </trkpt>
      <trkpt lat="44.10729" lon="2.97694">
        <ele>608</ele>
        <time>2010-01-01T01:15:44Z</time>
      </trkpt>
      <trkpt lat="44.1073" lon="2.97691">
        <ele>609</ele>
        <time>2010-01-01T01:15:45Z</time>
      </trkpt>
      <trkpt lat="44.10731" lon="2.97688">
        <ele>609</ele>
        <time>2010-01-01T01:15:46Z</time>
      </trkpt>
      <trkpt lat="44.10732" lon="2.97685">
        <ele>610</ele>
        <time>2010-01-01T01:15:47Z</time>
      </trkpt>
      <trkpt lat="44.10733" lon="2.97683">
        <ele>610</ele>
        <time>2010-01-01T01:15:48Z</time>
      </trkpt>
      <trkpt lat="44.10734" lon="2.9768">
        <ele>610</ele>
        <time>2010-01-01T01:15:48Z</time>
      </trkpt>
      <trkpt lat="44.10735" lon="2.97678">
        <ele>611</ele>
        <time>2010-01-01T01:15:49Z</time>
      </trkpt>
      <trkpt lat="44.10736" lon="2.97675">
        <ele>611</ele>
        <time>2010-01-01T01:15:50Z</time>
      </trkpt>
      <trkpt lat="44.10737" lon="2.97672">
        <ele>611</ele>
        <time>2010-01-01T01:15:51Z</time>
      </trkpt>
      <trkpt lat="44.10738" lon="2.97669">
        <ele>612</ele>
        <time>2010-01-01T01:15:52Z</time>
      </trkpt>
      <trkpt lat="44.10739" lon="2.97667">
        <ele>612</ele>
        <time>2010-01-01T01:15:53Z</time>
      </trkpt>
      <trkpt lat="44.1074" lon="2.97665">
        <ele>612</ele>
        <time>2010-01-01T01:15:53Z</time>
      </trkpt>
      <trkpt lat="44.10741" lon="2.97662">
        <ele>613</ele>
        <time>2010-01-01T01:15:54Z</time>
      </trkpt>
      <trkpt lat="44.10741" lon="2.9766">
        <ele>613</ele>
        <time>2010-01-01T01:15:55Z</time>
      </trkpt>
      <trkpt lat="44.10742" lon="2.97658">
        <ele>613</ele>
        <time>2010-01-01T01:15:55Z</time>
      </trkpt>
      <trkpt lat="44.10743" lon="2.97656">
        <ele>613</ele>
        <time>2010-01-01T01:15:56Z</time>
      </trkpt>
      <trkpt lat="44.10743" lon="2.97653">
        <ele>614</ele>
        <time>2010-01-01T01:15:57Z</time>
      </trkpt>
      <trkpt lat="44.10744" lon="2.97651">
        <ele>614</ele>
        <time>2010-01-01T01:15:58Z</time>
      </trkpt>
      <trkpt lat="44.10745" lon="2.97648">
        <ele>614</ele>
        <time>2010-01-01T01:15:59Z</time>
      </trkpt>
      <trkpt lat="44.10746" lon="2.97645">
        <ele>614</ele>
        <time>2010-01-01T01:16:00Z</time>
      </trkpt>
      <trkpt lat="44.10747" lon="2.97643">
        <ele>614</ele>
        <time>2010-01-01T01:16:00Z</time>
      </trkpt>
      <trkpt lat="44.10748" lon="2.97641">
        <ele>615</ele>
        <time>2010-01-01T01:16:01Z</time>
      </trkpt>
      <trkpt lat="44.10748" lon="2.97639">
        <ele>615</ele>
        <time>2010-01-01T01:16:02Z</time>
      </trkpt>
      <trkpt lat="44.10749" lon="2.97636">
        <ele>615</ele>
        <time>2010-01-01T01:16:03Z</time>
      </trkpt>
      <trkpt lat="44.10749" lon="2.97634">
        <ele>616</ele>
        <time>2010-01-01T01:16:03Z</time>
      </trkpt>
      <trkpt lat="44.10748" lon="2.97632">
        <ele>616</ele>
        <time>2010-01-01T01:16:04Z</time>
      </trkpt>
      <trkpt lat="44.10748" lon="2.97629">
        <ele>617</ele>
        <time>2010-01-01T01:16:05Z</time>
      </trkpt>
      <trkpt lat="44.10748" lon="2.97627">
        <ele>617</ele>
        <time>2010-01-01T01:16:05Z</time>
      </trkpt>
      <trkpt lat="44.1075" lon="2.97626">
        <ele>617</ele>
        <time>2010-01-01T01:16:06Z</time>
      </trkpt>
      <trkpt lat="44.1075" lon="2.97623">
        <ele>617</ele>
        <time>2010-01-01T01:16:07Z</time>
      </trkpt>
      <trkpt lat="44.10749" lon="2.9762">
        <ele>618</ele>
        <time>2010-01-01T01:16:07Z</time>
      </trkpt>
      <trkpt lat="44.1075" lon="2.97618">
        <ele>618</ele>
        <time>2010-01-01T01:16:08Z</time>
      </trkpt>
      <trkpt lat="44.1075" lon="2.97615">
        <ele>619</ele>
        <time>2010-01-01T01:16:09Z</time>
      </trkpt>
      <trkpt lat="44.1075" lon="2.97613">
        <ele>619</ele>
        <time>2010-01-01T01:16:10Z</time>
      </trkpt>
      <trkpt lat="44.10751" lon="2.9761">
        <ele>620</ele>
        <time>2010-01-01T01:16:10Z</time>
      </trkpt>
      <trkpt lat="44.10752" lon="2.97608">
        <ele>620</ele>
        <time>2010-01-01T01:16:11Z</time>
      </trkpt>
      <trkpt lat="44.10752" lon="2.97606">
        <ele>621</ele>
        <time>2010-01-01T01:16:12Z</time>
      </trkpt>
      <trkpt lat="44.10752" lon="2.97603">
        <ele>621</ele>
        <time>2010-01-01T01:16:13Z</time>
      </trkpt>
      <trkpt lat="44.10751" lon="2.97601">
        <ele>622</ele>
        <time>2010-01-01T01:16:13Z</time>
      </trkpt>
      <trkpt lat="44.10751" lon="2.97599">
        <ele>623</ele>
        <time>2010-01-01T01:16:14Z</time>
      </trkpt>
      <trkpt lat="44.1075" lon="2.97597">
        <ele>623</ele>
        <time>2010-01-01T01:16:14Z</time>
      </trkpt>
      <trkpt lat="44.1075" lon="2.97596">
        <ele>623</ele>
        <time>2010-01-01T01:16:15Z</time>
      </trkpt>
      <trkpt lat="44.1075" lon="2.97595">
        <ele>624</ele>
        <time>2010-01-01T01:16:15Z</time>
      </trkpt>
      <trkpt lat="44.10749" lon="2.97594">
        <ele>624</ele>
        <time>2010-01-01T01:16:15Z</time>
      </trkpt>
      <trkpt lat="44.10747" lon="2.9759">
        <ele>625</ele>
        <time>2010-01-01T01:16:17Z</time>
      </trkpt>
      <trkpt lat="44.10747" lon="2.97588">
        <ele>625</ele>
        <time>2010-01-01T01:16:17Z</time>
      </trkpt>
      <trkpt lat="44.10747" lon="2.97586">
        <ele>626</ele>
        <time>2010-01-01T01:16:18Z</time>
      </trkpt>
      <trkpt lat="44.10746" lon="2.97585">
        <ele>626</ele>
        <time>2010-01-01T01:16:19Z</time>
      </trkpt>
      <trkpt lat="44.10746" lon="2.97582">
        <ele>627</ele>
        <time>2010-01-01T01:16:19Z</time>
      </trkpt>
      <trkpt lat="44.10747" lon="2.9758">
        <ele>627</ele>
        <time>2010-01-01T01:16:20Z</time>
      </trkpt>
      <trkpt lat="44.10747" lon="2.9758">
        <ele>627</ele>
        <time>2010-01-01T01:16:20Z</time>
      </trkpt>
      <trkpt lat="44.10748" lon="2.97578">
        <ele>628</ele>
        <time>2010-01-01T01:16:21Z</time>
      </trkpt>
      <trkpt lat="44.10749" lon="2.97576">
        <ele>628</ele>
        <time>2010-01-01T01:16:21Z</time>
      </trkpt>
      <trkpt lat="44.10751" lon="2.97574">
        <ele>628</ele>
        <time>2010-01-01T01:16:22Z</time>
      </trkpt>
      <trkpt lat="44.10753" lon="2.97572">
        <ele>628</ele>
        <time>2010-01-01T01:16:23Z</time>
      </trkpt>
      <trkpt lat="44.10754" lon="2.9757">
        <ele>629</ele>
        <time>2010-01-01T01:16:24Z</time>
      </trkpt>
      <trkpt lat="44.10756" lon="2.97567">
        <ele>629</ele>
        <time>2010-01-01T01:16:25Z</time>
      </trkpt>
      <trkpt lat="44.10757" lon="2.97565">
        <ele>630</ele>
        <time>2010-01-01T01:16:26Z</time>
      </trkpt>
      <trkpt lat="44.10758" lon="2.97563">
        <ele>630</ele>
        <time>2010-01-01T01:16:27Z</time>
      </trkpt>
      <trkpt lat="44.10759" lon="2.97561">
        <ele>630</ele>
        <time>2010-01-01T01:16:27Z</time>
      </trkpt>
      <trkpt lat="44.10761" lon="2.97559">
        <ele>631</ele>
        <time>2010-01-01T01:16:28Z</time>
      </trkpt>
      <trkpt lat="44.10762" lon="2.97557">
        <ele>631</ele>
        <time>2010-01-01T01:16:29Z</time>
      </trkpt>
      <trkpt lat="44.10763" lon="2.97555">
        <ele>632</ele>
        <time>2010-01-01T01:16:30Z</time>
      </trkpt>
      <trkpt lat="44.10764" lon="2.97553">
        <ele>632</ele>
        <time>2010-01-01T01:16:30Z</time>
      </trkpt>
      <trkpt lat="44.10765" lon="2.97551">
        <ele>632</ele>
        <time>2010-01-01T01:16:31Z</time>
      </trkpt>
      <trkpt lat="44.10765" lon="2.97549">
        <ele>632</ele>
        <time>2010-01-01T01:16:32Z</time>
      </trkpt>
      <trkpt lat="44.10766" lon="2.97547">
        <ele>633</ele>
        <time>2010-01-01T01:16:32Z</time>
      </trkpt>
      <trkpt lat="44.10766" lon="2.97546">
        <ele>633</ele>
        <time>2010-01-01T01:16:33Z</time>
      </trkpt>
      <trkpt lat="44.10766" lon="2.97545">
        <ele>633</ele>
        <time>2010-01-01T01:16:33Z</time>
      </trkpt>
      <trkpt lat="44.10765" lon="2.97544">
        <ele>633</ele>
        <time>2010-01-01T01:16:33Z</time>
      </trkpt>
      <trkpt lat="44.10764" lon="2.97544">
        <ele>633</ele>
        <time>2010-01-01T01:16:34Z</time>
      </trkpt>
      <trkpt lat="44.10763" lon="2.97543">
        <ele>633</ele>
        <time>2010-01-01T01:16:34Z</time>
      </trkpt>
      <trkpt lat="44.10761" lon="2.97542">
        <ele>633</ele>
        <time>2010-01-01T01:16:35Z</time>
      </trkpt>
      <trkpt lat="44.1076" lon="2.97541">
        <ele>633</ele>
        <time>2010-01-01T01:16:36Z</time>
      </trkpt>
      <trkpt lat="44.10758" lon="2.97541">
        <ele>633</ele>
        <time>2010-01-01T01:16:36Z</time>
      </trkpt>
      <trkpt lat="44.10757" lon="2.97541">
        <ele>633</ele>
        <time>2010-01-01T01:16:37Z</time>
      </trkpt>
      <trkpt lat="44.10755" lon="2.9754">
        <ele>633</ele>
        <time>2010-01-01T01:16:38Z</time>
      </trkpt>
      <trkpt lat="44.10753" lon="2.9754">
        <ele>633</ele>
        <time>2010-01-01T01:16:38Z</time>
      </trkpt>
      <trkpt lat="44.10751" lon="2.9754">
        <ele>633</ele>
        <time>2010-01-01T01:16:39Z</time>
      </trkpt>
      <trkpt lat="44.10749" lon="2.97539">
        <ele>633</ele>
        <time>2010-01-01T01:16:40Z</time>
      </trkpt>
      <trkpt lat="44.10747" lon="2.97538">
        <ele>633</ele>
        <time>2010-01-01T01:16:41Z</time>
      </trkpt>
      <trkpt lat="44.10746" lon="2.97537">
        <ele>634</ele>
        <time>2010-01-01T01:16:41Z</time>
      </trkpt>
      <trkpt lat="44.10745" lon="2.97535">
        <ele>634</ele>
        <time>2010-01-01T01:16:42Z</time>
      </trkpt>
      <trkpt lat="44.10744" lon="2.97533">
        <ele>634</ele>
        <time>2010-01-01T01:16:43Z</time>
      </trkpt>
      <trkpt lat="44.10743" lon="2.97531">
        <ele>634</ele>
        <time>2010-01-01T01:16:43Z</time>
      </trkpt>
      <trkpt lat="44.10742" lon="2.97529">
        <ele>634</ele>
        <time>2010-01-01T01:16:44Z</time>
      </trkpt>
      <trkpt lat="44.10742" lon="2.97526">
        <ele>635</ele>
        <time>2010-01-01T01:16:45Z</time>
      </trkpt>
      <trkpt lat="44.10741" lon="2.97524">
        <ele>635</ele>
        <time>2010-01-01T01:16:46Z</time>
      </trkpt>
      <trkpt lat="44.10741" lon="2.97521">
        <ele>635</ele>
        <time>2010-01-01T01:16:46Z</time>
      </trkpt>
      <trkpt lat="44.10741" lon="2.97518">
        <ele>635</ele>
        <time>2010-01-01T01:16:47Z</time>
      </trkpt>
      <trkpt lat="44.10741" lon="2.97515">
        <ele>635</ele>
        <time>2010-01-01T01:16:48Z</time>
      </trkpt>
      <trkpt lat="44.10742" lon="2.97513">
        <ele>635</ele>
        <time>2010-01-01T01:16:49Z</time>
      </trkpt>
      <trkpt lat="44.10742" lon="2.9751">
        <ele>636</ele>
        <time>2010-01-01T01:16:49Z</time>
      </trkpt>
      <trkpt lat="44.10743" lon="2.97508">
        <ele>636</ele>
        <time>2010-01-01T01:16:50Z</time>
      </trkpt>
      <trkpt lat="44.10744" lon="2.97506">
        <ele>636</ele>
        <time>2010-01-01T01:16:51Z</time>
      </trkpt>
      <trkpt lat="44.10745" lon="2.97503">
        <ele>636</ele>
        <time>2010-01-01T01:16:52Z</time>
      </trkpt>
      <trkpt lat="44.10745" lon="2.97499">
        <ele>636</ele>
        <time>2010-01-01T01:16:53Z</time>
      </trkpt>
      <trkpt lat="44.10746" lon="2.97496">
        <ele>637</ele>
        <time>2010-01-01T01:16:54Z</time>
      </trkpt>
      <trkpt lat="44.10746" lon="2.97493">
        <ele>637</ele>
        <time>2010-01-01T01:16:55Z</time>
      </trkpt>
      <trkpt lat="44.10745" lon="2.97489">
        <ele>637</ele>
        <time>2010-01-01T01:16:56Z</time>
      </trkpt>
      <trkpt lat="44.10745" lon="2.97486">
        <ele>638</ele>
        <time>2010-01-01T01:16:57Z</time>
      </trkpt>
      <trkpt lat="44.10745" lon="2.97482">
        <ele>638</ele>
        <time>2010-01-01T01:16:58Z</time>
      </trkpt>
      <trkpt lat="44.10746" lon="2.97479">
        <ele>638</ele>
        <time>2010-01-01T01:16:59Z</time>
      </trkpt>
      <trkpt lat="44.10746" lon="2.97477">
        <ele>639</ele>
        <time>2010-01-01T01:17:00Z</time>
      </trkpt>
      <trkpt lat="44.10747" lon="2.97473">
        <ele>639</ele>
        <time>2010-01-01T01:17:01Z</time>
      </trkpt>
      <trkpt lat="44.10747" lon="2.97469">
        <ele>639</ele>
        <time>2010-01-01T01:17:02Z</time>
      </trkpt>
      <trkpt lat="44.10748" lon="2.97465">
        <ele>640</ele>
        <time>2010-01-01T01:17:03Z</time>
      </trkpt>
      <trkpt lat="44.10749" lon="2.97461">
        <ele>640</ele>
        <time>2010-01-01T01:17:04Z</time>
      </trkpt>
      <trkpt lat="44.1075" lon="2.97457">
        <ele>640</ele>
        <time>2010-01-01T01:17:05Z</time>
      </trkpt>
      <trkpt lat="44.10753" lon="2.97454">
        <ele>640</ele>
        <time>2010-01-01T01:17:07Z</time>
      </trkpt>
      <trkpt lat="44.10755" lon="2.97453">
        <ele>641</ele>
        <time>2010-01-01T01:17:08Z</time>
      </trkpt>
      <trkpt lat="44.10758" lon="2.97452">
        <ele>641</ele>
        <time>2010-01-01T01:17:09Z</time>
      </trkpt>
      <trkpt lat="44.10759" lon="2.9745">
        <ele>642</ele>
        <time>2010-01-01T01:17:10Z</time>
      </trkpt>
      <trkpt lat="44.10762" lon="2.97447">
        <ele>642</ele>
        <time>2010-01-01T01:17:11Z</time>
      </trkpt>
      <trkpt lat="44.10765" lon="2.97446">
        <ele>643</ele>
        <time>2010-01-01T01:17:12Z</time>
      </trkpt>
      <trkpt lat="44.10768" lon="2.97443">
        <ele>643</ele>
        <time>2010-01-01T01:17:14Z</time>
      </trkpt>
      <trkpt lat="44.10771" lon="2.9744">
        <ele>643</ele>
        <time>2010-01-01T01:17:15Z</time>
      </trkpt>
      <trkpt lat="44.10773" lon="2.97438">
        <ele>644</ele>
        <time>2010-01-01T01:17:16Z</time>
      </trkpt>
      <trkpt lat="44.10776" lon="2.97437">
        <ele>644</ele>
        <time>2010-01-01T01:17:17Z</time>
      </trkpt>
      <trkpt lat="44.10779" lon="2.97435">
        <ele>645</ele>
        <time>2010-01-01T01:17:19Z</time>
      </trkpt>
      <trkpt lat="44.10781" lon="2.97433">
        <ele>645</ele>
        <time>2010-01-01T01:17:20Z</time>
      </trkpt>
      <trkpt lat="44.10784" lon="2.97431">
        <ele>646</ele>
        <time>2010-01-01T01:17:21Z</time>
      </trkpt>
      <trkpt lat="44.10787" lon="2.9743">
        <ele>646</ele>
        <time>2010-01-01T01:17:22Z</time>
      </trkpt>
      <trkpt lat="44.1079" lon="2.97428">
        <ele>647</ele>
        <time>2010-01-01T01:17:23Z</time>
      </trkpt>
      <trkpt lat="44.10793" lon="2.97427">
        <ele>647</ele>
        <time>2010-01-01T01:17:25Z</time>
      </trkpt>
      <trkpt lat="44.10795" lon="2.97425">
        <ele>648</ele>
        <time>2010-01-01T01:17:26Z</time>
      </trkpt>
      <trkpt lat="44.10798" lon="2.97424">
        <ele>649</ele>
        <time>2010-01-01T01:17:27Z</time>
      </trkpt>
      <trkpt lat="44.10801" lon="2.97422">
        <ele>649</ele>
        <time>2010-01-01T01:17:28Z</time>
      </trkpt>
      <trkpt lat="44.10803" lon="2.9742">
        <ele>650</ele>
        <time>2010-01-01T01:17:29Z</time>
      </trkpt>
      <trkpt lat="44.10806" lon="2.97419">
        <ele>651</ele>
        <time>2010-01-01T01:17:30Z</time>
      </trkpt>
      <trkpt lat="44.10808" lon="2.97418">
        <ele>651</ele>
        <time>2010-01-01T01:17:31Z</time>
      </trkpt>
      <trkpt lat="44.10811" lon="2.97417">
        <ele>652</ele>
        <time>2010-01-01T01:17:32Z</time>
      </trkpt>
      <trkpt lat="44.10814" lon="2.97416">
        <ele>652</ele>
        <time>2010-01-01T01:17:34Z</time>
      </trkpt>
      <trkpt lat="44.10816" lon="2.97415">
        <ele>653</ele>
        <time>2010-01-01T01:17:35Z</time>
      </trkpt>
      <trkpt lat="44.10819" lon="2.97414">
        <ele>654</ele>
        <time>2010-01-01T01:17:36Z</time>
      </trkpt>
      <trkpt lat="44.10822" lon="2.97413">
        <ele>654</ele>
        <time>2010-01-01T01:17:37Z</time>
      </trkpt>
      <trkpt lat="44.10824" lon="2.97412">
        <ele>655</ele>
        <time>2010-01-01T01:17:38Z</time>
      </trkpt>
      <trkpt lat="44.10827" lon="2.97412">
        <ele>656</ele>
        <time>2010-01-01T01:17:39Z</time>
      </trkpt>
      <trkpt lat="44.10829" lon="2.97411">
        <ele>657</ele>
        <time>2010-01-01T01:17:40Z</time>
      </trkpt>
      <trkpt lat="44.10832" lon="2.9741">
        <ele>657</ele>
        <time>2010-01-01T01:17:41Z</time>
      </trkpt>
      <trkpt lat="44.10834" lon="2.97408">
        <ele>658</ele>
        <time>2010-01-01T01:17:42Z</time>
      </trkpt>
      <trkpt lat="44.10837" lon="2.97407">
        <ele>658</ele>
        <time>2010-01-01T01:17:43Z</time>
      </trkpt>
      <trkpt lat="44.1084" lon="2.97406">
        <ele>659</ele>
        <time>2010-01-01T01:17:44Z</time>
      </trkpt>
      <trkpt lat="44.10842" lon="2.97404">
        <ele>659</ele>
        <time>2010-01-01T01:17:45Z</time>
      </trkpt>
      <trkpt lat="44.10844" lon="2.97403">
        <ele>660</ele>
        <time>2010-01-01T01:17:46Z</time>
      </trkpt>
      <trkpt lat="44.10847" lon="2.97402">
        <ele>660</ele>
        <time>2010-01-01T01:17:48Z</time>
      </trkpt>
      <trkpt lat="44.1085" lon="2.97401">
        <ele>661</ele>
        <time>2010-01-01T01:17:49Z</time>
      </trkpt>
      <trkpt lat="44.10852" lon="2.974">
        <ele>661</ele>
        <time>2010-01-01T01:17:50Z</time>
      </trkpt>
      <trkpt lat="44.10854" lon="2.97399">
        <ele>662</ele>
        <time>2010-01-01T01:17:51Z</time>
      </trkpt>
      <trkpt lat="44.10857" lon="2.97398">
        <ele>662</ele>
        <time>2010-01-01T01:17:52Z</time>
      </trkpt>
      <trkpt lat="44.10859" lon="2.97397">
        <ele>663</ele>
        <time>2010-01-01T01:17:53Z</time>
      </trkpt>
      <trkpt lat="44.10861" lon="2.97396">
        <ele>663</ele>
        <time>2010-01-01T01:17:54Z</time>
      </trkpt>
      <trkpt lat="44.10864" lon="2.97394">
        <ele>664</ele>
        <time>2010-01-01T01:17:55Z</time>
      </trkpt>
      <trkpt lat="44.10866" lon="2.97393">
        <ele>664</ele>
        <time>2010-01-01T01:17:56Z</time>
      </trkpt>
      <trkpt lat="44.10869" lon="2.97391">
        <ele>665</ele>
        <time>2010-01-01T01:17:57Z</time>
      </trkpt>
      <trkpt lat="44.10871" lon="2.9739">
        <ele>665</ele>
        <time>2010-01-01T01:17:58Z</time>
      </trkpt>
      <trkpt lat="44.10874" lon="2.97389">
        <ele>665</ele>
        <time>2010-01-01T01:17:59Z</time>
      </trkpt>
      <trkpt lat="44.10876" lon="2.97388">
        <ele>666</ele>
        <time>2010-01-01T01:18:00Z</time>
      </trkpt>
      <trkpt lat="44.10879" lon="2.97387">
        <ele>666</ele>
        <time>2010-01-01T01:18:01Z</time>
      </trkpt>
      <trkpt lat="44.10881" lon="2.97386">
        <ele>666</ele>
        <time>2010-01-01T01:18:02Z</time>
      </trkpt>
      <trkpt lat="44.10883" lon="2.97386">
        <ele>667</ele>
        <time>2010-01-01T01:18:03Z</time>
      </trkpt>
      <trkpt lat="44.10886" lon="2.97384">
        <ele>667</ele>
        <time>2010-01-01T01:18:04Z</time>
      </trkpt>
      <trkpt lat="44.10888" lon="2.97384">
        <ele>667</ele>
        <time>2010-01-01T01:18:05Z</time>
      </trkpt>
      <trkpt lat="44.10891" lon="2.97383">
        <ele>668</ele>
        <time>2010-01-01T01:18:06Z</time>
      </trkpt>
      <trkpt lat="44.10894" lon="2.97383">
        <ele>668</ele>
        <time>2010-01-01T01:18:07Z</time>
      </trkpt>
      <trkpt lat="44.10896" lon="2.97382">
        <ele>668</ele>
        <time>2010-01-01T01:18:08Z</time>
      </trkpt>
      <trkpt lat="44.10898" lon="2.97381">
        <ele>669</ele>
        <time>2010-01-01T01:18:09Z</time>
      </trkpt>
      <trkpt lat="44.109" lon="2.97381">
        <ele>669</ele>
        <time>2010-01-01T01:18:10Z</time>
      </trkpt>
      <trkpt lat="44.10902" lon="2.97379">
        <ele>669</ele>
        <time>2010-01-01T01:18:11Z</time>
      </trkpt>
      <trkpt lat="44.10905" lon="2.97378">
        <ele>670</ele>
        <time>2010-01-01T01:18:12Z</time>
      </trkpt>
      <trkpt lat="44.10907" lon="2.97377">
        <ele>670</ele>
        <time>2010-01-01T01:18:13Z</time>
      </trkpt>
      <trkpt lat="44.1091" lon="2.97376">
        <ele>670</ele>
        <time>2010-01-01T01:18:14Z</time>
      </trkpt>
      <trkpt lat="44.10912" lon="2.97375">
        <ele>671</ele>
        <time>2010-01-01T01:18:15Z</time>
      </trkpt>
      <trkpt lat="44.10915" lon="2.97374">
        <ele>671</ele>
        <time>2010-01-01T01:18:16Z</time>
      </trkpt>
      <trkpt lat="44.10917" lon="2.97373">
        <ele>672</ele>
        <time>2010-01-01T01:18:17Z</time>
      </trkpt>
      <trkpt lat="44.1092" lon="2.97372">
        <ele>672</ele>
        <time>2010-01-01T01:18:18Z</time>
      </trkpt>
      <trkpt lat="44.10922" lon="2.97372">
        <ele>672</ele>
        <time>2010-01-01T01:18:19Z</time>
      </trkpt>
      <trkpt lat="44.10924" lon="2.97371">
        <ele>672</ele>
        <time>2010-01-01T01:18:20Z</time>
      </trkpt>
      <trkpt lat="44.10927" lon="2.9737">
        <ele>673</ele>
        <time>2010-01-01T01:18:21Z</time>
      </trkpt>
      <trkpt lat="44.10929" lon="2.97371">
        <ele>673</ele>
        <time>2010-01-01T01:18:22Z</time>
      </trkpt>
      <trkpt lat="44.10932" lon="2.97371">
        <ele>673</ele>
        <time>2010-01-01T01:18:23Z</time>
      </trkpt>
      <trkpt lat="44.10934" lon="2.9737">
        <ele>674</ele>
        <time>2010-01-01T01:18:24Z</time>
      </trkpt>
      <trkpt lat="44.10936" lon="2.97369">
        <ele>674</ele>
        <time>2010-01-01T01:18:25Z</time>
      </trkpt>
      <trkpt lat="44.10939" lon="2.97369">
        <ele>674</ele>
        <time>2010-01-01T01:18:26Z</time>
      </trkpt>
      <trkpt lat="44.10941" lon="2.97369">
        <ele>674</ele>
        <time>2010-01-01T01:18:27Z</time>
      </trkpt>
      <trkpt lat="44.10943" lon="2.97368">
        <ele>675</ele>
        <time>2010-01-01T01:18:28Z</time>
      </trkpt>
      <trkpt lat="44.10945" lon="2.97367">
        <ele>675</ele>
        <time>2010-01-01T01:18:28Z</time>
      </trkpt>
      <trkpt lat="44.10947" lon="2.97365">
        <ele>675</ele>
        <time>2010-01-01T01:18:29Z</time>
      </trkpt>
      <trkpt lat="44.10949" lon="2.97365">
        <ele>676</ele>
        <time>2010-01-01T01:18:30Z</time>
      </trkpt>
      <trkpt lat="44.10952" lon="2.97364">
        <ele>676</ele>
        <time>2010-01-01T01:18:31Z</time>
      </trkpt>
      <trkpt lat="44.10954" lon="2.97362">
        <ele>677</ele>
        <time>2010-01-01T01:18:32Z</time>
      </trkpt>
      <trkpt lat="44.10956" lon="2.97362">
        <ele>677</ele>
        <time>2010-01-01T01:18:33Z</time>
      </trkpt>
      <trkpt lat="44.10959" lon="2.97361">
        <ele>678</ele>
        <time>2010-01-01T01:18:34Z</time>
      </trkpt>
      <trkpt lat="44.10961" lon="2.9736">
        <ele>678</ele>
        <time>2010-01-01T01:18:35Z</time>
      </trkpt>
      <trkpt lat="44.10964" lon="2.9736">
        <ele>679</ele>
        <time>2010-01-01T01:18:36Z</time>
      </trkpt>
      <trkpt lat="44.10966" lon="2.97358">
        <ele>679</ele>
        <time>2010-01-01T01:18:37Z</time>
      </trkpt>
      <trkpt lat="44.10968" lon="2.97357">
        <ele>680</ele>
        <time>2010-01-01T01:18:38Z</time>
      </trkpt>
      <trkpt lat="44.10971" lon="2.97356">
        <ele>680</ele>
        <time>2010-01-01T01:18:39Z</time>
      </trkpt>
      <trkpt lat="44.10974" lon="2.97355">
        <ele>681</ele>
        <time>2010-01-01T01:18:40Z</time>
      </trkpt>
      <trkpt lat="44.10976" lon="2.97354">
        <ele>682</ele>
        <time>2010-01-01T01:18:42Z</time>
      </trkpt>
      <trkpt lat="44.10979" lon="2.97353">
        <ele>682</ele>
        <time>2010-01-01T01:18:43Z</time>
      </trkpt>
      <trkpt lat="44.10982" lon="2.97353">
        <ele>683</ele>
        <time>2010-01-01T01:18:44Z</time>
      </trkpt>
      <trkpt lat="44.10984" lon="2.97352">
        <ele>683</ele>
        <time>2010-01-01T01:18:45Z</time>
      </trkpt>
      <trkpt lat="44.10987" lon="2.97352">
        <ele>684</ele>
        <time>2010-01-01T01:18:46Z</time>
      </trkpt>
      <trkpt lat="44.10989" lon="2.97351">
        <ele>684</ele>
        <time>2010-01-01T01:18:47Z</time>
      </trkpt>
      <trkpt lat="44.10992" lon="2.9735">
        <ele>685</ele>
        <time>2010-01-01T01:18:48Z</time>
      </trkpt>
      <trkpt lat="44.10994" lon="2.97349">
        <ele>685</ele>
        <time>2010-01-01T01:18:49Z</time>
      </trkpt>
      <trkpt lat="44.10997" lon="2.97349">
        <ele>686</ele>
        <time>2010-01-01T01:18:50Z</time>
      </trkpt>
      <trkpt lat="44.11" lon="2.97348">
        <ele>687</ele>
        <time>2010-01-01T01:18:51Z</time>
      </trkpt>
      <trkpt lat="44.11003" lon="2.97347">
        <ele>687</ele>
        <time>2010-01-01T01:18:52Z</time>
      </trkpt>
      <trkpt lat="44.11005" lon="2.97346">
        <ele>687</ele>
        <time>2010-01-01T01:18:53Z</time>
      </trkpt>
      <trkpt lat="44.11008" lon="2.97345">
        <ele>687</ele>
        <time>2010-01-01T01:18:54Z</time>
      </trkpt>
      <trkpt lat="44.1101" lon="2.97344">
        <ele>688</ele>
        <time>2010-01-01T01:18:55Z</time>
      </trkpt>
      <trkpt lat="44.11013" lon="2.97345">
        <ele>688</ele>
        <time>2010-01-01T01:18:57Z</time>
      </trkpt>
      <trkpt lat="44.11016" lon="2.97346">
        <ele>689</ele>
        <time>2010-01-01T01:18:58Z</time>
      </trkpt>
      <trkpt lat="44.11018" lon="2.97349">
        <ele>689</ele>
        <time>2010-01-01T01:18:59Z</time>
      </trkpt>
      <trkpt lat="44.11021" lon="2.97352">
        <ele>689</ele>
        <time>2010-01-01T01:19:00Z</time>
      </trkpt>
      <trkpt lat="44.11023" lon="2.97354">
        <ele>689</ele>
        <time>2010-01-01T01:19:02Z</time>
      </trkpt>
      <trkpt lat="44.11026" lon="2.97357">
        <ele>689</ele>
        <time>2010-01-01T01:19:03Z</time>
      </trkpt>
      <trkpt lat="44.11029" lon="2.97359">
        <ele>690</ele>
        <time>2010-01-01T01:19:04Z</time>
      </trkpt>
      <trkpt lat="44.11033" lon="2.97361">
        <ele>690</ele>
        <time>2010-01-01T01:19:06Z</time>
      </trkpt>
      <trkpt lat="44.11036" lon="2.97362">
        <ele>690</ele>
        <time>2010-01-01T01:19:07Z</time>
      </trkpt>
      <trkpt lat="44.1104" lon="2.97362">
        <ele>691</ele>
        <time>2010-01-01T01:19:09Z</time>
      </trkpt>
      <trkpt lat="44.11043" lon="2.97363">
        <ele>691</ele>
        <time>2010-01-01T01:19:10Z</time>
      </trkpt>
      <trkpt lat="44.11047" lon="2.97363">
        <ele>691</ele>
        <time>2010-01-01T01:19:12Z</time>
      </trkpt>
      <trkpt lat="44.11051" lon="2.97363">
        <ele>692</ele>
        <time>2010-01-01T01:19:13Z</time>
      </trkpt>
      <trkpt lat="44.11055" lon="2.97363">
        <ele>692</ele>
        <time>2010-01-01T01:19:15Z</time>
      </trkpt>
      <trkpt lat="44.11058" lon="2.97362">
        <ele>693</ele>
        <time>2010-01-01T01:19:16Z</time>
      </trkpt>
      <trkpt lat="44.11061" lon="2.97362">
        <ele>693</ele>
        <time>2010-01-01T01:19:17Z</time>
      </trkpt>
      <trkpt lat="44.11065" lon="2.9736">
        <ele>693</ele>
        <time>2010-01-01T01:19:19Z</time>
      </trkpt>
      <trkpt lat="44.11068" lon="2.97359">
        <ele>694</ele>
        <time>2010-01-01T01:19:20Z</time>
      </trkpt>
      <trkpt lat="44.11071" lon="2.97357">
        <ele>694</ele>
        <time>2010-01-01T01:19:22Z</time>
      </trkpt>
      <trkpt lat="44.11074" lon="2.97356">
        <ele>694</ele>
        <time>2010-01-01T01:19:23Z</time>
      </trkpt>
      <trkpt lat="44.11078" lon="2.97354">
        <ele>695</ele>
        <time>2010-01-01T01:19:24Z</time>
      </trkpt>
      <trkpt lat="44.11081" lon="2.97352">
        <ele>695</ele>
        <time>2010-01-01T01:19:26Z</time>
      </trkpt>
      <trkpt lat="44.11083" lon="2.97349">
        <ele>695</ele>
        <time>2010-01-01T01:19:27Z</time>
      </trkpt>
      <trkpt lat="44.11086" lon="2.97346">
        <ele>696</ele>
        <time>2010-01-01T01:19:28Z</time>
      </trkpt>
      <trkpt lat="44.11089" lon="2.97342">
        <ele>696</ele>
        <time>2010-01-01T01:19:30Z</time>
      </trkpt>
      <trkpt lat="44.11092" lon="2.97338">
        <ele>697</ele>
        <time>2010-01-01T01:19:32Z</time>
      </trkpt>
      <trkpt lat="44.11095" lon="2.97334">
        <ele>697</ele>
        <time>2010-01-01T01:19:33Z</time>
      </trkpt>
      <trkpt lat="44.11097" lon="2.9733">
        <ele>698</ele>
        <time>2010-01-01T01:19:35Z</time>
      </trkpt>
      <trkpt lat="44.11099" lon="2.97326">
        <ele>698</ele>
        <time>2010-01-01T01:19:36Z</time>
      </trkpt>
      <trkpt lat="44.11101" lon="2.97321">
        <ele>698</ele>
        <time>2010-01-01T01:19:38Z</time>
      </trkpt>
      <trkpt lat="44.11103" lon="2.97317">
        <ele>699</ele>
        <time>2010-01-01T01:19:39Z</time>
      </trkpt>
      <trkpt lat="44.11105" lon="2.97312">
        <ele>699</ele>
        <time>2010-01-01T01:19:41Z</time>
      </trkpt>
      <trkpt lat="44.11106" lon="2.97308">
        <ele>699</ele>
        <time>2010-01-01T01:19:42Z</time>
      </trkpt>
      <trkpt lat="44.11108" lon="2.97303">
        <ele>699</ele>
        <time>2010-01-01T01:19:44Z</time>
      </trkpt>
      <trkpt lat="44.1111" lon="2.97298">
        <ele>700</ele>
        <time>2010-01-01T01:19:45Z</time>
      </trkpt>
      <trkpt lat="44.11111" lon="2.97293">
        <ele>700</ele>
        <time>2010-01-01T01:19:47Z</time>
      </trkpt>
      <trkpt lat="44.11113" lon="2.97287">
        <ele>700</ele>
        <time>2010-01-01T01:19:49Z</time>
      </trkpt>
      <trkpt lat="44.11114" lon="2.97282">
        <ele>701</ele>
        <time>2010-01-01T01:19:50Z</time>
      </trkpt>
      <trkpt lat="44.11116" lon="2.97278">
        <ele>701</ele>
        <time>2010-01-01T01:19:52Z</time>
      </trkpt>
      <trkpt lat="44.11119" lon="2.97274">
        <ele>701</ele>
        <time>2010-01-01T01:19:53Z</time>
      </trkpt>
      <trkpt lat="44.11121" lon="2.97269">
        <ele>701</ele>
        <time>2010-01-01T01:19:55Z</time>
      </trkpt>
      <trkpt lat="44.11122" lon="2.97264">
        <ele>701</ele>
        <time>2010-01-01T01:19:56Z</time>
      </trkpt>
      <trkpt lat="44.11123" lon="2.97258">
        <ele>701</ele>
        <time>2010-01-01T01:19:58Z</time>
      </trkpt>
      <trkpt lat="44.11125" lon="2.97252">
        <ele>701</ele>
        <time>2010-01-01T01:20:00Z</time>
      </trkpt>
      <trkpt lat="44.11127" lon="2.97247">
        <ele>702</ele>
        <time>2010-01-01T01:20:01Z</time>
      </trkpt>
      <trkpt lat="44.11128" lon="2.97242">
        <ele>702</ele>
        <time>2010-01-01T01:20:03Z</time>
      </trkpt>
      <trkpt lat="44.1113" lon="2.97237">
        <ele>702</ele>
        <time>2010-01-01T01:20:05Z</time>
      </trkpt>
      <trkpt lat="44.11131" lon="2.97231">
        <ele>702</ele>
        <time>2010-01-01T01:20:07Z</time>
      </trkpt>
      <trkpt lat="44.11133" lon="2.97226">
        <ele>702</ele>
        <time>2010-01-01T01:20:08Z</time>
      </trkpt>
      <trkpt lat="44.11135" lon="2.97221">
        <ele>702</ele>
        <time>2010-01-01T01:20:10Z</time>
      </trkpt>
      <trkpt lat="44.11137" lon="2.97216">
        <ele>702</ele>
        <time>2010-01-01T01:20:11Z</time>
      </trkpt>
      <trkpt lat="44.11138" lon="2.97211">
        <ele>702</ele>
        <time>2010-01-01T01:20:13Z</time>
      </trkpt>
      <trkpt lat="44.1114" lon="2.97205">
        <ele>702</ele>
        <time>2010-01-01T01:20:15Z</time>
      </trkpt>
      <trkpt lat="44.11142" lon="2.972">
        <ele>701</ele>
        <time>2010-01-01T01:20:16Z</time>
      </trkpt>
      <trkpt lat="44.11143" lon="2.97194">
        <ele>701</ele>
        <time>2010-01-01T01:20:18Z</time>
      </trkpt>
      <trkpt lat="44.11145" lon="2.97189">
        <ele>702</ele>
        <time>2010-01-01T01:20:20Z</time>
      </trkpt>
      <trkpt lat="44.11147" lon="2.97184">
        <ele>702</ele>
        <time>2010-01-01T01:20:21Z</time>
      </trkpt>
      <trkpt lat="44.11148" lon="2.97179">
        <ele>702</ele>
        <time>2010-01-01T01:20:23Z</time>
      </trkpt>
      <trkpt lat="44.11149" lon="2.97173">
        <ele>702</ele>
        <time>2010-01-01T01:20:25Z</time>
      </trkpt>
      <trkpt lat="44.11151" lon="2.97168">
        <ele>703</ele>
        <time>2010-01-01T01:20:26Z</time>
      </trkpt>
      <trkpt lat="44.11153" lon="2.97162">
        <ele>703</ele>
        <time>2010-01-01T01:20:28Z</time>
      </trkpt>
      <trkpt lat="44.11154" lon="2.97157">
        <ele>703</ele>
        <time>2010-01-01T01:20:30Z</time>
      </trkpt>
      <trkpt lat="44.11156" lon="2.97153">
        <ele>704</ele>
        <time>2010-01-01T01:20:31Z</time>
      </trkpt>
      <trkpt lat="44.11157" lon="2.97148">
        <ele>704</ele>
        <time>2010-01-01T01:20:33Z</time>
      </trkpt>
      <trkpt lat="44.11159" lon="2.97143">
        <ele>704</ele>
        <time>2010-01-01T01:20:34Z</time>
      </trkpt>
      <trkpt lat="44.1116" lon="2.97138">
        <ele>705</ele>
        <time>2010-01-01T01:20:36Z</time>
      </trkpt>
      <trkpt lat="44.11162" lon="2.97134">
        <ele>705</ele>
        <time>2010-01-01T01:20:37Z</time>
      </trkpt>
      <trkpt lat="44.11165" lon="2.9713">
        <ele>706</ele>
        <time>2010-01-01T01:20:39Z</time>
      </trkpt>
      <trkpt lat="44.11169" lon="2.97128">
        <ele>707</ele>
        <time>2010-01-01T01:20:40Z</time>
      </trkpt>
      <trkpt lat="44.11173" lon="2.97128">
        <ele>709</ele>
        <time>2010-01-01T01:20:42Z</time>
      </trkpt>
      <trkpt lat="44.11176" lon="2.97131">
        <ele>710</ele>
        <time>2010-01-01T01:20:44Z</time>
      </trkpt>
      <trkpt lat="44.11178" lon="2.97135">
        <ele>710</ele>
        <time>2010-01-01T01:20:45Z</time>
      </trkpt>
      <trkpt lat="44.11179" lon="2.97141">
        <ele>710</ele>
        <time>2010-01-01T01:20:47Z</time>
      </trkpt>
      <trkpt lat="44.1118" lon="2.97147">
        <ele>710</ele>
        <time>2010-01-01T01:20:48Z</time>
      </trkpt>
      <trkpt lat="44.1118" lon="2.97153">
        <ele>711</ele>
        <time>2010-01-01T01:20:50Z</time>
      </trkpt>
      <trkpt lat="44.1118" lon="2.97159">
        <ele>711</ele>
        <time>2010-01-01T01:20:52Z</time>
      </trkpt>
      <trkpt lat="44.11181" lon="2.97165">
        <ele>711</ele>
        <time>2010-01-01T01:20:54Z</time>
      </trkpt>
      <trkpt lat="44.11182" lon="2.9717">
        <ele>711</ele>
        <time>2010-01-01T01:20:55Z</time>
      </trkpt>
      <trkpt lat="44.11183" lon="2.97177">
        <ele>712</ele>
        <time>2010-01-01T01:20:57Z</time>
      </trkpt>
      <trkpt lat="44.11184" lon="2.97183">
        <ele>712</ele>
        <time>2010-01-01T01:20:59Z</time>
      </trkpt>
      <trkpt lat="44.11185" lon="2.97189">
        <ele>712</ele>
        <time>2010-01-01T01:21:01Z</time>
      </trkpt>
      <trkpt lat="44.11186" lon="2.97195">
        <ele>713</ele>
        <time>2010-01-01T01:21:02Z</time>
      </trkpt>
      <trkpt lat="44.11188" lon="2.97201">
        <ele>713</ele>
        <time>2010-01-01T01:21:04Z</time>
      </trkpt>
      <trkpt lat="44.1119" lon="2.97207">
        <ele>714</ele>
        <time>2010-01-01T01:21:06Z</time>
      </trkpt>
      <trkpt lat="44.11192" lon="2.97212">
        <ele>714</ele>
        <time>2010-01-01T01:21:08Z</time>
      </trkpt>
      <trkpt lat="44.11194" lon="2.97218">
        <ele>715</ele>
        <time>2010-01-01T01:21:10Z</time>
      </trkpt>
      <trkpt lat="44.11196" lon="2.97223">
        <ele>715</ele>
        <time>2010-01-01T01:21:12Z</time>
      </trkpt>
      <trkpt lat="44.11199" lon="2.97228">
        <ele>715</ele>
        <time>2010-01-01T01:21:13Z</time>
      </trkpt>
      <trkpt lat="44.11201" lon="2.97234">
        <ele>714</ele>
        <time>2010-01-01T01:21:15Z</time>
      </trkpt>
      <trkpt lat="44.11204" lon="2.97239">
        <ele>714</ele>
        <time>2010-01-01T01:21:17Z</time>
      </trkpt>
      <trkpt lat="44.11209" lon="2.97244">
        <ele>715</ele>
        <time>2010-01-01T01:21:19Z</time>
      </trkpt>
      <trkpt lat="44.11214" lon="2.97249">
        <ele>715</ele>
        <time>2010-01-01T01:21:22Z</time>
      </trkpt>
      <trkpt lat="44.11219" lon="2.97251">
        <ele>716</ele>
        <time>2010-01-01T01:21:24Z</time>
      </trkpt>
      <trkpt lat="44.11223" lon="2.97253">
        <ele>716</ele>
        <time>2010-01-01T01:21:26Z</time>
      </trkpt>
      <trkpt lat="44.11227" lon="2.97255">
        <ele>717</ele>
        <time>2010-01-01T01:21:28Z</time>
      </trkpt>
      <trkpt lat="44.11232" lon="2.97256">
        <ele>718</ele>
        <time>2010-01-01T01:21:29Z</time>
      </trkpt>
      <trkpt lat="44.11236" lon="2.97256">
        <ele>718</ele>
        <time>2010-01-01T01:21:31Z</time>
      </trkpt>
      <trkpt lat="44.11241" lon="2.97257">
        <ele>719</ele>
        <time>2010-01-01T01:21:33Z</time>
      </trkpt>
      <trkpt lat="44.11245" lon="2.97257">
        <ele>720</ele>
        <time>2010-01-01T01:21:35Z</time>
      </trkpt>
      <trkpt lat="44.1125" lon="2.97258">
        <ele>721</ele>
        <time>2010-01-01T01:21:37Z</time>
      </trkpt>
      <trkpt lat="44.11254" lon="2.97258">
        <ele>721</ele>
        <time>2010-01-01T01:21:38Z</time>
      </trkpt>
      <trkpt lat="44.11258" lon="2.97258">
        <ele>722</ele>
        <time>2010-01-01T01:21:40Z</time>
      </trkpt>
      <trkpt lat="44.11263" lon="2.97259">
        <ele>723</ele>
        <time>2010-01-01T01:21:42Z</time>
      </trkpt>
      <trkpt lat="44.11268" lon="2.97259">
        <ele>723</ele>
        <time>2010-01-01T01:21:44Z</time>
      </trkpt>
      <trkpt lat="44.11272" lon="2.9726">
        <ele>724</ele>
        <time>2010-01-01T01:21:45Z</time>
      </trkpt>
      <trkpt lat="44.11276" lon="2.9726">
        <ele>724</ele>
        <time>2010-01-01T01:21:47Z</time>
      </trkpt>
      <trkpt lat="44.1128" lon="2.97261">
        <ele>725</ele>
        <time>2010-01-01T01:21:49Z</time>
      </trkpt>
      <trkpt lat="44.11284" lon="2.97262">
        <ele>725</ele>
        <time>2010-01-01T01:21:50Z</time>
      </trkpt>
      <trkpt lat="44.11287" lon="2.97264">
        <ele>725</ele>
        <time>2010-01-01T01:21:52Z</time>
      </trkpt>
      <trkpt lat="44.11291" lon="2.97265">
        <ele>725</ele>
        <time>2010-01-01T01:21:53Z</time>
      </trkpt>
      <trkpt lat="44.11295" lon="2.97266">
        <ele>725</ele>
        <time>2010-01-01T01:21:55Z</time>
      </trkpt>
      <trkpt lat="44.11299" lon="2.97267">
        <ele>725</ele>
        <time>2010-01-01T01:21:56Z</time>
      </trkpt>
      <trkpt lat="44.11302" lon="2.97268">
        <ele>726</ele>
        <time>2010-01-01T01:21:58Z</time>
      </trkpt>
      <trkpt lat="44.11306" lon="2.97269">
        <ele>726</ele>
        <time>2010-01-01T01:22:00Z</time>
      </trkpt>
      <trkpt lat="44.1131" lon="2.97271">
        <ele>726</ele>
        <time>2010-01-01T01:22:01Z</time>
      </trkpt>
      <trkpt lat="44.11314" lon="2.97272">
        <ele>726</ele>
        <time>2010-01-01T01:22:03Z</time>
      </trkpt>
      <trkpt lat="44.11318" lon="2.97273">
        <ele>727</ele>
        <time>2010-01-01T01:22:04Z</time>
      </trkpt>
      <trkpt lat="44.11322" lon="2.97274">
        <ele>727</ele>
        <time>2010-01-01T01:22:06Z</time>
      </trkpt>
      <trkpt lat="44.11327" lon="2.97276">
        <ele>727</ele>
        <time>2010-01-01T01:22:08Z</time>
      </trkpt>
      <trkpt lat="44.11331" lon="2.97278">
        <ele>727</ele>
        <time>2010-01-01T01:22:10Z</time>
      </trkpt>
      <trkpt lat="44.11336" lon="2.9728">
        <ele>728</ele>
        <time>2010-01-01T01:22:12Z</time>
      </trkpt>
      <trkpt lat="44.1134" lon="2.97282">
        <ele>728</ele>
        <time>2010-01-01T01:22:14Z</time>
      </trkpt>
      <trkpt lat="44.11345" lon="2.97284">
        <ele>728</ele>
        <time>2010-01-01T01:22:16Z</time>
      </trkpt>
      <trkpt lat="44.11349" lon="2.97287">
        <ele>728</ele>
        <time>2010-01-01T01:22:18Z</time>
      </trkpt>
      <trkpt lat="44.11354" lon="2.9729">
        <ele>728</ele>
        <time>2010-01-01T01:22:19Z</time>
      </trkpt>
      <trkpt lat="44.11358" lon="2.97293">
        <ele>728</ele>
        <time>2010-01-01T01:22:21Z</time>
      </trkpt>
      <trkpt lat="44.11362" lon="2.97296">
        <ele>728</ele>
        <time>2010-01-01T01:22:23Z</time>
      </trkpt>
      <trkpt lat="44.11366" lon="2.97299">
        <ele>728</ele>
        <time>2010-01-01T01:22:25Z</time>
      </trkpt>
      <trkpt lat="44.11371" lon="2.97302">
        <ele>728</ele>
        <time>2010-01-01T01:22:27Z</time>
      </trkpt>
      <trkpt lat="44.11376" lon="2.97306">
        <ele>728</ele>
        <time>2010-01-01T01:22:29Z</time>
      </trkpt>
      <trkpt lat="44.11381" lon="2.97309">
        <ele>727</ele>
        <time>2010-01-01T01:22:32Z</time>
      </trkpt>
      <trkpt lat="44.11386" lon="2.97314">
        <ele>727</ele>
        <time>2010-01-01T01:22:34Z</time>
      </trkpt>
      <trkpt lat="44.11392" lon="2.97318">
        <ele>727</ele>
        <time>2010-01-01T01:22:37Z</time>
      </trkpt>
      <trkpt lat="44.11398" lon="2.97321">
        <ele>727</ele>
        <time>2010-01-01T01:22:39Z</time>
      </trkpt>
      <trkpt lat="44.11404" lon="2.97325">
        <ele>727</ele>
        <time>2010-01-01T01:22:42Z</time>
      </trkpt>
      <trkpt lat="44.1141" lon="2.97329">
        <ele>727</ele>
        <time>2010-01-01T01:22:45Z</time>
      </trkpt>
      <trkpt lat="44.11415" lon="2.97333">
        <ele>727</ele>
        <time>2010-01-01T01:22:47Z</time>
      </trkpt>
      <trkpt lat="44.11421" lon="2.97336">
        <ele>728</ele>
        <time>2010-01-01T01:22:50Z</time>
      </trkpt>
      <trkpt lat="44.11427" lon="2.9734">
        <ele>728</ele>
        <time>2010-01-01T01:22:52Z</time>
      </trkpt>
      <trkpt lat="44.11432" lon="2.97344">
        <ele>728</ele>
        <time>2010-01-01T01:22:55Z</time>
      </trkpt>
      <trkpt lat="44.11438" lon="2.97347">
        <ele>728</ele>
        <time>2010-01-01T01:22:57Z</time>
      </trkpt>
      <trkpt lat="44.11443" lon="2.9735">
        <ele>728</ele>
        <time>2010-01-01T01:22:59Z</time>
      </trkpt>
      <trkpt lat="44.11449" lon="2.97353">
        <ele>729</ele>
        <time>2010-01-01T01:23:02Z</time>
      </trkpt>
      <trkpt lat="44.11455" lon="2.97355">
        <ele>729</ele>
        <time>2010-01-01T01:23:04Z</time>
      </trkpt>
      <trkpt lat="44.11461" lon="2.97358">
        <ele>729</ele>
        <time>2010-01-01T01:23:07Z</time>
      </trkpt>
      <trkpt lat="44.11466" lon="2.97361">
        <ele>729</ele>
        <time>2010-01-01T01:23:09Z</time>
      </trkpt>
      <trkpt lat="44.11472" lon="2.97364">
        <ele>730</ele>
        <time>2010-01-01T01:23:12Z</time>
      </trkpt>
      <trkpt lat="44.11478" lon="2.97367">
        <ele>730</ele>
        <time>2010-01-01T01:23:14Z</time>
      </trkpt>
      <trkpt lat="44.11483" lon="2.9737">
        <ele>730</ele>
        <time>2010-01-01T01:23:16Z</time>
      </trkpt>
      <trkpt lat="44.11489" lon="2.97372">
        <ele>731</ele>
        <time>2010-01-01T01:23:19Z</time>
      </trkpt>
      <trkpt lat="44.11493" lon="2.97372">
        <ele>731</ele>
        <time>2010-01-01T01:23:20Z</time>
      </trkpt>
      <trkpt lat="44.11496" lon="2.97368">
        <ele>731</ele>
        <time>2010-01-01T01:23:22Z</time>
      </trkpt>
      <trkpt lat="44.11499" lon="2.97361">
        <ele>730</ele>
        <time>2010-01-01T01:23:24Z</time>
      </trkpt>
      <trkpt lat="44.11502" lon="2.97351">
        <ele>730</ele>
        <time>2010-01-01T01:23:27Z</time>
      </trkpt>
      <trkpt lat="44.11503" lon="2.9734">
        <ele>730</ele>
        <time>2010-01-01T01:23:31Z</time>
      </trkpt>
      <trkpt lat="44.11506" lon="2.97327">
        <ele>729</ele>
        <time>2010-01-01T01:23:34Z</time>
      </trkpt>
      <trkpt lat="44.1151" lon="2.97313">
        <ele>729</ele>
        <time>2010-01-01T01:23:39Z</time>
      </trkpt>
      <trkpt lat="44.11514" lon="2.97297">
        <ele>728</ele>
        <time>2010-01-01T01:23:44Z</time>
      </trkpt>
      <trkpt lat="44.11519" lon="2.9728">
        <ele>727</ele>
        <time>2010-01-01T01:23:49Z</time>
      </trkpt>
      <trkpt lat="44.11524" lon="2.97262">
        <ele>727</ele>
        <time>2010-01-01T01:23:55Z</time>
      </trkpt>
      <trkpt lat="44.1153" lon="2.97244">
        <ele>727</ele>
        <time>2010-01-01T01:24:00Z</time>
      </trkpt>
      <trkpt lat="44.11535" lon="2.97226">
        <ele>726</ele>
        <time>2010-01-01T01:24:06Z</time>
      </trkpt>
      <trkpt lat="44.11541" lon="2.9721">
        <ele>725</ele>
        <time>2010-01-01T01:24:11Z</time>
      </trkpt>
      <trkpt lat="44.11546" lon="2.97194">
        <ele>725</ele>
        <time>2010-01-01T01:24:16Z</time>
      </trkpt>
      <trkpt lat="44.11551" lon="2.9718">
        <ele>724</ele>
        <time>2010-01-01T01:24:20Z</time>
      </trkpt>
      <trkpt lat="44.11555" lon="2.97166">
        <ele>723</ele>
        <time>2010-01-01T01:24:25Z</time>
      </trkpt>
      <trkpt lat="44.11559" lon="2.97151">
        <ele>722</ele>
        <time>2010-01-01T01:24:29Z</time>
      </trkpt>
      <trkpt lat="44.11563" lon="2.97136">
        <ele>721</ele>
        <time>2010-01-01T01:24:34Z</time>
      </trkpt>
      <trkpt lat="44.11566" lon="2.9712">
        <ele>720</ele>
        <time>2010-01-01T01:24:39Z</time>
      </trkpt>
      <trkpt lat="44.11571" lon="2.97104">
        <ele>719</ele>
        <time>2010-01-01T01:24:44Z</time>
      </trkpt>
      <trkpt lat="44.11576" lon="2.97088">
        <ele>718</ele>
        <time>2010-01-01T01:24:49Z</time>
      </trkpt>
      <trkpt lat="44.11583" lon="2.97071">
        <ele>717</ele>
        <time>2010-01-01T01:24:54Z</time>
      </trkpt>
      <trkpt lat="44.11591" lon="2.97054">
        <ele>716</ele>
        <time>2010-01-01T01:25:00Z</time>
      </trkpt>
      <trkpt lat="44.116" lon="2.97037">
        <ele>716</ele>
        <time>2010-01-01T01:25:06Z</time>
      </trkpt>
      <trkpt lat="44.11608" lon="2.9702">
        <ele>716</ele>
        <time>2010-01-01T01:25:12Z</time>
      </trkpt>
      <trkpt lat="44.11616" lon="2.97003">
        <ele>715</ele>
        <time>2010-01-01T01:25:18Z</time>
      </trkpt>
      <trkpt lat="44.11622" lon="2.9699">
        <ele>714</ele>
        <time>2010-01-01T01:25:23Z</time>
      </trkpt>
      <trkpt lat="44.11629" lon="2.96979">
        <ele>714</ele>
        <time>2010-01-01T01:25:27Z</time>
      </trkpt>
      <trkpt lat="44.11622" lon="2.96972">
        <ele>712</ele>
        <time>2010-01-01T01:25:30Z</time>
      </trkpt>
      <trkpt lat="44.11615" lon="2.96972">
        <ele>712</ele>
        <time>2010-01-01T01:25:33Z</time>
      </trkpt>
      <trkpt lat="44.11605" lon="2.9697">
        <ele>711</ele>
        <time>2010-01-01T01:25:37Z</time>
      </trkpt>
      <trkpt lat="44.11597" lon="2.96962">
        <ele>711</ele>
        <time>2010-01-01T01:25:41Z</time>
      </trkpt>
      <trkpt lat="44.11595" lon="2.9695">
        <ele>710</ele>
        <time>2010-01-01T01:25:44Z</time>
      </trkpt>
      <trkpt lat="44.11601" lon="2.96938">
        <ele>709</ele>
        <time>2010-01-01T01:25:49Z</time>
      </trkpt>
      <trkpt lat="44.11609" lon="2.96924">
        <ele>708</ele>
        <time>2010-01-01T01:25:54Z</time>
      </trkpt>
      <trkpt lat="44.11617" lon="2.96908">
        <ele>707</ele>
        <time>2010-01-01T01:25:59Z</time>
      </trkpt>
      <trkpt lat="44.11624" lon="2.96889">
        <ele>706</ele>
        <time>2010-01-01T01:26:05Z</time>
      </trkpt>
      <trkpt lat="44.11631" lon="2.9687">
        <ele>704</ele>
        <time>2010-01-01T01:26:11Z</time>
      </trkpt>
      <trkpt lat="44.11638" lon="2.9685">
        <ele>701</ele>
        <time>2010-01-01T01:26:18Z</time>
      </trkpt>
      <trkpt lat="44.11644" lon="2.96827">
        <ele>700</ele>
        <time>2010-01-01T01:26:25Z</time>
      </trkpt>
      <trkpt lat="44.11651" lon="2.96803">
        <ele>699</ele>
        <time>2010-01-01T01:26:32Z</time>
      </trkpt>
      <trkpt lat="44.11658" lon="2.96781">
        <ele>697</ele>
        <time>2010-01-01T01:26:39Z</time>
      </trkpt>
      <trkpt lat="44.11664" lon="2.96759">
        <ele>696</ele>
        <time>2010-01-01T01:26:46Z</time>
      </trkpt>
      <trkpt lat="44.11668" lon="2.96737">
        <ele>695</ele>
        <time>2010-01-01T01:26:52Z</time>
      </trkpt>
      <trkpt lat="44.11677" lon="2.96717">
        <ele>693</ele>
        <time>2010-01-01T01:26:59Z</time>
      </trkpt>
      <trkpt lat="44.1169" lon="2.96704">
        <ele>691</ele>
        <time>2010-01-01T01:27:06Z</time>
      </trkpt>
      <trkpt lat="44.11702" lon="2.96693">
        <ele>689</ele>
        <time>2010-01-01T01:27:11Z</time>
      </trkpt>
      <trkpt lat="44.11716" lon="2.96683">
        <ele>688</ele>
        <time>2010-01-01T01:27:18Z</time>
      </trkpt>
      <trkpt lat="44.11733" lon="2.96669">
        <ele>685</ele>
        <time>2010-01-01T01:27:26Z</time>
      </trkpt>
      <trkpt lat="44.11747" lon="2.96652">
        <ele>682</ele>
        <time>2010-01-01T01:27:33Z</time>
      </trkpt>
      <trkpt lat="44.1176" lon="2.96634">
        <ele>681</ele>
        <time>2010-01-01T01:27:40Z</time>
      </trkpt>
      <trkpt lat="44.11768" lon="2.96615">
        <ele>680</ele>
        <time>2010-01-01T01:27:47Z</time>
      </trkpt>
      <trkpt lat="44.11777" lon="2.96594">
        <ele>678</ele>
        <time>2010-01-01T01:27:54Z</time>
      </trkpt>
      <trkpt lat="44.11784" lon="2.96569">
        <ele>677</ele>
        <time>2010-01-01T01:28:01Z</time>
      </trkpt>
      <trkpt lat="44.11793" lon="2.96547">
        <ele>676</ele>
        <time>2010-01-01T01:28:09Z</time>
      </trkpt>
      <trkpt lat="44.11802" lon="2.96525">
        <ele>674</ele>
        <time>2010-01-01T01:28:16Z</time>
      </trkpt>
      <trkpt lat="44.11809" lon="2.96503">
        <ele>673</ele>
        <time>2010-01-01T01:28:23Z</time>
      </trkpt>
      <trkpt lat="44.11817" lon="2.96481">
        <ele>672</ele>
        <time>2010-01-01T01:28:30Z</time>
      </trkpt>
      <trkpt lat="44.11824" lon="2.96459">
        <ele>670</ele>
        <time>2010-01-01T01:28:37Z</time>
      </trkpt>
      <trkpt lat="44.1183" lon="2.96436">
        <ele>668</ele>
        <time>2010-01-01T01:28:44Z</time>
      </trkpt>
      <trkpt lat="44.11837" lon="2.96415">
        <ele>666</ele>
        <time>2010-01-01T01:28:51Z</time>
      </trkpt>
      <trkpt lat="44.11845" lon="2.96395">
        <ele>665</ele>
        <time>2010-01-01T01:28:57Z</time>
      </trkpt>
      <trkpt lat="44.11854" lon="2.96375">
        <ele>663</ele>
        <time>2010-01-01T01:29:04Z</time>
      </trkpt>
      <trkpt lat="44.11864" lon="2.96355">
        <ele>661</ele>
        <time>2010-01-01T01:29:11Z</time>
      </trkpt>
      <trkpt lat="44.11874" lon="2.96335">
        <ele>657</ele>
        <time>2010-01-01T01:29:18Z</time>
      </trkpt>
      <trkpt lat="44.11885" lon="2.96314">
        <ele>653</ele>
        <time>2010-01-01T01:29:25Z</time>
      </trkpt>
      <trkpt lat="44.11894" lon="2.96294">
        <ele>651</ele>
        <time>2010-01-01T01:29:32Z</time>
      </trkpt>
      <trkpt lat="44.11903" lon="2.96273">
        <ele>650</ele>
        <time>2010-01-01T01:29:39Z</time>
      </trkpt>
      <trkpt lat="44.11911" lon="2.96255">
        <ele>648</ele>
        <time>2010-01-01T01:29:45Z</time>
      </trkpt>
      <trkpt lat="44.11922" lon="2.96239">
        <ele>646</ele>
        <time>2010-01-01T01:29:52Z</time>
      </trkpt>
      <trkpt lat="44.11934" lon="2.9622">
        <ele>644</ele>
        <time>2010-01-01T01:29:59Z</time>
      </trkpt>
      <trkpt lat="44.11944" lon="2.962">
        <ele>641</ele>
        <time>2010-01-01T01:30:06Z</time>
      </trkpt>
      <trkpt lat="44.11953" lon="2.96178">
        <ele>640</ele>
        <time>2010-01-01T01:30:13Z</time>
      </trkpt>
      <trkpt lat="44.1196" lon="2.96156">
        <ele>639</ele>
        <time>2010-01-01T01:30:20Z</time>
      </trkpt>
      <trkpt lat="44.11967" lon="2.96133">
        <ele>638</ele>
        <time>2010-01-01T01:30:27Z</time>
      </trkpt>
      <trkpt lat="44.11973" lon="2.96112">
        <ele>634</ele>
        <time>2010-01-01T01:30:34Z</time>
      </trkpt>
      <trkpt lat="44.11979" lon="2.96091">
        <ele>630</ele>
        <time>2010-01-01T01:30:40Z</time>
      </trkpt>
      <trkpt lat="44.11985" lon="2.96071">
        <ele>627</ele>
        <time>2010-01-01T01:30:47Z</time>
      </trkpt>
      <trkpt lat="44.1199" lon="2.9605">
        <ele>625</ele>
        <time>2010-01-01T01:30:53Z</time>
      </trkpt>
      <trkpt lat="44.11994" lon="2.96029">
        <ele>624</ele>
        <time>2010-01-01T01:30:59Z</time>
      </trkpt>
      <trkpt lat="44.11997" lon="2.96007">
        <ele>622</ele>
        <time>2010-01-01T01:31:06Z</time>
      </trkpt>
      <trkpt lat="44.12" lon="2.95985">
        <ele>620</ele>
        <time>2010-01-01T01:31:12Z</time>
      </trkpt>
      <trkpt lat="44.12001" lon="2.95961">
        <ele>619</ele>
        <time>2010-01-01T01:31:19Z</time>
      </trkpt>
      <trkpt lat="44.12003" lon="2.95938">
        <ele>618</ele>
        <time>2010-01-01T01:31:26Z</time>
      </trkpt>
      <trkpt lat="44.12006" lon="2.95917">
        <ele>617</ele>
        <time>2010-01-01T01:31:32Z</time>
      </trkpt>
      <trkpt lat="44.12009" lon="2.95895">
        <ele>616</ele>
        <time>2010-01-01T01:31:38Z</time>
      </trkpt>
      <trkpt lat="44.12013" lon="2.95873">
        <ele>613</ele>
        <time>2010-01-01T01:31:45Z</time>
      </trkpt>
      <trkpt lat="44.12018" lon="2.9585">
        <ele>608</ele>
        <time>2010-01-01T01:31:52Z</time>
      </trkpt>
      <trkpt lat="44.12023" lon="2.95826">
        <ele>604</ele>
        <time>2010-01-01T01:31:59Z</time>
      </trkpt>
      <trkpt lat="44.12025" lon="2.958">
        <ele>602</ele>
        <time>2010-01-01T01:32:06Z</time>
      </trkpt>
      <trkpt lat="44.12025" lon="2.95773">
        <ele>604</ele>
        <time>2010-01-01T01:32:14Z</time>
      </trkpt>
      <trkpt lat="44.12025" lon="2.95752">
        <ele>606</ele>
        <time>2010-01-01T01:32:20Z</time>
      </trkpt>
      <trkpt lat="44.12028" lon="2.95737">
        <ele>608</ele>
        <time>2010-01-01T01:32:24Z</time>
      </trkpt>
      <trkpt lat="44.12036" lon="2.9573">
        <ele>606</ele>
        <time>2010-01-01T01:32:28Z</time>
      </trkpt>
      <trkpt lat="44.12048" lon="2.95729">
        <ele>602</ele>
        <time>2010-01-01T01:32:33Z</time>
      </trkpt>
      <trkpt lat="44.12063" lon="2.95725">
        <ele>598</ele>
        <time>2010-01-01T01:32:39Z</time>
      </trkpt>
      <trkpt lat="44.12076" lon="2.95714">
        <ele>597</ele>
        <time>2010-01-01T01:32:45Z</time>
      </trkpt>
      <trkpt lat="44.12089" lon="2.957">
        <ele>595</ele>
        <time>2010-01-01T01:32:52Z</time>
      </trkpt>
      <trkpt lat="44.12101" lon="2.95687">
        <ele>591</ele>
        <time>2010-01-01T01:32:58Z</time>
      </trkpt>
      <trkpt lat="44.12113" lon="2.95673">
        <ele>588</ele>
        <time>2010-01-01T01:33:04Z</time>
      </trkpt>
      <trkpt lat="44.12124" lon="2.95657">
        <ele>587</ele>
        <time>2010-01-01T01:33:11Z</time>
      </trkpt>
      <trkpt lat="44.12135" lon="2.95639">
        <ele>587</ele>
        <time>2010-01-01T01:33:18Z</time>
      </trkpt>
      <trkpt lat="44.12146" lon="2.9562">
        <ele>587</ele>
        <time>2010-01-01T01:33:24Z</time>
      </trkpt>
      <trkpt lat="44.12156" lon="2.95602">
        <ele>585</ele>
        <time>2010-01-01T01:33:31Z</time>
      </trkpt>
      <trkpt lat="44.12166" lon="2.95584">
        <ele>582</ele>
        <time>2010-01-01T01:33:38Z</time>
      </trkpt>
      <trkpt lat="44.12177" lon="2.95567">
        <ele>581</ele>
        <time>2010-01-01T01:33:44Z</time>
      </trkpt>
      <trkpt lat="44.12188" lon="2.95551">
        <ele>580</ele>
        <time>2010-01-01T01:33:51Z</time>
      </trkpt>
      <trkpt lat="44.12198" lon="2.95533">
        <ele>579</ele>
        <time>2010-01-01T01:33:57Z</time>
      </trkpt>
      <trkpt lat="44.12207" lon="2.95515">
        <ele>580</ele>
        <time>2010-01-01T01:34:04Z</time>
      </trkpt>
      <trkpt lat="44.12217" lon="2.95495">
        <ele>581</ele>
        <time>2010-01-01T01:34:10Z</time>
      </trkpt>
      <trkpt lat="44.12224" lon="2.95474">
        <ele>582</ele>
        <time>2010-01-01T01:34:17Z</time>
      </trkpt>
      <trkpt lat="44.12231" lon="2.95453">
        <ele>581</ele>
        <time>2010-01-01T01:34:24Z</time>
      </trkpt>
      <trkpt lat="44.1224" lon="2.95434">
        <ele>581</ele>
        <time>2010-01-01T01:34:30Z</time>
      </trkpt>
      <trkpt lat="44.12249" lon="2.95417">
        <ele>579</ele>
        <time>2010-01-01T01:34:36Z</time>
      </trkpt>
      <trkpt lat="44.12262" lon="2.95405">
        <ele>579</ele>
        <time>2010-01-01T01:34:42Z</time>
      </trkpt>
      <trkpt lat="44.12275" lon="2.95399">
        <ele>576</ele>
        <time>2010-01-01T01:34:48Z</time>
      </trkpt>
      <trkpt lat="44.12289" lon="2.95395">
        <ele>575</ele>
        <time>2010-01-01T01:34:54Z</time>
      </trkpt>
      <trkpt lat="44.12302" lon="2.95391">
        <ele>574</ele>
        <time>2010-01-01T01:34:59Z</time>
      </trkpt>
      <trkpt lat="44.12313" lon="2.95388">
        <ele>573</ele>
        <time>2010-01-01T01:35:04Z</time>
      </trkpt>
      <trkpt lat="44.12324" lon="2.95383">
        <ele>573</ele>
        <time>2010-01-01T01:35:08Z</time>
      </trkpt>
      <trkpt lat="44.12335" lon="2.9538">
        <ele>573</ele>
        <time>2010-01-01T01:35:12Z</time>
      </trkpt>
      <trkpt lat="44.12346" lon="2.95379">
        <ele>573</ele>
        <time>2010-01-01T01:35:17Z</time>
      </trkpt>
      <trkpt lat="44.12357" lon="2.95379">
        <ele>572</ele>
        <time>2010-01-01T01:35:22Z</time>
      </trkpt>
      <trkpt lat="44.12369" lon="2.95376">
        <ele>571</ele>
        <time>2010-01-01T01:35:26Z</time>
      </trkpt>
      <trkpt lat="44.12378" lon="2.95369">
        <ele>571</ele>
        <time>2010-01-01T01:35:30Z</time>
      </trkpt>
      <trkpt lat="44.12385" lon="2.95361">
        <ele>572</ele>
        <time>2010-01-01T01:35:34Z</time>
      </trkpt>
      <trkpt lat="44.12391" lon="2.95351">
        <ele>572</ele>
        <time>2010-01-01T01:35:38Z</time>
      </trkpt>
      <trkpt lat="44.12395" lon="2.9534">
        <ele>572</ele>
        <time>2010-01-01T01:35:41Z</time>
      </trkpt>
      <trkpt lat="44.12399" lon="2.95326">
        <ele>572</ele>
        <time>2010-01-01T01:35:46Z</time>
      </trkpt>
      <trkpt lat="44.12401" lon="2.95314">
        <ele>572</ele>
        <time>2010-01-01T01:35:49Z</time>
      </trkpt>
      <trkpt lat="44.12401" lon="2.95301">
        <ele>573</ele>
        <time>2010-01-01T01:35:53Z</time>
      </trkpt>
      <trkpt lat="44.124" lon="2.95289">
        <ele>573</ele>
        <time>2010-01-01T01:35:56Z</time>
      </trkpt>
      <trkpt lat="44.12398" lon="2.95278">
        <ele>574</ele>
        <time>2010-01-01T01:36:00Z</time>
      </trkpt>
      <trkpt lat="44.12396" lon="2.95267">
        <ele>574</ele>
        <time>2010-01-01T01:36:03Z</time>
      </trkpt>
      <trkpt lat="44.12393" lon="2.95254">
        <ele>575</ele>
        <time>2010-01-01T01:36:07Z</time>
      </trkpt>
      <trkpt lat="44.12392" lon="2.95241">
        <ele>574</ele>
        <time>2010-01-01T01:36:10Z</time>
      </trkpt>
      <trkpt lat="44.12392" lon="2.95227">
        <ele>573</ele>
        <time>2010-01-01T01:36:15Z</time>
      </trkpt>
      <trkpt lat="44.12393" lon="2.95212">
        <ele>573</ele>
        <time>2010-01-01T01:36:19Z</time>
      </trkpt>
      <trkpt lat="44.12392" lon="2.95197">
        <ele>573</ele>
        <time>2010-01-01T01:36:23Z</time>
      </trkpt>
      <trkpt lat="44.12392" lon="2.95184">
        <ele>574</ele>
        <time>2010-01-01T01:36:27Z</time>
      </trkpt>
      <trkpt lat="44.12392" lon="2.9517">
        <ele>575</ele>
        <time>2010-01-01T01:36:31Z</time>
      </trkpt>
      <trkpt lat="44.12391" lon="2.95157">
        <ele>576</ele>
        <time>2010-01-01T01:36:35Z</time>
      </trkpt>
      <trkpt lat="44.12391" lon="2.95145">
        <ele>577</ele>
        <time>2010-01-01T01:36:38Z</time>
      </trkpt>
      <trkpt lat="44.1239" lon="2.95132">
        <ele>578</ele>
        <time>2010-01-01T01:36:42Z</time>
      </trkpt>
      <trkpt lat="44.12391" lon="2.9512">
        <ele>579</ele>
        <time>2010-01-01T01:36:45Z</time>
      </trkpt>
      <trkpt lat="44.1239" lon="2.95107">
        <ele>580</ele>
        <time>2010-01-01T01:36:49Z</time>
      </trkpt>
      <trkpt lat="44.12392" lon="2.95095">
        <ele>581</ele>
        <time>2010-01-01T01:36:53Z</time>
      </trkpt>
      <trkpt lat="44.12393" lon="2.95083">
        <ele>582</ele>
        <time>2010-01-01T01:36:56Z</time>
      </trkpt>
      <trkpt lat="44.12395" lon="2.95071">
        <ele>581</ele>
        <time>2010-01-01T01:37:00Z</time>
      </trkpt>
      <trkpt lat="44.12409" lon="2.95015">
        <ele>578</ele>
        <time>2010-01-01T01:37:17Z</time>
      </trkpt>
      <trkpt lat="44.12415" lon="2.94995">
        <ele>576</ele>
        <time>2010-01-01T01:37:23Z</time>
      </trkpt>
      <trkpt lat="44.12419" lon="2.94982">
        <ele>576</ele>
        <time>2010-01-01T01:37:27Z</time>
      </trkpt>
      <trkpt lat="44.12428" lon="2.94979">
        <ele>575</ele>
        <time>2010-01-01T01:37:31Z</time>
      </trkpt>
      <trkpt lat="44.12433" lon="2.94975">
        <ele>575</ele>
        <time>2010-01-01T01:37:33Z</time>
      </trkpt>
      <trkpt lat="44.12439" lon="2.94971">
        <ele>575</ele>
        <time>2010-01-01T01:37:36Z</time>
      </trkpt>
      <trkpt lat="44.12445" lon="2.94967">
        <ele>575</ele>
        <time>2010-01-01T01:37:38Z</time>
      </trkpt>
      <trkpt lat="44.12452" lon="2.94964">
        <ele>574</ele>
        <time>2010-01-01T01:37:41Z</time>
      </trkpt>
      <trkpt lat="44.12459" lon="2.94961">
        <ele>574</ele>
        <time>2010-01-01T01:37:44Z</time>
      </trkpt>
      <trkpt lat="44.12465" lon="2.94957">
        <ele>574</ele>
        <time>2010-01-01T01:37:47Z</time>
      </trkpt>
      <trkpt lat="44.12471" lon="2.94953">
        <ele>574</ele>
        <time>2010-01-01T01:37:49Z</time>
      </trkpt>
      <trkpt lat="44.12475" lon="2.94951">
        <ele>574</ele>
        <time>2010-01-01T01:37:51Z</time>
      </trkpt>
      <trkpt lat="44.12478" lon="2.94949">
        <ele>574</ele>
        <time>2010-01-01T01:37:53Z</time>
      </trkpt>
      <trkpt lat="44.12481" lon="2.94945">
        <ele>574</ele>
        <time>2010-01-01T01:37:54Z</time>
      </trkpt>
      <trkpt lat="44.12485" lon="2.94941">
        <ele>574</ele>
        <time>2010-01-01T01:37:56Z</time>
      </trkpt>
      <trkpt lat="44.1249" lon="2.94936">
        <ele>574</ele>
        <time>2010-01-01T01:37:59Z</time>
      </trkpt>
      <trkpt lat="44.12495" lon="2.94931">
        <ele>574</ele>
        <time>2010-01-01T01:38:01Z</time>
      </trkpt>
      <trkpt lat="44.125" lon="2.94924">
        <ele>574</ele>
        <time>2010-01-01T01:38:04Z</time>
      </trkpt>
      <trkpt lat="44.12504" lon="2.94918">
        <ele>574</ele>
        <time>2010-01-01T01:38:06Z</time>
      </trkpt>
      <trkpt lat="44.12507" lon="2.94912">
        <ele>574</ele>
        <time>2010-01-01T01:38:09Z</time>
      </trkpt>
      <trkpt lat="44.1251" lon="2.94905">
        <ele>574</ele>
        <time>2010-01-01T01:38:11Z</time>
      </trkpt>
      <trkpt lat="44.12514" lon="2.94898">
        <ele>574</ele>
        <time>2010-01-01T01:38:13Z</time>
      </trkpt>
      <trkpt lat="44.12519" lon="2.94892">
        <ele>574</ele>
        <time>2010-01-01T01:38:16Z</time>
      </trkpt>
      <trkpt lat="44.12524" lon="2.94886">
        <ele>573</ele>
        <time>2010-01-01T01:38:19Z</time>
      </trkpt>
      <trkpt lat="44.1253" lon="2.9488">
        <ele>573</ele>
        <time>2010-01-01T01:38:22Z</time>
      </trkpt>
      <trkpt lat="44.12536" lon="2.94874">
        <ele>573</ele>
        <time>2010-01-01T01:38:24Z</time>
      </trkpt>
      <trkpt lat="44.1254" lon="2.94867">
        <ele>573</ele>
        <time>2010-01-01T01:38:27Z</time>
      </trkpt>
      <trkpt lat="44.12545" lon="2.9486">
        <ele>573</ele>
        <time>2010-01-01T01:38:30Z</time>
      </trkpt>
      <trkpt lat="44.12549" lon="2.94854">
        <ele>573</ele>
        <time>2010-01-01T01:38:32Z</time>
      </trkpt>
      <trkpt lat="44.12554" lon="2.94848">
        <ele>573</ele>
        <time>2010-01-01T01:38:35Z</time>
      </trkpt>
      <trkpt lat="44.12558" lon="2.94842">
        <ele>573</ele>
        <time>2010-01-01T01:38:37Z</time>
      </trkpt>
      <trkpt lat="44.12584" lon="2.94819">
        <ele>573</ele>
        <time>2010-01-01T01:38:50Z</time>
      </trkpt>
      <trkpt lat="44.12588" lon="2.94818">
        <ele>573</ele>
        <time>2010-01-01T01:38:51Z</time>
      </trkpt>
      <trkpt lat="44.1259" lon="2.94817">
        <ele>573</ele>
        <time>2010-01-01T01:38:52Z</time>
      </trkpt>
      <trkpt lat="44.12593" lon="2.94816">
        <ele>573</ele>
        <time>2010-01-01T01:38:53Z</time>
      </trkpt>
      <trkpt lat="44.12597" lon="2.94815">
        <ele>573</ele>
        <time>2010-01-01T01:38:55Z</time>
      </trkpt>
      <trkpt lat="44.12599" lon="2.94814">
        <ele>573</ele>
        <time>2010-01-01T01:38:56Z</time>
      </trkpt>
      <trkpt lat="44.12603" lon="2.94812">
        <ele>573</ele>
        <time>2010-01-01T01:38:58Z</time>
      </trkpt>
      <trkpt lat="44.12607" lon="2.94811">
        <ele>573</ele>
        <time>2010-01-01T01:38:59Z</time>
      </trkpt>
      <trkpt lat="44.1261" lon="2.9481">
        <ele>573</ele>
        <time>2010-01-01T01:39:00Z</time>
      </trkpt>
      <trkpt lat="44.12614" lon="2.94808">
        <ele>573</ele>
        <time>2010-01-01T01:39:02Z</time>
      </trkpt>
      <trkpt lat="44.12617" lon="2.94806">
        <ele>573</ele>
        <time>2010-01-01T01:39:03Z</time>
      </trkpt>
      <trkpt lat="44.12622" lon="2.94804">
        <ele>572</ele>
        <time>2010-01-01T01:39:05Z</time>
      </trkpt>
      <trkpt lat="44.12625" lon="2.94802">
        <ele>572</ele>
        <time>2010-01-01T01:39:07Z</time>
      </trkpt>
      <trkpt lat="44.12629" lon="2.94798">
        <ele>571</ele>
        <time>2010-01-01T01:39:09Z</time>
      </trkpt>
      <trkpt lat="44.12632" lon="2.94794">
        <ele>571</ele>
        <time>2010-01-01T01:39:10Z</time>
      </trkpt>
      <trkpt lat="44.12635" lon="2.94791">
        <ele>571</ele>
        <time>2010-01-01T01:39:12Z</time>
      </trkpt>
      <trkpt lat="44.12639" lon="2.94787">
        <ele>571</ele>
        <time>2010-01-01T01:39:14Z</time>
      </trkpt>
      <trkpt lat="44.12642" lon="2.94784">
        <ele>571</ele>
        <time>2010-01-01T01:39:15Z</time>
      </trkpt>
      <trkpt lat="44.12646" lon="2.94782">
        <ele>571</ele>
        <time>2010-01-01T01:39:17Z</time>
      </trkpt>
      <trkpt lat="44.1265" lon="2.94781">
        <ele>571</ele>
        <time>2010-01-01T01:39:19Z</time>
      </trkpt>
      <trkpt lat="44.12654" lon="2.94779">
        <ele>571</ele>
        <time>2010-01-01T01:39:20Z</time>
      </trkpt>
      <trkpt lat="44.12658" lon="2.94778">
        <ele>571</ele>
        <time>2010-01-01T01:39:22Z</time>
      </trkpt>
      <trkpt lat="44.12663" lon="2.94776">
        <ele>571</ele>
        <time>2010-01-01T01:39:24Z</time>
      </trkpt>
      <trkpt lat="44.12667" lon="2.94774">
        <ele>570</ele>
        <time>2010-01-01T01:39:26Z</time>
      </trkpt>
      <trkpt lat="44.12671" lon="2.94772">
        <ele>570</ele>
        <time>2010-01-01T01:39:27Z</time>
      </trkpt>
      <trkpt lat="44.12675" lon="2.9477">
        <ele>570</ele>
        <time>2010-01-01T01:39:29Z</time>
      </trkpt>
      <trkpt lat="44.12681" lon="2.94768">
        <ele>570</ele>
        <time>2010-01-01T01:39:31Z</time>
      </trkpt>
      <trkpt lat="44.12685" lon="2.94767">
        <ele>570</ele>
        <time>2010-01-01T01:39:33Z</time>
      </trkpt>
      <trkpt lat="44.1269" lon="2.94767">
        <ele>570</ele>
        <time>2010-01-01T01:39:35Z</time>
      </trkpt>
      <trkpt lat="44.12696" lon="2.94766">
        <ele>569</ele>
        <time>2010-01-01T01:39:38Z</time>
      </trkpt>
      <trkpt lat="44.12705" lon="2.94764">
        <ele>569</ele>
        <time>2010-01-01T01:39:41Z</time>
      </trkpt>
      <trkpt lat="44.1271" lon="2.94761">
        <ele>570</ele>
        <time>2010-01-01T01:39:43Z</time>
      </trkpt>
      <trkpt lat="44.12713" lon="2.94758">
        <ele>570</ele>
        <time>2010-01-01T01:39:45Z</time>
      </trkpt>
      <trkpt lat="44.12715" lon="2.94754">
        <ele>571</ele>
        <time>2010-01-01T01:39:46Z</time>
      </trkpt>
      <trkpt lat="44.12717" lon="2.9475">
        <ele>572</ele>
        <time>2010-01-01T01:39:48Z</time>
      </trkpt>
      <trkpt lat="44.12718" lon="2.94747">
        <ele>572</ele>
        <time>2010-01-01T01:39:49Z</time>
      </trkpt>
      <trkpt lat="44.12719" lon="2.94743">
        <ele>572</ele>
        <time>2010-01-01T01:39:50Z</time>
      </trkpt>
      <trkpt lat="44.12721" lon="2.94739">
        <ele>572</ele>
        <time>2010-01-01T01:39:51Z</time>
      </trkpt>
      <trkpt lat="44.12723" lon="2.94734">
        <ele>572</ele>
        <time>2010-01-01T01:39:53Z</time>
      </trkpt>
      <trkpt lat="44.12726" lon="2.94728">
        <ele>573</ele>
        <time>2010-01-01T01:39:55Z</time>
      </trkpt>
      <trkpt lat="44.12728" lon="2.94723">
        <ele>573</ele>
        <time>2010-01-01T01:39:57Z</time>
      </trkpt>
      <trkpt lat="44.12731" lon="2.94719">
        <ele>573</ele>
        <time>2010-01-01T01:39:58Z</time>
      </trkpt>
      <trkpt lat="44.12734" lon="2.94715">
        <ele>573</ele>
        <time>2010-01-01T01:40:00Z</time>
      </trkpt>
      <trkpt lat="44.12737" lon="2.94711">
        <ele>573</ele>
        <time>2010-01-01T01:40:02Z</time>
      </trkpt>
      <trkpt lat="44.12739" lon="2.9471">
        <ele>573</ele>
        <time>2010-01-01T01:40:02Z</time>
      </trkpt>
      <trkpt lat="44.1274" lon="2.94709">
        <ele>573</ele>
        <time>2010-01-01T01:40:03Z</time>
      </trkpt>
      <trkpt lat="44.12741" lon="2.94709">
        <ele>573</ele>
        <time>2010-01-01T01:40:03Z</time>
      </trkpt>
      <trkpt lat="44.12741" lon="2.94709">
        <ele>573</ele>
        <time>2010-01-01T01:40:04Z</time>
      </trkpt>
      <trkpt lat="44.12749" lon="2.94697">
        <ele>574</ele>
        <time>2010-01-01T01:40:08Z</time>
      </trkpt>
      <trkpt lat="44.12755" lon="2.94691">
        <ele>573</ele>
        <time>2010-01-01T01:40:11Z</time>
      </trkpt>
      <trkpt lat="44.1276" lon="2.94687">
        <ele>572</ele>
        <time>2010-01-01T01:40:13Z</time>
      </trkpt>
      <trkpt lat="44.12764" lon="2.94682">
        <ele>572</ele>
        <time>2010-01-01T01:40:16Z</time>
      </trkpt>
      <trkpt lat="44.12771" lon="2.94678">
        <ele>571</ele>
        <time>2010-01-01T01:40:19Z</time>
      </trkpt>
      <trkpt lat="44.12779" lon="2.94675">
        <ele>571</ele>
        <time>2010-01-01T01:40:22Z</time>
      </trkpt>
      <trkpt lat="44.12787" lon="2.94676">
        <ele>568</ele>
        <time>2010-01-01T01:40:25Z</time>
      </trkpt>
      <trkpt lat="44.12794" lon="2.9468">
        <ele>567</ele>
        <time>2010-01-01T01:40:28Z</time>
      </trkpt>
      <trkpt lat="44.12802" lon="2.94684">
        <ele>565</ele>
        <time>2010-01-01T01:40:31Z</time>
      </trkpt>
      <trkpt lat="44.12808" lon="2.94691">
        <ele>563</ele>
        <time>2010-01-01T01:40:34Z</time>
      </trkpt>
      <trkpt lat="44.12813" lon="2.947">
        <ele>562</ele>
        <time>2010-01-01T01:40:38Z</time>
      </trkpt>
      <trkpt lat="44.12816" lon="2.9471">
        <ele>560</ele>
        <time>2010-01-01T01:40:41Z</time>
      </trkpt>
      <trkpt lat="44.12818" lon="2.94717">
        <ele>559</ele>
        <time>2010-01-01T01:40:43Z</time>
      </trkpt>
      <trkpt lat="44.12819" lon="2.94723">
        <ele>559</ele>
        <time>2010-01-01T01:40:45Z</time>
      </trkpt>
      <trkpt lat="44.12819" lon="2.9473">
        <ele>558</ele>
        <time>2010-01-01T01:40:47Z</time>
      </trkpt>
      <trkpt lat="44.12819" lon="2.94739">
        <ele>557</ele>
        <time>2010-01-01T01:40:49Z</time>
      </trkpt>
      <trkpt lat="44.12818" lon="2.94748">
        <ele>556</ele>
        <time>2010-01-01T01:40:52Z</time>
      </trkpt>
      <trkpt lat="44.12818" lon="2.94756">
        <ele>555</ele>
        <time>2010-01-01T01:40:54Z</time>
      </trkpt>
      <trkpt lat="44.12822" lon="2.94758">
        <ele>554</ele>
        <time>2010-01-01T01:40:56Z</time>
      </trkpt>
      <trkpt lat="44.12829" lon="2.94758">
        <ele>553</ele>
        <time>2010-01-01T01:40:59Z</time>
      </trkpt>
      <trkpt lat="44.12834" lon="2.94756">
        <ele>552</ele>
        <time>2010-01-01T01:41:01Z</time>
      </trkpt>
      <trkpt lat="44.12839" lon="2.94756">
        <ele>550</ele>
        <time>2010-01-01T01:41:03Z</time>
      </trkpt>
      <trkpt lat="44.12845" lon="2.94754">
        <ele>549</ele>
        <time>2010-01-01T01:41:06Z</time>
      </trkpt>
      <trkpt lat="44.1285" lon="2.94748">
        <ele>549</ele>
        <time>2010-01-01T01:41:08Z</time>
      </trkpt>
      <trkpt lat="44.12853" lon="2.94739">
        <ele>548</ele>
        <time>2010-01-01T01:41:11Z</time>
      </trkpt>
      <trkpt lat="44.12855" lon="2.94732">
        <ele>548</ele>
        <time>2010-01-01T01:41:13Z</time>
      </trkpt>
      <trkpt lat="44.12856" lon="2.94726">
        <ele>548</ele>
        <time>2010-01-01T01:41:15Z</time>
      </trkpt>
      <trkpt lat="44.12856" lon="2.94719">
        <ele>549</ele>
        <time>2010-01-01T01:41:17Z</time>
      </trkpt>
      <trkpt lat="44.12854" lon="2.9471">
        <ele>549</ele>
        <time>2010-01-01T01:41:20Z</time>
      </trkpt>
      <trkpt lat="44.12854" lon="2.94699">
        <ele>549</ele>
        <time>2010-01-01T01:41:23Z</time>
      </trkpt>
      <trkpt lat="44.12857" lon="2.94687">
        <ele>546</ele>
        <time>2010-01-01T01:41:26Z</time>
      </trkpt>
      <trkpt lat="44.12858" lon="2.94676">
        <ele>544</ele>
        <time>2010-01-01T01:41:30Z</time>
      </trkpt>
      <trkpt lat="44.12859" lon="2.94667">
        <ele>542</ele>
        <time>2010-01-01T01:41:32Z</time>
      </trkpt>
      <trkpt lat="44.12859" lon="2.9466">
        <ele>540</ele>
        <time>2010-01-01T01:41:34Z</time>
      </trkpt>
      <trkpt lat="44.12857" lon="2.94653">
        <ele>539</ele>
        <time>2010-01-01T01:41:36Z</time>
      </trkpt>
      <trkpt lat="44.12855" lon="2.9465">
        <ele>539</ele>
        <time>2010-01-01T01:41:38Z</time>
      </trkpt>
      <trkpt lat="44.12853" lon="2.94647">
        <ele>539</ele>
        <time>2010-01-01T01:41:39Z</time>
      </trkpt>
      <trkpt lat="44.12849" lon="2.94643">
        <ele>539</ele>
        <time>2010-01-01T01:41:41Z</time>
      </trkpt>
      <trkpt lat="44.12844" lon="2.94638">
        <ele>540</ele>
        <time>2010-01-01T01:41:43Z</time>
      </trkpt>
      <trkpt lat="44.12838" lon="2.94633">
        <ele>540</ele>
        <time>2010-01-01T01:41:46Z</time>
      </trkpt>
      <trkpt lat="44.12833" lon="2.9463">
        <ele>541</ele>
        <time>2010-01-01T01:41:49Z</time>
      </trkpt>
      <trkpt lat="44.12826" lon="2.94626">
        <ele>542</ele>
        <time>2010-01-01T01:41:51Z</time>
      </trkpt>
      <trkpt lat="44.1282" lon="2.94622">
        <ele>542</ele>
        <time>2010-01-01T01:41:54Z</time>
      </trkpt>
      <trkpt lat="44.12815" lon="2.94616">
        <ele>542</ele>
        <time>2010-01-01T01:41:57Z</time>
      </trkpt>
      <trkpt lat="44.1281" lon="2.94608">
        <ele>540</ele>
        <time>2010-01-01T01:42:00Z</time>
      </trkpt>
      <trkpt lat="44.12806" lon="2.94602">
        <ele>539</ele>
        <time>2010-01-01T01:42:02Z</time>
      </trkpt>
      <trkpt lat="44.12803" lon="2.94596">
        <ele>538</ele>
        <time>2010-01-01T01:42:04Z</time>
      </trkpt>
      <trkpt lat="44.12799" lon="2.94592">
        <ele>537</ele>
        <time>2010-01-01T01:42:06Z</time>
      </trkpt>
      <trkpt lat="44.12798" lon="2.94588">
        <ele>536</ele>
        <time>2010-01-01T01:42:07Z</time>
      </trkpt>
      <trkpt lat="44.12801" lon="2.94586">
        <ele>535</ele>
        <time>2010-01-01T01:42:08Z</time>
      </trkpt>
      <trkpt lat="44.12804" lon="2.94586">
        <ele>535</ele>
        <time>2010-01-01T01:42:10Z</time>
      </trkpt>
      <trkpt lat="44.12808" lon="2.94585">
        <ele>533</ele>
        <time>2010-01-01T01:42:11Z</time>
      </trkpt>
      <trkpt lat="44.12812" lon="2.94585">
        <ele>532</ele>
        <time>2010-01-01T01:42:13Z</time>
      </trkpt>
      <trkpt lat="44.12815" lon="2.94584">
        <ele>531</ele>
        <time>2010-01-01T01:42:14Z</time>
      </trkpt>
      <trkpt lat="44.1282" lon="2.94582">
        <ele>529</ele>
        <time>2010-01-01T01:42:16Z</time>
      </trkpt>
      <trkpt lat="44.12824" lon="2.9458">
        <ele>527</ele>
        <time>2010-01-01T01:42:18Z</time>
      </trkpt>
      <trkpt lat="44.12827" lon="2.94579">
        <ele>526</ele>
        <time>2010-01-01T01:42:19Z</time>
      </trkpt>
      <trkpt lat="44.1283" lon="2.94577">
        <ele>524</ele>
        <time>2010-01-01T01:42:21Z</time>
      </trkpt>
      <trkpt lat="44.1283" lon="2.94574">
        <ele>524</ele>
        <time>2010-01-01T01:42:21Z</time>
      </trkpt>
      <trkpt lat="44.12825" lon="2.94572">
        <ele>524</ele>
        <time>2010-01-01T01:42:23Z</time>
      </trkpt>
      <trkpt lat="44.1282" lon="2.9457">
        <ele>525</ele>
        <time>2010-01-01T01:42:25Z</time>
      </trkpt>
      <trkpt lat="44.12817" lon="2.94569">
        <ele>526</ele>
        <time>2010-01-01T01:42:27Z</time>
      </trkpt>
      <trkpt lat="44.12813" lon="2.94566">
        <ele>526</ele>
        <time>2010-01-01T01:42:28Z</time>
      </trkpt>
      <trkpt lat="44.12811" lon="2.94563">
        <ele>525</ele>
        <time>2010-01-01T01:42:30Z</time>
      </trkpt>
      <trkpt lat="44.12809" lon="2.94561">
        <ele>525</ele>
        <time>2010-01-01T01:42:30Z</time>
      </trkpt>
      <trkpt lat="44.12809" lon="2.94559">
        <ele>525</ele>
        <time>2010-01-01T01:42:31Z</time>
      </trkpt>
      <trkpt lat="44.12808" lon="2.94558">
        <ele>525</ele>
        <time>2010-01-01T01:42:31Z</time>
      </trkpt>
      <trkpt lat="44.12808" lon="2.94556">
        <ele>524</ele>
        <time>2010-01-01T01:42:32Z</time>
      </trkpt>
      <trkpt lat="44.12807" lon="2.94555">
        <ele>524</ele>
        <time>2010-01-01T01:42:32Z</time>
      </trkpt>
      <trkpt lat="44.12807" lon="2.94555">
        <ele>524</ele>
        <time>2010-01-01T01:42:32Z</time>
      </trkpt>
      <trkpt lat="44.12803" lon="2.94549">
        <ele>522</ele>
        <time>2010-01-01T01:42:35Z</time>
      </trkpt>
      <trkpt lat="44.12802" lon="2.94548">
        <ele>521</ele>
        <time>2010-01-01T01:42:35Z</time>
      </trkpt>
      <trkpt lat="44.12801" lon="2.94547">
        <ele>520</ele>
        <time>2010-01-01T01:42:36Z</time>
      </trkpt>
      <trkpt lat="44.128" lon="2.94546">
        <ele>520</ele>
        <time>2010-01-01T01:42:36Z</time>
      </trkpt>
      <trkpt lat="44.12801" lon="2.94546">
        <ele>520</ele>
        <time>2010-01-01T01:42:37Z</time>
      </trkpt>
      <trkpt lat="44.12806" lon="2.94547">
        <ele>520</ele>
        <time>2010-01-01T01:42:39Z</time>
      </trkpt>
      <trkpt lat="44.1281" lon="2.94547">
        <ele>519</ele>
        <time>2010-01-01T01:42:40Z</time>
      </trkpt>
      <trkpt lat="44.12812" lon="2.94547">
        <ele>518</ele>
        <time>2010-01-01T01:42:41Z</time>
      </trkpt>
      <trkpt lat="44.12813" lon="2.94546">
        <ele>518</ele>
        <time>2010-01-01T01:42:42Z</time>
      </trkpt>
      <trkpt lat="44.12814" lon="2.94547">
        <ele>518</ele>
        <time>2010-01-01T01:42:42Z</time>
      </trkpt>
      <trkpt lat="44.12815" lon="2.94547">
        <ele>517</ele>
        <time>2010-01-01T01:42:43Z</time>
      </trkpt>
      <trkpt lat="44.12817" lon="2.94545">
        <ele>516</ele>
        <time>2010-01-01T01:42:43Z</time>
      </trkpt>
      <trkpt lat="44.12815" lon="2.94542">
        <ele>515</ele>
        <time>2010-01-01T01:42:44Z</time>
      </trkpt>
      <trkpt lat="44.12812" lon="2.9454">
        <ele>515</ele>
        <time>2010-01-01T01:42:45Z</time>
      </trkpt>
      <trkpt lat="44.12809" lon="2.94539">
        <ele>515</ele>
        <time>2010-01-01T01:42:47Z</time>
      </trkpt>
      <trkpt lat="44.12807" lon="2.94538">
        <ele>515</ele>
        <time>2010-01-01T01:42:48Z</time>
      </trkpt>
      <trkpt lat="44.12806" lon="2.94536">
        <ele>515</ele>
        <time>2010-01-01T01:42:48Z</time>
      </trkpt>
      <trkpt lat="44.12804" lon="2.94534">
        <ele>514</ele>
        <time>2010-01-01T01:42:49Z</time>
      </trkpt>
      <trkpt lat="44.12802" lon="2.94533">
        <ele>513</ele>
        <time>2010-01-01T01:42:50Z</time>
      </trkpt>
      <trkpt lat="44.128" lon="2.94532">
        <ele>513</ele>
        <time>2010-01-01T01:42:51Z</time>
      </trkpt>
      <trkpt lat="44.12798" lon="2.9453">
        <ele>512</ele>
        <time>2010-01-01T01:42:52Z</time>
      </trkpt>
      <trkpt lat="44.12797" lon="2.94529">
        <ele>512</ele>
        <time>2010-01-01T01:42:52Z</time>
      </trkpt>
      <trkpt lat="44.12798" lon="2.94528">
        <ele>511</ele>
        <time>2010-01-01T01:42:53Z</time>
      </trkpt>
      <trkpt lat="44.128" lon="2.94526">
        <ele>510</ele>
        <time>2010-01-01T01:42:54Z</time>
      </trkpt>
      <trkpt lat="44.12801" lon="2.94524">
        <ele>509</ele>
        <time>2010-01-01T01:42:55Z</time>
      </trkpt>
      <trkpt lat="44.12804" lon="2.94521">
        <ele>508</ele>
        <time>2010-01-01T01:42:56Z</time>
      </trkpt>
      <trkpt lat="44.12803" lon="2.94517">
        <ele>506</ele>
        <time>2010-01-01T01:42:57Z</time>
      </trkpt>
      <trkpt lat="44.12802" lon="2.94517">
        <ele>506</ele>
        <time>2010-01-01T01:42:58Z</time>
      </trkpt>
      <trkpt lat="44.128" lon="2.94517">
        <ele>506</ele>
        <time>2010-01-01T01:42:58Z</time>
      </trkpt>
      <trkpt lat="44.12798" lon="2.94515">
        <ele>506</ele>
        <time>2010-01-01T01:42:59Z</time>
      </trkpt>
      <trkpt lat="44.12796" lon="2.94514">
        <ele>505</ele>
        <time>2010-01-01T01:43:00Z</time>
      </trkpt>
      <trkpt lat="44.12796" lon="2.94513">
        <ele>505</ele>
        <time>2010-01-01T01:43:01Z</time>
      </trkpt>
      <trkpt lat="44.12796" lon="2.94512">
        <ele>504</ele>
        <time>2010-01-01T01:43:01Z</time>
      </trkpt>
      <trkpt lat="44.12798" lon="2.94511">
        <ele>504</ele>
        <time>2010-01-01T01:43:02Z</time>
      </trkpt>
      <trkpt lat="44.128" lon="2.94509">
        <ele>503</ele>
        <time>2010-01-01T01:43:03Z</time>
      </trkpt>
      <trkpt lat="44.12802" lon="2.94508">
        <ele>503</ele>
        <time>2010-01-01T01:43:03Z</time>
      </trkpt>
      <trkpt lat="44.12803" lon="2.94506">
        <ele>502</ele>
        <time>2010-01-01T01:43:04Z</time>
      </trkpt>
      <trkpt lat="44.12802" lon="2.94504">
        <ele>501</ele>
        <time>2010-01-01T01:43:05Z</time>
      </trkpt>
      <trkpt lat="44.12801" lon="2.94504">
        <ele>501</ele>
        <time>2010-01-01T01:43:05Z</time>
      </trkpt>
      <trkpt lat="44.12798" lon="2.94505">
        <ele>502</ele>
        <time>2010-01-01T01:43:06Z</time>
      </trkpt>
      <trkpt lat="44.12798" lon="2.94502">
        <ele>500</ele>
        <time>2010-01-01T01:43:07Z</time>
      </trkpt>
      <trkpt lat="44.12799" lon="2.94499">
        <ele>499</ele>
        <time>2010-01-01T01:43:08Z</time>
      </trkpt>
      <trkpt lat="44.12801" lon="2.94497">
        <ele>499</ele>
        <time>2010-01-01T01:43:09Z</time>
      </trkpt>
      <trkpt lat="44.12802" lon="2.94495">
        <ele>499</ele>
        <time>2010-01-01T01:43:10Z</time>
      </trkpt>
      <trkpt lat="44.12804" lon="2.94491">
        <ele>498</ele>
        <time>2010-01-01T01:43:11Z</time>
      </trkpt>
      <trkpt lat="44.12806" lon="2.94485">
        <ele>498</ele>
        <time>2010-01-01T01:43:13Z</time>
      </trkpt>
      <trkpt lat="44.12809" lon="2.94479">
        <ele>498</ele>
        <time>2010-01-01T01:43:16Z</time>
      </trkpt>
      <trkpt lat="44.1281" lon="2.94479">
        <ele>498</ele>
        <time>2010-01-01T01:43:16Z</time>
      </trkpt>
      <trkpt lat="44.12809" lon="2.94479">
        <ele>498</ele>
        <time>2010-01-01T01:43:17Z</time>
      </trkpt>
      <trkpt lat="44.1281" lon="2.94478">
        <ele>498</ele>
        <time>2010-01-01T01:43:17Z</time>
      </trkpt>
      <trkpt lat="44.1281" lon="2.94476">
        <ele>498</ele>
        <time>2010-01-01T01:43:18Z</time>
      </trkpt>
      <trkpt lat="44.1281" lon="2.94474">
        <ele>498</ele>
        <time>2010-01-01T01:43:18Z</time>
      </trkpt>
      <trkpt lat="44.12811" lon="2.94473">
        <ele>498</ele>
        <time>2010-01-01T01:43:18Z</time>
      </trkpt>
      <trkpt lat="44.1281" lon="2.94472">
        <ele>498</ele>
        <time>2010-01-01T01:43:19Z</time>
      </trkpt>
      <trkpt lat="44.1281" lon="2.94471">
        <ele>498</ele>
        <time>2010-01-01T01:43:19Z</time>
      </trkpt>
      <trkpt lat="44.12806" lon="2.94472">
        <ele>497</ele>
        <time>2010-01-01T01:43:21Z</time>
      </trkpt>
      <trkpt lat="44.12806" lon="2.94471">
        <ele>497</ele>
        <time>2010-01-01T01:43:21Z</time>
      </trkpt>
      <trkpt lat="44.12806" lon="2.94471">
        <ele>497</ele>
        <time>2010-01-01T01:43:21Z</time>
      </trkpt>
      <trkpt lat="44.12802" lon="2.94468">
        <ele>497</ele>
        <time>2010-01-01T01:43:23Z</time>
      </trkpt>
      <trkpt lat="44.12801" lon="2.94468">
        <ele>497</ele>
        <time>2010-01-01T01:43:23Z</time>
      </trkpt>
      <trkpt lat="44.128" lon="2.94469">
        <ele>497</ele>
        <time>2010-01-01T01:43:24Z</time>
      </trkpt>
      <trkpt lat="44.12798" lon="2.94469">
        <ele>497</ele>
        <time>2010-01-01T01:43:24Z</time>
      </trkpt>
      <trkpt lat="44.128" lon="2.94463">
        <ele>499</ele>
        <time>2010-01-01T01:43:26Z</time>
      </trkpt>
      <trkpt lat="44.12798" lon="2.94462">
        <ele>499</ele>
        <time>2010-01-01T01:43:27Z</time>
      </trkpt>
      <trkpt lat="44.12797" lon="2.9446">
        <ele>499</ele>
        <time>2010-01-01T01:43:27Z</time>
      </trkpt>
      <trkpt lat="44.12797" lon="2.94459">
        <ele>499</ele>
        <time>2010-01-01T01:43:28Z</time>
      </trkpt>
      <trkpt lat="44.12796" lon="2.94459">
        <ele>499</ele>
        <time>2010-01-01T01:43:28Z</time>
      </trkpt>
      <trkpt lat="44.12804" lon="2.94456">
        <ele>500</ele>
        <time>2010-01-01T01:43:31Z</time>
      </trkpt>
      <trkpt lat="44.12806" lon="2.94456">
        <ele>501</ele>
        <time>2010-01-01T01:43:32Z</time>
      </trkpt>
      <trkpt lat="44.12807" lon="2.94456">
        <ele>501</ele>
        <time>2010-01-01T01:43:32Z</time>
      </trkpt>
      <trkpt lat="44.12809" lon="2.94456">
        <ele>502</ele>
        <time>2010-01-01T01:43:33Z</time>
      </trkpt>
      <trkpt lat="44.1281" lon="2.94457">
        <ele>502</ele>
        <time>2010-01-01T01:43:34Z</time>
      </trkpt>
      <trkpt lat="44.12812" lon="2.94458">
        <ele>502</ele>
        <time>2010-01-01T01:43:34Z</time>
      </trkpt>
      <trkpt lat="44.12813" lon="2.94458">
        <ele>503</ele>
        <time>2010-01-01T01:43:35Z</time>
      </trkpt>
      <trkpt lat="44.12815" lon="2.94459">
        <ele>503</ele>
        <time>2010-01-01T01:43:36Z</time>
      </trkpt>
      <trkpt lat="44.12815" lon="2.94461">
        <ele>503</ele>
        <time>2010-01-01T01:43:36Z</time>
      </trkpt>
      <trkpt lat="44.12816" lon="2.94461">
        <ele>503</ele>
        <time>2010-01-01T01:43:37Z</time>
      </trkpt>
      <trkpt lat="44.12818" lon="2.94461">
        <ele>503</ele>
        <time>2010-01-01T01:43:37Z</time>
      </trkpt>
      <trkpt lat="44.12819" lon="2.94462">
        <ele>504</ele>
        <time>2010-01-01T01:43:38Z</time>
      </trkpt>
      <trkpt lat="44.1282" lon="2.94463">
        <ele>503</ele>
        <time>2010-01-01T01:43:38Z</time>
      </trkpt>
      <trkpt lat="44.12822" lon="2.94463">
        <ele>504</ele>
        <time>2010-01-01T01:43:39Z</time>
      </trkpt>
      <trkpt lat="44.12825" lon="2.94463">
        <ele>505</ele>
        <time>2010-01-01T01:43:40Z</time>
      </trkpt>
      <trkpt lat="44.12827" lon="2.94463">
        <ele>506</ele>
        <time>2010-01-01T01:43:41Z</time>
      </trkpt>
      <trkpt lat="44.12829" lon="2.94463">
        <ele>507</ele>
        <time>2010-01-01T01:43:42Z</time>
      </trkpt>
      <trkpt lat="44.12831" lon="2.94464">
        <ele>507</ele>
        <time>2010-01-01T01:43:43Z</time>
      </trkpt>
      <trkpt lat="44.12833" lon="2.94464">
        <ele>508</ele>
        <time>2010-01-01T01:43:44Z</time>
      </trkpt>
      <trkpt lat="44.12834" lon="2.94464">
        <ele>508</ele>
        <time>2010-01-01T01:43:44Z</time>
      </trkpt>
      <trkpt lat="44.12835" lon="2.94463">
        <ele>509</ele>
        <time>2010-01-01T01:43:45Z</time>
      </trkpt>
      <trkpt lat="44.12835" lon="2.94462">
        <ele>509</ele>
        <time>2010-01-01T01:43:45Z</time>
      </trkpt>
      <trkpt lat="44.12835" lon="2.9446">
        <ele>510</ele>
        <time>2010-01-01T01:43:46Z</time>
      </trkpt>
      <trkpt lat="44.12834" lon="2.94459">
        <ele>510</ele>
        <time>2010-01-01T01:43:46Z</time>
      </trkpt>
      <trkpt lat="44.12834" lon="2.94457">
        <ele>511</ele>
        <time>2010-01-01T01:43:47Z</time>
      </trkpt>
      <trkpt lat="44.12835" lon="2.94456">
        <ele>511</ele>
        <time>2010-01-01T01:43:47Z</time>
      </trkpt>
      <trkpt lat="44.12836" lon="2.94455">
        <ele>512</ele>
        <time>2010-01-01T01:43:48Z</time>
      </trkpt>
      <trkpt lat="44.12837" lon="2.94455">
        <ele>513</ele>
        <time>2010-01-01T01:43:48Z</time>
      </trkpt>
      <trkpt lat="44.12839" lon="2.94456">
        <ele>513</ele>
        <time>2010-01-01T01:43:49Z</time>
      </trkpt>
      <trkpt lat="44.1284" lon="2.94456">
        <ele>513</ele>
        <time>2010-01-01T01:43:49Z</time>
      </trkpt>
      <trkpt lat="44.12841" lon="2.94457">
        <ele>513</ele>
        <time>2010-01-01T01:43:50Z</time>
      </trkpt>
      <trkpt lat="44.12843" lon="2.94457">
        <ele>514</ele>
        <time>2010-01-01T01:43:50Z</time>
      </trkpt>
      <trkpt lat="44.12844" lon="2.94457">
        <ele>514</ele>
        <time>2010-01-01T01:43:51Z</time>
      </trkpt>
      <trkpt lat="44.12845" lon="2.94455">
        <ele>515</ele>
        <time>2010-01-01T01:43:51Z</time>
      </trkpt>
      <trkpt lat="44.12845" lon="2.94454">
        <ele>516</ele>
        <time>2010-01-01T01:43:52Z</time>
      </trkpt>
      <trkpt lat="44.12844" lon="2.94452">
        <ele>516</ele>
        <time>2010-01-01T01:43:53Z</time>
      </trkpt>
      <trkpt lat="44.12843" lon="2.94451">
        <ele>516</ele>
        <time>2010-01-01T01:43:53Z</time>
      </trkpt>
      <trkpt lat="44.12842" lon="2.94449">
        <ele>516</ele>
        <time>2010-01-01T01:43:54Z</time>
      </trkpt>
      <trkpt lat="44.12841" lon="2.94447">
        <ele>517</ele>
        <time>2010-01-01T01:43:54Z</time>
      </trkpt>
      <trkpt lat="44.12841" lon="2.94446">
        <ele>517</ele>
        <time>2010-01-01T01:43:55Z</time>
      </trkpt>
      <trkpt lat="44.12839" lon="2.94449">
        <ele>516</ele>
        <time>2010-01-01T01:43:56Z</time>
      </trkpt>
      <trkpt lat="44.12839" lon="2.94449">
        <ele>515</ele>
        <time>2010-01-01T01:43:56Z</time>
      </trkpt>
      <trkpt lat="44.12839" lon="2.9445">
        <ele>515</ele>
        <time>2010-01-01T01:43:56Z</time>
      </trkpt>
      <trkpt lat="44.12839" lon="2.94451">
        <ele>515</ele>
        <time>2010-01-01T01:43:56Z</time>
      </trkpt>
      <trkpt lat="44.12843" lon="2.94452">
        <ele>516</ele>
        <time>2010-01-01T01:43:58Z</time>
      </trkpt>
      <trkpt lat="44.12845" lon="2.94452">
        <ele>516</ele>
        <time>2010-01-01T01:43:59Z</time>
      </trkpt>
      <trkpt lat="44.12846" lon="2.94452">
        <ele>517</ele>
        <time>2010-01-01T01:43:59Z</time>
      </trkpt>
      <trkpt lat="44.12847" lon="2.94453">
        <ele>517</ele>
        <time>2010-01-01T01:43:59Z</time>
      </trkpt>
      <trkpt lat="44.12849" lon="2.94453">
        <ele>517</ele>
        <time>2010-01-01T01:44:00Z</time>
      </trkpt>
      <trkpt lat="44.12851" lon="2.94454">
        <ele>518</ele>
        <time>2010-01-01T01:44:01Z</time>
      </trkpt>
      <trkpt lat="44.12853" lon="2.94454">
        <ele>518</ele>
        <time>2010-01-01T01:44:02Z</time>
      </trkpt>
      <trkpt lat="44.12855" lon="2.94454">
        <ele>519</ele>
        <time>2010-01-01T01:44:03Z</time>
      </trkpt>
      <trkpt lat="44.12855" lon="2.94456">
        <ele>518</ele>
        <time>2010-01-01T01:44:03Z</time>
      </trkpt>
      <trkpt lat="44.12857" lon="2.94457">
        <ele>519</ele>
        <time>2010-01-01T01:44:04Z</time>
      </trkpt>
      <trkpt lat="44.12859" lon="2.94457">
        <ele>519</ele>
        <time>2010-01-01T01:44:05Z</time>
      </trkpt>
      <trkpt lat="44.12861" lon="2.94456">
        <ele>520</ele>
        <time>2010-01-01T01:44:06Z</time>
      </trkpt>
      <trkpt lat="44.12862" lon="2.94458">
        <ele>520</ele>
        <time>2010-01-01T01:44:06Z</time>
      </trkpt>
      <trkpt lat="44.12863" lon="2.94459">
        <ele>520</ele>
        <time>2010-01-01T01:44:07Z</time>
      </trkpt>
      <trkpt lat="44.12866" lon="2.94459">
        <ele>521</ele>
        <time>2010-01-01T01:44:08Z</time>
      </trkpt>
      <trkpt lat="44.12867" lon="2.94461">
        <ele>521</ele>
        <time>2010-01-01T01:44:09Z</time>
      </trkpt>
      <trkpt lat="44.1287" lon="2.9446">
        <ele>522</ele>
        <time>2010-01-01T01:44:09Z</time>
      </trkpt>
      <trkpt lat="44.12872" lon="2.94461">
        <ele>523</ele>
        <time>2010-01-01T01:44:10Z</time>
      </trkpt>
      <trkpt lat="44.12874" lon="2.94462">
        <ele>524</ele>
        <time>2010-01-01T01:44:11Z</time>
      </trkpt>
      <trkpt lat="44.12875" lon="2.94463">
        <ele>524</ele>
        <time>2010-01-01T01:44:12Z</time>
      </trkpt>
      <trkpt lat="44.12876" lon="2.94465">
        <ele>524</ele>
        <time>2010-01-01T01:44:12Z</time>
      </trkpt>
      <trkpt lat="44.12877" lon="2.94466">
        <ele>524</ele>
        <time>2010-01-01T01:44:13Z</time>
      </trkpt>
      <trkpt lat="44.12879" lon="2.94468">
        <ele>524</ele>
        <time>2010-01-01T01:44:14Z</time>
      </trkpt>
      <trkpt lat="44.1288" lon="2.9447">
        <ele>524</ele>
        <time>2010-01-01T01:44:15Z</time>
      </trkpt>
      <trkpt lat="44.1288" lon="2.94472">
        <ele>524</ele>
        <time>2010-01-01T01:44:15Z</time>
      </trkpt>
      <trkpt lat="44.12882" lon="2.94473">
        <ele>524</ele>
        <time>2010-01-01T01:44:16Z</time>
      </trkpt>
      <trkpt lat="44.12883" lon="2.94475">
        <ele>524</ele>
        <time>2010-01-01T01:44:17Z</time>
      </trkpt>
      <trkpt lat="44.12884" lon="2.94476">
        <ele>524</ele>
        <time>2010-01-01T01:44:17Z</time>
      </trkpt>
      <trkpt lat="44.12885" lon="2.94476">
        <ele>524</ele>
        <time>2010-01-01T01:44:17Z</time>
      </trkpt>
      <trkpt lat="44.12889" lon="2.9448">
        <ele>526</ele>
        <time>2010-01-01T01:44:19Z</time>
      </trkpt>
      <trkpt lat="44.1289" lon="2.9448">
        <ele>526</ele>
        <time>2010-01-01T01:44:20Z</time>
      </trkpt>
      <trkpt lat="44.12892" lon="2.9448">
        <ele>526</ele>
        <time>2010-01-01T01:44:20Z</time>
      </trkpt>
      <trkpt lat="44.12893" lon="2.94479">
        <ele>527</ele>
        <time>2010-01-01T01:44:21Z</time>
      </trkpt>
      <trkpt lat="44.12893" lon="2.94477">
        <ele>527</ele>
        <time>2010-01-01T01:44:22Z</time>
      </trkpt>
      <trkpt lat="44.12892" lon="2.94476">
        <ele>527</ele>
        <time>2010-01-01T01:44:22Z</time>
      </trkpt>
      <trkpt lat="44.12891" lon="2.94474">
        <ele>527</ele>
        <time>2010-01-01T01:44:23Z</time>
      </trkpt>
      <trkpt lat="44.1289" lon="2.94473">
        <ele>528</ele>
        <time>2010-01-01T01:44:23Z</time>
      </trkpt>
      <trkpt lat="44.1289" lon="2.94471">
        <ele>528</ele>
        <time>2010-01-01T01:44:24Z</time>
      </trkpt>
      <trkpt lat="44.12891" lon="2.94469">
        <ele>529</ele>
        <time>2010-01-01T01:44:25Z</time>
      </trkpt>
      <trkpt lat="44.12892" lon="2.9447">
        <ele>529</ele>
        <time>2010-01-01T01:44:25Z</time>
      </trkpt>
      <trkpt lat="44.12893" lon="2.94469">
        <ele>530</ele>
        <time>2010-01-01T01:44:26Z</time>
      </trkpt>
      <trkpt lat="44.12893" lon="2.94467">
        <ele>530</ele>
        <time>2010-01-01T01:44:26Z</time>
      </trkpt>
      <trkpt lat="44.12893" lon="2.94466">
        <ele>530</ele>
        <time>2010-01-01T01:44:26Z</time>
      </trkpt>
      <trkpt lat="44.12893" lon="2.94464">
        <ele>531</ele>
        <time>2010-01-01T01:44:27Z</time>
      </trkpt>
      <trkpt lat="44.12892" lon="2.94462">
        <ele>531</ele>
        <time>2010-01-01T01:44:27Z</time>
      </trkpt>
      <trkpt lat="44.12892" lon="2.94461">
        <ele>531</ele>
        <time>2010-01-01T01:44:28Z</time>
      </trkpt>
      <trkpt lat="44.12892" lon="2.94459">
        <ele>532</ele>
        <time>2010-01-01T01:44:29Z</time>
      </trkpt>
      <trkpt lat="44.12892" lon="2.94457">
        <ele>532</ele>
        <time>2010-01-01T01:44:29Z</time>
      </trkpt>
      <trkpt lat="44.12892" lon="2.94455">
        <ele>533</ele>
        <time>2010-01-01T01:44:30Z</time>
      </trkpt>
      <trkpt lat="44.12892" lon="2.94453">
        <ele>533</ele>
        <time>2010-01-01T01:44:30Z</time>
      </trkpt>
      <trkpt lat="44.12892" lon="2.94452">
        <ele>534</ele>
        <time>2010-01-01T01:44:30Z</time>
      </trkpt>
      <trkpt lat="44.12892" lon="2.9445">
        <ele>534</ele>
        <time>2010-01-01T01:44:31Z</time>
      </trkpt>
      <trkpt lat="44.12892" lon="2.94448">
        <ele>535</ele>
        <time>2010-01-01T01:44:32Z</time>
      </trkpt>
      <trkpt lat="44.12892" lon="2.94447">
        <ele>536</ele>
        <time>2010-01-01T01:44:32Z</time>
      </trkpt>
      <trkpt lat="44.12892" lon="2.94444">
        <ele>536</ele>
        <time>2010-01-01T01:44:33Z</time>
      </trkpt>
      <trkpt lat="44.12892" lon="2.94442">
        <ele>537</ele>
        <time>2010-01-01T01:44:33Z</time>
      </trkpt>
      <trkpt lat="44.12891" lon="2.94439">
        <ele>538</ele>
        <time>2010-01-01T01:44:34Z</time>
      </trkpt>
      <trkpt lat="44.12892" lon="2.94437">
        <ele>539</ele>
        <time>2010-01-01T01:44:35Z</time>
      </trkpt>
      <trkpt lat="44.12891" lon="2.94434">
        <ele>539</ele>
        <time>2010-01-01T01:44:36Z</time>
      </trkpt>
      <trkpt lat="44.1289" lon="2.94432">
        <ele>540</ele>
        <time>2010-01-01T01:44:36Z</time>
      </trkpt>
      <trkpt lat="44.12889" lon="2.9443">
        <ele>540</ele>
        <time>2010-01-01T01:44:37Z</time>
      </trkpt>
      <trkpt lat="44.12889" lon="2.94428">
        <ele>541</ele>
        <time>2010-01-01T01:44:38Z</time>
      </trkpt>
      <trkpt lat="44.12889" lon="2.94425">
        <ele>542</ele>
        <time>2010-01-01T01:44:38Z</time>
      </trkpt>
      <trkpt lat="44.12888" lon="2.94423">
        <ele>543</ele>
        <time>2010-01-01T01:44:39Z</time>
      </trkpt>
      <trkpt lat="44.12888" lon="2.94421">
        <ele>544</ele>
        <time>2010-01-01T01:44:40Z</time>
      </trkpt>
      <trkpt lat="44.12889" lon="2.94418">
        <ele>545</ele>
        <time>2010-01-01T01:44:40Z</time>
      </trkpt>
      <trkpt lat="44.12889" lon="2.94416">
        <ele>546</ele>
        <time>2010-01-01T01:44:41Z</time>
      </trkpt>
      <trkpt lat="44.12889" lon="2.94415">
        <ele>546</ele>
        <time>2010-01-01T01:44:42Z</time>
      </trkpt>
      <trkpt lat="44.12889" lon="2.94413">
        <ele>547</ele>
        <time>2010-01-01T01:44:42Z</time>
      </trkpt>
      <trkpt lat="44.12888" lon="2.94411">
        <ele>548</ele>
        <time>2010-01-01T01:44:43Z</time>
      </trkpt>
      <trkpt lat="44.12888" lon="2.94408">
        <ele>549</ele>
        <time>2010-01-01T01:44:43Z</time>
      </trkpt>
      <trkpt lat="44.12888" lon="2.94406">
        <ele>550</ele>
        <time>2010-01-01T01:44:44Z</time>
      </trkpt>
      <trkpt lat="44.12888" lon="2.94405">
        <ele>550</ele>
        <time>2010-01-01T01:44:44Z</time>
      </trkpt>
      <trkpt lat="44.12887" lon="2.94404">
        <ele>551</ele>
        <time>2010-01-01T01:44:45Z</time>
      </trkpt>
      <trkpt lat="44.12887" lon="2.94404">
        <ele>551</ele>
        <time>2010-01-01T01:44:45Z</time>
      </trkpt>
      <trkpt lat="44.12884" lon="2.94396">
        <ele>553</ele>
        <time>2010-01-01T01:44:47Z</time>
      </trkpt>
      <trkpt lat="44.12884" lon="2.94396">
        <ele>554</ele>
        <time>2010-01-01T01:44:47Z</time>
      </trkpt>
      <trkpt lat="44.12885" lon="2.94396">
        <ele>554</ele>
        <time>2010-01-01T01:44:48Z</time>
      </trkpt>
      <trkpt lat="44.12894" lon="2.94397">
        <ele>556</ele>
        <time>2010-01-01T01:44:51Z</time>
      </trkpt>
      <trkpt lat="44.12893" lon="2.94397">
        <ele>556</ele>
        <time>2010-01-01T01:44:51Z</time>
      </trkpt>
      <trkpt lat="44.12894" lon="2.94397">
        <ele>556</ele>
        <time>2010-01-01T01:44:52Z</time>
      </trkpt>
      <trkpt lat="44.12901" lon="2.94398">
        <ele>558</ele>
        <time>2010-01-01T01:44:54Z</time>
      </trkpt>
      <trkpt lat="44.12902" lon="2.94399">
        <ele>558</ele>
        <time>2010-01-01T01:44:55Z</time>
      </trkpt>
      <trkpt lat="44.12903" lon="2.944">
        <ele>558</ele>
        <time>2010-01-01T01:44:56Z</time>
      </trkpt>
      <trkpt lat="44.12904" lon="2.94401">
        <ele>558</ele>
        <time>2010-01-01T01:44:56Z</time>
      </trkpt>
      <trkpt lat="44.12906" lon="2.94402">
        <ele>558</ele>
        <time>2010-01-01T01:44:57Z</time>
      </trkpt>
      <trkpt lat="44.12909" lon="2.94402">
        <ele>559</ele>
        <time>2010-01-01T01:44:58Z</time>
      </trkpt>
      <trkpt lat="44.1291" lon="2.94404">
        <ele>558</ele>
        <time>2010-01-01T01:44:59Z</time>
      </trkpt>
      <trkpt lat="44.12911" lon="2.94406">
        <ele>558</ele>
        <time>2010-01-01T01:44:59Z</time>
      </trkpt>
      <trkpt lat="44.12913" lon="2.94408">
        <ele>558</ele>
        <time>2010-01-01T01:45:00Z</time>
      </trkpt>
      <trkpt lat="44.12915" lon="2.9441">
        <ele>558</ele>
        <time>2010-01-01T01:45:01Z</time>
      </trkpt>
      <trkpt lat="44.12916" lon="2.94411">
        <ele>558</ele>
        <time>2010-01-01T01:45:02Z</time>
      </trkpt>
      <trkpt lat="44.12918" lon="2.94413">
        <ele>558</ele>
        <time>2010-01-01T01:45:03Z</time>
      </trkpt>
      <trkpt lat="44.1292" lon="2.94415">
        <ele>558</ele>
        <time>2010-01-01T01:45:04Z</time>
      </trkpt>
      <trkpt lat="44.12921" lon="2.94416">
        <ele>559</ele>
        <time>2010-01-01T01:45:04Z</time>
      </trkpt>
      <trkpt lat="44.12923" lon="2.94417">
        <ele>559</ele>
        <time>2010-01-01T01:45:05Z</time>
      </trkpt>
      <trkpt lat="44.12925" lon="2.94419">
        <ele>559</ele>
        <time>2010-01-01T01:45:06Z</time>
      </trkpt>
      <trkpt lat="44.12925" lon="2.94421">
        <ele>559</ele>
        <time>2010-01-01T01:45:07Z</time>
      </trkpt>
      <trkpt lat="44.12927" lon="2.94424">
        <ele>558</ele>
        <time>2010-01-01T01:45:08Z</time>
      </trkpt>
      <trkpt lat="44.12928" lon="2.94426">
        <ele>558</ele>
        <time>2010-01-01T01:45:08Z</time>
      </trkpt>
      <trkpt lat="44.1293" lon="2.94428">
        <ele>558</ele>
        <time>2010-01-01T01:45:09Z</time>
      </trkpt>
      <trkpt lat="44.12931" lon="2.9443">
        <ele>558</ele>
        <time>2010-01-01T01:45:10Z</time>
      </trkpt>
      <trkpt lat="44.12932" lon="2.94431">
        <ele>558</ele>
        <time>2010-01-01T01:45:11Z</time>
      </trkpt>
      <trkpt lat="44.12933" lon="2.94433">
        <ele>558</ele>
        <time>2010-01-01T01:45:11Z</time>
      </trkpt>
      <trkpt lat="44.12934" lon="2.94435">
        <ele>557</ele>
        <time>2010-01-01T01:45:12Z</time>
      </trkpt>
      <trkpt lat="44.12936" lon="2.94437">
        <ele>557</ele>
        <time>2010-01-01T01:45:13Z</time>
      </trkpt>
      <trkpt lat="44.12937" lon="2.94438">
        <ele>558</ele>
        <time>2010-01-01T01:45:14Z</time>
      </trkpt>
      <trkpt lat="44.12939" lon="2.94439">
        <ele>558</ele>
        <time>2010-01-01T01:45:14Z</time>
      </trkpt>
      <trkpt lat="44.1294" lon="2.9444">
        <ele>558</ele>
        <time>2010-01-01T01:45:15Z</time>
      </trkpt>
      <trkpt lat="44.12941" lon="2.94442">
        <ele>558</ele>
        <time>2010-01-01T01:45:16Z</time>
      </trkpt>
      <trkpt lat="44.12942" lon="2.94442">
        <ele>559</ele>
        <time>2010-01-01T01:45:16Z</time>
      </trkpt>
      <trkpt lat="44.12943" lon="2.9444">
        <ele>559</ele>
        <time>2010-01-01T01:45:16Z</time>
      </trkpt>
      <trkpt lat="44.12942" lon="2.94439">
        <ele>559</ele>
        <time>2010-01-01T01:45:17Z</time>
      </trkpt>
      <trkpt lat="44.12942" lon="2.94438">
        <ele>560</ele>
        <time>2010-01-01T01:45:17Z</time>
      </trkpt>
      <trkpt lat="44.12941" lon="2.94437">
        <ele>560</ele>
        <time>2010-01-01T01:45:18Z</time>
      </trkpt>
      <trkpt lat="44.12942" lon="2.94437">
        <ele>560</ele>
        <time>2010-01-01T01:45:18Z</time>
      </trkpt>
      <trkpt lat="44.12942" lon="2.94429">
        <ele>563</ele>
        <time>2010-01-01T01:45:20Z</time>
      </trkpt>
      <trkpt lat="44.12942" lon="2.94427">
        <ele>564</ele>
        <time>2010-01-01T01:45:20Z</time>
      </trkpt>
      <trkpt lat="44.12941" lon="2.94426">
        <ele>564</ele>
        <time>2010-01-01T01:45:21Z</time>
      </trkpt>
      <trkpt lat="44.12941" lon="2.94423">
        <ele>564</ele>
        <time>2010-01-01T01:45:22Z</time>
      </trkpt>
      <trkpt lat="44.1294" lon="2.94421">
        <ele>565</ele>
        <time>2010-01-01T01:45:22Z</time>
      </trkpt>
      <trkpt lat="44.1294" lon="2.94419">
        <ele>566</ele>
        <time>2010-01-01T01:45:23Z</time>
      </trkpt>
      <trkpt lat="44.1294" lon="2.94417">
        <ele>567</ele>
        <time>2010-01-01T01:45:24Z</time>
      </trkpt>
      <trkpt lat="44.1294" lon="2.94415">
        <ele>567</ele>
        <time>2010-01-01T01:45:24Z</time>
      </trkpt>
      <trkpt lat="44.1294" lon="2.94414">
        <ele>568</ele>
        <time>2010-01-01T01:45:24Z</time>
      </trkpt>
      <trkpt lat="44.12941" lon="2.94412">
        <ele>569</ele>
        <time>2010-01-01T01:45:25Z</time>
      </trkpt>
      <trkpt lat="44.12941" lon="2.9441">
        <ele>569</ele>
        <time>2010-01-01T01:45:26Z</time>
      </trkpt>
      <trkpt lat="44.12941" lon="2.94408">
        <ele>570</ele>
        <time>2010-01-01T01:45:26Z</time>
      </trkpt>
      <trkpt lat="44.12941" lon="2.94406">
        <ele>571</ele>
        <time>2010-01-01T01:45:27Z</time>
      </trkpt>
      <trkpt lat="44.1294" lon="2.94404">
        <ele>571</ele>
        <time>2010-01-01T01:45:27Z</time>
      </trkpt>
      <trkpt lat="44.12939" lon="2.94402">
        <ele>571</ele>
        <time>2010-01-01T01:45:28Z</time>
      </trkpt>
      <trkpt lat="44.12939" lon="2.94401">
        <ele>572</ele>
        <time>2010-01-01T01:45:28Z</time>
      </trkpt>
      <trkpt lat="44.1294" lon="2.94401">
        <ele>572</ele>
        <time>2010-01-01T01:45:29Z</time>
      </trkpt>
      <trkpt lat="44.12942" lon="2.94402">
        <ele>573</ele>
        <time>2010-01-01T01:45:30Z</time>
      </trkpt>
      <trkpt lat="44.12943" lon="2.94403">
        <ele>573</ele>
        <time>2010-01-01T01:45:30Z</time>
      </trkpt>
      <trkpt lat="44.12944" lon="2.94403">
        <ele>573</ele>
        <time>2010-01-01T01:45:31Z</time>
      </trkpt>
      <trkpt lat="44.12944" lon="2.94404">
        <ele>573</ele>
        <time>2010-01-01T01:45:31Z</time>
      </trkpt>
      <trkpt lat="44.12945" lon="2.94405">
        <ele>573</ele>
        <time>2010-01-01T01:45:31Z</time>
      </trkpt>
      <trkpt lat="44.12946" lon="2.94406">
        <ele>573</ele>
        <time>2010-01-01T01:45:32Z</time>
      </trkpt>
      <trkpt lat="44.12947" lon="2.94406">
        <ele>573</ele>
        <time>2010-01-01T01:45:32Z</time>
      </trkpt>
      <trkpt lat="44.1295" lon="2.94407">
        <ele>574</ele>
        <time>2010-01-01T01:45:34Z</time>
      </trkpt>
      <trkpt lat="44.12951" lon="2.94408">
        <ele>574</ele>
        <time>2010-01-01T01:45:34Z</time>
      </trkpt>
      <trkpt lat="44.12952" lon="2.94408">
        <ele>574</ele>
        <time>2010-01-01T01:45:34Z</time>
      </trkpt>
      <trkpt lat="44.12954" lon="2.94409">
        <ele>575</ele>
        <time>2010-01-01T01:45:35Z</time>
      </trkpt>
      <trkpt lat="44.12955" lon="2.9441">
        <ele>575</ele>
        <time>2010-01-01T01:45:36Z</time>
      </trkpt>
      <trkpt lat="44.12957" lon="2.9441">
        <ele>576</ele>
        <time>2010-01-01T01:45:36Z</time>
      </trkpt>
      <trkpt lat="44.12959" lon="2.9441">
        <ele>576</ele>
        <time>2010-01-01T01:45:37Z</time>
      </trkpt>
      <trkpt lat="44.1296" lon="2.9441">
        <ele>577</ele>
        <time>2010-01-01T01:45:38Z</time>
      </trkpt>
      <trkpt lat="44.12962" lon="2.9441">
        <ele>577</ele>
        <time>2010-01-01T01:45:38Z</time>
      </trkpt>
      <trkpt lat="44.12962" lon="2.94409">
        <ele>578</ele>
        <time>2010-01-01T01:45:39Z</time>
      </trkpt>
      <trkpt lat="44.1296" lon="2.94407">
        <ele>578</ele>
        <time>2010-01-01T01:45:40Z</time>
      </trkpt>
      <trkpt lat="44.12959" lon="2.94406">
        <ele>578</ele>
        <time>2010-01-01T01:45:40Z</time>
      </trkpt>
      <trkpt lat="44.12958" lon="2.94404">
        <ele>578</ele>
        <time>2010-01-01T01:45:41Z</time>
      </trkpt>
      <trkpt lat="44.12958" lon="2.94403">
        <ele>579</ele>
        <time>2010-01-01T01:45:41Z</time>
      </trkpt>
      <trkpt lat="44.12958" lon="2.94401">
        <ele>579</ele>
        <time>2010-01-01T01:45:42Z</time>
      </trkpt>
      <trkpt lat="44.12959" lon="2.944">
        <ele>580</ele>
        <time>2010-01-01T01:45:42Z</time>
      </trkpt>
      <trkpt lat="44.1296" lon="2.944">
        <ele>580</ele>
        <time>2010-01-01T01:45:43Z</time>
      </trkpt>
      <trkpt lat="44.12962" lon="2.94401">
        <ele>581</ele>
        <time>2010-01-01T01:45:43Z</time>
      </trkpt>
      <trkpt lat="44.12963" lon="2.94402">
        <ele>581</ele>
        <time>2010-01-01T01:45:44Z</time>
      </trkpt>
      <trkpt lat="44.12965" lon="2.94402">
        <ele>582</ele>
        <time>2010-01-01T01:45:45Z</time>
      </trkpt>
      <trkpt lat="44.12966" lon="2.94402">
        <ele>582</ele>
        <time>2010-01-01T01:45:45Z</time>
      </trkpt>
      <trkpt lat="44.12968" lon="2.94401">
        <ele>583</ele>
        <time>2010-01-01T01:45:46Z</time>
      </trkpt>
      <trkpt lat="44.12969" lon="2.94401">
        <ele>584</ele>
        <time>2010-01-01T01:45:46Z</time>
      </trkpt>
      <trkpt lat="44.12971" lon="2.944">
        <ele>585</ele>
        <time>2010-01-01T01:45:47Z</time>
      </trkpt>
      <trkpt lat="44.12973" lon="2.944">
        <ele>585</ele>
        <time>2010-01-01T01:45:48Z</time>
      </trkpt>
      <trkpt lat="44.12974" lon="2.94399">
        <ele>586</ele>
        <time>2010-01-01T01:45:49Z</time>
      </trkpt>
      <trkpt lat="44.12976" lon="2.94398">
        <ele>586</ele>
        <time>2010-01-01T01:45:49Z</time>
      </trkpt>
      <trkpt lat="44.12977" lon="2.94398">
        <ele>587</ele>
        <time>2010-01-01T01:45:50Z</time>
      </trkpt>
      <trkpt lat="44.12979" lon="2.94398">
        <ele>587</ele>
        <time>2010-01-01T01:45:51Z</time>
      </trkpt>
      <trkpt lat="44.1298" lon="2.94398">
        <ele>587</ele>
        <time>2010-01-01T01:45:51Z</time>
      </trkpt>
      <trkpt lat="44.12982" lon="2.94397">
        <ele>587</ele>
        <time>2010-01-01T01:45:52Z</time>
      </trkpt>
      <trkpt lat="44.12985" lon="2.94397">
        <ele>588</ele>
        <time>2010-01-01T01:45:53Z</time>
      </trkpt>
      <trkpt lat="44.12986" lon="2.94397">
        <ele>588</ele>
        <time>2010-01-01T01:45:53Z</time>
      </trkpt>
      <trkpt lat="44.12989" lon="2.94397">
        <ele>588</ele>
        <time>2010-01-01T01:45:55Z</time>
      </trkpt>
      <trkpt lat="44.12991" lon="2.94396">
        <ele>589</ele>
        <time>2010-01-01T01:45:55Z</time>
      </trkpt>
      <trkpt lat="44.12993" lon="2.94396">
        <ele>589</ele>
        <time>2010-01-01T01:45:56Z</time>
      </trkpt>
      <trkpt lat="44.12995" lon="2.94395">
        <ele>590</ele>
        <time>2010-01-01T01:45:57Z</time>
      </trkpt>
      <trkpt lat="44.12996" lon="2.94395">
        <ele>590</ele>
        <time>2010-01-01T01:45:58Z</time>
      </trkpt>
      <trkpt lat="44.12998" lon="2.94395">
        <ele>590</ele>
        <time>2010-01-01T01:45:58Z</time>
      </trkpt>
      <trkpt lat="44.13" lon="2.94395">
        <ele>590</ele>
        <time>2010-01-01T01:45:59Z</time>
      </trkpt>
      <trkpt lat="44.13002" lon="2.94394">
        <ele>591</ele>
        <time>2010-01-01T01:46:00Z</time>
      </trkpt>
      <trkpt lat="44.13003" lon="2.94394">
        <ele>591</ele>
        <time>2010-01-01T01:46:00Z</time>
      </trkpt>
      <trkpt lat="44.13004" lon="2.94394">
        <ele>591</ele>
        <time>2010-01-01T01:46:01Z</time>
      </trkpt>
      <trkpt lat="44.13006" lon="2.94394">
        <ele>591</ele>
        <time>2010-01-01T01:46:02Z</time>
      </trkpt>
      <trkpt lat="44.13008" lon="2.94394">
        <ele>591</ele>
        <time>2010-01-01T01:46:02Z</time>
      </trkpt>
      <trkpt lat="44.13009" lon="2.94395">
        <ele>591</ele>
        <time>2010-01-01T01:46:03Z</time>
      </trkpt>
      <trkpt lat="44.13011" lon="2.94395">
        <ele>591</ele>
        <time>2010-01-01T01:46:03Z</time>
      </trkpt>
      <trkpt lat="44.13012" lon="2.94395">
        <ele>591</ele>
        <time>2010-01-01T01:46:04Z</time>
      </trkpt>
      <trkpt lat="44.13013" lon="2.94394">
        <ele>592</ele>
        <time>2010-01-01T01:46:04Z</time>
      </trkpt>
      <trkpt lat="44.13015" lon="2.94394">
        <ele>592</ele>
        <time>2010-01-01T01:46:05Z</time>
      </trkpt>
      <trkpt lat="44.13017" lon="2.94394">
        <ele>592</ele>
        <time>2010-01-01T01:46:06Z</time>
      </trkpt>
      <trkpt lat="44.13019" lon="2.94394">
        <ele>592</ele>
        <time>2010-01-01T01:46:07Z</time>
      </trkpt>
      <trkpt lat="44.13022" lon="2.94393">
        <ele>593</ele>
        <time>2010-01-01T01:46:08Z</time>
      </trkpt>
      <trkpt lat="44.13024" lon="2.94393">
        <ele>593</ele>
        <time>2010-01-01T01:46:09Z</time>
      </trkpt>
      <trkpt lat="44.13025" lon="2.94393">
        <ele>593</ele>
        <time>2010-01-01T01:46:09Z</time>
      </trkpt>
      <trkpt lat="44.13027" lon="2.94394">
        <ele>593</ele>
        <time>2010-01-01T01:46:10Z</time>
      </trkpt>
      <trkpt lat="44.1303" lon="2.94393">
        <ele>593</ele>
        <time>2010-01-01T01:46:11Z</time>
      </trkpt>
      <trkpt lat="44.13032" lon="2.94393">
        <ele>593</ele>
        <time>2010-01-01T01:46:12Z</time>
      </trkpt>
      <trkpt lat="44.13034" lon="2.94393">
        <ele>593</ele>
        <time>2010-01-01T01:46:13Z</time>
      </trkpt>
      <trkpt lat="44.13036" lon="2.94393">
        <ele>593</ele>
        <time>2010-01-01T01:46:13Z</time>
      </trkpt>
      <trkpt lat="44.13037" lon="2.94392">
        <ele>594</ele>
        <time>2010-01-01T01:46:14Z</time>
      </trkpt>
      <trkpt lat="44.13039" lon="2.94391">
        <ele>594</ele>
        <time>2010-01-01T01:46:15Z</time>
      </trkpt>
      <trkpt lat="44.1304" lon="2.94391">
        <ele>594</ele>
        <time>2010-01-01T01:46:15Z</time>
      </trkpt>
      <trkpt lat="44.13042" lon="2.9439">
        <ele>594</ele>
        <time>2010-01-01T01:46:16Z</time>
      </trkpt>
      <trkpt lat="44.13043" lon="2.9439">
        <ele>595</ele>
        <time>2010-01-01T01:46:17Z</time>
      </trkpt>
      <trkpt lat="44.13045" lon="2.94389">
        <ele>595</ele>
        <time>2010-01-01T01:46:17Z</time>
      </trkpt>
      <trkpt lat="44.13047" lon="2.94387">
        <ele>596</ele>
        <time>2010-01-01T01:46:18Z</time>
      </trkpt>
      <trkpt lat="44.13049" lon="2.94386">
        <ele>596</ele>
        <time>2010-01-01T01:46:19Z</time>
      </trkpt>
      <trkpt lat="44.1305" lon="2.94385">
        <ele>597</ele>
        <time>2010-01-01T01:46:20Z</time>
      </trkpt>
      <trkpt lat="44.13051" lon="2.94384">
        <ele>597</ele>
        <time>2010-01-01T01:46:20Z</time>
      </trkpt>
      <trkpt lat="44.13053" lon="2.94383">
        <ele>598</ele>
        <time>2010-01-01T01:46:21Z</time>
      </trkpt>
      <trkpt lat="44.13054" lon="2.94382">
        <ele>599</ele>
        <time>2010-01-01T01:46:22Z</time>
      </trkpt>
      <trkpt lat="44.13056" lon="2.94381">
        <ele>599</ele>
        <time>2010-01-01T01:46:22Z</time>
      </trkpt>
      <trkpt lat="44.13058" lon="2.94379">
        <ele>600</ele>
        <time>2010-01-01T01:46:23Z</time>
      </trkpt>
      <trkpt lat="44.13058" lon="2.94377">
        <ele>600</ele>
        <time>2010-01-01T01:46:24Z</time>
      </trkpt>
      <trkpt lat="44.13058" lon="2.94375">
        <ele>601</ele>
        <time>2010-01-01T01:46:24Z</time>
      </trkpt>
      <trkpt lat="44.13058" lon="2.94374">
        <ele>602</ele>
        <time>2010-01-01T01:46:25Z</time>
      </trkpt>
      <trkpt lat="44.13057" lon="2.94372">
        <ele>603</ele>
        <time>2010-01-01T01:46:25Z</time>
      </trkpt>
      <trkpt lat="44.13056" lon="2.94372">
        <ele>603</ele>
        <time>2010-01-01T01:46:26Z</time>
      </trkpt>
      <trkpt lat="44.13054" lon="2.94372">
        <ele>603</ele>
        <time>2010-01-01T01:46:26Z</time>
      </trkpt>
      <trkpt lat="44.13053" lon="2.94371">
        <ele>603</ele>
        <time>2010-01-01T01:46:27Z</time>
      </trkpt>
      <trkpt lat="44.13052" lon="2.94371">
        <ele>603</ele>
        <time>2010-01-01T01:46:27Z</time>
      </trkpt>
      <trkpt lat="44.1305" lon="2.94371">
        <ele>603</ele>
        <time>2010-01-01T01:46:28Z</time>
      </trkpt>
      <trkpt lat="44.13049" lon="2.9437">
        <ele>603</ele>
        <time>2010-01-01T01:46:29Z</time>
      </trkpt>
      <trkpt lat="44.13048" lon="2.9437">
        <ele>603</ele>
        <time>2010-01-01T01:46:29Z</time>
      </trkpt>
      <trkpt lat="44.13047" lon="2.9437">
        <ele>603</ele>
        <time>2010-01-01T01:46:30Z</time>
      </trkpt>
      <trkpt lat="44.13046" lon="2.94369">
        <ele>603</ele>
        <time>2010-01-01T01:46:30Z</time>
      </trkpt>
      <trkpt lat="44.13044" lon="2.94368">
        <ele>603</ele>
        <time>2010-01-01T01:46:31Z</time>
      </trkpt>
      <trkpt lat="44.13042" lon="2.94367">
        <ele>603</ele>
        <time>2010-01-01T01:46:32Z</time>
      </trkpt>
      <trkpt lat="44.1304" lon="2.94367">
        <ele>603</ele>
        <time>2010-01-01T01:46:32Z</time>
      </trkpt>
      <trkpt lat="44.13038" lon="2.94367">
        <ele>603</ele>
        <time>2010-01-01T01:46:33Z</time>
      </trkpt>
      <trkpt lat="44.13036" lon="2.94366">
        <ele>603</ele>
        <time>2010-01-01T01:46:34Z</time>
      </trkpt>
      <trkpt lat="44.13035" lon="2.94365">
        <ele>603</ele>
        <time>2010-01-01T01:46:35Z</time>
      </trkpt>
      <trkpt lat="44.13033" lon="2.94364">
        <ele>603</ele>
        <time>2010-01-01T01:46:35Z</time>
      </trkpt>
      <trkpt lat="44.13032" lon="2.94363">
        <ele>603</ele>
        <time>2010-01-01T01:46:36Z</time>
      </trkpt>
      <trkpt lat="44.13031" lon="2.94362">
        <ele>604</ele>
        <time>2010-01-01T01:46:36Z</time>
      </trkpt>
      <trkpt lat="44.13029" lon="2.94361">
        <ele>604</ele>
        <time>2010-01-01T01:46:37Z</time>
      </trkpt>
      <trkpt lat="44.13028" lon="2.94359">
        <ele>604</ele>
        <time>2010-01-01T01:46:38Z</time>
      </trkpt>
      <trkpt lat="44.13027" lon="2.94358">
        <ele>605</ele>
        <time>2010-01-01T01:46:38Z</time>
      </trkpt>
      <trkpt lat="44.13025" lon="2.94357">
        <ele>605</ele>
        <time>2010-01-01T01:46:39Z</time>
      </trkpt>
      <trkpt lat="44.13024" lon="2.94356">
        <ele>605</ele>
        <time>2010-01-01T01:46:40Z</time>
      </trkpt>
      <trkpt lat="44.13023" lon="2.94355">
        <ele>606</ele>
        <time>2010-01-01T01:46:40Z</time>
      </trkpt>
      <trkpt lat="44.13022" lon="2.94354">
        <ele>606</ele>
        <time>2010-01-01T01:46:41Z</time>
      </trkpt>
      <trkpt lat="44.13021" lon="2.94353">
        <ele>606</ele>
        <time>2010-01-01T01:46:41Z</time>
      </trkpt>
      <trkpt lat="44.1302" lon="2.94352">
        <ele>607</ele>
        <time>2010-01-01T01:46:42Z</time>
      </trkpt>
      <trkpt lat="44.13019" lon="2.9435">
        <ele>607</ele>
        <time>2010-01-01T01:46:42Z</time>
      </trkpt>
      <trkpt lat="44.13017" lon="2.94349">
        <ele>607</ele>
        <time>2010-01-01T01:46:43Z</time>
      </trkpt>
      <trkpt lat="44.13016" lon="2.94349">
        <ele>607</ele>
        <time>2010-01-01T01:46:44Z</time>
      </trkpt>
      <trkpt lat="44.13014" lon="2.94347">
        <ele>608</ele>
        <time>2010-01-01T01:46:44Z</time>
      </trkpt>
      <trkpt lat="44.13014" lon="2.94345">
        <ele>609</ele>
        <time>2010-01-01T01:46:45Z</time>
      </trkpt>
      <trkpt lat="44.13015" lon="2.94344">
        <ele>609</ele>
        <time>2010-01-01T01:46:45Z</time>
      </trkpt>
      <trkpt lat="44.13016" lon="2.94343">
        <ele>610</ele>
        <time>2010-01-01T01:46:46Z</time>
      </trkpt>
      <trkpt lat="44.13017" lon="2.94343">
        <ele>610</ele>
        <time>2010-01-01T01:46:47Z</time>
      </trkpt>
      <trkpt lat="44.13018" lon="2.94342">
        <ele>610</ele>
        <time>2010-01-01T01:46:47Z</time>
      </trkpt>
      <trkpt lat="44.13019" lon="2.94341">
        <ele>611</ele>
        <time>2010-01-01T01:46:48Z</time>
      </trkpt>
      <trkpt lat="44.1302" lon="2.9434">
        <ele>611</ele>
        <time>2010-01-01T01:46:48Z</time>
      </trkpt>
      <trkpt lat="44.13021" lon="2.94339">
        <ele>612</ele>
        <time>2010-01-01T01:46:48Z</time>
      </trkpt>
      <trkpt lat="44.13022" lon="2.94338">
        <ele>612</ele>
        <time>2010-01-01T01:46:49Z</time>
      </trkpt>
      <trkpt lat="44.13023" lon="2.94337">
        <ele>612</ele>
        <time>2010-01-01T01:46:49Z</time>
      </trkpt>
      <trkpt lat="44.13024" lon="2.94337">
        <ele>613</ele>
        <time>2010-01-01T01:46:50Z</time>
      </trkpt>
      <trkpt lat="44.13028" lon="2.94333">
        <ele>614</ele>
        <time>2010-01-01T01:46:52Z</time>
      </trkpt>
      <trkpt lat="44.13029" lon="2.94332">
        <ele>615</ele>
        <time>2010-01-01T01:46:52Z</time>
      </trkpt>
      <trkpt lat="44.1303" lon="2.94331">
        <ele>616</ele>
        <time>2010-01-01T01:46:53Z</time>
      </trkpt>
      <trkpt lat="44.13032" lon="2.94329">
        <ele>617</ele>
        <time>2010-01-01T01:46:54Z</time>
      </trkpt>
      <trkpt lat="44.13035" lon="2.94327">
        <ele>618</ele>
        <time>2010-01-01T01:46:55Z</time>
      </trkpt>
      <trkpt lat="44.13036" lon="2.94325">
        <ele>619</ele>
        <time>2010-01-01T01:46:56Z</time>
      </trkpt>
      <trkpt lat="44.13038" lon="2.94323">
        <ele>620</ele>
        <time>2010-01-01T01:46:57Z</time>
      </trkpt>
      <trkpt lat="44.13039" lon="2.94322">
        <ele>621</ele>
        <time>2010-01-01T01:46:57Z</time>
      </trkpt>
      <trkpt lat="44.1304" lon="2.9432">
        <ele>622</ele>
        <time>2010-01-01T01:46:58Z</time>
      </trkpt>
      <trkpt lat="44.1304" lon="2.94318">
        <ele>622</ele>
        <time>2010-01-01T01:46:59Z</time>
      </trkpt>
      <trkpt lat="44.13039" lon="2.94316">
        <ele>623</ele>
        <time>2010-01-01T01:46:59Z</time>
      </trkpt>
      <trkpt lat="44.13037" lon="2.94316">
        <ele>623</ele>
        <time>2010-01-01T01:47:00Z</time>
      </trkpt>
      <trkpt lat="44.13035" lon="2.94315">
        <ele>623</ele>
        <time>2010-01-01T01:47:01Z</time>
      </trkpt>
      <trkpt lat="44.13034" lon="2.94315">
        <ele>623</ele>
        <time>2010-01-01T01:47:01Z</time>
      </trkpt>
      <trkpt lat="44.13032" lon="2.94315">
        <ele>623</ele>
        <time>2010-01-01T01:47:02Z</time>
      </trkpt>
      <trkpt lat="44.13031" lon="2.94314">
        <ele>623</ele>
        <time>2010-01-01T01:47:03Z</time>
      </trkpt>
      <trkpt lat="44.13029" lon="2.94313">
        <ele>623</ele>
        <time>2010-01-01T01:47:03Z</time>
      </trkpt>
      <trkpt lat="44.13028" lon="2.94312">
        <ele>624</ele>
        <time>2010-01-01T01:47:04Z</time>
      </trkpt>
      <trkpt lat="44.13027" lon="2.9431">
        <ele>625</ele>
        <time>2010-01-01T01:47:05Z</time>
      </trkpt>
      <trkpt lat="44.13026" lon="2.94308">
        <ele>625</ele>
        <time>2010-01-01T01:47:05Z</time>
      </trkpt>
      <trkpt lat="44.13025" lon="2.94305">
        <ele>626</ele>
        <time>2010-01-01T01:47:06Z</time>
      </trkpt>
      <trkpt lat="44.13024" lon="2.94302">
        <ele>627</ele>
        <time>2010-01-01T01:47:07Z</time>
      </trkpt>
      <trkpt lat="44.13024" lon="2.94298">
        <ele>628</ele>
        <time>2010-01-01T01:47:08Z</time>
      </trkpt>
      <trkpt lat="44.13023" lon="2.94295">
        <ele>629</ele>
        <time>2010-01-01T01:47:09Z</time>
      </trkpt>
      <trkpt lat="44.13022" lon="2.94292">
        <ele>630</ele>
        <time>2010-01-01T01:47:10Z</time>
      </trkpt>
      <trkpt lat="44.13021" lon="2.9429">
        <ele>630</ele>
        <time>2010-01-01T01:47:11Z</time>
      </trkpt>
      <trkpt lat="44.1302" lon="2.94288">
        <ele>631</ele>
        <time>2010-01-01T01:47:12Z</time>
      </trkpt>
      <trkpt lat="44.13019" lon="2.94286">
        <ele>631</ele>
        <time>2010-01-01T01:47:12Z</time>
      </trkpt>
      <trkpt lat="44.13019" lon="2.94283">
        <ele>632</ele>
        <time>2010-01-01T01:47:13Z</time>
      </trkpt>
      <trkpt lat="44.13019" lon="2.94281">
        <ele>633</ele>
        <time>2010-01-01T01:47:14Z</time>
      </trkpt>
      <trkpt lat="44.13019" lon="2.94278">
        <ele>634</ele>
        <time>2010-01-01T01:47:15Z</time>
      </trkpt>
      <trkpt lat="44.13018" lon="2.94274">
        <ele>634</ele>
        <time>2010-01-01T01:47:16Z</time>
      </trkpt>
      <trkpt lat="44.13018" lon="2.94272">
        <ele>635</ele>
        <time>2010-01-01T01:47:16Z</time>
      </trkpt>
      <trkpt lat="44.13018" lon="2.94269">
        <ele>635</ele>
        <time>2010-01-01T01:47:17Z</time>
      </trkpt>
      <trkpt lat="44.13017" lon="2.94267">
        <ele>635</ele>
        <time>2010-01-01T01:47:18Z</time>
      </trkpt>
      <trkpt lat="44.13017" lon="2.94264">
        <ele>635</ele>
        <time>2010-01-01T01:47:19Z</time>
      </trkpt>
      <trkpt lat="44.13016" lon="2.94262">
        <ele>636</ele>
        <time>2010-01-01T01:47:20Z</time>
      </trkpt>
      <trkpt lat="44.13015" lon="2.94259">
        <ele>636</ele>
        <time>2010-01-01T01:47:20Z</time>
      </trkpt>
      <trkpt lat="44.13014" lon="2.94257">
        <ele>636</ele>
        <time>2010-01-01T01:47:21Z</time>
      </trkpt>
      <trkpt lat="44.13013" lon="2.94254">
        <ele>636</ele>
        <time>2010-01-01T01:47:22Z</time>
      </trkpt>
      <trkpt lat="44.13012" lon="2.94252">
        <ele>637</ele>
        <time>2010-01-01T01:47:23Z</time>
      </trkpt>
      <trkpt lat="44.13013" lon="2.9425">
        <ele>637</ele>
        <time>2010-01-01T01:47:23Z</time>
      </trkpt>
      <trkpt lat="44.13015" lon="2.94249">
        <ele>637</ele>
        <time>2010-01-01T01:47:24Z</time>
      </trkpt>
      <trkpt lat="44.13016" lon="2.9425">
        <ele>637</ele>
        <time>2010-01-01T01:47:25Z</time>
      </trkpt>
      <trkpt lat="44.13017" lon="2.9425">
        <ele>637</ele>
        <time>2010-01-01T01:47:25Z</time>
      </trkpt>
      <trkpt lat="44.13018" lon="2.94252">
        <ele>637</ele>
        <time>2010-01-01T01:47:26Z</time>
      </trkpt>
      <trkpt lat="44.13019" lon="2.94255">
        <ele>637</ele>
        <time>2010-01-01T01:47:27Z</time>
      </trkpt>
      <trkpt lat="44.13022" lon="2.94257">
        <ele>637</ele>
        <time>2010-01-01T01:47:28Z</time>
      </trkpt>
      <trkpt lat="44.13024" lon="2.94259">
        <ele>637</ele>
        <time>2010-01-01T01:47:29Z</time>
      </trkpt>
      <trkpt lat="44.13026" lon="2.94262">
        <ele>637</ele>
        <time>2010-01-01T01:47:30Z</time>
      </trkpt>
      <trkpt lat="44.13028" lon="2.94263">
        <ele>637</ele>
        <time>2010-01-01T01:47:31Z</time>
      </trkpt>
      <trkpt lat="44.13029" lon="2.94265">
        <ele>636</ele>
        <time>2010-01-01T01:47:32Z</time>
      </trkpt>
      <trkpt lat="44.13032" lon="2.94266">
        <ele>636</ele>
        <time>2010-01-01T01:47:33Z</time>
      </trkpt>
      <trkpt lat="44.13034" lon="2.94266">
        <ele>636</ele>
        <time>2010-01-01T01:47:34Z</time>
      </trkpt>
      <trkpt lat="44.13035" lon="2.94266">
        <ele>636</ele>
        <time>2010-01-01T01:47:34Z</time>
      </trkpt>
      <trkpt lat="44.13036" lon="2.94265">
        <ele>636</ele>
        <time>2010-01-01T01:47:34Z</time>
      </trkpt>
      <trkpt lat="44.13037" lon="2.94264">
        <ele>636</ele>
        <time>2010-01-01T01:47:35Z</time>
      </trkpt>
      <trkpt lat="44.13038" lon="2.94259">
        <ele>637</ele>
        <time>2010-01-01T01:47:36Z</time>
      </trkpt>
      <trkpt lat="44.13038" lon="2.94258">
        <ele>637</ele>
        <time>2010-01-01T01:47:37Z</time>
      </trkpt>
      <trkpt lat="44.13039" lon="2.94256">
        <ele>637</ele>
        <time>2010-01-01T01:47:37Z</time>
      </trkpt>
      <trkpt lat="44.1304" lon="2.94254">
        <ele>638</ele>
        <time>2010-01-01T01:47:38Z</time>
      </trkpt>
      <trkpt lat="44.1304" lon="2.94252">
        <ele>638</ele>
        <time>2010-01-01T01:47:39Z</time>
      </trkpt>
      <trkpt lat="44.13041" lon="2.94249">
        <ele>638</ele>
        <time>2010-01-01T01:47:40Z</time>
      </trkpt>
      <trkpt lat="44.13042" lon="2.94247">
        <ele>638</ele>
        <time>2010-01-01T01:47:40Z</time>
      </trkpt>
      <trkpt lat="44.13042" lon="2.94245">
        <ele>638</ele>
        <time>2010-01-01T01:47:41Z</time>
      </trkpt>
      <trkpt lat="44.13043" lon="2.94243">
        <ele>639</ele>
        <time>2010-01-01T01:47:42Z</time>
      </trkpt>
      <trkpt lat="44.13043" lon="2.9424">
        <ele>639</ele>
        <time>2010-01-01T01:47:42Z</time>
      </trkpt>
      <trkpt lat="44.13044" lon="2.94239">
        <ele>639</ele>
        <time>2010-01-01T01:47:43Z</time>
      </trkpt>
      <trkpt lat="44.13044" lon="2.94236">
        <ele>639</ele>
        <time>2010-01-01T01:47:44Z</time>
      </trkpt>
      <trkpt lat="44.13045" lon="2.94234">
        <ele>640</ele>
        <time>2010-01-01T01:47:44Z</time>
      </trkpt>
      <trkpt lat="44.13046" lon="2.94232">
        <ele>640</ele>
        <time>2010-01-01T01:47:45Z</time>
      </trkpt>
      <trkpt lat="44.13046" lon="2.9423">
        <ele>640</ele>
        <time>2010-01-01T01:47:46Z</time>
      </trkpt>
      <trkpt lat="44.13047" lon="2.94227">
        <ele>640</ele>
        <time>2010-01-01T01:47:46Z</time>
      </trkpt>
      <trkpt lat="44.13047" lon="2.94225">
        <ele>641</ele>
        <time>2010-01-01T01:47:47Z</time>
      </trkpt>
      <trkpt lat="44.13048" lon="2.94223">
        <ele>641</ele>
        <time>2010-01-01T01:47:47Z</time>
      </trkpt>
      <trkpt lat="44.13048" lon="2.94221">
        <ele>641</ele>
        <time>2010-01-01T01:47:48Z</time>
      </trkpt>
      <trkpt lat="44.13049" lon="2.9422">
        <ele>641</ele>
        <time>2010-01-01T01:47:49Z</time>
      </trkpt>
      <trkpt lat="44.1305" lon="2.94218">
        <ele>642</ele>
        <time>2010-01-01T01:47:49Z</time>
      </trkpt>
      <trkpt lat="44.13051" lon="2.94216">
        <ele>642</ele>
        <time>2010-01-01T01:47:50Z</time>
      </trkpt>
      <trkpt lat="44.13052" lon="2.94214">
        <ele>642</ele>
        <time>2010-01-01T01:47:51Z</time>
      </trkpt>
      <trkpt lat="44.13053" lon="2.94212">
        <ele>642</ele>
        <time>2010-01-01T01:47:51Z</time>
      </trkpt>
      <trkpt lat="44.13054" lon="2.9421">
        <ele>643</ele>
        <time>2010-01-01T01:47:52Z</time>
      </trkpt>
      <trkpt lat="44.13054" lon="2.94208">
        <ele>643</ele>
        <time>2010-01-01T01:47:53Z</time>
      </trkpt>
      <trkpt lat="44.13054" lon="2.94206">
        <ele>643</ele>
        <time>2010-01-01T01:47:53Z</time>
      </trkpt>
      <trkpt lat="44.13055" lon="2.94204">
        <ele>643</ele>
        <time>2010-01-01T01:47:54Z</time>
      </trkpt>
      <trkpt lat="44.13056" lon="2.94202">
        <ele>644</ele>
        <time>2010-01-01T01:47:55Z</time>
      </trkpt>
      <trkpt lat="44.13056" lon="2.94199">
        <ele>644</ele>
        <time>2010-01-01T01:47:55Z</time>
      </trkpt>
      <trkpt lat="44.13057" lon="2.94197">
        <ele>644</ele>
        <time>2010-01-01T01:47:56Z</time>
      </trkpt>
      <trkpt lat="44.13057" lon="2.94195">
        <ele>644</ele>
        <time>2010-01-01T01:47:57Z</time>
      </trkpt>
      <trkpt lat="44.13057" lon="2.94194">
        <ele>645</ele>
        <time>2010-01-01T01:47:57Z</time>
      </trkpt>
      <trkpt lat="44.13058" lon="2.94192">
        <ele>645</ele>
        <time>2010-01-01T01:47:58Z</time>
      </trkpt>
      <trkpt lat="44.13058" lon="2.94189">
        <ele>645</ele>
        <time>2010-01-01T01:47:58Z</time>
      </trkpt>
      <trkpt lat="44.13058" lon="2.94188">
        <ele>645</ele>
        <time>2010-01-01T01:47:59Z</time>
      </trkpt>
      <trkpt lat="44.13058" lon="2.94186">
        <ele>646</ele>
        <time>2010-01-01T01:47:59Z</time>
      </trkpt>
      <trkpt lat="44.13059" lon="2.94183">
        <ele>646</ele>
        <time>2010-01-01T01:48:00Z</time>
      </trkpt>
      <trkpt lat="44.13059" lon="2.94181">
        <ele>646</ele>
        <time>2010-01-01T01:48:01Z</time>
      </trkpt>
      <trkpt lat="44.1306" lon="2.94179">
        <ele>647</ele>
        <time>2010-01-01T01:48:01Z</time>
      </trkpt>
      <trkpt lat="44.1306" lon="2.94177">
        <ele>647</ele>
        <time>2010-01-01T01:48:02Z</time>
      </trkpt>
      <trkpt lat="44.1306" lon="2.94175">
        <ele>647</ele>
        <time>2010-01-01T01:48:03Z</time>
      </trkpt>
      <trkpt lat="44.13061" lon="2.94172">
        <ele>648</ele>
        <time>2010-01-01T01:48:03Z</time>
      </trkpt>
      <trkpt lat="44.13062" lon="2.9417">
        <ele>648</ele>
        <time>2010-01-01T01:48:04Z</time>
      </trkpt>
      <trkpt lat="44.13062" lon="2.94168">
        <ele>649</ele>
        <time>2010-01-01T01:48:05Z</time>
      </trkpt>
      <trkpt lat="44.13062" lon="2.94165">
        <ele>649</ele>
        <time>2010-01-01T01:48:05Z</time>
      </trkpt>
      <trkpt lat="44.13063" lon="2.94163">
        <ele>650</ele>
        <time>2010-01-01T01:48:06Z</time>
      </trkpt>
      <trkpt lat="44.13063" lon="2.94161">
        <ele>650</ele>
        <time>2010-01-01T01:48:07Z</time>
      </trkpt>
      <trkpt lat="44.13063" lon="2.94159">
        <ele>650</ele>
        <time>2010-01-01T01:48:07Z</time>
      </trkpt>
      <trkpt lat="44.13063" lon="2.94157">
        <ele>651</ele>
        <time>2010-01-01T01:48:08Z</time>
      </trkpt>
      <trkpt lat="44.13063" lon="2.94155">
        <ele>651</ele>
        <time>2010-01-01T01:48:08Z</time>
      </trkpt>
      <trkpt lat="44.13062" lon="2.94153">
        <ele>651</ele>
        <time>2010-01-01T01:48:09Z</time>
      </trkpt>
      <trkpt lat="44.13062" lon="2.9415">
        <ele>652</ele>
        <time>2010-01-01T01:48:10Z</time>
      </trkpt>
      <trkpt lat="44.13062" lon="2.94148">
        <ele>652</ele>
        <time>2010-01-01T01:48:10Z</time>
      </trkpt>
      <trkpt lat="44.13062" lon="2.94146">
        <ele>653</ele>
        <time>2010-01-01T01:48:11Z</time>
      </trkpt>
      <trkpt lat="44.13062" lon="2.94145">
        <ele>653</ele>
        <time>2010-01-01T01:48:11Z</time>
      </trkpt>
      <trkpt lat="44.13062" lon="2.94143">
        <ele>653</ele>
        <time>2010-01-01T01:48:12Z</time>
      </trkpt>
      <trkpt lat="44.13063" lon="2.94141">
        <ele>654</ele>
        <time>2010-01-01T01:48:12Z</time>
      </trkpt>
      <trkpt lat="44.13063" lon="2.9414">
        <ele>654</ele>
        <time>2010-01-01T01:48:13Z</time>
      </trkpt>
      <trkpt lat="44.13063" lon="2.94138">
        <ele>654</ele>
        <time>2010-01-01T01:48:13Z</time>
      </trkpt>
      <trkpt lat="44.13063" lon="2.94136">
        <ele>655</ele>
        <time>2010-01-01T01:48:14Z</time>
      </trkpt>
      <trkpt lat="44.13063" lon="2.94134">
        <ele>655</ele>
        <time>2010-01-01T01:48:14Z</time>
      </trkpt>
      <trkpt lat="44.13064" lon="2.94133">
        <ele>655</ele>
        <time>2010-01-01T01:48:15Z</time>
      </trkpt>
      <trkpt lat="44.13064" lon="2.9413">
        <ele>656</ele>
        <time>2010-01-01T01:48:16Z</time>
      </trkpt>
      <trkpt lat="44.13064" lon="2.94128">
        <ele>656</ele>
        <time>2010-01-01T01:48:16Z</time>
      </trkpt>
      <trkpt lat="44.13065" lon="2.94126">
        <ele>657</ele>
        <time>2010-01-01T01:48:17Z</time>
      </trkpt>
      <trkpt lat="44.13065" lon="2.94124">
        <ele>657</ele>
        <time>2010-01-01T01:48:17Z</time>
      </trkpt>
      <trkpt lat="44.13065" lon="2.94123">
        <ele>657</ele>
        <time>2010-01-01T01:48:18Z</time>
      </trkpt>
      <trkpt lat="44.13065" lon="2.94121">
        <ele>658</ele>
        <time>2010-01-01T01:48:18Z</time>
      </trkpt>
      <trkpt lat="44.13065" lon="2.94119">
        <ele>658</ele>
        <time>2010-01-01T01:48:19Z</time>
      </trkpt>
      <trkpt lat="44.13065" lon="2.94118">
        <ele>659</ele>
        <time>2010-01-01T01:48:19Z</time>
      </trkpt>
      <trkpt lat="44.13066" lon="2.94116">
        <ele>659</ele>
        <time>2010-01-01T01:48:20Z</time>
      </trkpt>
      <trkpt lat="44.13066" lon="2.94114">
        <ele>659</ele>
        <time>2010-01-01T01:48:21Z</time>
      </trkpt>
      <trkpt lat="44.13066" lon="2.94112">
        <ele>660</ele>
        <time>2010-01-01T01:48:21Z</time>
      </trkpt>
      <trkpt lat="44.13067" lon="2.94109">
        <ele>660</ele>
        <time>2010-01-01T01:48:22Z</time>
      </trkpt>
      <trkpt lat="44.13067" lon="2.94107">
        <ele>661</ele>
        <time>2010-01-01T01:48:23Z</time>
      </trkpt>
      <trkpt lat="44.13068" lon="2.94104">
        <ele>661</ele>
        <time>2010-01-01T01:48:23Z</time>
      </trkpt>
      <trkpt lat="44.13069" lon="2.94102">
        <ele>662</ele>
        <time>2010-01-01T01:48:24Z</time>
      </trkpt>
      <trkpt lat="44.13069" lon="2.941">
        <ele>662</ele>
        <time>2010-01-01T01:48:25Z</time>
      </trkpt>
      <trkpt lat="44.1307" lon="2.94097">
        <ele>663</ele>
        <time>2010-01-01T01:48:25Z</time>
      </trkpt>
      <trkpt lat="44.1307" lon="2.94095">
        <ele>663</ele>
        <time>2010-01-01T01:48:26Z</time>
      </trkpt>
      <trkpt lat="44.1307" lon="2.94093">
        <ele>663</ele>
        <time>2010-01-01T01:48:27Z</time>
      </trkpt>
      <trkpt lat="44.13071" lon="2.94091">
        <ele>664</ele>
        <time>2010-01-01T01:48:27Z</time>
      </trkpt>
      <trkpt lat="44.13071" lon="2.9409">
        <ele>664</ele>
        <time>2010-01-01T01:48:28Z</time>
      </trkpt>
      <trkpt lat="44.13072" lon="2.94088">
        <ele>664</ele>
        <time>2010-01-01T01:48:28Z</time>
      </trkpt>
      <trkpt lat="44.13072" lon="2.94086">
        <ele>665</ele>
        <time>2010-01-01T01:48:29Z</time>
      </trkpt>
      <trkpt lat="44.13073" lon="2.94084">
        <ele>665</ele>
        <time>2010-01-01T01:48:29Z</time>
      </trkpt>
      <trkpt lat="44.13073" lon="2.94082">
        <ele>665</ele>
        <time>2010-01-01T01:48:30Z</time>
      </trkpt>
      <trkpt lat="44.13074" lon="2.9408">
        <ele>665</ele>
        <time>2010-01-01T01:48:31Z</time>
      </trkpt>
      <trkpt lat="44.13074" lon="2.94078">
        <ele>666</ele>
        <time>2010-01-01T01:48:31Z</time>
      </trkpt>
      <trkpt lat="44.13075" lon="2.94076">
        <ele>666</ele>
        <time>2010-01-01T01:48:32Z</time>
      </trkpt>
      <trkpt lat="44.13076" lon="2.94075">
        <ele>666</ele>
        <time>2010-01-01T01:48:32Z</time>
      </trkpt>
      <trkpt lat="44.13076" lon="2.94074">
        <ele>666</ele>
        <time>2010-01-01T01:48:33Z</time>
      </trkpt>
      <trkpt lat="44.13077" lon="2.94072">
        <ele>667</ele>
        <time>2010-01-01T01:48:33Z</time>
      </trkpt>
      <trkpt lat="44.13077" lon="2.94071">
        <ele>667</ele>
        <time>2010-01-01T01:48:34Z</time>
      </trkpt>
      <trkpt lat="44.13077" lon="2.9407">
        <ele>667</ele>
        <time>2010-01-01T01:48:34Z</time>
      </trkpt>
      <trkpt lat="44.13078" lon="2.9407">
        <ele>667</ele>
        <time>2010-01-01T01:48:34Z</time>
      </trkpt>
      <trkpt lat="44.13081" lon="2.94067">
        <ele>667</ele>
        <time>2010-01-01T01:48:36Z</time>
      </trkpt>
      <trkpt lat="44.13082" lon="2.94066">
        <ele>668</ele>
        <time>2010-01-01T01:48:36Z</time>
      </trkpt>
      <trkpt lat="44.13083" lon="2.94065">
        <ele>668</ele>
        <time>2010-01-01T01:48:37Z</time>
      </trkpt>
      <trkpt lat="44.13084" lon="2.94063">
        <ele>668</ele>
        <time>2010-01-01T01:48:37Z</time>
      </trkpt>
      <trkpt lat="44.13085" lon="2.94061">
        <ele>668</ele>
        <time>2010-01-01T01:48:38Z</time>
      </trkpt>
      <trkpt lat="44.13086" lon="2.9406">
        <ele>669</ele>
        <time>2010-01-01T01:48:39Z</time>
      </trkpt>
      <trkpt lat="44.13088" lon="2.94059">
        <ele>669</ele>
        <time>2010-01-01T01:48:39Z</time>
      </trkpt>
      <trkpt lat="44.13089" lon="2.94058">
        <ele>669</ele>
        <time>2010-01-01T01:48:40Z</time>
      </trkpt>
      <trkpt lat="44.1309" lon="2.94056">
        <ele>669</ele>
        <time>2010-01-01T01:48:40Z</time>
      </trkpt>
      <trkpt lat="44.13091" lon="2.94055">
        <ele>669</ele>
        <time>2010-01-01T01:48:41Z</time>
      </trkpt>
      <trkpt lat="44.13093" lon="2.94053">
        <ele>670</ele>
        <time>2010-01-01T01:48:42Z</time>
      </trkpt>
      <trkpt lat="44.13094" lon="2.94052">
        <ele>670</ele>
        <time>2010-01-01T01:48:43Z</time>
      </trkpt>
      <trkpt lat="44.13096" lon="2.9405">
        <ele>670</ele>
        <time>2010-01-01T01:48:43Z</time>
      </trkpt>
      <trkpt lat="44.13097" lon="2.94049">
        <ele>671</ele>
        <time>2010-01-01T01:48:44Z</time>
      </trkpt>
      <trkpt lat="44.13098" lon="2.94048">
        <ele>671</ele>
        <time>2010-01-01T01:48:44Z</time>
      </trkpt>
      <trkpt lat="44.13099" lon="2.94046">
        <ele>671</ele>
        <time>2010-01-01T01:48:45Z</time>
      </trkpt>
      <trkpt lat="44.131" lon="2.94045">
        <ele>671</ele>
        <time>2010-01-01T01:48:45Z</time>
      </trkpt>
      <trkpt lat="44.13101" lon="2.94043">
        <ele>672</ele>
        <time>2010-01-01T01:48:46Z</time>
      </trkpt>
      <trkpt lat="44.13102" lon="2.94042">
        <ele>672</ele>
        <time>2010-01-01T01:48:47Z</time>
      </trkpt>
      <trkpt lat="44.13103" lon="2.9404">
        <ele>672</ele>
        <time>2010-01-01T01:48:48Z</time>
      </trkpt>
      <trkpt lat="44.13105" lon="2.94037">
        <ele>673</ele>
        <time>2010-01-01T01:48:49Z</time>
      </trkpt>
      <trkpt lat="44.13106" lon="2.94035">
        <ele>673</ele>
        <time>2010-01-01T01:48:49Z</time>
      </trkpt>
      <trkpt lat="44.13108" lon="2.94033">
        <ele>674</ele>
        <time>2010-01-01T01:48:50Z</time>
      </trkpt>
      <trkpt lat="44.13109" lon="2.9403">
        <ele>674</ele>
        <time>2010-01-01T01:48:51Z</time>
      </trkpt>
      <trkpt lat="44.1311" lon="2.94028">
        <ele>675</ele>
        <time>2010-01-01T01:48:52Z</time>
      </trkpt>
      <trkpt lat="44.13112" lon="2.94025">
        <ele>675</ele>
        <time>2010-01-01T01:48:53Z</time>
      </trkpt>
      <trkpt lat="44.13113" lon="2.94023">
        <ele>675</ele>
        <time>2010-01-01T01:48:54Z</time>
      </trkpt>
      <trkpt lat="44.13114" lon="2.94021">
        <ele>676</ele>
        <time>2010-01-01T01:48:55Z</time>
      </trkpt>
      <trkpt lat="44.13115" lon="2.94019">
        <ele>676</ele>
        <time>2010-01-01T01:48:55Z</time>
      </trkpt>
      <trkpt lat="44.13116" lon="2.94017">
        <ele>676</ele>
        <time>2010-01-01T01:48:56Z</time>
      </trkpt>
      <trkpt lat="44.13117" lon="2.94015">
        <ele>677</ele>
        <time>2010-01-01T01:48:57Z</time>
      </trkpt>
      <trkpt lat="44.13119" lon="2.94013">
        <ele>677</ele>
        <time>2010-01-01T01:48:58Z</time>
      </trkpt>
      <trkpt lat="44.13119" lon="2.9401">
        <ele>677</ele>
        <time>2010-01-01T01:48:58Z</time>
      </trkpt>
      <trkpt lat="44.1312" lon="2.94008">
        <ele>678</ele>
        <time>2010-01-01T01:48:59Z</time>
      </trkpt>
      <trkpt lat="44.13121" lon="2.94005">
        <ele>678</ele>
        <time>2010-01-01T01:49:00Z</time>
      </trkpt>
      <trkpt lat="44.13122" lon="2.94003">
        <ele>679</ele>
        <time>2010-01-01T01:49:01Z</time>
      </trkpt>
      <trkpt lat="44.13123" lon="2.94001">
        <ele>679</ele>
        <time>2010-01-01T01:49:01Z</time>
      </trkpt>
      <trkpt lat="44.13124" lon="2.93998">
        <ele>679</ele>
        <time>2010-01-01T01:49:02Z</time>
      </trkpt>
      <trkpt lat="44.13125" lon="2.93996">
        <ele>679</ele>
        <time>2010-01-01T01:49:03Z</time>
      </trkpt>
      <trkpt lat="44.13126" lon="2.93993">
        <ele>680</ele>
        <time>2010-01-01T01:49:04Z</time>
      </trkpt>
      <trkpt lat="44.13127" lon="2.93992">
        <ele>680</ele>
        <time>2010-01-01T01:49:04Z</time>
      </trkpt>
      <trkpt lat="44.13128" lon="2.9399">
        <ele>680</ele>
        <time>2010-01-01T01:49:05Z</time>
      </trkpt>
      <trkpt lat="44.13129" lon="2.93988">
        <ele>680</ele>
        <time>2010-01-01T01:49:06Z</time>
      </trkpt>
      <trkpt lat="44.1313" lon="2.93986">
        <ele>680</ele>
        <time>2010-01-01T01:49:07Z</time>
      </trkpt>
      <trkpt lat="44.13131" lon="2.93984">
        <ele>680</ele>
        <time>2010-01-01T01:49:07Z</time>
      </trkpt>
      <trkpt lat="44.13132" lon="2.93982">
        <ele>681</ele>
        <time>2010-01-01T01:49:08Z</time>
      </trkpt>
      <trkpt lat="44.13134" lon="2.9398">
        <ele>681</ele>
        <time>2010-01-01T01:49:09Z</time>
      </trkpt>
      <trkpt lat="44.13136" lon="2.93979">
        <ele>681</ele>
        <time>2010-01-01T01:49:10Z</time>
      </trkpt>
      <trkpt lat="44.13138" lon="2.93976">
        <ele>681</ele>
        <time>2010-01-01T01:49:11Z</time>
      </trkpt>
      <trkpt lat="44.13139" lon="2.93973">
        <ele>681</ele>
        <time>2010-01-01T01:49:12Z</time>
      </trkpt>
      <trkpt lat="44.13141" lon="2.93971">
        <ele>681</ele>
        <time>2010-01-01T01:49:13Z</time>
      </trkpt>
      <trkpt lat="44.13143" lon="2.93968">
        <ele>682</ele>
        <time>2010-01-01T01:49:14Z</time>
      </trkpt>
      <trkpt lat="44.13144" lon="2.93965">
        <ele>682</ele>
        <time>2010-01-01T01:49:15Z</time>
      </trkpt>
      <trkpt lat="44.13146" lon="2.93962">
        <ele>682</ele>
        <time>2010-01-01T01:49:16Z</time>
      </trkpt>
      <trkpt lat="44.13147" lon="2.9396">
        <ele>683</ele>
        <time>2010-01-01T01:49:17Z</time>
      </trkpt>
      <trkpt lat="44.13149" lon="2.93957">
        <ele>683</ele>
        <time>2010-01-01T01:49:18Z</time>
      </trkpt>
      <trkpt lat="44.1315" lon="2.93954">
        <ele>683</ele>
        <time>2010-01-01T01:49:19Z</time>
      </trkpt>
      <trkpt lat="44.13151" lon="2.93952">
        <ele>683</ele>
        <time>2010-01-01T01:49:20Z</time>
      </trkpt>
      <trkpt lat="44.13152" lon="2.93949">
        <ele>684</ele>
        <time>2010-01-01T01:49:20Z</time>
      </trkpt>
      <trkpt lat="44.13153" lon="2.93946">
        <ele>684</ele>
        <time>2010-01-01T01:49:21Z</time>
      </trkpt>
      <trkpt lat="44.13154" lon="2.93942">
        <ele>685</ele>
        <time>2010-01-01T01:49:23Z</time>
      </trkpt>
      <trkpt lat="44.13153" lon="2.93939">
        <ele>685</ele>
        <time>2010-01-01T01:49:23Z</time>
      </trkpt>
      <trkpt lat="44.13152" lon="2.93937">
        <ele>685</ele>
        <time>2010-01-01T01:49:24Z</time>
      </trkpt>
      <trkpt lat="44.13153" lon="2.93934">
        <ele>686</ele>
        <time>2010-01-01T01:49:25Z</time>
      </trkpt>
      <trkpt lat="44.13154" lon="2.9393">
        <ele>686</ele>
        <time>2010-01-01T01:49:26Z</time>
      </trkpt>
      <trkpt lat="44.13154" lon="2.93928">
        <ele>686</ele>
        <time>2010-01-01T01:49:27Z</time>
      </trkpt>
      <trkpt lat="44.13154" lon="2.93925">
        <ele>686</ele>
        <time>2010-01-01T01:49:28Z</time>
      </trkpt>
      <trkpt lat="44.13154" lon="2.93923">
        <ele>687</ele>
        <time>2010-01-01T01:49:28Z</time>
      </trkpt>
      <trkpt lat="44.13153" lon="2.93923">
        <ele>687</ele>
        <time>2010-01-01T01:49:29Z</time>
      </trkpt>
      <trkpt lat="44.13153" lon="2.93922">
        <ele>687</ele>
        <time>2010-01-01T01:49:29Z</time>
      </trkpt>
      <trkpt lat="44.13158" lon="2.93918">
        <ele>687</ele>
        <time>2010-01-01T01:49:31Z</time>
      </trkpt>
      <trkpt lat="44.1316" lon="2.93915">
        <ele>687</ele>
        <time>2010-01-01T01:49:32Z</time>
      </trkpt>
      <trkpt lat="44.13161" lon="2.93912">
        <ele>687</ele>
        <time>2010-01-01T01:49:33Z</time>
      </trkpt>
      <trkpt lat="44.13163" lon="2.93908">
        <ele>687</ele>
        <time>2010-01-01T01:49:35Z</time>
      </trkpt>
      <trkpt lat="44.13166" lon="2.93905">
        <ele>687</ele>
        <time>2010-01-01T01:49:36Z</time>
      </trkpt>
      <trkpt lat="44.13168" lon="2.93903">
        <ele>686</ele>
        <time>2010-01-01T01:49:37Z</time>
      </trkpt>
      <trkpt lat="44.13172" lon="2.93901">
        <ele>686</ele>
        <time>2010-01-01T01:49:39Z</time>
      </trkpt>
      <trkpt lat="44.13176" lon="2.93898">
        <ele>685</ele>
        <time>2010-01-01T01:49:41Z</time>
      </trkpt>
      <trkpt lat="44.1318" lon="2.93894">
        <ele>684</ele>
        <time>2010-01-01T01:49:43Z</time>
      </trkpt>
      <trkpt lat="44.13185" lon="2.9389">
        <ele>683</ele>
        <time>2010-01-01T01:49:45Z</time>
      </trkpt>
      <trkpt lat="44.13189" lon="2.93887">
        <ele>682</ele>
        <time>2010-01-01T01:49:47Z</time>
      </trkpt>
      <trkpt lat="44.13195" lon="2.93887">
        <ele>681</ele>
        <time>2010-01-01T01:49:49Z</time>
      </trkpt>
      <trkpt lat="44.13199" lon="2.93888">
        <ele>681</ele>
        <time>2010-01-01T01:49:51Z</time>
      </trkpt>
      <trkpt lat="44.13203" lon="2.93889">
        <ele>680</ele>
        <time>2010-01-01T01:49:53Z</time>
      </trkpt>
      <trkpt lat="44.13208" lon="2.9389">
        <ele>679</ele>
        <time>2010-01-01T01:49:55Z</time>
      </trkpt>
      <trkpt lat="44.13212" lon="2.93892">
        <ele>678</ele>
        <time>2010-01-01T01:49:57Z</time>
      </trkpt>
      <trkpt lat="44.13217" lon="2.93894">
        <ele>678</ele>
        <time>2010-01-01T01:49:59Z</time>
      </trkpt>
      <trkpt lat="44.13222" lon="2.93897">
        <ele>677</ele>
        <time>2010-01-01T01:50:01Z</time>
      </trkpt>
      <trkpt lat="44.13227" lon="2.93901">
        <ele>676</ele>
        <time>2010-01-01T01:50:03Z</time>
      </trkpt>
      <trkpt lat="44.13231" lon="2.93905">
        <ele>676</ele>
        <time>2010-01-01T01:50:05Z</time>
      </trkpt>
      <trkpt lat="44.13235" lon="2.93907">
        <ele>676</ele>
        <time>2010-01-01T01:50:07Z</time>
      </trkpt>
      <trkpt lat="44.13237" lon="2.9391">
        <ele>675</ele>
        <time>2010-01-01T01:50:08Z</time>
      </trkpt>
      <trkpt lat="44.1324" lon="2.93914">
        <ele>675</ele>
        <time>2010-01-01T01:50:09Z</time>
      </trkpt>
      <trkpt lat="44.13244" lon="2.93916">
        <ele>674</ele>
        <time>2010-01-01T01:50:11Z</time>
      </trkpt>
      <trkpt lat="44.13248" lon="2.93919">
        <ele>674</ele>
        <time>2010-01-01T01:50:13Z</time>
      </trkpt>
      <trkpt lat="44.13251" lon="2.93921">
        <ele>673</ele>
        <time>2010-01-01T01:50:14Z</time>
      </trkpt>
      <trkpt lat="44.13255" lon="2.93924">
        <ele>672</ele>
        <time>2010-01-01T01:50:16Z</time>
      </trkpt>
      <trkpt lat="44.13257" lon="2.93927">
        <ele>671</ele>
        <time>2010-01-01T01:50:17Z</time>
      </trkpt>
      <trkpt lat="44.13261" lon="2.93929">
        <ele>671</ele>
        <time>2010-01-01T01:50:19Z</time>
      </trkpt>
      <trkpt lat="44.13265" lon="2.93932">
        <ele>669</ele>
        <time>2010-01-01T01:50:21Z</time>
      </trkpt>
      <trkpt lat="44.13268" lon="2.93934">
        <ele>669</ele>
        <time>2010-01-01T01:50:22Z</time>
      </trkpt>
      <trkpt lat="44.13272" lon="2.93937">
        <ele>668</ele>
        <time>2010-01-01T01:50:24Z</time>
      </trkpt>
      <trkpt lat="44.13276" lon="2.93941">
        <ele>666</ele>
        <time>2010-01-01T01:50:26Z</time>
      </trkpt>
      <trkpt lat="44.1328" lon="2.93943">
        <ele>665</ele>
        <time>2010-01-01T01:50:28Z</time>
      </trkpt>
      <trkpt lat="44.13284" lon="2.93944">
        <ele>664</ele>
        <time>2010-01-01T01:50:29Z</time>
      </trkpt>
      <trkpt lat="44.13287" lon="2.93943">
        <ele>664</ele>
        <time>2010-01-01T01:50:31Z</time>
      </trkpt>
      <trkpt lat="44.1329" lon="2.93939">
        <ele>663</ele>
        <time>2010-01-01T01:50:32Z</time>
      </trkpt>
      <trkpt lat="44.13293" lon="2.93936">
        <ele>663</ele>
        <time>2010-01-01T01:50:34Z</time>
      </trkpt>
      <trkpt lat="44.13296" lon="2.93934">
        <ele>663</ele>
        <time>2010-01-01T01:50:35Z</time>
      </trkpt>
      <trkpt lat="44.133" lon="2.93931">
        <ele>662</ele>
        <time>2010-01-01T01:50:37Z</time>
      </trkpt>
      <trkpt lat="44.13304" lon="2.93929">
        <ele>662</ele>
        <time>2010-01-01T01:50:38Z</time>
      </trkpt>
      <trkpt lat="44.13308" lon="2.93926">
        <ele>661</ele>
        <time>2010-01-01T01:50:40Z</time>
      </trkpt>
      <trkpt lat="44.13312" lon="2.93921">
        <ele>661</ele>
        <time>2010-01-01T01:50:42Z</time>
      </trkpt>
      <trkpt lat="44.13314" lon="2.93915">
        <ele>660</ele>
        <time>2010-01-01T01:50:44Z</time>
      </trkpt>
      <trkpt lat="44.13317" lon="2.93911">
        <ele>660</ele>
        <time>2010-01-01T01:50:46Z</time>
      </trkpt>
      <trkpt lat="44.1332" lon="2.93906">
        <ele>659</ele>
        <time>2010-01-01T01:50:48Z</time>
      </trkpt>
      <trkpt lat="44.13323" lon="2.93903">
        <ele>659</ele>
        <time>2010-01-01T01:50:49Z</time>
      </trkpt>
      <trkpt lat="44.13326" lon="2.939">
        <ele>658</ele>
        <time>2010-01-01T01:50:51Z</time>
      </trkpt>
      <trkpt lat="44.13328" lon="2.93895">
        <ele>658</ele>
        <time>2010-01-01T01:50:52Z</time>
      </trkpt>
      <trkpt lat="44.13331" lon="2.93891">
        <ele>658</ele>
        <time>2010-01-01T01:50:54Z</time>
      </trkpt>
      <trkpt lat="44.13335" lon="2.93885">
        <ele>657</ele>
        <time>2010-01-01T01:50:56Z</time>
      </trkpt>
      <trkpt lat="44.13338" lon="2.93879">
        <ele>655</ele>
        <time>2010-01-01T01:50:58Z</time>
      </trkpt>
      <trkpt lat="44.1334" lon="2.93874">
        <ele>654</ele>
        <time>2010-01-01T01:51:00Z</time>
      </trkpt>
      <trkpt lat="44.13342" lon="2.93873">
        <ele>653</ele>
        <time>2010-01-01T01:51:01Z</time>
      </trkpt>
      <trkpt lat="44.13342" lon="2.93877">
        <ele>653</ele>
        <time>2010-01-01T01:51:02Z</time>
      </trkpt>
      <trkpt lat="44.13342" lon="2.9388">
        <ele>654</ele>
        <time>2010-01-01T01:51:03Z</time>
      </trkpt>
      <trkpt lat="44.13342" lon="2.93884">
        <ele>654</ele>
        <time>2010-01-01T01:51:04Z</time>
      </trkpt>
      <trkpt lat="44.13343" lon="2.93888">
        <ele>653</ele>
        <time>2010-01-01T01:51:05Z</time>
      </trkpt>
      <trkpt lat="44.13344" lon="2.93892">
        <ele>653</ele>
        <time>2010-01-01T01:51:07Z</time>
      </trkpt>
      <trkpt lat="44.13344" lon="2.93892">
        <ele>653</ele>
        <time>2010-01-01T01:51:07Z</time>
      </trkpt>
      <trkpt lat="44.13345" lon="2.93894">
        <ele>652</ele>
        <time>2010-01-01T01:51:07Z</time>
      </trkpt>
      <trkpt lat="44.13345" lon="2.93896">
        <ele>652</ele>
        <time>2010-01-01T01:51:08Z</time>
      </trkpt>
      <trkpt lat="44.13345" lon="2.93898">
        <ele>652</ele>
        <time>2010-01-01T01:51:09Z</time>
      </trkpt>
      <trkpt lat="44.13345" lon="2.93899">
        <ele>652</ele>
        <time>2010-01-01T01:51:09Z</time>
      </trkpt>
      <trkpt lat="44.13346" lon="2.93899">
        <ele>652</ele>
        <time>2010-01-01T01:51:09Z</time>
      </trkpt>
      <trkpt lat="44.13346" lon="2.939">
        <ele>652</ele>
        <time>2010-01-01T01:51:09Z</time>
      </trkpt>
      <trkpt lat="44.13349" lon="2.93908">
        <ele>650</ele>
        <time>2010-01-01T01:51:12Z</time>
      </trkpt>
      <trkpt lat="44.1335" lon="2.93914">
        <ele>649</ele>
        <time>2010-01-01T01:51:14Z</time>
      </trkpt>
      <trkpt lat="44.13351" lon="2.93922">
        <ele>648</ele>
        <time>2010-01-01T01:51:16Z</time>
      </trkpt>
      <trkpt lat="44.1335" lon="2.9393">
        <ele>648</ele>
        <time>2010-01-01T01:51:18Z</time>
      </trkpt>
      <trkpt lat="44.13348" lon="2.93937">
        <ele>648</ele>
        <time>2010-01-01T01:51:21Z</time>
      </trkpt>
      <trkpt lat="44.13348" lon="2.93946">
        <ele>647</ele>
        <time>2010-01-01T01:51:23Z</time>
      </trkpt>
      <trkpt lat="44.13351" lon="2.93947">
        <ele>646</ele>
        <time>2010-01-01T01:51:24Z</time>
      </trkpt>
      <trkpt lat="44.13355" lon="2.93942">
        <ele>645</ele>
        <time>2010-01-01T01:51:26Z</time>
      </trkpt>
      <trkpt lat="44.13359" lon="2.93935">
        <ele>644</ele>
        <time>2010-01-01T01:51:29Z</time>
      </trkpt>
      <trkpt lat="44.13364" lon="2.93928">
        <ele>642</ele>
        <time>2010-01-01T01:51:32Z</time>
      </trkpt>
      <trkpt lat="44.13371" lon="2.93921">
        <ele>640</ele>
        <time>2010-01-01T01:51:35Z</time>
      </trkpt>
      <trkpt lat="44.13377" lon="2.93915">
        <ele>638</ele>
        <time>2010-01-01T01:51:38Z</time>
      </trkpt>
      <trkpt lat="44.1338" lon="2.93908">
        <ele>638</ele>
        <time>2010-01-01T01:51:40Z</time>
      </trkpt>
      <trkpt lat="44.13384" lon="2.93901">
        <ele>636</ele>
        <time>2010-01-01T01:51:43Z</time>
      </trkpt>
      <trkpt lat="44.13391" lon="2.93891">
        <ele>635</ele>
        <time>2010-01-01T01:51:47Z</time>
      </trkpt>
      <trkpt lat="44.13395" lon="2.93884">
        <ele>633</ele>
        <time>2010-01-01T01:51:50Z</time>
      </trkpt>
      <trkpt lat="44.13398" lon="2.93874">
        <ele>632</ele>
        <time>2010-01-01T01:51:53Z</time>
      </trkpt>
      <trkpt lat="44.13402" lon="2.93865">
        <ele>630</ele>
        <time>2010-01-01T01:51:56Z</time>
      </trkpt>
      <trkpt lat="44.13406" lon="2.93856">
        <ele>628</ele>
        <time>2010-01-01T01:51:59Z</time>
      </trkpt>
      <trkpt lat="44.1341" lon="2.93851">
        <ele>626</ele>
        <time>2010-01-01T01:52:01Z</time>
      </trkpt>
      <trkpt lat="44.13413" lon="2.93846">
        <ele>625</ele>
        <time>2010-01-01T01:52:03Z</time>
      </trkpt>
      <trkpt lat="44.13416" lon="2.93839">
        <ele>624</ele>
        <time>2010-01-01T01:52:05Z</time>
      </trkpt>
      <trkpt lat="44.13417" lon="2.93832">
        <ele>623</ele>
        <time>2010-01-01T01:52:07Z</time>
      </trkpt>
      <trkpt lat="44.13416" lon="2.93824">
        <ele>623</ele>
        <time>2010-01-01T01:52:10Z</time>
      </trkpt>
      <trkpt lat="44.13416" lon="2.93816">
        <ele>623</ele>
        <time>2010-01-01T01:52:12Z</time>
      </trkpt>
      <trkpt lat="44.13416" lon="2.93807">
        <ele>623</ele>
        <time>2010-01-01T01:52:14Z</time>
      </trkpt>
      <trkpt lat="44.13413" lon="2.93797">
        <ele>623</ele>
        <time>2010-01-01T01:52:18Z</time>
      </trkpt>
      <trkpt lat="44.13409" lon="2.93792">
        <ele>624</ele>
        <time>2010-01-01T01:52:20Z</time>
      </trkpt>
      <trkpt lat="44.13407" lon="2.93785">
        <ele>624</ele>
        <time>2010-01-01T01:52:22Z</time>
      </trkpt>
      <trkpt lat="44.13406" lon="2.9378">
        <ele>624</ele>
        <time>2010-01-01T01:52:24Z</time>
      </trkpt>
      <trkpt lat="44.13401" lon="2.93772">
        <ele>624</ele>
        <time>2010-01-01T01:52:26Z</time>
      </trkpt>
      <trkpt lat="44.13398" lon="2.93764">
        <ele>625</ele>
        <time>2010-01-01T01:52:29Z</time>
      </trkpt>
      <trkpt lat="44.13396" lon="2.93754">
        <ele>624</ele>
        <time>2010-01-01T01:52:32Z</time>
      </trkpt>
      <trkpt lat="44.13394" lon="2.93744">
        <ele>624</ele>
        <time>2010-01-01T01:52:35Z</time>
      </trkpt>
      <trkpt lat="44.13389" lon="2.93738">
        <ele>625</ele>
        <time>2010-01-01T01:52:37Z</time>
      </trkpt>
      <trkpt lat="44.13387" lon="2.93732">
        <ele>625</ele>
        <time>2010-01-01T01:52:39Z</time>
      </trkpt>
      <trkpt lat="44.13387" lon="2.93726">
        <ele>625</ele>
        <time>2010-01-01T01:52:41Z</time>
      </trkpt>
      <trkpt lat="44.13391" lon="2.93724">
        <ele>624</ele>
        <time>2010-01-01T01:52:43Z</time>
      </trkpt>
      <trkpt lat="44.13395" lon="2.93723">
        <ele>623</ele>
        <time>2010-01-01T01:52:45Z</time>
      </trkpt>
      <trkpt lat="44.13398" lon="2.93725">
        <ele>623</ele>
        <time>2010-01-01T01:52:46Z</time>
      </trkpt>
      <trkpt lat="44.13403" lon="2.93733">
        <ele>622</ele>
        <time>2010-01-01T01:52:49Z</time>
      </trkpt>
      <trkpt lat="44.13406" lon="2.93739">
        <ele>622</ele>
        <time>2010-01-01T01:52:51Z</time>
      </trkpt>
      <trkpt lat="44.13409" lon="2.93745">
        <ele>621</ele>
        <time>2010-01-01T01:52:53Z</time>
      </trkpt>
      <trkpt lat="44.13411" lon="2.93752">
        <ele>621</ele>
        <time>2010-01-01T01:52:55Z</time>
      </trkpt>
      <trkpt lat="44.13414" lon="2.93759">
        <ele>620</ele>
        <time>2010-01-01T01:52:58Z</time>
      </trkpt>
      <trkpt lat="44.13418" lon="2.93764">
        <ele>620</ele>
        <time>2010-01-01T01:53:00Z</time>
      </trkpt>
      <trkpt lat="44.13422" lon="2.93767">
        <ele>619</ele>
        <time>2010-01-01T01:53:01Z</time>
      </trkpt>
      <trkpt lat="44.13422" lon="2.93768">
        <ele>619</ele>
        <time>2010-01-01T01:53:02Z</time>
      </trkpt>
      <trkpt lat="44.13423" lon="2.93768">
        <ele>619</ele>
        <time>2010-01-01T01:53:02Z</time>
      </trkpt>
      <trkpt lat="44.13426" lon="2.93768">
        <ele>619</ele>
        <time>2010-01-01T01:53:03Z</time>
      </trkpt>
      <trkpt lat="44.13426" lon="2.93767">
        <ele>619</ele>
        <time>2010-01-01T01:53:03Z</time>
      </trkpt>
      <trkpt lat="44.13425" lon="2.93767">
        <ele>619</ele>
        <time>2010-01-01T01:53:04Z</time>
      </trkpt>
      <trkpt lat="44.13425" lon="2.93767">
        <ele>619</ele>
        <time>2010-01-01T01:53:04Z</time>
      </trkpt>
      <trkpt lat="44.13427" lon="2.93772">
        <ele>618</ele>
        <time>2010-01-01T01:53:05Z</time>
      </trkpt>
      <trkpt lat="44.13431" lon="2.93775">
        <ele>617</ele>
        <time>2010-01-01T01:53:07Z</time>
      </trkpt>
      <trkpt lat="44.13432" lon="2.93781">
        <ele>617</ele>
        <time>2010-01-01T01:53:09Z</time>
      </trkpt>
      <trkpt lat="44.13434" lon="2.93789">
        <ele>617</ele>
        <time>2010-01-01T01:53:11Z</time>
      </trkpt>
      <trkpt lat="44.13438" lon="2.93795">
        <ele>616</ele>
        <time>2010-01-01T01:53:14Z</time>
      </trkpt>
      <trkpt lat="44.13441" lon="2.93802">
        <ele>615</ele>
        <time>2010-01-01T01:53:16Z</time>
      </trkpt>
      <trkpt lat="44.13441" lon="2.9381">
        <ele>614</ele>
        <time>2010-01-01T01:53:18Z</time>
      </trkpt>
      <trkpt lat="44.13443" lon="2.93821">
        <ele>613</ele>
        <time>2010-01-01T01:53:22Z</time>
      </trkpt>
      <trkpt lat="44.13445" lon="2.93831">
        <ele>611</ele>
        <time>2010-01-01T01:53:25Z</time>
      </trkpt>
      <trkpt lat="44.13447" lon="2.93841">
        <ele>610</ele>
        <time>2010-01-01T01:53:28Z</time>
      </trkpt>
      <trkpt lat="44.13447" lon="2.93853">
        <ele>610</ele>
        <time>2010-01-01T01:53:31Z</time>
      </trkpt>
      <trkpt lat="44.13448" lon="2.93866">
        <ele>609</ele>
        <time>2010-01-01T01:53:35Z</time>
      </trkpt>
      <trkpt lat="44.13447" lon="2.93881">
        <ele>608</ele>
        <time>2010-01-01T01:53:39Z</time>
      </trkpt>
      <trkpt lat="44.13448" lon="2.93894">
        <ele>607</ele>
        <time>2010-01-01T01:53:43Z</time>
      </trkpt>
      <trkpt lat="44.13455" lon="2.9391">
        <ele>603</ele>
        <time>2010-01-01T01:53:48Z</time>
      </trkpt>
      <trkpt lat="44.13457" lon="2.93925">
        <ele>602</ele>
        <time>2010-01-01T01:53:53Z</time>
      </trkpt>
      <trkpt lat="44.1346" lon="2.93939">
        <ele>601</ele>
        <time>2010-01-01T01:53:57Z</time>
      </trkpt>
      <trkpt lat="44.13461" lon="2.93949">
        <ele>600</ele>
        <time>2010-01-01T01:54:00Z</time>
      </trkpt>
      <trkpt lat="44.13464" lon="2.93958">
        <ele>597</ele>
        <time>2010-01-01T01:54:03Z</time>
      </trkpt>
      <trkpt lat="44.13465" lon="2.93967">
        <ele>596</ele>
        <time>2010-01-01T01:54:05Z</time>
      </trkpt>
      <trkpt lat="44.13464" lon="2.93978">
        <ele>595</ele>
        <time>2010-01-01T01:54:08Z</time>
      </trkpt>
      <trkpt lat="44.13468" lon="2.93989">
        <ele>592</ele>
        <time>2010-01-01T01:54:12Z</time>
      </trkpt>
      <trkpt lat="44.13469" lon="2.94">
        <ele>591</ele>
        <time>2010-01-01T01:54:15Z</time>
      </trkpt>
      <trkpt lat="44.13472" lon="2.9401">
        <ele>588</ele>
        <time>2010-01-01T01:54:18Z</time>
      </trkpt>
      <trkpt lat="44.13476" lon="2.94019">
        <ele>586</ele>
        <time>2010-01-01T01:54:21Z</time>
      </trkpt>
      <trkpt lat="44.13474" lon="2.94028">
        <ele>584</ele>
        <time>2010-01-01T01:54:24Z</time>
      </trkpt>
      <trkpt lat="44.13472" lon="2.94032">
        <ele>584</ele>
        <time>2010-01-01T01:54:25Z</time>
      </trkpt>
      <trkpt lat="44.13465" lon="2.94034">
        <ele>587</ele>
        <time>2010-01-01T01:54:28Z</time>
      </trkpt>
      <trkpt lat="44.1346" lon="2.94037">
        <ele>588</ele>
        <time>2010-01-01T01:54:30Z</time>
      </trkpt>
      <trkpt lat="44.13452" lon="2.94043">
        <ele>590</ele>
        <time>2010-01-01T01:54:34Z</time>
      </trkpt>
      <trkpt lat="44.13446" lon="2.9405">
        <ele>590</ele>
        <time>2010-01-01T01:54:37Z</time>
      </trkpt>
      <trkpt lat="44.13439" lon="2.94057">
        <ele>591</ele>
        <time>2010-01-01T01:54:41Z</time>
      </trkpt>
      <trkpt lat="44.13434" lon="2.94065">
        <ele>592</ele>
        <time>2010-01-01T01:54:44Z</time>
      </trkpt>
      <trkpt lat="44.1343" lon="2.94074">
        <ele>592</ele>
        <time>2010-01-01T01:54:47Z</time>
      </trkpt>
      <trkpt lat="44.13423" lon="2.94087">
        <ele>592</ele>
        <time>2010-01-01T01:54:51Z</time>
      </trkpt>
      <trkpt lat="44.13418" lon="2.94102">
        <ele>591</ele>
        <time>2010-01-01T01:54:56Z</time>
      </trkpt>
      <trkpt lat="44.13417" lon="2.94116">
        <ele>589</ele>
        <time>2010-01-01T01:55:00Z</time>
      </trkpt>
      <trkpt lat="44.13417" lon="2.94131">
        <ele>587</ele>
        <time>2010-01-01T01:55:04Z</time>
      </trkpt>
      <trkpt lat="44.13417" lon="2.94145">
        <ele>584</ele>
        <time>2010-01-01T01:55:09Z</time>
      </trkpt>
      <trkpt lat="44.13422" lon="2.94158">
        <ele>581</ele>
        <time>2010-01-01T01:55:13Z</time>
      </trkpt>
      <trkpt lat="44.1343" lon="2.94166">
        <ele>578</ele>
        <time>2010-01-01T01:55:17Z</time>
      </trkpt>
      <trkpt lat="44.13435" lon="2.94165">
        <ele>577</ele>
        <time>2010-01-01T01:55:19Z</time>
      </trkpt>
      <trkpt lat="44.13435" lon="2.94166">
        <ele>577</ele>
        <time>2010-01-01T01:55:19Z</time>
      </trkpt>
      <trkpt lat="44.13435" lon="2.94167">
        <ele>577</ele>
        <time>2010-01-01T01:55:19Z</time>
      </trkpt>
      <trkpt lat="44.13436" lon="2.94167">
        <ele>576</ele>
        <time>2010-01-01T01:55:20Z</time>
      </trkpt>
      <trkpt lat="44.13435" lon="2.94168">
        <ele>576</ele>
        <time>2010-01-01T01:55:20Z</time>
      </trkpt>
      <trkpt lat="44.13444" lon="2.94167">
        <ele>575</ele>
        <time>2010-01-01T01:55:23Z</time>
      </trkpt>
      <trkpt lat="44.13447" lon="2.94168">
        <ele>575</ele>
        <time>2010-01-01T01:55:24Z</time>
      </trkpt>
      <trkpt lat="44.13451" lon="2.94168">
        <ele>576</ele>
        <time>2010-01-01T01:55:26Z</time>
      </trkpt>
      <trkpt lat="44.13454" lon="2.94172">
        <ele>576</ele>
        <time>2010-01-01T01:55:28Z</time>
      </trkpt>
      <trkpt lat="44.13459" lon="2.94176">
        <ele>577</ele>
        <time>2010-01-01T01:55:30Z</time>
      </trkpt>
      <trkpt lat="44.13464" lon="2.94182">
        <ele>577</ele>
        <time>2010-01-01T01:55:32Z</time>
      </trkpt>
      <trkpt lat="44.13469" lon="2.94187">
        <ele>577</ele>
        <time>2010-01-01T01:55:35Z</time>
      </trkpt>
      <trkpt lat="44.13472" lon="2.94192">
        <ele>578</ele>
        <time>2010-01-01T01:55:37Z</time>
      </trkpt>
      <trkpt lat="44.13475" lon="2.94198">
        <ele>578</ele>
        <time>2010-01-01T01:55:39Z</time>
      </trkpt>
      <trkpt lat="44.13478" lon="2.94204">
        <ele>579</ele>
        <time>2010-01-01T01:55:41Z</time>
      </trkpt>
      <trkpt lat="44.13481" lon="2.94209">
        <ele>580</ele>
        <time>2010-01-01T01:55:43Z</time>
      </trkpt>
      <trkpt lat="44.13484" lon="2.94214">
        <ele>580</ele>
        <time>2010-01-01T01:55:45Z</time>
      </trkpt>
      <trkpt lat="44.13486" lon="2.94218">
        <ele>581</ele>
        <time>2010-01-01T01:55:46Z</time>
      </trkpt>
      <trkpt lat="44.13488" lon="2.94223">
        <ele>581</ele>
        <time>2010-01-01T01:55:48Z</time>
      </trkpt>
      <trkpt lat="44.13489" lon="2.94229">
        <ele>582</ele>
        <time>2010-01-01T01:55:50Z</time>
      </trkpt>
      <trkpt lat="44.13489" lon="2.94234">
        <ele>582</ele>
        <time>2010-01-01T01:55:51Z</time>
      </trkpt>
      <trkpt lat="44.13488" lon="2.9424">
        <ele>581</ele>
        <time>2010-01-01T01:55:53Z</time>
      </trkpt>
      <trkpt lat="44.13487" lon="2.94247">
        <ele>580</ele>
        <time>2010-01-01T01:55:55Z</time>
      </trkpt>
      <trkpt lat="44.13485" lon="2.94255">
        <ele>580</ele>
        <time>2010-01-01T01:55:57Z</time>
      </trkpt>
      <trkpt lat="44.13484" lon="2.94262">
        <ele>580</ele>
        <time>2010-01-01T01:56:00Z</time>
      </trkpt>
      <trkpt lat="44.13482" lon="2.94269">
        <ele>580</ele>
        <time>2010-01-01T01:56:02Z</time>
      </trkpt>
      <trkpt lat="44.1348" lon="2.94274">
        <ele>579</ele>
        <time>2010-01-01T01:56:03Z</time>
      </trkpt>
      <trkpt lat="44.13477" lon="2.9428">
        <ele>579</ele>
        <time>2010-01-01T01:56:05Z</time>
      </trkpt>
      <trkpt lat="44.13475" lon="2.94287">
        <ele>579</ele>
        <time>2010-01-01T01:56:07Z</time>
      </trkpt>
      <trkpt lat="44.13474" lon="2.94292">
        <ele>579</ele>
        <time>2010-01-01T01:56:09Z</time>
      </trkpt>
      <trkpt lat="44.13472" lon="2.94297">
        <ele>579</ele>
        <time>2010-01-01T01:56:11Z</time>
      </trkpt>
      <trkpt lat="44.13471" lon="2.94303">
        <ele>580</ele>
        <time>2010-01-01T01:56:12Z</time>
      </trkpt>
      <trkpt lat="44.13469" lon="2.94307">
        <ele>580</ele>
        <time>2010-01-01T01:56:14Z</time>
      </trkpt>
      <trkpt lat="44.13465" lon="2.9431">
        <ele>580</ele>
        <time>2010-01-01T01:56:15Z</time>
      </trkpt>
      <trkpt lat="44.13461" lon="2.94312">
        <ele>579</ele>
        <time>2010-01-01T01:56:17Z</time>
      </trkpt>
      <trkpt lat="44.13457" lon="2.94313">
        <ele>578</ele>
        <time>2010-01-01T01:56:19Z</time>
      </trkpt>
      <trkpt lat="44.13453" lon="2.94314">
        <ele>578</ele>
        <time>2010-01-01T01:56:20Z</time>
      </trkpt>
      <trkpt lat="44.1345" lon="2.94314">
        <ele>577</ele>
        <time>2010-01-01T01:56:22Z</time>
      </trkpt>
      <trkpt lat="44.13446" lon="2.94315">
        <ele>576</ele>
        <time>2010-01-01T01:56:24Z</time>
      </trkpt>
      <trkpt lat="44.13441" lon="2.94317">
        <ele>576</ele>
        <time>2010-01-01T01:56:25Z</time>
      </trkpt>
      <trkpt lat="44.13436" lon="2.94319">
        <ele>576</ele>
        <time>2010-01-01T01:56:27Z</time>
      </trkpt>
      <trkpt lat="44.13432" lon="2.94319">
        <ele>575</ele>
        <time>2010-01-01T01:56:29Z</time>
      </trkpt>
      <trkpt lat="44.13428" lon="2.94318">
        <ele>574</ele>
        <time>2010-01-01T01:56:31Z</time>
      </trkpt>
      <trkpt lat="44.13423" lon="2.9432">
        <ele>574</ele>
        <time>2010-01-01T01:56:33Z</time>
      </trkpt>
      <trkpt lat="44.13419" lon="2.94322">
        <ele>574</ele>
        <time>2010-01-01T01:56:34Z</time>
      </trkpt>
      <trkpt lat="44.13416" lon="2.94324">
        <ele>574</ele>
        <time>2010-01-01T01:56:36Z</time>
      </trkpt>
      <trkpt lat="44.13412" lon="2.94328">
        <ele>574</ele>
        <time>2010-01-01T01:56:38Z</time>
      </trkpt>
      <trkpt lat="44.1341" lon="2.94332">
        <ele>575</ele>
        <time>2010-01-01T01:56:39Z</time>
      </trkpt>
      <trkpt lat="44.13407" lon="2.94336">
        <ele>575</ele>
        <time>2010-01-01T01:56:41Z</time>
      </trkpt>
      <trkpt lat="44.13404" lon="2.94342">
        <ele>575</ele>
        <time>2010-01-01T01:56:43Z</time>
      </trkpt>
      <trkpt lat="44.13402" lon="2.94348">
        <ele>576</ele>
        <time>2010-01-01T01:56:45Z</time>
      </trkpt>
      <trkpt lat="44.13401" lon="2.94354">
        <ele>577</ele>
        <time>2010-01-01T01:56:47Z</time>
      </trkpt>
      <trkpt lat="44.134" lon="2.94361">
        <ele>578</ele>
        <time>2010-01-01T01:56:49Z</time>
      </trkpt>
      <trkpt lat="44.13398" lon="2.94367">
        <ele>579</ele>
        <time>2010-01-01T01:56:51Z</time>
      </trkpt>
      <trkpt lat="44.13395" lon="2.94372">
        <ele>580</ele>
        <time>2010-01-01T01:56:53Z</time>
      </trkpt>
      <trkpt lat="44.13391" lon="2.94376">
        <ele>580</ele>
        <time>2010-01-01T01:56:54Z</time>
      </trkpt>
      <trkpt lat="44.13388" lon="2.94379">
        <ele>580</ele>
        <time>2010-01-01T01:56:56Z</time>
      </trkpt>
      <trkpt lat="44.13385" lon="2.94383">
        <ele>580</ele>
        <time>2010-01-01T01:56:58Z</time>
      </trkpt>
      <trkpt lat="44.13383" lon="2.94386">
        <ele>580</ele>
        <time>2010-01-01T01:56:59Z</time>
      </trkpt>
      <trkpt lat="44.1338" lon="2.9439">
        <ele>580</ele>
        <time>2010-01-01T01:57:00Z</time>
      </trkpt>
      <trkpt lat="44.13378" lon="2.94395">
        <ele>581</ele>
        <time>2010-01-01T01:57:02Z</time>
      </trkpt>
      <trkpt lat="44.13376" lon="2.94399">
        <ele>581</ele>
        <time>2010-01-01T01:57:03Z</time>
      </trkpt>
      <trkpt lat="44.13375" lon="2.94402">
        <ele>581</ele>
        <time>2010-01-01T01:57:05Z</time>
      </trkpt>
      <trkpt lat="44.13371" lon="2.94409">
        <ele>582</ele>
        <time>2010-01-01T01:57:07Z</time>
      </trkpt>
      <trkpt lat="44.13369" lon="2.94413">
        <ele>582</ele>
        <time>2010-01-01T01:57:08Z</time>
      </trkpt>
      <trkpt lat="44.13366" lon="2.94418">
        <ele>582</ele>
        <time>2010-01-01T01:57:10Z</time>
      </trkpt>
      <trkpt lat="44.13363" lon="2.94424">
        <ele>583</ele>
        <time>2010-01-01T01:57:12Z</time>
      </trkpt>
      <trkpt lat="44.1336" lon="2.9443">
        <ele>583</ele>
        <time>2010-01-01T01:57:15Z</time>
      </trkpt>
      <trkpt lat="44.13357" lon="2.94435">
        <ele>584</ele>
        <time>2010-01-01T01:57:16Z</time>
      </trkpt>
      <trkpt lat="44.13355" lon="2.9444">
        <ele>584</ele>
        <time>2010-01-01T01:57:18Z</time>
      </trkpt>
      <trkpt lat="44.13353" lon="2.94445">
        <ele>585</ele>
        <time>2010-01-01T01:57:20Z</time>
      </trkpt>
      <trkpt lat="44.1335" lon="2.94451">
        <ele>585</ele>
        <time>2010-01-01T01:57:22Z</time>
      </trkpt>
      <trkpt lat="44.13348" lon="2.94456">
        <ele>586</ele>
        <time>2010-01-01T01:57:23Z</time>
      </trkpt>
      <trkpt lat="44.13346" lon="2.94461">
        <ele>586</ele>
        <time>2010-01-01T01:57:25Z</time>
      </trkpt>
      <trkpt lat="44.13344" lon="2.94466">
        <ele>586</ele>
        <time>2010-01-01T01:57:27Z</time>
      </trkpt>
      <trkpt lat="44.13342" lon="2.94471">
        <ele>587</ele>
        <time>2010-01-01T01:57:28Z</time>
      </trkpt>
      <trkpt lat="44.1334" lon="2.94477">
        <ele>587</ele>
        <time>2010-01-01T01:57:30Z</time>
      </trkpt>
      <trkpt lat="44.13337" lon="2.94482">
        <ele>588</ele>
        <time>2010-01-01T01:57:32Z</time>
      </trkpt>
      <trkpt lat="44.13335" lon="2.94488">
        <ele>588</ele>
        <time>2010-01-01T01:57:34Z</time>
      </trkpt>
      <trkpt lat="44.13333" lon="2.94493">
        <ele>588</ele>
        <time>2010-01-01T01:57:36Z</time>
      </trkpt>
      <trkpt lat="44.13331" lon="2.94499">
        <ele>588</ele>
        <time>2010-01-01T01:57:38Z</time>
      </trkpt>
      <trkpt lat="44.13329" lon="2.94504">
        <ele>589</ele>
        <time>2010-01-01T01:57:39Z</time>
      </trkpt>
      <trkpt lat="44.13326" lon="2.9451">
        <ele>589</ele>
        <time>2010-01-01T01:57:41Z</time>
      </trkpt>
      <trkpt lat="44.13324" lon="2.94514">
        <ele>590</ele>
        <time>2010-01-01T01:57:43Z</time>
      </trkpt>
      <trkpt lat="44.13322" lon="2.94519">
        <ele>591</ele>
        <time>2010-01-01T01:57:44Z</time>
      </trkpt>
      <trkpt lat="44.1332" lon="2.94524">
        <ele>591</ele>
        <time>2010-01-01T01:57:46Z</time>
      </trkpt>
      <trkpt lat="44.13318" lon="2.94528">
        <ele>592</ele>
        <time>2010-01-01T01:57:47Z</time>
      </trkpt>
      <trkpt lat="44.13316" lon="2.94533">
        <ele>592</ele>
        <time>2010-01-01T01:57:49Z</time>
      </trkpt>
      <trkpt lat="44.13313" lon="2.94539">
        <ele>593</ele>
        <time>2010-01-01T01:57:51Z</time>
      </trkpt>
      <trkpt lat="44.13311" lon="2.94543">
        <ele>594</ele>
        <time>2010-01-01T01:57:53Z</time>
      </trkpt>
      <trkpt lat="44.13308" lon="2.94548">
        <ele>594</ele>
        <time>2010-01-01T01:57:54Z</time>
      </trkpt>
      <trkpt lat="44.13305" lon="2.94553">
        <ele>595</ele>
        <time>2010-01-01T01:57:56Z</time>
      </trkpt>
      <trkpt lat="44.13302" lon="2.94558">
        <ele>595</ele>
        <time>2010-01-01T01:57:58Z</time>
      </trkpt>
      <trkpt lat="44.133" lon="2.94562">
        <ele>595</ele>
        <time>2010-01-01T01:58:00Z</time>
      </trkpt>
      <trkpt lat="44.13298" lon="2.94566">
        <ele>595</ele>
        <time>2010-01-01T01:58:01Z</time>
      </trkpt>
      <trkpt lat="44.13296" lon="2.9457">
        <ele>596</ele>
        <time>2010-01-01T01:58:02Z</time>
      </trkpt>
      <trkpt lat="44.13293" lon="2.94574">
        <ele>596</ele>
        <time>2010-01-01T01:58:04Z</time>
      </trkpt>
      <trkpt lat="44.1329" lon="2.94579">
        <ele>596</ele>
        <time>2010-01-01T01:58:06Z</time>
      </trkpt>
      <trkpt lat="44.13288" lon="2.94582">
        <ele>596</ele>
        <time>2010-01-01T01:58:07Z</time>
      </trkpt>
      <trkpt lat="44.13285" lon="2.94586">
        <ele>596</ele>
        <time>2010-01-01T01:58:09Z</time>
      </trkpt>
      <trkpt lat="44.13282" lon="2.9459">
        <ele>597</ele>
        <time>2010-01-01T01:58:10Z</time>
      </trkpt>
      <trkpt lat="44.13279" lon="2.94592">
        <ele>596</ele>
        <time>2010-01-01T01:58:12Z</time>
      </trkpt>
      <trkpt lat="44.13275" lon="2.94594">
        <ele>596</ele>
        <time>2010-01-01T01:58:13Z</time>
      </trkpt>
      <trkpt lat="44.13271" lon="2.94597">
        <ele>596</ele>
        <time>2010-01-01T01:58:15Z</time>
      </trkpt>
      <trkpt lat="44.13268" lon="2.94599">
        <ele>596</ele>
        <time>2010-01-01T01:58:17Z</time>
      </trkpt>
      <trkpt lat="44.13264" lon="2.94602">
        <ele>596</ele>
        <time>2010-01-01T01:58:18Z</time>
      </trkpt>
      <trkpt lat="44.13261" lon="2.94604">
        <ele>596</ele>
        <time>2010-01-01T01:58:20Z</time>
      </trkpt>
      <trkpt lat="44.13257" lon="2.94607">
        <ele>596</ele>
        <time>2010-01-01T01:58:21Z</time>
      </trkpt>
      <trkpt lat="44.13253" lon="2.94609">
        <ele>596</ele>
        <time>2010-01-01T01:58:23Z</time>
      </trkpt>
      <trkpt lat="44.13249" lon="2.9461">
        <ele>596</ele>
        <time>2010-01-01T01:58:25Z</time>
      </trkpt>
      <trkpt lat="44.13244" lon="2.94612">
        <ele>596</ele>
        <time>2010-01-01T01:58:27Z</time>
      </trkpt>
      <trkpt lat="44.1324" lon="2.94613">
        <ele>597</ele>
        <time>2010-01-01T01:58:29Z</time>
      </trkpt>
      <trkpt lat="44.13236" lon="2.94614">
        <ele>597</ele>
        <time>2010-01-01T01:58:30Z</time>
      </trkpt>
      <trkpt lat="44.13232" lon="2.94615">
        <ele>597</ele>
        <time>2010-01-01T01:58:32Z</time>
      </trkpt>
      <trkpt lat="44.13228" lon="2.94616">
        <ele>597</ele>
        <time>2010-01-01T01:58:34Z</time>
      </trkpt>
      <trkpt lat="44.13223" lon="2.94617">
        <ele>597</ele>
        <time>2010-01-01T01:58:35Z</time>
      </trkpt>
      <trkpt lat="44.13219" lon="2.94617">
        <ele>596</ele>
        <time>2010-01-01T01:58:37Z</time>
      </trkpt>
      <trkpt lat="44.13214" lon="2.94619">
        <ele>595</ele>
        <time>2010-01-01T01:58:39Z</time>
      </trkpt>
      <trkpt lat="44.13209" lon="2.9462">
        <ele>595</ele>
        <time>2010-01-01T01:58:41Z</time>
      </trkpt>
      <trkpt lat="44.13206" lon="2.94621">
        <ele>594</ele>
        <time>2010-01-01T01:58:43Z</time>
      </trkpt>
      <trkpt lat="44.13202" lon="2.94622">
        <ele>594</ele>
        <time>2010-01-01T01:58:44Z</time>
      </trkpt>
      <trkpt lat="44.13196" lon="2.94622">
        <ele>593</ele>
        <time>2010-01-01T01:58:46Z</time>
      </trkpt>
      <trkpt lat="44.13191" lon="2.94624">
        <ele>592</ele>
        <time>2010-01-01T01:58:48Z</time>
      </trkpt>
      <trkpt lat="44.13186" lon="2.94625">
        <ele>592</ele>
        <time>2010-01-01T01:58:50Z</time>
      </trkpt>
      <trkpt lat="44.13182" lon="2.9463">
        <ele>593</ele>
        <time>2010-01-01T01:58:53Z</time>
      </trkpt>
      <trkpt lat="44.13178" lon="2.94634">
        <ele>594</ele>
        <time>2010-01-01T01:58:54Z</time>
      </trkpt>
      <trkpt lat="44.13175" lon="2.94638">
        <ele>595</ele>
        <time>2010-01-01T01:58:56Z</time>
      </trkpt>
      <trkpt lat="44.13172" lon="2.94642">
        <ele>596</ele>
        <time>2010-01-01T01:58:58Z</time>
      </trkpt>
      <trkpt lat="44.13167" lon="2.94647">
        <ele>596</ele>
        <time>2010-01-01T01:59:00Z</time>
      </trkpt>
      <trkpt lat="44.13164" lon="2.94651">
        <ele>596</ele>
        <time>2010-01-01T01:59:02Z</time>
      </trkpt>
      <trkpt lat="44.13161" lon="2.94655">
        <ele>597</ele>
        <time>2010-01-01T01:59:04Z</time>
      </trkpt>
      <trkpt lat="44.13159" lon="2.94658">
        <ele>597</ele>
        <time>2010-01-01T01:59:05Z</time>
      </trkpt>
      <trkpt lat="44.13159" lon="2.94659">
        <ele>597</ele>
        <time>2010-01-01T01:59:05Z</time>
      </trkpt>
      <trkpt lat="44.13158" lon="2.94658">
        <ele>597</ele>
        <time>2010-01-01T01:59:05Z</time>
      </trkpt>
      <trkpt lat="44.13157" lon="2.94659">
        <ele>597</ele>
        <time>2010-01-01T01:59:06Z</time>
      </trkpt>
      <trkpt lat="44.13154" lon="2.94664">
        <ele>598</ele>
        <time>2010-01-01T01:59:08Z</time>
      </trkpt>
      <trkpt lat="44.13154" lon="2.94664">
        <ele>598</ele>
        <time>2010-01-01T01:59:08Z</time>
      </trkpt>
      <trkpt lat="44.1315" lon="2.9467">
        <ele>598</ele>
        <time>2010-01-01T01:59:10Z</time>
      </trkpt>
      <trkpt lat="44.13149" lon="2.94673">
        <ele>598</ele>
        <time>2010-01-01T01:59:11Z</time>
      </trkpt>
      <trkpt lat="44.13147" lon="2.94677">
        <ele>598</ele>
        <time>2010-01-01T01:59:12Z</time>
      </trkpt>
      <trkpt lat="44.13145" lon="2.94682">
        <ele>598</ele>
        <time>2010-01-01T01:59:14Z</time>
      </trkpt>
      <trkpt lat="44.13142" lon="2.94688">
        <ele>598</ele>
        <time>2010-01-01T01:59:16Z</time>
      </trkpt>
      <trkpt lat="44.1314" lon="2.94694">
        <ele>599</ele>
        <time>2010-01-01T01:59:18Z</time>
      </trkpt>
      <trkpt lat="44.13139" lon="2.94699">
        <ele>599</ele>
        <time>2010-01-01T01:59:20Z</time>
      </trkpt>
      <trkpt lat="44.13136" lon="2.94706">
        <ele>599</ele>
        <time>2010-01-01T01:59:22Z</time>
      </trkpt>
      <trkpt lat="44.13136" lon="2.94711">
        <ele>599</ele>
        <time>2010-01-01T01:59:23Z</time>
      </trkpt>
      <trkpt lat="44.13135" lon="2.94717">
        <ele>599</ele>
        <time>2010-01-01T01:59:25Z</time>
      </trkpt>
      <trkpt lat="44.13134" lon="2.94725">
        <ele>599</ele>
        <time>2010-01-01T01:59:27Z</time>
      </trkpt>
      <trkpt lat="44.13133" lon="2.9473">
        <ele>599</ele>
        <time>2010-01-01T01:59:29Z</time>
      </trkpt>
      <trkpt lat="44.13132" lon="2.94735">
        <ele>599</ele>
        <time>2010-01-01T01:59:30Z</time>
      </trkpt>
      <trkpt lat="44.13131" lon="2.94742">
        <ele>600</ele>
        <time>2010-01-01T01:59:32Z</time>
      </trkpt>
      <trkpt lat="44.13129" lon="2.9475">
        <ele>600</ele>
        <time>2010-01-01T01:59:35Z</time>
      </trkpt>
      <trkpt lat="44.13125" lon="2.9476">
        <ele>599</ele>
        <time>2010-01-01T01:59:38Z</time>
      </trkpt>
      <trkpt lat="44.13124" lon="2.94766">
        <ele>599</ele>
        <time>2010-01-01T01:59:40Z</time>
      </trkpt>
      <trkpt lat="44.13123" lon="2.94775">
        <ele>599</ele>
        <time>2010-01-01T01:59:42Z</time>
      </trkpt>
      <trkpt lat="44.13123" lon="2.94783">
        <ele>599</ele>
        <time>2010-01-01T01:59:45Z</time>
      </trkpt>
      <trkpt lat="44.13123" lon="2.94792">
        <ele>600</ele>
        <time>2010-01-01T01:59:48Z</time>
      </trkpt>
      <trkpt lat="44.13123" lon="2.94803">
        <ele>600</ele>
        <time>2010-01-01T01:59:51Z</time>
      </trkpt>
      <trkpt lat="44.13121" lon="2.94816">
        <ele>599</ele>
        <time>2010-01-01T01:59:54Z</time>
      </trkpt>
      <trkpt lat="44.13119" lon="2.94829">
        <ele>598</ele>
        <time>2010-01-01T01:59:58Z</time>
      </trkpt>
      <trkpt lat="44.13118" lon="2.94842">
        <ele>597</ele>
        <time>2010-01-01T02:00:02Z</time>
      </trkpt>
      <trkpt lat="44.13121" lon="2.94853">
        <ele>597</ele>
        <time>2010-01-01T02:00:05Z</time>
      </trkpt>
      <trkpt lat="44.13121" lon="2.94866">
        <ele>597</ele>
        <time>2010-01-01T02:00:09Z</time>
      </trkpt>
      <trkpt lat="44.13123" lon="2.94878">
        <ele>596</ele>
        <time>2010-01-01T02:00:13Z</time>
      </trkpt>
      <trkpt lat="44.13121" lon="2.94891">
        <ele>594</ele>
        <time>2010-01-01T02:00:16Z</time>
      </trkpt>
      <trkpt lat="44.13124" lon="2.94901">
        <ele>593</ele>
        <time>2010-01-01T02:00:20Z</time>
      </trkpt>
      <trkpt lat="44.13128" lon="2.94913">
        <ele>592</ele>
        <time>2010-01-01T02:00:23Z</time>
      </trkpt>
      <trkpt lat="44.13134" lon="2.94926">
        <ele>593</ele>
        <time>2010-01-01T02:00:28Z</time>
      </trkpt>
      <trkpt lat="44.13136" lon="2.94938">
        <ele>593</ele>
        <time>2010-01-01T02:00:31Z</time>
      </trkpt>
      <trkpt lat="44.13141" lon="2.94952">
        <ele>594</ele>
        <time>2010-01-01T02:00:36Z</time>
      </trkpt>
      <trkpt lat="44.13144" lon="2.94966">
        <ele>595</ele>
        <time>2010-01-01T02:00:40Z</time>
      </trkpt>
      <trkpt lat="44.13144" lon="2.94982">
        <ele>595</ele>
        <time>2010-01-01T02:00:45Z</time>
      </trkpt>
      <trkpt lat="44.13142" lon="2.94994">
        <ele>595</ele>
        <time>2010-01-01T02:00:48Z</time>
      </trkpt>
      <trkpt lat="44.13137" lon="2.95004">
        <ele>593</ele>
        <time>2010-01-01T02:00:52Z</time>
      </trkpt>
      <trkpt lat="44.13131" lon="2.95014">
        <ele>592</ele>
        <time>2010-01-01T02:00:55Z</time>
      </trkpt>
      <trkpt lat="44.13125" lon="2.95022">
        <ele>591</ele>
        <time>2010-01-01T02:00:59Z</time>
      </trkpt>
      <trkpt lat="44.13119" lon="2.95028">
        <ele>589</ele>
        <time>2010-01-01T02:01:02Z</time>
      </trkpt>
      <trkpt lat="44.13114" lon="2.95034">
        <ele>589</ele>
        <time>2010-01-01T02:01:04Z</time>
      </trkpt>
      <trkpt lat="44.13108" lon="2.9504">
        <ele>589</ele>
        <time>2010-01-01T02:01:07Z</time>
      </trkpt>
      <trkpt lat="44.13102" lon="2.95046">
        <ele>590</ele>
        <time>2010-01-01T02:01:10Z</time>
      </trkpt>
      <trkpt lat="44.13097" lon="2.95052">
        <ele>590</ele>
        <time>2010-01-01T02:01:13Z</time>
      </trkpt>
      <trkpt lat="44.13093" lon="2.95056">
        <ele>590</ele>
        <time>2010-01-01T02:01:15Z</time>
      </trkpt>
      <trkpt lat="44.13087" lon="2.95061">
        <ele>590</ele>
        <time>2010-01-01T02:01:18Z</time>
      </trkpt>
      <trkpt lat="44.13081" lon="2.95066">
        <ele>590</ele>
        <time>2010-01-01T02:01:20Z</time>
      </trkpt>
      <trkpt lat="44.13076" lon="2.95072">
        <ele>591</ele>
        <time>2010-01-01T02:01:23Z</time>
      </trkpt>
      <trkpt lat="44.1307" lon="2.95077">
        <ele>591</ele>
        <time>2010-01-01T02:01:26Z</time>
      </trkpt>
      <trkpt lat="44.13064" lon="2.95082">
        <ele>591</ele>
        <time>2010-01-01T02:01:29Z</time>
      </trkpt>
      <trkpt lat="44.13058" lon="2.95086">
        <ele>591</ele>
        <time>2010-01-01T02:01:31Z</time>
      </trkpt>
      <trkpt lat="44.13052" lon="2.9509">
        <ele>592</ele>
        <time>2010-01-01T02:01:34Z</time>
      </trkpt>
      <trkpt lat="44.13046" lon="2.95095">
        <ele>592</ele>
        <time>2010-01-01T02:01:37Z</time>
      </trkpt>
      <trkpt lat="44.1304" lon="2.95098">
        <ele>593</ele>
        <time>2010-01-01T02:01:39Z</time>
      </trkpt>
      <trkpt lat="44.13033" lon="2.95099">
        <ele>592</ele>
        <time>2010-01-01T02:01:42Z</time>
      </trkpt>
      <trkpt lat="44.13026" lon="2.95102">
        <ele>592</ele>
        <time>2010-01-01T02:01:45Z</time>
      </trkpt>
      <trkpt lat="44.13019" lon="2.95105">
        <ele>591</ele>
        <time>2010-01-01T02:01:48Z</time>
      </trkpt>
      <trkpt lat="44.13011" lon="2.95109">
        <ele>591</ele>
        <time>2010-01-01T02:01:51Z</time>
      </trkpt>
      <trkpt lat="44.13004" lon="2.95113">
        <ele>591</ele>
        <time>2010-01-01T02:01:54Z</time>
      </trkpt>
      <trkpt lat="44.12996" lon="2.95116">
        <ele>590</ele>
        <time>2010-01-01T02:01:58Z</time>
      </trkpt>
      <trkpt lat="44.12988" lon="2.9512">
        <ele>589</ele>
        <time>2010-01-01T02:02:01Z</time>
      </trkpt>
      <trkpt lat="44.1298" lon="2.95124">
        <ele>588</ele>
        <time>2010-01-01T02:02:04Z</time>
      </trkpt>
      <trkpt lat="44.12972" lon="2.95128">
        <ele>587</ele>
        <time>2010-01-01T02:02:08Z</time>
      </trkpt>
      <trkpt lat="44.12965" lon="2.95131">
        <ele>586</ele>
        <time>2010-01-01T02:02:11Z</time>
      </trkpt>
      <trkpt lat="44.12957" lon="2.95135">
        <ele>586</ele>
        <time>2010-01-01T02:02:14Z</time>
      </trkpt>
      <trkpt lat="44.1295" lon="2.95139">
        <ele>585</ele>
        <time>2010-01-01T02:02:17Z</time>
      </trkpt>
      <trkpt lat="44.12942" lon="2.95145">
        <ele>586</ele>
        <time>2010-01-01T02:02:21Z</time>
      </trkpt>
      <trkpt lat="44.12935" lon="2.95151">
        <ele>587</ele>
        <time>2010-01-01T02:02:24Z</time>
      </trkpt>
      <trkpt lat="44.12927" lon="2.95158">
        <ele>587</ele>
        <time>2010-01-01T02:02:28Z</time>
      </trkpt>
      <trkpt lat="44.12919" lon="2.95165">
        <ele>587</ele>
        <time>2010-01-01T02:02:32Z</time>
      </trkpt>
      <trkpt lat="44.12911" lon="2.9517">
        <ele>587</ele>
        <time>2010-01-01T02:02:35Z</time>
      </trkpt>
      <trkpt lat="44.12905" lon="2.95177">
        <ele>587</ele>
        <time>2010-01-01T02:02:38Z</time>
      </trkpt>
      <trkpt lat="44.12899" lon="2.95181">
        <ele>586</ele>
        <time>2010-01-01T02:02:41Z</time>
      </trkpt>
      <trkpt lat="44.12891" lon="2.95183">
        <ele>585</ele>
        <time>2010-01-01T02:02:44Z</time>
      </trkpt>
      <trkpt lat="44.12883" lon="2.95187">
        <ele>584</ele>
        <time>2010-01-01T02:02:48Z</time>
      </trkpt>
      <trkpt lat="44.12875" lon="2.95189">
        <ele>582</ele>
        <time>2010-01-01T02:02:51Z</time>
      </trkpt>
      <trkpt lat="44.12869" lon="2.95194">
        <ele>581</ele>
        <time>2010-01-01T02:02:54Z</time>
      </trkpt>
      <trkpt lat="44.12865" lon="2.95196">
        <ele>580</ele>
        <time>2010-01-01T02:02:55Z</time>
      </trkpt>
      <trkpt lat="44.12863" lon="2.95199">
        <ele>580</ele>
        <time>2010-01-01T02:02:57Z</time>
      </trkpt>
      <trkpt lat="44.12861" lon="2.95205">
        <ele>579</ele>
        <time>2010-01-01T02:02:59Z</time>
      </trkpt>
      <trkpt lat="44.1286" lon="2.95212">
        <ele>579</ele>
        <time>2010-01-01T02:03:01Z</time>
      </trkpt>
      <trkpt lat="44.12857" lon="2.9522">
        <ele>578</ele>
        <time>2010-01-01T02:03:03Z</time>
      </trkpt>
      <trkpt lat="44.12854" lon="2.95231">
        <ele>577</ele>
        <time>2010-01-01T02:03:06Z</time>
      </trkpt>
      <trkpt lat="44.12849" lon="2.95241">
        <ele>575</ele>
        <time>2010-01-01T02:03:10Z</time>
      </trkpt>
      <trkpt lat="44.12845" lon="2.95252">
        <ele>574</ele>
        <time>2010-01-01T02:03:13Z</time>
      </trkpt>
      <trkpt lat="44.12841" lon="2.95263">
        <ele>573</ele>
        <time>2010-01-01T02:03:17Z</time>
      </trkpt>
      <trkpt lat="44.12838" lon="2.95275">
        <ele>572</ele>
        <time>2010-01-01T02:03:21Z</time>
      </trkpt>
      <trkpt lat="44.12835" lon="2.95287">
        <ele>571</ele>
        <time>2010-01-01T02:03:24Z</time>
      </trkpt>
      <trkpt lat="44.12832" lon="2.95301">
        <ele>571</ele>
        <time>2010-01-01T02:03:28Z</time>
      </trkpt>
      <trkpt lat="44.12829" lon="2.95314">
        <ele>571</ele>
        <time>2010-01-01T02:03:33Z</time>
      </trkpt>
      <trkpt lat="44.12827" lon="2.95326">
        <ele>570</ele>
        <time>2010-01-01T02:03:36Z</time>
      </trkpt>
      <trkpt lat="44.12825" lon="2.95332">
        <ele>570</ele>
        <time>2010-01-01T02:03:38Z</time>
      </trkpt>
      <trkpt lat="44.12826" lon="2.95332">
        <ele>570</ele>
        <time>2010-01-01T02:03:38Z</time>
      </trkpt>
      <trkpt lat="44.12826" lon="2.95332">
        <ele>570</ele>
        <time>2010-01-01T02:03:38Z</time>
      </trkpt>
      <trkpt lat="44.12826" lon="2.95333">
        <ele>570</ele>
        <time>2010-01-01T02:03:38Z</time>
      </trkpt>
      <trkpt lat="44.12815" lon="2.95342">
        <ele>569</ele>
        <time>2010-01-01T02:03:43Z</time>
      </trkpt>
      <trkpt lat="44.12813" lon="2.9535">
        <ele>568</ele>
        <time>2010-01-01T02:03:46Z</time>
      </trkpt>
      <trkpt lat="44.12811" lon="2.95358">
        <ele>568</ele>
        <time>2010-01-01T02:03:48Z</time>
      </trkpt>
      <trkpt lat="44.12811" lon="2.95368">
        <ele>567</ele>
        <time>2010-01-01T02:03:51Z</time>
      </trkpt>
      <trkpt lat="44.1281" lon="2.9538">
        <ele>566</ele>
        <time>2010-01-01T02:03:55Z</time>
      </trkpt>
      <trkpt lat="44.1281" lon="2.95393">
        <ele>566</ele>
        <time>2010-01-01T02:03:58Z</time>
      </trkpt>
      <trkpt lat="44.12809" lon="2.95406">
        <ele>565</ele>
        <time>2010-01-01T02:04:02Z</time>
      </trkpt>
      <trkpt lat="44.12808" lon="2.95417">
        <ele>565</ele>
        <time>2010-01-01T02:04:05Z</time>
      </trkpt>
      <trkpt lat="44.12808" lon="2.95428">
        <ele>566</ele>
        <time>2010-01-01T02:04:08Z</time>
      </trkpt>
      <trkpt lat="44.12808" lon="2.95437">
        <ele>567</ele>
        <time>2010-01-01T02:04:11Z</time>
      </trkpt>
      <trkpt lat="44.12806" lon="2.95449">
        <ele>568</ele>
        <time>2010-01-01T02:04:15Z</time>
      </trkpt>
      <trkpt lat="44.12804" lon="2.95462">
        <ele>567</ele>
        <time>2010-01-01T02:04:18Z</time>
      </trkpt>
      <trkpt lat="44.12803" lon="2.95473">
        <ele>567</ele>
        <time>2010-01-01T02:04:22Z</time>
      </trkpt>
      <trkpt lat="44.12802" lon="2.95485">
        <ele>566</ele>
        <time>2010-01-01T02:04:25Z</time>
      </trkpt>
      <trkpt lat="44.128" lon="2.95501">
        <ele>565</ele>
        <time>2010-01-01T02:04:30Z</time>
      </trkpt>
      <trkpt lat="44.12801" lon="2.95516">
        <ele>565</ele>
        <time>2010-01-01T02:04:34Z</time>
      </trkpt>
      <trkpt lat="44.12801" lon="2.95532">
        <ele>565</ele>
        <time>2010-01-01T02:04:39Z</time>
      </trkpt>
      <trkpt lat="44.12803" lon="2.95547">
        <ele>565</ele>
        <time>2010-01-01T02:04:43Z</time>
      </trkpt>
      <trkpt lat="44.12802" lon="2.95562">
        <ele>565</ele>
        <time>2010-01-01T02:04:48Z</time>
      </trkpt>
      <trkpt lat="44.128" lon="2.95579">
        <ele>564</ele>
        <time>2010-01-01T02:04:52Z</time>
      </trkpt>
      <trkpt lat="44.12799" lon="2.95598">
        <ele>562</ele>
        <time>2010-01-01T02:04:58Z</time>
      </trkpt>
      <trkpt lat="44.12795" lon="2.95616">
        <ele>561</ele>
        <time>2010-01-01T02:05:03Z</time>
      </trkpt>
      <trkpt lat="44.12794" lon="2.9563">
        <ele>560</ele>
        <time>2010-01-01T02:05:07Z</time>
      </trkpt>
      <trkpt lat="44.12792" lon="2.95645">
        <ele>559</ele>
        <time>2010-01-01T02:05:11Z</time>
      </trkpt>
      <trkpt lat="44.12789" lon="2.95659">
        <ele>558</ele>
        <time>2010-01-01T02:05:16Z</time>
      </trkpt>
      <trkpt lat="44.12788" lon="2.95672">
        <ele>557</ele>
        <time>2010-01-01T02:05:19Z</time>
      </trkpt>
      <trkpt lat="44.12785" lon="2.95689">
        <ele>554</ele>
        <time>2010-01-01T02:05:24Z</time>
      </trkpt>
      <trkpt lat="44.12784" lon="2.95704">
        <ele>553</ele>
        <time>2010-01-01T02:05:29Z</time>
      </trkpt>
      <trkpt lat="44.12788" lon="2.95714">
        <ele>554</ele>
        <time>2010-01-01T02:05:32Z</time>
      </trkpt>
      <trkpt lat="44.12791" lon="2.95725">
        <ele>554</ele>
        <time>2010-01-01T02:05:36Z</time>
      </trkpt>
      <trkpt lat="44.12795" lon="2.95734">
        <ele>555</ele>
        <time>2010-01-01T02:05:39Z</time>
      </trkpt>
      <trkpt lat="44.128" lon="2.95743">
        <ele>555</ele>
        <time>2010-01-01T02:05:42Z</time>
      </trkpt>
      <trkpt lat="44.12807" lon="2.95754">
        <ele>555</ele>
        <time>2010-01-01T02:05:46Z</time>
      </trkpt>
      <trkpt lat="44.12813" lon="2.95759">
        <ele>555</ele>
        <time>2010-01-01T02:05:49Z</time>
      </trkpt>
      <trkpt lat="44.12817" lon="2.95761">
        <ele>555</ele>
        <time>2010-01-01T02:05:51Z</time>
      </trkpt>
      <trkpt lat="44.12822" lon="2.95762">
        <ele>555</ele>
        <time>2010-01-01T02:05:53Z</time>
      </trkpt>
      <trkpt lat="44.12829" lon="2.95762">
        <ele>556</ele>
        <time>2010-01-01T02:05:55Z</time>
      </trkpt>
      <trkpt lat="44.12836" lon="2.95764">
        <ele>555</ele>
        <time>2010-01-01T02:05:58Z</time>
      </trkpt>
      <trkpt lat="44.12843" lon="2.95766">
        <ele>554</ele>
        <time>2010-01-01T02:06:01Z</time>
      </trkpt>
      <trkpt lat="44.12849" lon="2.95765">
        <ele>553</ele>
        <time>2010-01-01T02:06:03Z</time>
      </trkpt>
      <trkpt lat="44.12856" lon="2.95761">
        <ele>552</ele>
        <time>2010-01-01T02:06:06Z</time>
      </trkpt>
      <trkpt lat="44.12863" lon="2.95756">
        <ele>552</ele>
        <time>2010-01-01T02:06:10Z</time>
      </trkpt>
      <trkpt lat="44.12871" lon="2.95748">
        <ele>551</ele>
        <time>2010-01-01T02:06:13Z</time>
      </trkpt>
      <trkpt lat="44.12878" lon="2.95743">
        <ele>551</ele>
        <time>2010-01-01T02:06:17Z</time>
      </trkpt>
      <trkpt lat="44.12888" lon="2.95733">
        <ele>550</ele>
        <time>2010-01-01T02:06:21Z</time>
      </trkpt>
      <trkpt lat="44.12898" lon="2.95724">
        <ele>551</ele>
        <time>2010-01-01T02:06:26Z</time>
      </trkpt>
      <trkpt lat="44.12908" lon="2.95717">
        <ele>551</ele>
        <time>2010-01-01T02:06:31Z</time>
      </trkpt>
      <trkpt lat="44.12915" lon="2.95714">
        <ele>550</ele>
        <time>2010-01-01T02:06:34Z</time>
      </trkpt>
      <trkpt lat="44.12923" lon="2.95711">
        <ele>551</ele>
        <time>2010-01-01T02:06:37Z</time>
      </trkpt>
      <trkpt lat="44.12929" lon="2.9571">
        <ele>551</ele>
        <time>2010-01-01T02:06:40Z</time>
      </trkpt>
      <trkpt lat="44.12936" lon="2.95706">
        <ele>551</ele>
        <time>2010-01-01T02:06:43Z</time>
      </trkpt>
      <trkpt lat="44.12943" lon="2.95705">
        <ele>551</ele>
        <time>2010-01-01T02:06:45Z</time>
      </trkpt>
      <trkpt lat="44.12951" lon="2.95704">
        <ele>552</ele>
        <time>2010-01-01T02:06:49Z</time>
      </trkpt>
      <trkpt lat="44.12959" lon="2.95704">
        <ele>552</ele>
        <time>2010-01-01T02:06:52Z</time>
      </trkpt>
      <trkpt lat="44.12965" lon="2.95703">
        <ele>552</ele>
        <time>2010-01-01T02:06:54Z</time>
      </trkpt>
      <trkpt lat="44.12971" lon="2.95703">
        <ele>553</ele>
        <time>2010-01-01T02:06:56Z</time>
      </trkpt>
      <trkpt lat="44.12979" lon="2.95704">
        <ele>553</ele>
        <time>2010-01-01T02:07:00Z</time>
      </trkpt>
      <trkpt lat="44.12986" lon="2.95706">
        <ele>553</ele>
        <time>2010-01-01T02:07:03Z</time>
      </trkpt>
      <trkpt lat="44.12993" lon="2.95708">
        <ele>552</ele>
        <time>2010-01-01T02:07:06Z</time>
      </trkpt>
      <trkpt lat="44.13" lon="2.9571">
        <ele>552</ele>
        <time>2010-01-01T02:07:08Z</time>
      </trkpt>
      <trkpt lat="44.13006" lon="2.95713">
        <ele>552</ele>
        <time>2010-01-01T02:07:11Z</time>
      </trkpt>
      <trkpt lat="44.13012" lon="2.95715">
        <ele>552</ele>
        <time>2010-01-01T02:07:13Z</time>
      </trkpt>
      <trkpt lat="44.13018" lon="2.95715">
        <ele>553</ele>
        <time>2010-01-01T02:07:16Z</time>
      </trkpt>
      <trkpt lat="44.13024" lon="2.95717">
        <ele>553</ele>
        <time>2010-01-01T02:07:18Z</time>
      </trkpt>
      <trkpt lat="44.1303" lon="2.95719">
        <ele>553</ele>
        <time>2010-01-01T02:07:21Z</time>
      </trkpt>
      <trkpt lat="44.13035" lon="2.9572">
        <ele>553</ele>
        <time>2010-01-01T02:07:23Z</time>
      </trkpt>
      <trkpt lat="44.1304" lon="2.95722">
        <ele>554</ele>
        <time>2010-01-01T02:07:25Z</time>
      </trkpt>
      <trkpt lat="44.13045" lon="2.95723">
        <ele>554</ele>
        <time>2010-01-01T02:07:27Z</time>
      </trkpt>
      <trkpt lat="44.1305" lon="2.95726">
        <ele>554</ele>
        <time>2010-01-01T02:07:29Z</time>
      </trkpt>
      <trkpt lat="44.13056" lon="2.95728">
        <ele>555</ele>
        <time>2010-01-01T02:07:31Z</time>
      </trkpt>
      <trkpt lat="44.13061" lon="2.9573">
        <ele>556</ele>
        <time>2010-01-01T02:07:34Z</time>
      </trkpt>
      <trkpt lat="44.13066" lon="2.95734">
        <ele>556</ele>
        <time>2010-01-01T02:07:36Z</time>
      </trkpt>
      <trkpt lat="44.13071" lon="2.95738">
        <ele>556</ele>
        <time>2010-01-01T02:07:38Z</time>
      </trkpt>
      <trkpt lat="44.13077" lon="2.95742">
        <ele>556</ele>
        <time>2010-01-01T02:07:41Z</time>
      </trkpt>
      <trkpt lat="44.13082" lon="2.95748">
        <ele>556</ele>
        <time>2010-01-01T02:07:43Z</time>
      </trkpt>
      <trkpt lat="44.13086" lon="2.95754">
        <ele>555</ele>
        <time>2010-01-01T02:07:46Z</time>
      </trkpt>
      <trkpt lat="44.1309" lon="2.9576">
        <ele>554</ele>
        <time>2010-01-01T02:07:48Z</time>
      </trkpt>
      <trkpt lat="44.13095" lon="2.95766">
        <ele>554</ele>
        <time>2010-01-01T02:07:51Z</time>
      </trkpt>
      <trkpt lat="44.13099" lon="2.95771">
        <ele>554</ele>
        <time>2010-01-01T02:07:53Z</time>
      </trkpt>
      <trkpt lat="44.13105" lon="2.95776">
        <ele>554</ele>
        <time>2010-01-01T02:07:56Z</time>
      </trkpt>
      <trkpt lat="44.13111" lon="2.9578">
        <ele>555</ele>
        <time>2010-01-01T02:07:58Z</time>
      </trkpt>
      <trkpt lat="44.13116" lon="2.95783">
        <ele>555</ele>
        <time>2010-01-01T02:08:01Z</time>
      </trkpt>
      <trkpt lat="44.13121" lon="2.95786">
        <ele>556</ele>
        <time>2010-01-01T02:08:03Z</time>
      </trkpt>
      <trkpt lat="44.13126" lon="2.95791">
        <ele>556</ele>
        <time>2010-01-01T02:08:05Z</time>
      </trkpt>
      <trkpt lat="44.1313" lon="2.95797">
        <ele>556</ele>
        <time>2010-01-01T02:08:08Z</time>
      </trkpt>
      <trkpt lat="44.13135" lon="2.95805">
        <ele>556</ele>
        <time>2010-01-01T02:08:10Z</time>
      </trkpt>
      <trkpt lat="44.13141" lon="2.9581">
        <ele>556</ele>
        <time>2010-01-01T02:08:13Z</time>
      </trkpt>
      <trkpt lat="44.13146" lon="2.95817">
        <ele>556</ele>
        <time>2010-01-01T02:08:16Z</time>
      </trkpt>
      <trkpt lat="44.13151" lon="2.95824">
        <ele>556</ele>
        <time>2010-01-01T02:08:19Z</time>
      </trkpt>
      <trkpt lat="44.13155" lon="2.9583">
        <ele>555</ele>
        <time>2010-01-01T02:08:21Z</time>
      </trkpt>
      <trkpt lat="44.13161" lon="2.95836">
        <ele>555</ele>
        <time>2010-01-01T02:08:24Z</time>
      </trkpt>
      <trkpt lat="44.13167" lon="2.95842">
        <ele>555</ele>
        <time>2010-01-01T02:08:27Z</time>
      </trkpt>
      <trkpt lat="44.13172" lon="2.95848">
        <ele>555</ele>
        <time>2010-01-01T02:08:30Z</time>
      </trkpt>
      <trkpt lat="44.13177" lon="2.95854">
        <ele>555</ele>
        <time>2010-01-01T02:08:33Z</time>
      </trkpt>
      <trkpt lat="44.13183" lon="2.95858">
        <ele>555</ele>
        <time>2010-01-01T02:08:35Z</time>
      </trkpt>
      <trkpt lat="44.13188" lon="2.95863">
        <ele>555</ele>
        <time>2010-01-01T02:08:38Z</time>
      </trkpt>
      <trkpt lat="44.13193" lon="2.95867">
        <ele>555</ele>
        <time>2010-01-01T02:08:40Z</time>
      </trkpt>
      <trkpt lat="44.13199" lon="2.95871">
        <ele>555</ele>
        <time>2010-01-01T02:08:42Z</time>
      </trkpt>
      <trkpt lat="44.13204" lon="2.95875">
        <ele>555</ele>
        <time>2010-01-01T02:08:45Z</time>
      </trkpt>
      <trkpt lat="44.13209" lon="2.95878">
        <ele>555</ele>
        <time>2010-01-01T02:08:47Z</time>
      </trkpt>
      <trkpt lat="44.13215" lon="2.95882">
        <ele>555</ele>
        <time>2010-01-01T02:08:50Z</time>
      </trkpt>
      <trkpt lat="44.1322" lon="2.95885">
        <ele>555</ele>
        <time>2010-01-01T02:08:52Z</time>
      </trkpt>
      <trkpt lat="44.13226" lon="2.95888">
        <ele>555</ele>
        <time>2010-01-01T02:08:54Z</time>
      </trkpt>
      <trkpt lat="44.13231" lon="2.95891">
        <ele>556</ele>
        <time>2010-01-01T02:08:57Z</time>
      </trkpt>
      <trkpt lat="44.13236" lon="2.95894">
        <ele>557</ele>
        <time>2010-01-01T02:08:59Z</time>
      </trkpt>
      <trkpt lat="44.13242" lon="2.95898">
        <ele>557</ele>
        <time>2010-01-01T02:09:01Z</time>
      </trkpt>
      <trkpt lat="44.13246" lon="2.95902">
        <ele>558</ele>
        <time>2010-01-01T02:09:03Z</time>
      </trkpt>
      <trkpt lat="44.1325" lon="2.95905">
        <ele>558</ele>
        <time>2010-01-01T02:09:05Z</time>
      </trkpt>
      <trkpt lat="44.13254" lon="2.95908">
        <ele>559</ele>
        <time>2010-01-01T02:09:07Z</time>
      </trkpt>
      <trkpt lat="44.13258" lon="2.95911">
        <ele>560</ele>
        <time>2010-01-01T02:09:09Z</time>
      </trkpt>
      <trkpt lat="44.13263" lon="2.95913">
        <ele>561</ele>
        <time>2010-01-01T02:09:11Z</time>
      </trkpt>
      <trkpt lat="44.13268" lon="2.95916">
        <ele>561</ele>
        <time>2010-01-01T02:09:13Z</time>
      </trkpt>
      <trkpt lat="44.13272" lon="2.95919">
        <ele>562</ele>
        <time>2010-01-01T02:09:15Z</time>
      </trkpt>
      <trkpt lat="44.13275" lon="2.95922">
        <ele>563</ele>
        <time>2010-01-01T02:09:17Z</time>
      </trkpt>
      <trkpt lat="44.1328" lon="2.95925">
        <ele>563</ele>
        <time>2010-01-01T02:09:18Z</time>
      </trkpt>
      <trkpt lat="44.13284" lon="2.95928">
        <ele>563</ele>
        <time>2010-01-01T02:09:20Z</time>
      </trkpt>
      <trkpt lat="44.13288" lon="2.95932">
        <ele>563</ele>
        <time>2010-01-01T02:09:22Z</time>
      </trkpt>
      <trkpt lat="44.13293" lon="2.95936">
        <ele>562</ele>
        <time>2010-01-01T02:09:24Z</time>
      </trkpt>
      <trkpt lat="44.13297" lon="2.95939">
        <ele>562</ele>
        <time>2010-01-01T02:09:26Z</time>
      </trkpt>
      <trkpt lat="44.13302" lon="2.95942">
        <ele>562</ele>
        <time>2010-01-01T02:09:28Z</time>
      </trkpt>
      <trkpt lat="44.13306" lon="2.95945">
        <ele>561</ele>
        <time>2010-01-01T02:09:31Z</time>
      </trkpt>
      <trkpt lat="44.13312" lon="2.95948">
        <ele>561</ele>
        <time>2010-01-01T02:09:33Z</time>
      </trkpt>
      <trkpt lat="44.13318" lon="2.9595">
        <ele>561</ele>
        <time>2010-01-01T02:09:36Z</time>
      </trkpt>
      <trkpt lat="44.13324" lon="2.95951">
        <ele>560</ele>
        <time>2010-01-01T02:09:38Z</time>
      </trkpt>
      <trkpt lat="44.1333" lon="2.95952">
        <ele>560</ele>
        <time>2010-01-01T02:09:40Z</time>
      </trkpt>
      <trkpt lat="44.13335" lon="2.95953">
        <ele>560</ele>
        <time>2010-01-01T02:09:43Z</time>
      </trkpt>
      <trkpt lat="44.13342" lon="2.95953">
        <ele>560</ele>
        <time>2010-01-01T02:09:45Z</time>
      </trkpt>
      <trkpt lat="44.13349" lon="2.95954">
        <ele>560</ele>
        <time>2010-01-01T02:09:48Z</time>
      </trkpt>
      <trkpt lat="44.13356" lon="2.95955">
        <ele>560</ele>
        <time>2010-01-01T02:09:51Z</time>
      </trkpt>
      <trkpt lat="44.13363" lon="2.95956">
        <ele>560</ele>
        <time>2010-01-01T02:09:53Z</time>
      </trkpt>
      <trkpt lat="44.13369" lon="2.95957">
        <ele>560</ele>
        <time>2010-01-01T02:09:56Z</time>
      </trkpt>
      <trkpt lat="44.13376" lon="2.95958">
        <ele>560</ele>
        <time>2010-01-01T02:09:59Z</time>
      </trkpt>
      <trkpt lat="44.13383" lon="2.9596">
        <ele>560</ele>
        <time>2010-01-01T02:10:02Z</time>
      </trkpt>
      <trkpt lat="44.1339" lon="2.95961">
        <ele>560</ele>
        <time>2010-01-01T02:10:05Z</time>
      </trkpt>
      <trkpt lat="44.13397" lon="2.95962">
        <ele>560</ele>
        <time>2010-01-01T02:10:08Z</time>
      </trkpt>
      <trkpt lat="44.13405" lon="2.95961">
        <ele>560</ele>
        <time>2010-01-01T02:10:10Z</time>
      </trkpt>
      <trkpt lat="44.13412" lon="2.95959">
        <ele>560</ele>
        <time>2010-01-01T02:10:13Z</time>
      </trkpt>
      <trkpt lat="44.1342" lon="2.95959">
        <ele>560</ele>
        <time>2010-01-01T02:10:17Z</time>
      </trkpt>
      <trkpt lat="44.13429" lon="2.95957">
        <ele>560</ele>
        <time>2010-01-01T02:10:20Z</time>
      </trkpt>
      <trkpt lat="44.13436" lon="2.95956">
        <ele>561</ele>
        <time>2010-01-01T02:10:23Z</time>
      </trkpt>
      <trkpt lat="44.13443" lon="2.95954">
        <ele>561</ele>
        <time>2010-01-01T02:10:26Z</time>
      </trkpt>
      <trkpt lat="44.1345" lon="2.9595">
        <ele>562</ele>
        <time>2010-01-01T02:10:29Z</time>
      </trkpt>
      <trkpt lat="44.13456" lon="2.95947">
        <ele>563</ele>
        <time>2010-01-01T02:10:31Z</time>
      </trkpt>
      <trkpt lat="44.13462" lon="2.95946">
        <ele>563</ele>
        <time>2010-01-01T02:10:34Z</time>
      </trkpt>
      <trkpt lat="44.13466" lon="2.95946">
        <ele>563</ele>
        <time>2010-01-01T02:10:36Z</time>
      </trkpt>
      <trkpt lat="44.13473" lon="2.95943">
        <ele>564</ele>
        <time>2010-01-01T02:10:38Z</time>
      </trkpt>
      <trkpt lat="44.13479" lon="2.9594">
        <ele>565</ele>
        <time>2010-01-01T02:10:41Z</time>
      </trkpt>
      <trkpt lat="44.13484" lon="2.9594">
        <ele>565</ele>
        <time>2010-01-01T02:10:43Z</time>
      </trkpt>
      <trkpt lat="44.13491" lon="2.9594">
        <ele>566</ele>
        <time>2010-01-01T02:10:46Z</time>
      </trkpt>
      <trkpt lat="44.13497" lon="2.95941">
        <ele>566</ele>
        <time>2010-01-01T02:10:48Z</time>
      </trkpt>
      <trkpt lat="44.13503" lon="2.95943">
        <ele>567</ele>
        <time>2010-01-01T02:10:51Z</time>
      </trkpt>
      <trkpt lat="44.1351" lon="2.95947">
        <ele>567</ele>
        <time>2010-01-01T02:10:54Z</time>
      </trkpt>
      <trkpt lat="44.13514" lon="2.95952">
        <ele>568</ele>
        <time>2010-01-01T02:10:56Z</time>
      </trkpt>
      <trkpt lat="44.13516" lon="2.95953">
        <ele>568</ele>
        <time>2010-01-01T02:10:56Z</time>
      </trkpt>
      <trkpt lat="44.13516" lon="2.95953">
        <ele>568</ele>
        <time>2010-01-01T02:10:57Z</time>
      </trkpt>
      <trkpt lat="44.13517" lon="2.95952">
        <ele>568</ele>
        <time>2010-01-01T02:10:57Z</time>
      </trkpt>
      <trkpt lat="44.13517" lon="2.95952">
        <ele>568</ele>
        <time>2010-01-01T02:10:57Z</time>
      </trkpt>
      <trkpt lat="44.13524" lon="2.9596">
        <ele>569</ele>
        <time>2010-01-01T02:11:01Z</time>
      </trkpt>
      <trkpt lat="44.13528" lon="2.95964">
        <ele>569</ele>
        <time>2010-01-01T02:11:03Z</time>
      </trkpt>
      <trkpt lat="44.13532" lon="2.95969">
        <ele>569</ele>
        <time>2010-01-01T02:11:05Z</time>
      </trkpt>
      <trkpt lat="44.13537" lon="2.95975">
        <ele>568</ele>
        <time>2010-01-01T02:11:07Z</time>
      </trkpt>
      <trkpt lat="44.1354" lon="2.9598">
        <ele>568</ele>
        <time>2010-01-01T02:11:09Z</time>
      </trkpt>
      <trkpt lat="44.13544" lon="2.95985">
        <ele>567</ele>
        <time>2010-01-01T02:11:11Z</time>
      </trkpt>
      <trkpt lat="44.13547" lon="2.95989">
        <ele>567</ele>
        <time>2010-01-01T02:11:13Z</time>
      </trkpt>
      <trkpt lat="44.1355" lon="2.95991">
        <ele>567</ele>
        <time>2010-01-01T02:11:14Z</time>
      </trkpt>
      <trkpt lat="44.13552" lon="2.95994">
        <ele>567</ele>
        <time>2010-01-01T02:11:16Z</time>
      </trkpt>
      <trkpt lat="44.13554" lon="2.95997">
        <ele>567</ele>
        <time>2010-01-01T02:11:17Z</time>
      </trkpt>
      <trkpt lat="44.13555" lon="2.95999">
        <ele>566</ele>
        <time>2010-01-01T02:11:18Z</time>
      </trkpt>
      <trkpt lat="44.13555" lon="2.96">
        <ele>567</ele>
        <time>2010-01-01T02:11:18Z</time>
      </trkpt>
      <trkpt lat="44.13562" lon="2.96011">
        <ele>566</ele>
        <time>2010-01-01T02:11:22Z</time>
      </trkpt>
      <trkpt lat="44.13567" lon="2.96016">
        <ele>566</ele>
        <time>2010-01-01T02:11:24Z</time>
      </trkpt>
      <trkpt lat="44.13572" lon="2.96023">
        <ele>565</ele>
        <time>2010-01-01T02:11:27Z</time>
      </trkpt>
      <trkpt lat="44.13576" lon="2.9603">
        <ele>565</ele>
        <time>2010-01-01T02:11:30Z</time>
      </trkpt>
      <trkpt lat="44.13579" lon="2.96034">
        <ele>565</ele>
        <time>2010-01-01T02:11:31Z</time>
      </trkpt>
      <trkpt lat="44.13581" lon="2.96036">
        <ele>565</ele>
        <time>2010-01-01T02:11:32Z</time>
      </trkpt>
      <trkpt lat="44.13581" lon="2.96037">
        <ele>565</ele>
        <time>2010-01-01T02:11:33Z</time>
      </trkpt>
      <trkpt lat="44.13581" lon="2.96036">
        <ele>565</ele>
        <time>2010-01-01T02:11:33Z</time>
      </trkpt>
      <trkpt lat="44.13582" lon="2.96036">
        <ele>565</ele>
        <time>2010-01-01T02:11:33Z</time>
      </trkpt>
      <trkpt lat="44.13587" lon="2.9605">
        <ele>564</ele>
        <time>2010-01-01T02:11:37Z</time>
      </trkpt>
      <trkpt lat="44.13591" lon="2.96057">
        <ele>563</ele>
        <time>2010-01-01T02:11:40Z</time>
      </trkpt>
      <trkpt lat="44.13593" lon="2.96066">
        <ele>561</ele>
        <time>2010-01-01T02:11:43Z</time>
      </trkpt>
      <trkpt lat="44.13595" lon="2.96076">
        <ele>559</ele>
        <time>2010-01-01T02:11:46Z</time>
      </trkpt>
      <trkpt lat="44.13595" lon="2.96086">
        <ele>557</ele>
        <time>2010-01-01T02:11:48Z</time>
      </trkpt>
      <trkpt lat="44.13594" lon="2.96097">
        <ele>554</ele>
        <time>2010-01-01T02:11:52Z</time>
      </trkpt>
      <trkpt lat="44.13595" lon="2.96107">
        <ele>552</ele>
        <time>2010-01-01T02:11:54Z</time>
      </trkpt>
      <trkpt lat="44.136" lon="2.96114">
        <ele>551</ele>
        <time>2010-01-01T02:11:57Z</time>
      </trkpt>
      <trkpt lat="44.13609" lon="2.96117">
        <ele>552</ele>
        <time>2010-01-01T02:12:01Z</time>
      </trkpt>
      <trkpt lat="44.13616" lon="2.96121">
        <ele>552</ele>
        <time>2010-01-01T02:12:04Z</time>
      </trkpt>
      <trkpt lat="44.13622" lon="2.96125">
        <ele>551</ele>
        <time>2010-01-01T02:12:07Z</time>
      </trkpt>
      <trkpt lat="44.13628" lon="2.96129">
        <ele>551</ele>
        <time>2010-01-01T02:12:09Z</time>
      </trkpt>
      <trkpt lat="44.13637" lon="2.96132">
        <ele>552</ele>
        <time>2010-01-01T02:12:13Z</time>
      </trkpt>
      <trkpt lat="44.13645" lon="2.96132">
        <ele>553</ele>
        <time>2010-01-01T02:12:16Z</time>
      </trkpt>
      <trkpt lat="44.13651" lon="2.96132">
        <ele>553</ele>
        <time>2010-01-01T02:12:19Z</time>
      </trkpt>
      <trkpt lat="44.13657" lon="2.96132">
        <ele>554</ele>
        <time>2010-01-01T02:12:21Z</time>
      </trkpt>
      <trkpt lat="44.13662" lon="2.96132">
        <ele>555</ele>
        <time>2010-01-01T02:12:23Z</time>
      </trkpt>
      <trkpt lat="44.13668" lon="2.9613">
        <ele>556</ele>
        <time>2010-01-01T02:12:25Z</time>
      </trkpt>
      <trkpt lat="44.13673" lon="2.9613">
        <ele>557</ele>
        <time>2010-01-01T02:12:27Z</time>
      </trkpt>
      <trkpt lat="44.13679" lon="2.9613">
        <ele>557</ele>
        <time>2010-01-01T02:12:30Z</time>
      </trkpt>
      <trkpt lat="44.13685" lon="2.96131">
        <ele>558</ele>
        <time>2010-01-01T02:12:32Z</time>
      </trkpt>
      <trkpt lat="44.13691" lon="2.96131">
        <ele>559</ele>
        <time>2010-01-01T02:12:35Z</time>
      </trkpt>
      <trkpt lat="44.13697" lon="2.96133">
        <ele>559</ele>
        <time>2010-01-01T02:12:37Z</time>
      </trkpt>
      <trkpt lat="44.13702" lon="2.96133">
        <ele>560</ele>
        <time>2010-01-01T02:12:39Z</time>
      </trkpt>
      <trkpt lat="44.13709" lon="2.96134">
        <ele>561</ele>
        <time>2010-01-01T02:12:42Z</time>
      </trkpt>
      <trkpt lat="44.13715" lon="2.96135">
        <ele>561</ele>
        <time>2010-01-01T02:12:44Z</time>
      </trkpt>
      <trkpt lat="44.13721" lon="2.96136">
        <ele>562</ele>
        <time>2010-01-01T02:12:47Z</time>
      </trkpt>
      <trkpt lat="44.13727" lon="2.96139">
        <ele>562</ele>
        <time>2010-01-01T02:12:49Z</time>
      </trkpt>
      <trkpt lat="44.13732" lon="2.96143">
        <ele>562</ele>
        <time>2010-01-01T02:12:52Z</time>
      </trkpt>
      <trkpt lat="44.13738" lon="2.96148">
        <ele>562</ele>
        <time>2010-01-01T02:12:54Z</time>
      </trkpt>
      <trkpt lat="44.13742" lon="2.96154">
        <ele>562</ele>
        <time>2010-01-01T02:12:57Z</time>
      </trkpt>
      <trkpt lat="44.13746" lon="2.9616">
        <ele>562</ele>
        <time>2010-01-01T02:12:59Z</time>
      </trkpt>
      <trkpt lat="44.13751" lon="2.96167">
        <ele>562</ele>
        <time>2010-01-01T02:13:02Z</time>
      </trkpt>
      <trkpt lat="44.13756" lon="2.96173">
        <ele>562</ele>
        <time>2010-01-01T02:13:05Z</time>
      </trkpt>
      <trkpt lat="44.13763" lon="2.96179">
        <ele>562</ele>
        <time>2010-01-01T02:13:08Z</time>
      </trkpt>
      <trkpt lat="44.13771" lon="2.96182">
        <ele>563</ele>
        <time>2010-01-01T02:13:11Z</time>
      </trkpt>
      <trkpt lat="44.13779" lon="2.96183">
        <ele>564</ele>
        <time>2010-01-01T02:13:15Z</time>
      </trkpt>
      <trkpt lat="44.13789" lon="2.96184">
        <ele>564</ele>
        <time>2010-01-01T02:13:18Z</time>
      </trkpt>
      <trkpt lat="44.13798" lon="2.96185">
        <ele>565</ele>
        <time>2010-01-01T02:13:22Z</time>
      </trkpt>
      <trkpt lat="44.13807" lon="2.96187">
        <ele>566</ele>
        <time>2010-01-01T02:13:26Z</time>
      </trkpt>
      <trkpt lat="44.13815" lon="2.96191">
        <ele>566</ele>
        <time>2010-01-01T02:13:29Z</time>
      </trkpt>
      <trkpt lat="44.13822" lon="2.96195">
        <ele>566</ele>
        <time>2010-01-01T02:13:32Z</time>
      </trkpt>
      <trkpt lat="44.13829" lon="2.96201">
        <ele>565</ele>
        <time>2010-01-01T02:13:35Z</time>
      </trkpt>
      <trkpt lat="44.13835" lon="2.96205">
        <ele>565</ele>
        <time>2010-01-01T02:13:38Z</time>
      </trkpt>
      <trkpt lat="44.13841" lon="2.96207">
        <ele>565</ele>
        <time>2010-01-01T02:13:40Z</time>
      </trkpt>
      <trkpt lat="44.13849" lon="2.9621">
        <ele>564</ele>
        <time>2010-01-01T02:13:44Z</time>
      </trkpt>
      <trkpt lat="44.13856" lon="2.96211">
        <ele>564</ele>
        <time>2010-01-01T02:13:47Z</time>
      </trkpt>
      <trkpt lat="44.13864" lon="2.96212">
        <ele>565</ele>
        <time>2010-01-01T02:13:50Z</time>
      </trkpt>
      <trkpt lat="44.13871" lon="2.96214">
        <ele>565</ele>
        <time>2010-01-01T02:13:53Z</time>
      </trkpt>
      <trkpt lat="44.13878" lon="2.96213">
        <ele>565</ele>
        <time>2010-01-01T02:13:56Z</time>
      </trkpt>
      <trkpt lat="44.13885" lon="2.96211">
        <ele>566</ele>
        <time>2010-01-01T02:13:58Z</time>
      </trkpt>
      <trkpt lat="44.13891" lon="2.9621">
        <ele>566</ele>
        <time>2010-01-01T02:14:01Z</time>
      </trkpt>
      <trkpt lat="44.13899" lon="2.96211">
        <ele>566</ele>
        <time>2010-01-01T02:14:04Z</time>
      </trkpt>
      <trkpt lat="44.13909" lon="2.96215">
        <ele>566</ele>
        <time>2010-01-01T02:14:08Z</time>
      </trkpt>
      <trkpt lat="44.1392" lon="2.96221">
        <ele>565</ele>
        <time>2010-01-01T02:14:13Z</time>
      </trkpt>
      <trkpt lat="44.13933" lon="2.96228">
        <ele>563</ele>
        <time>2010-01-01T02:14:18Z</time>
      </trkpt>
      <trkpt lat="44.13944" lon="2.96238">
        <ele>561</ele>
        <time>2010-01-01T02:14:24Z</time>
      </trkpt>
      <trkpt lat="44.13956" lon="2.9625">
        <ele>558</ele>
        <time>2010-01-01T02:14:30Z</time>
      </trkpt>
      <trkpt lat="44.13967" lon="2.96264">
        <ele>557</ele>
        <time>2010-01-01T02:14:36Z</time>
      </trkpt>
      <trkpt lat="44.13981" lon="2.96276">
        <ele>556</ele>
        <time>2010-01-01T02:14:42Z</time>
      </trkpt>
      <trkpt lat="44.13996" lon="2.96286">
        <ele>555</ele>
        <time>2010-01-01T02:14:49Z</time>
      </trkpt>
      <trkpt lat="44.14011" lon="2.96294">
        <ele>554</ele>
        <time>2010-01-01T02:14:55Z</time>
      </trkpt>
      <trkpt lat="44.14026" lon="2.96303">
        <ele>553</ele>
        <time>2010-01-01T02:15:02Z</time>
      </trkpt>
      <trkpt lat="44.1404" lon="2.96311">
        <ele>552</ele>
        <time>2010-01-01T02:15:08Z</time>
      </trkpt>
      <trkpt lat="44.14051" lon="2.96319">
        <ele>551</ele>
        <time>2010-01-01T02:15:13Z</time>
      </trkpt>
      <trkpt lat="44.1406" lon="2.96328">
        <ele>550</ele>
        <time>2010-01-01T02:15:17Z</time>
      </trkpt>
      <trkpt lat="44.14062" lon="2.96336">
        <ele>549</ele>
        <time>2010-01-01T02:15:20Z</time>
      </trkpt>
      <trkpt lat="44.14044" lon="2.96341">
        <ele>548</ele>
        <time>2010-01-01T02:15:27Z</time>
      </trkpt>
      <trkpt lat="44.14034" lon="2.96345">
        <ele>548</ele>
        <time>2010-01-01T02:15:31Z</time>
      </trkpt>
      <trkpt lat="44.14024" lon="2.96348">
        <ele>548</ele>
        <time>2010-01-01T02:15:35Z</time>
      </trkpt>
      <trkpt lat="44.14012" lon="2.96351">
        <ele>547</ele>
        <time>2010-01-01T02:15:40Z</time>
      </trkpt>
      <trkpt lat="44.13997" lon="2.96353">
        <ele>547</ele>
        <time>2010-01-01T02:15:46Z</time>
      </trkpt>
      <trkpt lat="44.13983" lon="2.96358">
        <ele>546</ele>
        <time>2010-01-01T02:15:52Z</time>
      </trkpt>
      <trkpt lat="44.13974" lon="2.96371">
        <ele>545</ele>
        <time>2010-01-01T02:15:57Z</time>
      </trkpt>
      <trkpt lat="44.1397" lon="2.9639">
        <ele>544</ele>
        <time>2010-01-01T02:16:03Z</time>
      </trkpt>
      <trkpt lat="44.13966" lon="2.96409">
        <ele>544</ele>
        <time>2010-01-01T02:16:08Z</time>
      </trkpt>
      <trkpt lat="44.13963" lon="2.96427">
        <ele>546</ele>
        <time>2010-01-01T02:16:14Z</time>
      </trkpt>
      <trkpt lat="44.1396" lon="2.96444">
        <ele>548</ele>
        <time>2010-01-01T02:16:19Z</time>
      </trkpt>
      <trkpt lat="44.13957" lon="2.96459">
        <ele>551</ele>
        <time>2010-01-01T02:16:23Z</time>
      </trkpt>
      <trkpt lat="44.13955" lon="2.96472">
        <ele>553</ele>
        <time>2010-01-01T02:16:27Z</time>
      </trkpt>
      <trkpt lat="44.13953" lon="2.96483">
        <ele>555</ele>
        <time>2010-01-01T02:16:30Z</time>
      </trkpt>
      <trkpt lat="44.13952" lon="2.96493">
        <ele>556</ele>
        <time>2010-01-01T02:16:33Z</time>
      </trkpt>
      <trkpt lat="44.13949" lon="2.96503">
        <ele>558</ele>
        <time>2010-01-01T02:16:36Z</time>
      </trkpt>
      <trkpt lat="44.13948" lon="2.96512">
        <ele>560</ele>
        <time>2010-01-01T02:16:39Z</time>
      </trkpt>
      <trkpt lat="44.13947" lon="2.96518">
        <ele>561</ele>
        <time>2010-01-01T02:16:41Z</time>
      </trkpt>
      <trkpt lat="44.13947" lon="2.96525">
        <ele>562</ele>
        <time>2010-01-01T02:16:43Z</time>
      </trkpt>
      <trkpt lat="44.13946" lon="2.96532">
        <ele>563</ele>
        <time>2010-01-01T02:16:45Z</time>
      </trkpt>
      <trkpt lat="44.13946" lon="2.96539">
        <ele>564</ele>
        <time>2010-01-01T02:16:47Z</time>
      </trkpt>
      <trkpt lat="44.13944" lon="2.96546">
        <ele>565</ele>
        <time>2010-01-01T02:16:49Z</time>
      </trkpt>
      <trkpt lat="44.13943" lon="2.96553">
        <ele>565</ele>
        <time>2010-01-01T02:16:51Z</time>
      </trkpt>
      <trkpt lat="44.13941" lon="2.96559">
        <ele>566</ele>
        <time>2010-01-01T02:16:53Z</time>
      </trkpt>
      <trkpt lat="44.1394" lon="2.96566">
        <ele>567</ele>
        <time>2010-01-01T02:16:55Z</time>
      </trkpt>
      <trkpt lat="44.13938" lon="2.96573">
        <ele>568</ele>
        <time>2010-01-01T02:16:57Z</time>
      </trkpt>
      <trkpt lat="44.13938" lon="2.96579">
        <ele>568</ele>
        <time>2010-01-01T02:16:59Z</time>
      </trkpt>
      <trkpt lat="44.13934" lon="2.96631">
        <ele>569</ele>
        <time>2010-01-01T02:17:14Z</time>
      </trkpt>
      <trkpt lat="44.13933" lon="2.96638">
        <ele>569</ele>
        <time>2010-01-01T02:17:16Z</time>
      </trkpt>
      <trkpt lat="44.13933" lon="2.96644">
        <ele>569</ele>
        <time>2010-01-01T02:17:18Z</time>
      </trkpt>
      <trkpt lat="44.13932" lon="2.96651">
        <ele>570</ele>
        <time>2010-01-01T02:17:20Z</time>
      </trkpt>
      <trkpt lat="44.13932" lon="2.96657">
        <ele>570</ele>
        <time>2010-01-01T02:17:21Z</time>
      </trkpt>
      <trkpt lat="44.13931" lon="2.96663">
        <ele>570</ele>
        <time>2010-01-01T02:17:23Z</time>
      </trkpt>
      <trkpt lat="44.1393" lon="2.96669">
        <ele>570</ele>
        <time>2010-01-01T02:17:25Z</time>
      </trkpt>
      <trkpt lat="44.1393" lon="2.96676">
        <ele>570</ele>
        <time>2010-01-01T02:17:27Z</time>
      </trkpt>
      <trkpt lat="44.13929" lon="2.96683">
        <ele>571</ele>
        <time>2010-01-01T02:17:29Z</time>
      </trkpt>
      <trkpt lat="44.13929" lon="2.9669">
        <ele>571</ele>
        <time>2010-01-01T02:17:31Z</time>
      </trkpt>
      <trkpt lat="44.13929" lon="2.96697">
        <ele>571</ele>
        <time>2010-01-01T02:17:33Z</time>
      </trkpt>
      <trkpt lat="44.13929" lon="2.96704">
        <ele>572</ele>
        <time>2010-01-01T02:17:35Z</time>
      </trkpt>
      <trkpt lat="44.13928" lon="2.96711">
        <ele>572</ele>
        <time>2010-01-01T02:17:37Z</time>
      </trkpt>
      <trkpt lat="44.13927" lon="2.96718">
        <ele>572</ele>
        <time>2010-01-01T02:17:39Z</time>
      </trkpt>
      <trkpt lat="44.13927" lon="2.96725">
        <ele>573</ele>
        <time>2010-01-01T02:17:41Z</time>
      </trkpt>
      <trkpt lat="44.13927" lon="2.96732">
        <ele>573</ele>
        <time>2010-01-01T02:17:43Z</time>
      </trkpt>
      <trkpt lat="44.13927" lon="2.9674">
        <ele>573</ele>
        <time>2010-01-01T02:17:45Z</time>
      </trkpt>
      <trkpt lat="44.13926" lon="2.96747">
        <ele>573</ele>
        <time>2010-01-01T02:17:47Z</time>
      </trkpt>
      <trkpt lat="44.13926" lon="2.96754">
        <ele>573</ele>
        <time>2010-01-01T02:17:50Z</time>
      </trkpt>
      <trkpt lat="44.13926" lon="2.96761">
        <ele>573</ele>
        <time>2010-01-01T02:17:52Z</time>
      </trkpt>
      <trkpt lat="44.13926" lon="2.96768">
        <ele>574</ele>
        <time>2010-01-01T02:17:53Z</time>
      </trkpt>
      <trkpt lat="44.13925" lon="2.96775">
        <ele>575</ele>
        <time>2010-01-01T02:17:55Z</time>
      </trkpt>
      <trkpt lat="44.13925" lon="2.96781">
        <ele>575</ele>
        <time>2010-01-01T02:17:57Z</time>
      </trkpt>
      <trkpt lat="44.13925" lon="2.96788">
        <ele>575</ele>
        <time>2010-01-01T02:17:59Z</time>
      </trkpt>
      <trkpt lat="44.13924" lon="2.96794">
        <ele>575</ele>
        <time>2010-01-01T02:18:01Z</time>
      </trkpt>
      <trkpt lat="44.13924" lon="2.968">
        <ele>575</ele>
        <time>2010-01-01T02:18:03Z</time>
      </trkpt>
      <trkpt lat="44.13924" lon="2.96807">
        <ele>575</ele>
        <time>2010-01-01T02:18:05Z</time>
      </trkpt>
      <trkpt lat="44.13924" lon="2.96813">
        <ele>575</ele>
        <time>2010-01-01T02:18:06Z</time>
      </trkpt>
      <trkpt lat="44.13924" lon="2.96819">
        <ele>575</ele>
        <time>2010-01-01T02:18:08Z</time>
      </trkpt>
      <trkpt lat="44.13924" lon="2.96825">
        <ele>575</ele>
        <time>2010-01-01T02:18:10Z</time>
      </trkpt>
      <trkpt lat="44.13923" lon="2.96831">
        <ele>575</ele>
        <time>2010-01-01T02:18:12Z</time>
      </trkpt>
      <trkpt lat="44.13922" lon="2.96837">
        <ele>575</ele>
        <time>2010-01-01T02:18:13Z</time>
      </trkpt>
      <trkpt lat="44.1392" lon="2.96844">
        <ele>575</ele>
        <time>2010-01-01T02:18:15Z</time>
      </trkpt>
      <trkpt lat="44.13919" lon="2.9685">
        <ele>575</ele>
        <time>2010-01-01T02:18:17Z</time>
      </trkpt>
      <trkpt lat="44.13918" lon="2.96856">
        <ele>575</ele>
        <time>2010-01-01T02:18:19Z</time>
      </trkpt>
      <trkpt lat="44.13917" lon="2.96862">
        <ele>575</ele>
        <time>2010-01-01T02:18:21Z</time>
      </trkpt>
      <trkpt lat="44.13915" lon="2.96868">
        <ele>575</ele>
        <time>2010-01-01T02:18:23Z</time>
      </trkpt>
      <trkpt lat="44.13913" lon="2.9687">
        <ele>576</ele>
        <time>2010-01-01T02:18:24Z</time>
      </trkpt>
      <trkpt lat="44.13911" lon="2.96871">
        <ele>576</ele>
        <time>2010-01-01T02:18:25Z</time>
      </trkpt>
      <trkpt lat="44.13909" lon="2.96874">
        <ele>577</ele>
        <time>2010-01-01T02:18:26Z</time>
      </trkpt>
      <trkpt lat="44.13907" lon="2.96877">
        <ele>577</ele>
        <time>2010-01-01T02:18:27Z</time>
      </trkpt>
      <trkpt lat="44.13905" lon="2.9688">
        <ele>578</ele>
        <time>2010-01-01T02:18:28Z</time>
      </trkpt>
      <trkpt lat="44.13903" lon="2.96883">
        <ele>578</ele>
        <time>2010-01-01T02:18:29Z</time>
      </trkpt>
      <trkpt lat="44.13903" lon="2.96888">
        <ele>578</ele>
        <time>2010-01-01T02:18:30Z</time>
      </trkpt>
      <trkpt lat="44.13904" lon="2.96892">
        <ele>578</ele>
        <time>2010-01-01T02:18:32Z</time>
      </trkpt>
      <trkpt lat="44.13903" lon="2.96899">
        <ele>579</ele>
        <time>2010-01-01T02:18:34Z</time>
      </trkpt>
      <trkpt lat="44.13906" lon="2.96902">
        <ele>578</ele>
        <time>2010-01-01T02:18:35Z</time>
      </trkpt>
      <trkpt lat="44.13904" lon="2.96907">
        <ele>579</ele>
        <time>2010-01-01T02:18:37Z</time>
      </trkpt>
      <trkpt lat="44.13901" lon="2.96912">
        <ele>579</ele>
        <time>2010-01-01T02:18:39Z</time>
      </trkpt>
      <trkpt lat="44.13899" lon="2.96916">
        <ele>579</ele>
        <time>2010-01-01T02:18:40Z</time>
      </trkpt>
      <trkpt lat="44.13893" lon="2.96924">
        <ele>579</ele>
        <time>2010-01-01T02:18:44Z</time>
      </trkpt>
      <trkpt lat="44.13893" lon="2.96929">
        <ele>579</ele>
        <time>2010-01-01T02:18:45Z</time>
      </trkpt>
      <trkpt lat="44.13891" lon="2.96935">
        <ele>578</ele>
        <time>2010-01-01T02:18:47Z</time>
      </trkpt>
      <trkpt lat="44.1389" lon="2.96939">
        <ele>577</ele>
        <time>2010-01-01T02:18:48Z</time>
      </trkpt>
      <trkpt lat="44.13887" lon="2.96945">
        <ele>577</ele>
        <time>2010-01-01T02:18:50Z</time>
      </trkpt>
      <trkpt lat="44.13885" lon="2.9695">
        <ele>578</ele>
        <time>2010-01-01T02:18:52Z</time>
      </trkpt>
      <trkpt lat="44.13884" lon="2.96955">
        <ele>578</ele>
        <time>2010-01-01T02:18:53Z</time>
      </trkpt>
      <trkpt lat="44.13882" lon="2.9696">
        <ele>578</ele>
        <time>2010-01-01T02:18:55Z</time>
      </trkpt>
      <trkpt lat="44.13882" lon="2.96964">
        <ele>578</ele>
        <time>2010-01-01T02:18:56Z</time>
      </trkpt>
      <trkpt lat="44.13881" lon="2.96968">
        <ele>578</ele>
        <time>2010-01-01T02:18:57Z</time>
      </trkpt>
      <trkpt lat="44.13881" lon="2.96973">
        <ele>578</ele>
        <time>2010-01-01T02:18:59Z</time>
      </trkpt>
      <trkpt lat="44.13879" lon="2.96978">
        <ele>579</ele>
        <time>2010-01-01T02:19:00Z</time>
      </trkpt>
      <trkpt lat="44.13878" lon="2.96983">
        <ele>579</ele>
        <time>2010-01-01T02:19:02Z</time>
      </trkpt>
      <trkpt lat="44.13878" lon="2.96988">
        <ele>580</ele>
        <time>2010-01-01T02:19:03Z</time>
      </trkpt>
      <trkpt lat="44.13878" lon="2.96993">
        <ele>580</ele>
        <time>2010-01-01T02:19:05Z</time>
      </trkpt>
      <trkpt lat="44.13877" lon="2.96998">
        <ele>580</ele>
        <time>2010-01-01T02:19:06Z</time>
      </trkpt>
      <trkpt lat="44.13877" lon="2.97004">
        <ele>581</ele>
        <time>2010-01-01T02:19:08Z</time>
      </trkpt>
      <trkpt lat="44.13876" lon="2.9701">
        <ele>581</ele>
        <time>2010-01-01T02:19:10Z</time>
      </trkpt>
      <trkpt lat="44.13875" lon="2.97015">
        <ele>582</ele>
        <time>2010-01-01T02:19:11Z</time>
      </trkpt>
      <trkpt lat="44.13875" lon="2.9702">
        <ele>582</ele>
        <time>2010-01-01T02:19:12Z</time>
      </trkpt>
      <trkpt lat="44.13874" lon="2.97024">
        <ele>583</ele>
        <time>2010-01-01T02:19:14Z</time>
      </trkpt>
      <trkpt lat="44.13872" lon="2.97027">
        <ele>583</ele>
        <time>2010-01-01T02:19:15Z</time>
      </trkpt>
      <trkpt lat="44.13869" lon="2.97027">
        <ele>583</ele>
        <time>2010-01-01T02:19:16Z</time>
      </trkpt>
      <trkpt lat="44.13868" lon="2.97023">
        <ele>583</ele>
        <time>2010-01-01T02:19:17Z</time>
      </trkpt>
      <trkpt lat="44.13867" lon="2.97019">
        <ele>583</ele>
        <time>2010-01-01T02:19:18Z</time>
      </trkpt>
      <trkpt lat="44.13866" lon="2.97015">
        <ele>584</ele>
        <time>2010-01-01T02:19:19Z</time>
      </trkpt>
      <trkpt lat="44.13864" lon="2.97014">
        <ele>584</ele>
        <time>2010-01-01T02:19:20Z</time>
      </trkpt>
      <trkpt lat="44.13864" lon="2.97013">
        <ele>584</ele>
        <time>2010-01-01T02:19:21Z</time>
      </trkpt>
      <trkpt lat="44.13864" lon="2.97013">
        <ele>584</ele>
        <time>2010-01-01T02:19:21Z</time>
      </trkpt>
      <trkpt lat="44.13863" lon="2.97014">
        <ele>584</ele>
        <time>2010-01-01T02:19:21Z</time>
      </trkpt>
      <trkpt lat="44.13863" lon="2.97019">
        <ele>584</ele>
        <time>2010-01-01T02:19:23Z</time>
      </trkpt>
      <trkpt lat="44.13862" lon="2.97022">
        <ele>584</ele>
        <time>2010-01-01T02:19:24Z</time>
      </trkpt>
      <trkpt lat="44.13861" lon="2.97025">
        <ele>585</ele>
        <time>2010-01-01T02:19:25Z</time>
      </trkpt>
      <trkpt lat="44.1386" lon="2.97027">
        <ele>585</ele>
        <time>2010-01-01T02:19:25Z</time>
      </trkpt>
      <trkpt lat="44.13859" lon="2.97029">
        <ele>585</ele>
        <time>2010-01-01T02:19:26Z</time>
      </trkpt>
      <trkpt lat="44.13857" lon="2.97032">
        <ele>586</ele>
        <time>2010-01-01T02:19:27Z</time>
      </trkpt>
      <trkpt lat="44.13856" lon="2.97034">
        <ele>586</ele>
        <time>2010-01-01T02:19:28Z</time>
      </trkpt>
      <trkpt lat="44.13855" lon="2.97037">
        <ele>587</ele>
        <time>2010-01-01T02:19:29Z</time>
      </trkpt>
      <trkpt lat="44.13854" lon="2.9704">
        <ele>587</ele>
        <time>2010-01-01T02:19:30Z</time>
      </trkpt>
      <trkpt lat="44.13853" lon="2.97043">
        <ele>587</ele>
        <time>2010-01-01T02:19:31Z</time>
      </trkpt>
      <trkpt lat="44.13853" lon="2.97048">
        <ele>588</ele>
        <time>2010-01-01T02:19:32Z</time>
      </trkpt>
      <trkpt lat="44.13853" lon="2.97051">
        <ele>588</ele>
        <time>2010-01-01T02:19:33Z</time>
      </trkpt>
      <trkpt lat="44.13852" lon="2.97054">
        <ele>588</ele>
        <time>2010-01-01T02:19:34Z</time>
      </trkpt>
      <trkpt lat="44.13852" lon="2.97054">
        <ele>588</ele>
        <time>2010-01-01T02:19:34Z</time>
      </trkpt>
      <trkpt lat="44.13852" lon="2.97054">
        <ele>588</ele>
        <time>2010-01-01T02:19:34Z</time>
      </trkpt>
      <trkpt lat="44.13851" lon="2.97063">
        <ele>588</ele>
        <time>2010-01-01T02:19:37Z</time>
      </trkpt>
      <trkpt lat="44.13849" lon="2.97068">
        <ele>589</ele>
        <time>2010-01-01T02:19:38Z</time>
      </trkpt>
      <trkpt lat="44.13848" lon="2.97072">
        <ele>589</ele>
        <time>2010-01-01T02:19:39Z</time>
      </trkpt>
      <trkpt lat="44.13847" lon="2.97075">
        <ele>590</ele>
        <time>2010-01-01T02:19:41Z</time>
      </trkpt>
      <trkpt lat="44.13846" lon="2.97077">
        <ele>590</ele>
        <time>2010-01-01T02:19:41Z</time>
      </trkpt>
      <trkpt lat="44.13842" lon="2.97081">
        <ele>591</ele>
        <time>2010-01-01T02:19:43Z</time>
      </trkpt>
      <trkpt lat="44.1384" lon="2.97086">
        <ele>592</ele>
        <time>2010-01-01T02:19:45Z</time>
      </trkpt>
      <trkpt lat="44.13837" lon="2.9709">
        <ele>594</ele>
        <time>2010-01-01T02:19:47Z</time>
      </trkpt>
      <trkpt lat="44.13836" lon="2.97094">
        <ele>594</ele>
        <time>2010-01-01T02:19:48Z</time>
      </trkpt>
      <trkpt lat="44.13835" lon="2.97097">
        <ele>595</ele>
        <time>2010-01-01T02:19:49Z</time>
      </trkpt>
      <trkpt lat="44.13832" lon="2.97101">
        <ele>596</ele>
        <time>2010-01-01T02:19:50Z</time>
      </trkpt>
      <trkpt lat="44.13832" lon="2.97105">
        <ele>596</ele>
        <time>2010-01-01T02:19:51Z</time>
      </trkpt>
      <trkpt lat="44.1383" lon="2.97108">
        <ele>597</ele>
        <time>2010-01-01T02:19:52Z</time>
      </trkpt>
      <trkpt lat="44.13829" lon="2.97112">
        <ele>597</ele>
        <time>2010-01-01T02:19:54Z</time>
      </trkpt>
      <trkpt lat="44.13829" lon="2.97116">
        <ele>598</ele>
        <time>2010-01-01T02:19:55Z</time>
      </trkpt>
      <trkpt lat="44.13827" lon="2.9712">
        <ele>598</ele>
        <time>2010-01-01T02:19:56Z</time>
      </trkpt>
      <trkpt lat="44.13826" lon="2.97123">
        <ele>599</ele>
        <time>2010-01-01T02:19:57Z</time>
      </trkpt>
      <trkpt lat="44.13826" lon="2.97126">
        <ele>599</ele>
        <time>2010-01-01T02:19:58Z</time>
      </trkpt>
      <trkpt lat="44.13826" lon="2.9713">
        <ele>599</ele>
        <time>2010-01-01T02:19:59Z</time>
      </trkpt>
      <trkpt lat="44.13826" lon="2.97133">
        <ele>599</ele>
        <time>2010-01-01T02:20:00Z</time>
      </trkpt>
      <trkpt lat="44.13826" lon="2.97137">
        <ele>599</ele>
        <time>2010-01-01T02:20:01Z</time>
      </trkpt>
      <trkpt lat="44.13825" lon="2.97139">
        <ele>600</ele>
        <time>2010-01-01T02:20:02Z</time>
      </trkpt>
      <trkpt lat="44.13823" lon="2.97143">
        <ele>600</ele>
        <time>2010-01-01T02:20:03Z</time>
      </trkpt>
      <trkpt lat="44.13823" lon="2.97146">
        <ele>601</ele>
        <time>2010-01-01T02:20:04Z</time>
      </trkpt>
      <trkpt lat="44.13823" lon="2.97148">
        <ele>601</ele>
        <time>2010-01-01T02:20:05Z</time>
      </trkpt>
      <trkpt lat="44.13822" lon="2.97151">
        <ele>601</ele>
        <time>2010-01-01T02:20:06Z</time>
      </trkpt>
      <trkpt lat="44.1382" lon="2.97154">
        <ele>602</ele>
        <time>2010-01-01T02:20:07Z</time>
      </trkpt>
      <trkpt lat="44.13819" lon="2.97157">
        <ele>603</ele>
        <time>2010-01-01T02:20:08Z</time>
      </trkpt>
      <trkpt lat="44.13819" lon="2.9716">
        <ele>603</ele>
        <time>2010-01-01T02:20:08Z</time>
      </trkpt>
      <trkpt lat="44.13819" lon="2.97163">
        <ele>603</ele>
        <time>2010-01-01T02:20:09Z</time>
      </trkpt>
      <trkpt lat="44.13819" lon="2.97168">
        <ele>603</ele>
        <time>2010-01-01T02:20:11Z</time>
      </trkpt>
      <trkpt lat="44.1382" lon="2.97172">
        <ele>603</ele>
        <time>2010-01-01T02:20:12Z</time>
      </trkpt>
      <trkpt lat="44.13819" lon="2.97176">
        <ele>604</ele>
        <time>2010-01-01T02:20:13Z</time>
      </trkpt>
      <trkpt lat="44.13818" lon="2.9718">
        <ele>604</ele>
        <time>2010-01-01T02:20:14Z</time>
      </trkpt>
      <trkpt lat="44.13817" lon="2.97184">
        <ele>605</ele>
        <time>2010-01-01T02:20:15Z</time>
      </trkpt>
      <trkpt lat="44.13817" lon="2.97187">
        <ele>606</ele>
        <time>2010-01-01T02:20:16Z</time>
      </trkpt>
      <trkpt lat="44.13815" lon="2.97191">
        <ele>607</ele>
        <time>2010-01-01T02:20:18Z</time>
      </trkpt>
      <trkpt lat="44.13815" lon="2.97193">
        <ele>607</ele>
        <time>2010-01-01T02:20:18Z</time>
      </trkpt>
      <trkpt lat="44.13814" lon="2.97196">
        <ele>608</ele>
        <time>2010-01-01T02:20:19Z</time>
      </trkpt>
      <trkpt lat="44.13814" lon="2.972">
        <ele>608</ele>
        <time>2010-01-01T02:20:20Z</time>
      </trkpt>
      <trkpt lat="44.13813" lon="2.97203">
        <ele>609</ele>
        <time>2010-01-01T02:20:21Z</time>
      </trkpt>
      <trkpt lat="44.13813" lon="2.97206">
        <ele>610</ele>
        <time>2010-01-01T02:20:22Z</time>
      </trkpt>
      <trkpt lat="44.13812" lon="2.97209">
        <ele>611</ele>
        <time>2010-01-01T02:20:23Z</time>
      </trkpt>
      <trkpt lat="44.13812" lon="2.97213">
        <ele>611</ele>
        <time>2010-01-01T02:20:24Z</time>
      </trkpt>
      <trkpt lat="44.13812" lon="2.97216">
        <ele>611</ele>
        <time>2010-01-01T02:20:25Z</time>
      </trkpt>
      <trkpt lat="44.13812" lon="2.9722">
        <ele>612</ele>
        <time>2010-01-01T02:20:26Z</time>
      </trkpt>
      <trkpt lat="44.13811" lon="2.97223">
        <ele>613</ele>
        <time>2010-01-01T02:20:27Z</time>
      </trkpt>
      <trkpt lat="44.13811" lon="2.97227">
        <ele>613</ele>
        <time>2010-01-01T02:20:28Z</time>
      </trkpt>
      <trkpt lat="44.13811" lon="2.97231">
        <ele>613</ele>
        <time>2010-01-01T02:20:30Z</time>
      </trkpt>
      <trkpt lat="44.1381" lon="2.97235">
        <ele>614</ele>
        <time>2010-01-01T02:20:31Z</time>
      </trkpt>
      <trkpt lat="44.13811" lon="2.97238">
        <ele>613</ele>
        <time>2010-01-01T02:20:32Z</time>
      </trkpt>
      <trkpt lat="44.13811" lon="2.97241">
        <ele>613</ele>
        <time>2010-01-01T02:20:32Z</time>
      </trkpt>
      <trkpt lat="44.13809" lon="2.97245">
        <ele>615</ele>
        <time>2010-01-01T02:20:34Z</time>
      </trkpt>
      <trkpt lat="44.13808" lon="2.97249">
        <ele>615</ele>
        <time>2010-01-01T02:20:35Z</time>
      </trkpt>
      <trkpt lat="44.13808" lon="2.97252">
        <ele>615</ele>
        <time>2010-01-01T02:20:36Z</time>
      </trkpt>
      <trkpt lat="44.13808" lon="2.97255">
        <ele>616</ele>
        <time>2010-01-01T02:20:37Z</time>
      </trkpt>
      <trkpt lat="44.13807" lon="2.97258">
        <ele>616</ele>
        <time>2010-01-01T02:20:38Z</time>
      </trkpt>
      <trkpt lat="44.13807" lon="2.9726">
        <ele>616</ele>
        <time>2010-01-01T02:20:38Z</time>
      </trkpt>
      <trkpt lat="44.13806" lon="2.97264">
        <ele>617</ele>
        <time>2010-01-01T02:20:39Z</time>
      </trkpt>
      <trkpt lat="44.13807" lon="2.97267">
        <ele>617</ele>
        <time>2010-01-01T02:20:40Z</time>
      </trkpt>
      <trkpt lat="44.13806" lon="2.97271">
        <ele>618</ele>
        <time>2010-01-01T02:20:41Z</time>
      </trkpt>
      <trkpt lat="44.13806" lon="2.97274">
        <ele>618</ele>
        <time>2010-01-01T02:20:42Z</time>
      </trkpt>
      <trkpt lat="44.13805" lon="2.97278">
        <ele>619</ele>
        <time>2010-01-01T02:20:43Z</time>
      </trkpt>
      <trkpt lat="44.13805" lon="2.97281">
        <ele>619</ele>
        <time>2010-01-01T02:20:44Z</time>
      </trkpt>
      <trkpt lat="44.13806" lon="2.97283">
        <ele>618</ele>
        <time>2010-01-01T02:20:45Z</time>
      </trkpt>
      <trkpt lat="44.13807" lon="2.97287">
        <ele>618</ele>
        <time>2010-01-01T02:20:46Z</time>
      </trkpt>
      <trkpt lat="44.13807" lon="2.9729">
        <ele>618</ele>
        <time>2010-01-01T02:20:47Z</time>
      </trkpt>
      <trkpt lat="44.13808" lon="2.97293">
        <ele>618</ele>
        <time>2010-01-01T02:20:48Z</time>
      </trkpt>
      <trkpt lat="44.13806" lon="2.97296">
        <ele>619</ele>
        <time>2010-01-01T02:20:49Z</time>
      </trkpt>
      <trkpt lat="44.13806" lon="2.97296">
        <ele>619</ele>
        <time>2010-01-01T02:20:49Z</time>
      </trkpt>
      <trkpt lat="44.13807" lon="2.97297">
        <ele>619</ele>
        <time>2010-01-01T02:20:49Z</time>
      </trkpt>
      <trkpt lat="44.13807" lon="2.97301">
        <ele>619</ele>
        <time>2010-01-01T02:20:51Z</time>
      </trkpt>
      <trkpt lat="44.13807" lon="2.97304">
        <ele>619</ele>
        <time>2010-01-01T02:20:52Z</time>
      </trkpt>
      <trkpt lat="44.13807" lon="2.97307">
        <ele>619</ele>
        <time>2010-01-01T02:20:52Z</time>
      </trkpt>
      <trkpt lat="44.13806" lon="2.9731">
        <ele>620</ele>
        <time>2010-01-01T02:20:53Z</time>
      </trkpt>
      <trkpt lat="44.13806" lon="2.97312">
        <ele>620</ele>
        <time>2010-01-01T02:20:54Z</time>
      </trkpt>
      <trkpt lat="44.13806" lon="2.97315">
        <ele>620</ele>
        <time>2010-01-01T02:20:55Z</time>
      </trkpt>
      <trkpt lat="44.13806" lon="2.97317">
        <ele>621</ele>
        <time>2010-01-01T02:20:55Z</time>
      </trkpt>
      <trkpt lat="44.13806" lon="2.97319">
        <ele>621</ele>
        <time>2010-01-01T02:20:56Z</time>
      </trkpt>
      <trkpt lat="44.13806" lon="2.97321">
        <ele>621</ele>
        <time>2010-01-01T02:20:57Z</time>
      </trkpt>
      <trkpt lat="44.13805" lon="2.97324">
        <ele>622</ele>
        <time>2010-01-01T02:20:57Z</time>
      </trkpt>
      <trkpt lat="44.13806" lon="2.97327">
        <ele>622</ele>
        <time>2010-01-01T02:20:58Z</time>
      </trkpt>
      <trkpt lat="44.13805" lon="2.97329">
        <ele>622</ele>
        <time>2010-01-01T02:20:59Z</time>
      </trkpt>
      <trkpt lat="44.13805" lon="2.97331">
        <ele>622</ele>
        <time>2010-01-01T02:21:00Z</time>
      </trkpt>
      <trkpt lat="44.13805" lon="2.97334">
        <ele>623</ele>
        <time>2010-01-01T02:21:00Z</time>
      </trkpt>
      <trkpt lat="44.13805" lon="2.97337">
        <ele>623</ele>
        <time>2010-01-01T02:21:01Z</time>
      </trkpt>
      <trkpt lat="44.13805" lon="2.97339">
        <ele>623</ele>
        <time>2010-01-01T02:21:02Z</time>
      </trkpt>
      <trkpt lat="44.13805" lon="2.97341">
        <ele>624</ele>
        <time>2010-01-01T02:21:02Z</time>
      </trkpt>
      <trkpt lat="44.13805" lon="2.97343">
        <ele>624</ele>
        <time>2010-01-01T02:21:03Z</time>
      </trkpt>
      <trkpt lat="44.13805" lon="2.97345">
        <ele>624</ele>
        <time>2010-01-01T02:21:04Z</time>
      </trkpt>
      <trkpt lat="44.13804" lon="2.97347">
        <ele>625</ele>
        <time>2010-01-01T02:21:04Z</time>
      </trkpt>
      <trkpt lat="44.13804" lon="2.97348">
        <ele>625</ele>
        <time>2010-01-01T02:21:04Z</time>
      </trkpt>
      <trkpt lat="44.13803" lon="2.9735">
        <ele>625</ele>
        <time>2010-01-01T02:21:05Z</time>
      </trkpt>
      <trkpt lat="44.13803" lon="2.97352">
        <ele>626</ele>
        <time>2010-01-01T02:21:06Z</time>
      </trkpt>
      <trkpt lat="44.13803" lon="2.97355">
        <ele>626</ele>
        <time>2010-01-01T02:21:06Z</time>
      </trkpt>
      <trkpt lat="44.13802" lon="2.97357">
        <ele>627</ele>
        <time>2010-01-01T02:21:07Z</time>
      </trkpt>
      <trkpt lat="44.13803" lon="2.97359">
        <ele>627</ele>
        <time>2010-01-01T02:21:08Z</time>
      </trkpt>
      <trkpt lat="44.13802" lon="2.97362">
        <ele>627</ele>
        <time>2010-01-01T02:21:08Z</time>
      </trkpt>
      <trkpt lat="44.13802" lon="2.97364">
        <ele>627</ele>
        <time>2010-01-01T02:21:09Z</time>
      </trkpt>
      <trkpt lat="44.13803" lon="2.97366">
        <ele>628</ele>
        <time>2010-01-01T02:21:10Z</time>
      </trkpt>
      <trkpt lat="44.13802" lon="2.97369">
        <ele>628</ele>
        <time>2010-01-01T02:21:11Z</time>
      </trkpt>
      <trkpt lat="44.13801" lon="2.97371">
        <ele>629</ele>
        <time>2010-01-01T02:21:11Z</time>
      </trkpt>
      <trkpt lat="44.13801" lon="2.97373">
        <ele>630</ele>
        <time>2010-01-01T02:21:12Z</time>
      </trkpt>
      <trkpt lat="44.13799" lon="2.97375">
        <ele>631</ele>
        <time>2010-01-01T02:21:13Z</time>
      </trkpt>
      <trkpt lat="44.13799" lon="2.97377">
        <ele>631</ele>
        <time>2010-01-01T02:21:13Z</time>
      </trkpt>
      <trkpt lat="44.13799" lon="2.97379">
        <ele>631</ele>
        <time>2010-01-01T02:21:14Z</time>
      </trkpt>
      <trkpt lat="44.13799" lon="2.97381">
        <ele>632</ele>
        <time>2010-01-01T02:21:15Z</time>
      </trkpt>
      <trkpt lat="44.13798" lon="2.97384">
        <ele>632</ele>
        <time>2010-01-01T02:21:15Z</time>
      </trkpt>
      <trkpt lat="44.13798" lon="2.97386">
        <ele>633</ele>
        <time>2010-01-01T02:21:16Z</time>
      </trkpt>
      <trkpt lat="44.13798" lon="2.97388">
        <ele>633</ele>
        <time>2010-01-01T02:21:16Z</time>
      </trkpt>
      <trkpt lat="44.13798" lon="2.97391">
        <ele>633</ele>
        <time>2010-01-01T02:21:17Z</time>
      </trkpt>
      <trkpt lat="44.13798" lon="2.97393">
        <ele>634</ele>
        <time>2010-01-01T02:21:18Z</time>
      </trkpt>
      <trkpt lat="44.13798" lon="2.97396">
        <ele>634</ele>
        <time>2010-01-01T02:21:19Z</time>
      </trkpt>
      <trkpt lat="44.13797" lon="2.97398">
        <ele>635</ele>
        <time>2010-01-01T02:21:19Z</time>
      </trkpt>
      <trkpt lat="44.13797" lon="2.974">
        <ele>635</ele>
        <time>2010-01-01T02:21:20Z</time>
      </trkpt>
      <trkpt lat="44.13797" lon="2.97403">
        <ele>636</ele>
        <time>2010-01-01T02:21:21Z</time>
      </trkpt>
      <trkpt lat="44.13797" lon="2.97405">
        <ele>636</ele>
        <time>2010-01-01T02:21:21Z</time>
      </trkpt>
      <trkpt lat="44.13797" lon="2.97407">
        <ele>636</ele>
        <time>2010-01-01T02:21:22Z</time>
      </trkpt>
      <trkpt lat="44.13797" lon="2.9741">
        <ele>637</ele>
        <time>2010-01-01T02:21:23Z</time>
      </trkpt>
      <trkpt lat="44.13797" lon="2.97412">
        <ele>637</ele>
        <time>2010-01-01T02:21:23Z</time>
      </trkpt>
      <trkpt lat="44.13797" lon="2.97414">
        <ele>637</ele>
        <time>2010-01-01T02:21:24Z</time>
      </trkpt>
      <trkpt lat="44.13798" lon="2.97417">
        <ele>638</ele>
        <time>2010-01-01T02:21:25Z</time>
      </trkpt>
      <trkpt lat="44.13797" lon="2.97419">
        <ele>638</ele>
        <time>2010-01-01T02:21:25Z</time>
      </trkpt>
      <trkpt lat="44.13797" lon="2.97421">
        <ele>638</ele>
        <time>2010-01-01T02:21:26Z</time>
      </trkpt>
      <trkpt lat="44.13797" lon="2.97423">
        <ele>638</ele>
        <time>2010-01-01T02:21:27Z</time>
      </trkpt>
      <trkpt lat="44.13797" lon="2.97426">
        <ele>639</ele>
        <time>2010-01-01T02:21:28Z</time>
      </trkpt>
      <trkpt lat="44.13797" lon="2.97428">
        <ele>639</ele>
        <time>2010-01-01T02:21:28Z</time>
      </trkpt>
      <trkpt lat="44.13797" lon="2.9743">
        <ele>639</ele>
        <time>2010-01-01T02:21:29Z</time>
      </trkpt>
      <trkpt lat="44.13797" lon="2.97433">
        <ele>640</ele>
        <time>2010-01-01T02:21:30Z</time>
      </trkpt>
      <trkpt lat="44.13797" lon="2.97435">
        <ele>640</ele>
        <time>2010-01-01T02:21:30Z</time>
      </trkpt>
      <trkpt lat="44.13797" lon="2.97437">
        <ele>640</ele>
        <time>2010-01-01T02:21:31Z</time>
      </trkpt>
      <trkpt lat="44.13797" lon="2.97439">
        <ele>640</ele>
        <time>2010-01-01T02:21:31Z</time>
      </trkpt>
      <trkpt lat="44.13796" lon="2.9744">
        <ele>641</ele>
        <time>2010-01-01T02:21:32Z</time>
      </trkpt>
      <trkpt lat="44.13795" lon="2.97443">
        <ele>641</ele>
        <time>2010-01-01T02:21:33Z</time>
      </trkpt>
      <trkpt lat="44.13795" lon="2.97445">
        <ele>642</ele>
        <time>2010-01-01T02:21:33Z</time>
      </trkpt>
      <trkpt lat="44.13796" lon="2.97447">
        <ele>642</ele>
        <time>2010-01-01T02:21:34Z</time>
      </trkpt>
      <trkpt lat="44.13796" lon="2.97449">
        <ele>642</ele>
        <time>2010-01-01T02:21:35Z</time>
      </trkpt>
      <trkpt lat="44.13796" lon="2.97452">
        <ele>642</ele>
        <time>2010-01-01T02:21:35Z</time>
      </trkpt>
      <trkpt lat="44.13795" lon="2.97454">
        <ele>642</ele>
        <time>2010-01-01T02:21:36Z</time>
      </trkpt>
      <trkpt lat="44.13795" lon="2.97456">
        <ele>643</ele>
        <time>2010-01-01T02:21:37Z</time>
      </trkpt>
      <trkpt lat="44.13794" lon="2.97459">
        <ele>643</ele>
        <time>2010-01-01T02:21:37Z</time>
      </trkpt>
      <trkpt lat="44.13794" lon="2.97461">
        <ele>644</ele>
        <time>2010-01-01T02:21:38Z</time>
      </trkpt>
      <trkpt lat="44.13794" lon="2.97463">
        <ele>644</ele>
        <time>2010-01-01T02:21:39Z</time>
      </trkpt>
      <trkpt lat="44.13793" lon="2.97466">
        <ele>644</ele>
        <time>2010-01-01T02:21:39Z</time>
      </trkpt>
      <trkpt lat="44.13793" lon="2.97468">
        <ele>644</ele>
        <time>2010-01-01T02:21:40Z</time>
      </trkpt>
      <trkpt lat="44.13793" lon="2.97471">
        <ele>645</ele>
        <time>2010-01-01T02:21:41Z</time>
      </trkpt>
      <trkpt lat="44.13793" lon="2.97473">
        <ele>645</ele>
        <time>2010-01-01T02:21:41Z</time>
      </trkpt>
      <trkpt lat="44.13793" lon="2.97476">
        <ele>645</ele>
        <time>2010-01-01T02:21:42Z</time>
      </trkpt>
      <trkpt lat="44.13794" lon="2.97478">
        <ele>645</ele>
        <time>2010-01-01T02:21:43Z</time>
      </trkpt>
      <trkpt lat="44.13794" lon="2.97481">
        <ele>645</ele>
        <time>2010-01-01T02:21:44Z</time>
      </trkpt>
      <trkpt lat="44.13794" lon="2.97484">
        <ele>645</ele>
        <time>2010-01-01T02:21:45Z</time>
      </trkpt>
      <trkpt lat="44.13794" lon="2.97487">
        <ele>645</ele>
        <time>2010-01-01T02:21:45Z</time>
      </trkpt>
      <trkpt lat="44.13793" lon="2.97489">
        <ele>646</ele>
        <time>2010-01-01T02:21:46Z</time>
      </trkpt>
      <trkpt lat="44.13793" lon="2.97492">
        <ele>646</ele>
        <time>2010-01-01T02:21:47Z</time>
      </trkpt>
      <trkpt lat="44.13793" lon="2.97495">
        <ele>646</ele>
        <time>2010-01-01T02:21:48Z</time>
      </trkpt>
      <trkpt lat="44.13793" lon="2.97498">
        <ele>646</ele>
        <time>2010-01-01T02:21:49Z</time>
      </trkpt>
      <trkpt lat="44.13793" lon="2.97501">
        <ele>647</ele>
        <time>2010-01-01T02:21:49Z</time>
      </trkpt>
      <trkpt lat="44.13793" lon="2.97503">
        <ele>647</ele>
        <time>2010-01-01T02:21:50Z</time>
      </trkpt>
      <trkpt lat="44.13793" lon="2.97506">
        <ele>647</ele>
        <time>2010-01-01T02:21:51Z</time>
      </trkpt>
      <trkpt lat="44.13793" lon="2.97508">
        <ele>647</ele>
        <time>2010-01-01T02:21:52Z</time>
      </trkpt>
      <trkpt lat="44.13793" lon="2.97511">
        <ele>648</ele>
        <time>2010-01-01T02:21:52Z</time>
      </trkpt>
      <trkpt lat="44.13793" lon="2.97514">
        <ele>648</ele>
        <time>2010-01-01T02:21:53Z</time>
      </trkpt>
      <trkpt lat="44.13793" lon="2.97516">
        <ele>648</ele>
        <time>2010-01-01T02:21:54Z</time>
      </trkpt>
      <trkpt lat="44.13793" lon="2.97519">
        <ele>649</ele>
        <time>2010-01-01T02:21:55Z</time>
      </trkpt>
      <trkpt lat="44.13792" lon="2.97522">
        <ele>649</ele>
        <time>2010-01-01T02:21:56Z</time>
      </trkpt>
      <trkpt lat="44.13791" lon="2.97526">
        <ele>650</ele>
        <time>2010-01-01T02:21:57Z</time>
      </trkpt>
      <trkpt lat="44.13791" lon="2.97528">
        <ele>650</ele>
        <time>2010-01-01T02:21:58Z</time>
      </trkpt>
      <trkpt lat="44.1379" lon="2.97531">
        <ele>651</ele>
        <time>2010-01-01T02:21:58Z</time>
      </trkpt>
      <trkpt lat="44.1379" lon="2.97534">
        <ele>651</ele>
        <time>2010-01-01T02:21:59Z</time>
      </trkpt>
      <trkpt lat="44.1379" lon="2.97536">
        <ele>651</ele>
        <time>2010-01-01T02:22:00Z</time>
      </trkpt>
      <trkpt lat="44.1379" lon="2.97539">
        <ele>652</ele>
        <time>2010-01-01T02:22:01Z</time>
      </trkpt>
      <trkpt lat="44.1379" lon="2.97542">
        <ele>652</ele>
        <time>2010-01-01T02:22:01Z</time>
      </trkpt>
      <trkpt lat="44.13789" lon="2.97544">
        <ele>652</ele>
        <time>2010-01-01T02:22:02Z</time>
      </trkpt>
      <trkpt lat="44.1379" lon="2.97547">
        <ele>653</ele>
        <time>2010-01-01T02:22:03Z</time>
      </trkpt>
      <trkpt lat="44.13789" lon="2.97549">
        <ele>653</ele>
        <time>2010-01-01T02:22:04Z</time>
      </trkpt>
      <trkpt lat="44.13789" lon="2.97552">
        <ele>653</ele>
        <time>2010-01-01T02:22:04Z</time>
      </trkpt>
      <trkpt lat="44.13789" lon="2.97555">
        <ele>654</ele>
        <time>2010-01-01T02:22:05Z</time>
      </trkpt>
      <trkpt lat="44.13789" lon="2.97558">
        <ele>654</ele>
        <time>2010-01-01T02:22:06Z</time>
      </trkpt>
      <trkpt lat="44.13789" lon="2.97561">
        <ele>654</ele>
        <time>2010-01-01T02:22:07Z</time>
      </trkpt>
      <trkpt lat="44.13789" lon="2.97563">
        <ele>654</ele>
        <time>2010-01-01T02:22:08Z</time>
      </trkpt>
      <trkpt lat="44.13789" lon="2.97566">
        <ele>654</ele>
        <time>2010-01-01T02:22:08Z</time>
      </trkpt>
      <trkpt lat="44.13789" lon="2.97569">
        <ele>654</ele>
        <time>2010-01-01T02:22:09Z</time>
      </trkpt>
      <trkpt lat="44.13789" lon="2.97572">
        <ele>654</ele>
        <time>2010-01-01T02:22:10Z</time>
      </trkpt>
      <trkpt lat="44.13789" lon="2.97574">
        <ele>654</ele>
        <time>2010-01-01T02:22:11Z</time>
      </trkpt>
      <trkpt lat="44.13789" lon="2.97576">
        <ele>654</ele>
        <time>2010-01-01T02:22:11Z</time>
      </trkpt>
      <trkpt lat="44.13789" lon="2.97579">
        <ele>654</ele>
        <time>2010-01-01T02:22:12Z</time>
      </trkpt>
      <trkpt lat="44.13788" lon="2.97581">
        <ele>655</ele>
        <time>2010-01-01T02:22:13Z</time>
      </trkpt>
      <trkpt lat="44.13788" lon="2.97584">
        <ele>655</ele>
        <time>2010-01-01T02:22:14Z</time>
      </trkpt>
      <trkpt lat="44.13787" lon="2.97587">
        <ele>656</ele>
        <time>2010-01-01T02:22:15Z</time>
      </trkpt>
      <trkpt lat="44.13786" lon="2.9759">
        <ele>656</ele>
        <time>2010-01-01T02:22:16Z</time>
      </trkpt>
      <trkpt lat="44.13786" lon="2.97593">
        <ele>656</ele>
        <time>2010-01-01T02:22:16Z</time>
      </trkpt>
      <trkpt lat="44.13785" lon="2.97595">
        <ele>657</ele>
        <time>2010-01-01T02:22:17Z</time>
      </trkpt>
      <trkpt lat="44.13785" lon="2.97597">
        <ele>657</ele>
        <time>2010-01-01T02:22:18Z</time>
      </trkpt>
      <trkpt lat="44.13784" lon="2.976">
        <ele>658</ele>
        <time>2010-01-01T02:22:18Z</time>
      </trkpt>
      <trkpt lat="44.13784" lon="2.97603">
        <ele>658</ele>
        <time>2010-01-01T02:22:19Z</time>
      </trkpt>
      <trkpt lat="44.13784" lon="2.97606">
        <ele>658</ele>
        <time>2010-01-01T02:22:20Z</time>
      </trkpt>
      <trkpt lat="44.13783" lon="2.97609">
        <ele>659</ele>
        <time>2010-01-01T02:22:21Z</time>
      </trkpt>
      <trkpt lat="44.13782" lon="2.97612">
        <ele>659</ele>
        <time>2010-01-01T02:22:22Z</time>
      </trkpt>
      <trkpt lat="44.13782" lon="2.97614">
        <ele>660</ele>
        <time>2010-01-01T02:22:23Z</time>
      </trkpt>
      <trkpt lat="44.13782" lon="2.97617">
        <ele>660</ele>
        <time>2010-01-01T02:22:24Z</time>
      </trkpt>
      <trkpt lat="44.13782" lon="2.97621">
        <ele>661</ele>
        <time>2010-01-01T02:22:25Z</time>
      </trkpt>
      <trkpt lat="44.13782" lon="2.97624">
        <ele>661</ele>
        <time>2010-01-01T02:22:26Z</time>
      </trkpt>
      <trkpt lat="44.13782" lon="2.97627">
        <ele>662</ele>
        <time>2010-01-01T02:22:27Z</time>
      </trkpt>
      <trkpt lat="44.13782" lon="2.97631">
        <ele>663</ele>
        <time>2010-01-01T02:22:28Z</time>
      </trkpt>
      <trkpt lat="44.13781" lon="2.97634">
        <ele>663</ele>
        <time>2010-01-01T02:22:29Z</time>
      </trkpt>
      <trkpt lat="44.13781" lon="2.97637">
        <ele>664</ele>
        <time>2010-01-01T02:22:29Z</time>
      </trkpt>
      <trkpt lat="44.1378" lon="2.9764">
        <ele>665</ele>
        <time>2010-01-01T02:22:30Z</time>
      </trkpt>
      <trkpt lat="44.1378" lon="2.97643">
        <ele>665</ele>
        <time>2010-01-01T02:22:31Z</time>
      </trkpt>
      <trkpt lat="44.13779" lon="2.97646">
        <ele>666</ele>
        <time>2010-01-01T02:22:32Z</time>
      </trkpt>
      <trkpt lat="44.13779" lon="2.9765">
        <ele>667</ele>
        <time>2010-01-01T02:22:33Z</time>
      </trkpt>
      <trkpt lat="44.13779" lon="2.97653">
        <ele>667</ele>
        <time>2010-01-01T02:22:34Z</time>
      </trkpt>
      <trkpt lat="44.13778" lon="2.97657">
        <ele>668</ele>
        <time>2010-01-01T02:22:35Z</time>
      </trkpt>
      <trkpt lat="44.13778" lon="2.9766">
        <ele>668</ele>
        <time>2010-01-01T02:22:36Z</time>
      </trkpt>
      <trkpt lat="44.13778" lon="2.97663">
        <ele>669</ele>
        <time>2010-01-01T02:22:37Z</time>
      </trkpt>
      <trkpt lat="44.13777" lon="2.97666">
        <ele>670</ele>
        <time>2010-01-01T02:22:38Z</time>
      </trkpt>
      <trkpt lat="44.13777" lon="2.97669">
        <ele>670</ele>
        <time>2010-01-01T02:22:39Z</time>
      </trkpt>
      <trkpt lat="44.13777" lon="2.97673">
        <ele>670</ele>
        <time>2010-01-01T02:22:40Z</time>
      </trkpt>
      <trkpt lat="44.13776" lon="2.97676">
        <ele>671</ele>
        <time>2010-01-01T02:22:41Z</time>
      </trkpt>
      <trkpt lat="44.13776" lon="2.97678">
        <ele>671</ele>
        <time>2010-01-01T02:22:41Z</time>
      </trkpt>
      <trkpt lat="44.13776" lon="2.97681">
        <ele>671</ele>
        <time>2010-01-01T02:22:42Z</time>
      </trkpt>
      <trkpt lat="44.13775" lon="2.97684">
        <ele>671</ele>
        <time>2010-01-01T02:22:43Z</time>
      </trkpt>
      <trkpt lat="44.13774" lon="2.97686">
        <ele>672</ele>
        <time>2010-01-01T02:22:44Z</time>
      </trkpt>
      <trkpt lat="44.13774" lon="2.97689">
        <ele>672</ele>
        <time>2010-01-01T02:22:45Z</time>
      </trkpt>
      <trkpt lat="44.13773" lon="2.97691">
        <ele>672</ele>
        <time>2010-01-01T02:22:45Z</time>
      </trkpt>
      <trkpt lat="44.13773" lon="2.97693">
        <ele>673</ele>
        <time>2010-01-01T02:22:46Z</time>
      </trkpt>
      <trkpt lat="44.13772" lon="2.97696">
        <ele>673</ele>
        <time>2010-01-01T02:22:47Z</time>
      </trkpt>
      <trkpt lat="44.13771" lon="2.97698">
        <ele>673</ele>
        <time>2010-01-01T02:22:47Z</time>
      </trkpt>
      <trkpt lat="44.13771" lon="2.977">
        <ele>674</ele>
        <time>2010-01-01T02:22:48Z</time>
      </trkpt>
      <trkpt lat="44.1377" lon="2.97703">
        <ele>674</ele>
        <time>2010-01-01T02:22:49Z</time>
      </trkpt>
      <trkpt lat="44.1377" lon="2.97706">
        <ele>674</ele>
        <time>2010-01-01T02:22:50Z</time>
      </trkpt>
      <trkpt lat="44.1377" lon="2.97709">
        <ele>674</ele>
        <time>2010-01-01T02:22:51Z</time>
      </trkpt>
      <trkpt lat="44.13769" lon="2.97712">
        <ele>675</ele>
        <time>2010-01-01T02:22:52Z</time>
      </trkpt>
      <trkpt lat="44.13769" lon="2.97715">
        <ele>675</ele>
        <time>2010-01-01T02:22:53Z</time>
      </trkpt>
      <trkpt lat="44.13769" lon="2.97717">
        <ele>675</ele>
        <time>2010-01-01T02:22:53Z</time>
      </trkpt>
      <trkpt lat="44.13769" lon="2.9772">
        <ele>675</ele>
        <time>2010-01-01T02:22:54Z</time>
      </trkpt>
      <trkpt lat="44.13768" lon="2.97723">
        <ele>675</ele>
        <time>2010-01-01T02:22:55Z</time>
      </trkpt>
      <trkpt lat="44.13768" lon="2.97725">
        <ele>676</ele>
        <time>2010-01-01T02:22:56Z</time>
      </trkpt>
      <trkpt lat="44.13767" lon="2.97728">
        <ele>676</ele>
        <time>2010-01-01T02:22:56Z</time>
      </trkpt>
      <trkpt lat="44.13766" lon="2.97731">
        <ele>676</ele>
        <time>2010-01-01T02:22:57Z</time>
      </trkpt>
      <trkpt lat="44.13766" lon="2.97733">
        <ele>676</ele>
        <time>2010-01-01T02:22:58Z</time>
      </trkpt>
      <trkpt lat="44.13765" lon="2.97736">
        <ele>676</ele>
        <time>2010-01-01T02:22:59Z</time>
      </trkpt>
      <trkpt lat="44.13765" lon="2.97739">
        <ele>677</ele>
        <time>2010-01-01T02:23:00Z</time>
      </trkpt>
      <trkpt lat="44.13764" lon="2.97741">
        <ele>677</ele>
        <time>2010-01-01T02:23:00Z</time>
      </trkpt>
      <trkpt lat="44.13763" lon="2.97743">
        <ele>677</ele>
        <time>2010-01-01T02:23:01Z</time>
      </trkpt>
      <trkpt lat="44.13763" lon="2.97746">
        <ele>677</ele>
        <time>2010-01-01T02:23:02Z</time>
      </trkpt>
      <trkpt lat="44.13763" lon="2.97748">
        <ele>677</ele>
        <time>2010-01-01T02:23:03Z</time>
      </trkpt>
      <trkpt lat="44.13761" lon="2.97751">
        <ele>678</ele>
        <time>2010-01-01T02:23:04Z</time>
      </trkpt>
      <trkpt lat="44.1376" lon="2.97754">
        <ele>678</ele>
        <time>2010-01-01T02:23:04Z</time>
      </trkpt>
      <trkpt lat="44.13759" lon="2.97756">
        <ele>679</ele>
        <time>2010-01-01T02:23:05Z</time>
      </trkpt>
      <trkpt lat="44.13759" lon="2.97759">
        <ele>679</ele>
        <time>2010-01-01T02:23:06Z</time>
      </trkpt>
      <trkpt lat="44.13758" lon="2.97762">
        <ele>679</ele>
        <time>2010-01-01T02:23:07Z</time>
      </trkpt>
      <trkpt lat="44.13756" lon="2.97764">
        <ele>680</ele>
        <time>2010-01-01T02:23:08Z</time>
      </trkpt>
      <trkpt lat="44.13755" lon="2.97767">
        <ele>680</ele>
        <time>2010-01-01T02:23:09Z</time>
      </trkpt>
      <trkpt lat="44.13754" lon="2.9777">
        <ele>680</ele>
        <time>2010-01-01T02:23:10Z</time>
      </trkpt>
      <trkpt lat="44.13753" lon="2.97773">
        <ele>681</ele>
        <time>2010-01-01T02:23:11Z</time>
      </trkpt>
      <trkpt lat="44.13752" lon="2.97776">
        <ele>681</ele>
        <time>2010-01-01T02:23:12Z</time>
      </trkpt>
      <trkpt lat="44.13751" lon="2.97779">
        <ele>681</ele>
        <time>2010-01-01T02:23:13Z</time>
      </trkpt>
      <trkpt lat="44.1375" lon="2.97782">
        <ele>681</ele>
        <time>2010-01-01T02:23:14Z</time>
      </trkpt>
      <trkpt lat="44.13749" lon="2.97785">
        <ele>682</ele>
        <time>2010-01-01T02:23:14Z</time>
      </trkpt>
      <trkpt lat="44.13748" lon="2.97787">
        <ele>682</ele>
        <time>2010-01-01T02:23:15Z</time>
      </trkpt>
      <trkpt lat="44.13747" lon="2.97791">
        <ele>683</ele>
        <time>2010-01-01T02:23:16Z</time>
      </trkpt>
      <trkpt lat="44.13746" lon="2.97794">
        <ele>683</ele>
        <time>2010-01-01T02:23:17Z</time>
      </trkpt>
      <trkpt lat="44.13745" lon="2.97797">
        <ele>684</ele>
        <time>2010-01-01T02:23:18Z</time>
      </trkpt>
      <trkpt lat="44.13744" lon="2.978">
        <ele>684</ele>
        <time>2010-01-01T02:23:19Z</time>
      </trkpt>
      <trkpt lat="44.13743" lon="2.97802">
        <ele>685</ele>
        <time>2010-01-01T02:23:20Z</time>
      </trkpt>
      <trkpt lat="44.13741" lon="2.97805">
        <ele>685</ele>
        <time>2010-01-01T02:23:21Z</time>
      </trkpt>
      <trkpt lat="44.1374" lon="2.97807">
        <ele>686</ele>
        <time>2010-01-01T02:23:22Z</time>
      </trkpt>
      <trkpt lat="44.13739" lon="2.97808">
        <ele>686</ele>
        <time>2010-01-01T02:23:23Z</time>
      </trkpt>
      <trkpt lat="44.13737" lon="2.97809">
        <ele>687</ele>
        <time>2010-01-01T02:23:23Z</time>
      </trkpt>
      <trkpt lat="44.13736" lon="2.97807">
        <ele>687</ele>
        <time>2010-01-01T02:23:24Z</time>
      </trkpt>
      <trkpt lat="44.13734" lon="2.97805">
        <ele>688</ele>
        <time>2010-01-01T02:23:25Z</time>
      </trkpt>
      <trkpt lat="44.13734" lon="2.97803">
        <ele>688</ele>
        <time>2010-01-01T02:23:25Z</time>
      </trkpt>
      <trkpt lat="44.13733" lon="2.978">
        <ele>688</ele>
        <time>2010-01-01T02:23:26Z</time>
      </trkpt>
      <trkpt lat="44.13732" lon="2.97799">
        <ele>688</ele>
        <time>2010-01-01T02:23:27Z</time>
      </trkpt>
      <trkpt lat="44.1373" lon="2.97797">
        <ele>689</ele>
        <time>2010-01-01T02:23:28Z</time>
      </trkpt>
      <trkpt lat="44.13729" lon="2.97796">
        <ele>689</ele>
        <time>2010-01-01T02:23:28Z</time>
      </trkpt>
      <trkpt lat="44.13728" lon="2.97794">
        <ele>689</ele>
        <time>2010-01-01T02:23:29Z</time>
      </trkpt>
      <trkpt lat="44.13728" lon="2.97792">
        <ele>690</ele>
        <time>2010-01-01T02:23:30Z</time>
      </trkpt>
      <trkpt lat="44.13727" lon="2.97789">
        <ele>690</ele>
        <time>2010-01-01T02:23:30Z</time>
      </trkpt>
      <trkpt lat="44.13726" lon="2.97786">
        <ele>690</ele>
        <time>2010-01-01T02:23:31Z</time>
      </trkpt>
      <trkpt lat="44.13726" lon="2.97784">
        <ele>690</ele>
        <time>2010-01-01T02:23:32Z</time>
      </trkpt>
      <trkpt lat="44.13725" lon="2.97781">
        <ele>691</ele>
        <time>2010-01-01T02:23:33Z</time>
      </trkpt>
      <trkpt lat="44.13723" lon="2.9778">
        <ele>691</ele>
        <time>2010-01-01T02:23:34Z</time>
      </trkpt>
      <trkpt lat="44.13721" lon="2.97778">
        <ele>692</ele>
        <time>2010-01-01T02:23:34Z</time>
      </trkpt>
      <trkpt lat="44.1372" lon="2.97776">
        <ele>692</ele>
        <time>2010-01-01T02:23:35Z</time>
      </trkpt>
      <trkpt lat="44.13719" lon="2.97774">
        <ele>693</ele>
        <time>2010-01-01T02:23:36Z</time>
      </trkpt>
      <trkpt lat="44.13718" lon="2.97772">
        <ele>693</ele>
        <time>2010-01-01T02:23:37Z</time>
      </trkpt>
      <trkpt lat="44.13717" lon="2.97769">
        <ele>693</ele>
        <time>2010-01-01T02:23:38Z</time>
      </trkpt>
      <trkpt lat="44.13716" lon="2.97767">
        <ele>694</ele>
        <time>2010-01-01T02:23:38Z</time>
      </trkpt>
      <trkpt lat="44.13715" lon="2.97764">
        <ele>694</ele>
        <time>2010-01-01T02:23:39Z</time>
      </trkpt>
      <trkpt lat="44.13714" lon="2.97762">
        <ele>695</ele>
        <time>2010-01-01T02:23:40Z</time>
      </trkpt>
      <trkpt lat="44.13712" lon="2.97761">
        <ele>695</ele>
        <time>2010-01-01T02:23:41Z</time>
      </trkpt>
      <trkpt lat="44.13711" lon="2.97759">
        <ele>696</ele>
        <time>2010-01-01T02:23:41Z</time>
      </trkpt>
      <trkpt lat="44.1371" lon="2.97756">
        <ele>696</ele>
        <time>2010-01-01T02:23:42Z</time>
      </trkpt>
      <trkpt lat="44.13708" lon="2.97754">
        <ele>697</ele>
        <time>2010-01-01T02:23:43Z</time>
      </trkpt>
      <trkpt lat="44.13707" lon="2.97752">
        <ele>698</ele>
        <time>2010-01-01T02:23:44Z</time>
      </trkpt>
      <trkpt lat="44.13705" lon="2.9775">
        <ele>698</ele>
        <time>2010-01-01T02:23:45Z</time>
      </trkpt>
      <trkpt lat="44.13704" lon="2.97748">
        <ele>699</ele>
        <time>2010-01-01T02:23:46Z</time>
      </trkpt>
      <trkpt lat="44.13702" lon="2.97746">
        <ele>699</ele>
        <time>2010-01-01T02:23:47Z</time>
      </trkpt>
      <trkpt lat="44.137" lon="2.97745">
        <ele>700</ele>
        <time>2010-01-01T02:23:48Z</time>
      </trkpt>
      <trkpt lat="44.13698" lon="2.97743">
        <ele>701</ele>
        <time>2010-01-01T02:23:48Z</time>
      </trkpt>
      <trkpt lat="44.13697" lon="2.97741">
        <ele>701</ele>
        <time>2010-01-01T02:23:49Z</time>
      </trkpt>
      <trkpt lat="44.13695" lon="2.97739">
        <ele>702</ele>
        <time>2010-01-01T02:23:50Z</time>
      </trkpt>
      <trkpt lat="44.13694" lon="2.97737">
        <ele>702</ele>
        <time>2010-01-01T02:23:51Z</time>
      </trkpt>
      <trkpt lat="44.13693" lon="2.97734">
        <ele>702</ele>
        <time>2010-01-01T02:23:52Z</time>
      </trkpt>
      <trkpt lat="44.13692" lon="2.97731">
        <ele>702</ele>
        <time>2010-01-01T02:23:53Z</time>
      </trkpt>
      <trkpt lat="44.1369" lon="2.97729">
        <ele>703</ele>
        <time>2010-01-01T02:23:54Z</time>
      </trkpt>
      <trkpt lat="44.1369" lon="2.97726">
        <ele>703</ele>
        <time>2010-01-01T02:23:54Z</time>
      </trkpt>
      <trkpt lat="44.13688" lon="2.97725">
        <ele>703</ele>
        <time>2010-01-01T02:23:55Z</time>
      </trkpt>
      <trkpt lat="44.13688" lon="2.97724">
        <ele>703</ele>
        <time>2010-01-01T02:23:55Z</time>
      </trkpt>
      <trkpt lat="44.13687" lon="2.97722">
        <ele>703</ele>
        <time>2010-01-01T02:23:56Z</time>
      </trkpt>
      <trkpt lat="44.13686" lon="2.97718">
        <ele>704</ele>
        <time>2010-01-01T02:23:57Z</time>
      </trkpt>
      <trkpt lat="44.13685" lon="2.97715">
        <ele>704</ele>
        <time>2010-01-01T02:23:58Z</time>
      </trkpt>
      <trkpt lat="44.13684" lon="2.97711">
        <ele>704</ele>
        <time>2010-01-01T02:23:59Z</time>
      </trkpt>
      <trkpt lat="44.13683" lon="2.97707">
        <ele>704</ele>
        <time>2010-01-01T02:24:01Z</time>
      </trkpt>
      <trkpt lat="44.13682" lon="2.97703">
        <ele>705</ele>
        <time>2010-01-01T02:24:02Z</time>
      </trkpt>
      <trkpt lat="44.1368" lon="2.977">
        <ele>705</ele>
        <time>2010-01-01T02:24:03Z</time>
      </trkpt>
      <trkpt lat="44.13677" lon="2.97698">
        <ele>706</ele>
        <time>2010-01-01T02:24:04Z</time>
      </trkpt>
      <trkpt lat="44.13674" lon="2.97696">
        <ele>707</ele>
        <time>2010-01-01T02:24:05Z</time>
      </trkpt>
      <trkpt lat="44.13672" lon="2.97693">
        <ele>707</ele>
        <time>2010-01-01T02:24:07Z</time>
      </trkpt>
      <trkpt lat="44.13671" lon="2.97689">
        <ele>708</ele>
        <time>2010-01-01T02:24:08Z</time>
      </trkpt>
      <trkpt lat="44.13669" lon="2.97685">
        <ele>708</ele>
        <time>2010-01-01T02:24:09Z</time>
      </trkpt>
      <trkpt lat="44.13668" lon="2.97681">
        <ele>708</ele>
        <time>2010-01-01T02:24:10Z</time>
      </trkpt>
      <trkpt lat="44.13668" lon="2.97676">
        <ele>708</ele>
        <time>2010-01-01T02:24:12Z</time>
      </trkpt>
      <trkpt lat="44.13667" lon="2.97672">
        <ele>708</ele>
        <time>2010-01-01T02:24:13Z</time>
      </trkpt>
      <trkpt lat="44.13666" lon="2.97669">
        <ele>709</ele>
        <time>2010-01-01T02:24:14Z</time>
      </trkpt>
      <trkpt lat="44.13664" lon="2.97666">
        <ele>709</ele>
        <time>2010-01-01T02:24:15Z</time>
      </trkpt>
      <trkpt lat="44.13662" lon="2.97663">
        <ele>709</ele>
        <time>2010-01-01T02:24:16Z</time>
      </trkpt>
      <trkpt lat="44.1366" lon="2.9766">
        <ele>709</ele>
        <time>2010-01-01T02:24:18Z</time>
      </trkpt>
      <trkpt lat="44.13657" lon="2.97657">
        <ele>709</ele>
        <time>2010-01-01T02:24:19Z</time>
      </trkpt>
      <trkpt lat="44.13654" lon="2.97655">
        <ele>709</ele>
        <time>2010-01-01T02:24:20Z</time>
      </trkpt>
      <trkpt lat="44.13652" lon="2.97653">
        <ele>709</ele>
        <time>2010-01-01T02:24:21Z</time>
      </trkpt>
      <trkpt lat="44.13649" lon="2.97653">
        <ele>709</ele>
        <time>2010-01-01T02:24:23Z</time>
      </trkpt>
      <trkpt lat="44.13646" lon="2.97651">
        <ele>709</ele>
        <time>2010-01-01T02:24:24Z</time>
      </trkpt>
      <trkpt lat="44.13643" lon="2.97649">
        <ele>709</ele>
        <time>2010-01-01T02:24:25Z</time>
      </trkpt>
      <trkpt lat="44.1364" lon="2.97647">
        <ele>709</ele>
        <time>2010-01-01T02:24:26Z</time>
      </trkpt>
      <trkpt lat="44.13637" lon="2.97645">
        <ele>709</ele>
        <time>2010-01-01T02:24:28Z</time>
      </trkpt>
      <trkpt lat="44.13634" lon="2.97642">
        <ele>709</ele>
        <time>2010-01-01T02:24:29Z</time>
      </trkpt>
      <trkpt lat="44.13632" lon="2.9764">
        <ele>709</ele>
        <time>2010-01-01T02:24:30Z</time>
      </trkpt>
      <trkpt lat="44.13629" lon="2.97637">
        <ele>709</ele>
        <time>2010-01-01T02:24:32Z</time>
      </trkpt>
      <trkpt lat="44.13627" lon="2.97637">
        <ele>709</ele>
        <time>2010-01-01T02:24:33Z</time>
      </trkpt>
      <trkpt lat="44.13624" lon="2.97637">
        <ele>708</ele>
        <time>2010-01-01T02:24:34Z</time>
      </trkpt>
      <trkpt lat="44.13622" lon="2.97639">
        <ele>708</ele>
        <time>2010-01-01T02:24:35Z</time>
      </trkpt>
      <trkpt lat="44.13621" lon="2.97642">
        <ele>708</ele>
        <time>2010-01-01T02:24:36Z</time>
      </trkpt>
      <trkpt lat="44.13622" lon="2.97644">
        <ele>708</ele>
        <time>2010-01-01T02:24:36Z</time>
      </trkpt>
      <trkpt lat="44.13622" lon="2.97643">
        <ele>708</ele>
        <time>2010-01-01T02:24:36Z</time>
      </trkpt>
      <trkpt lat="44.13621" lon="2.97644">
        <ele>708</ele>
        <time>2010-01-01T02:24:37Z</time>
      </trkpt>
      <trkpt lat="44.13619" lon="2.97651">
        <ele>708</ele>
        <time>2010-01-01T02:24:39Z</time>
      </trkpt>
      <trkpt lat="44.1362" lon="2.97657">
        <ele>708</ele>
        <time>2010-01-01T02:24:40Z</time>
      </trkpt>
      <trkpt lat="44.13621" lon="2.97662">
        <ele>708</ele>
        <time>2010-01-01T02:24:42Z</time>
      </trkpt>
      <trkpt lat="44.13622" lon="2.97668">
        <ele>708</ele>
        <time>2010-01-01T02:24:44Z</time>
      </trkpt>
      <trkpt lat="44.13624" lon="2.97674">
        <ele>709</ele>
        <time>2010-01-01T02:24:46Z</time>
      </trkpt>
      <trkpt lat="44.13625" lon="2.97681">
        <ele>709</ele>
        <time>2010-01-01T02:24:48Z</time>
      </trkpt>
      <trkpt lat="44.13625" lon="2.97689">
        <ele>709</ele>
        <time>2010-01-01T02:24:50Z</time>
      </trkpt>
      <trkpt lat="44.13625" lon="2.97698">
        <ele>709</ele>
        <time>2010-01-01T02:24:53Z</time>
      </trkpt>
      <trkpt lat="44.13626" lon="2.97708">
        <ele>709</ele>
        <time>2010-01-01T02:24:56Z</time>
      </trkpt>
      <trkpt lat="44.13627" lon="2.97719">
        <ele>709</ele>
        <time>2010-01-01T02:24:59Z</time>
      </trkpt>
      <trkpt lat="44.13627" lon="2.9773">
        <ele>708</ele>
        <time>2010-01-01T02:25:02Z</time>
      </trkpt>
      <trkpt lat="44.13629" lon="2.97742">
        <ele>708</ele>
        <time>2010-01-01T02:25:05Z</time>
      </trkpt>
      <trkpt lat="44.1363" lon="2.97754">
        <ele>708</ele>
        <time>2010-01-01T02:25:09Z</time>
      </trkpt>
      <trkpt lat="44.13631" lon="2.97765">
        <ele>708</ele>
        <time>2010-01-01T02:25:12Z</time>
      </trkpt>
      <trkpt lat="44.13633" lon="2.97775">
        <ele>708</ele>
        <time>2010-01-01T02:25:15Z</time>
      </trkpt>
      <trkpt lat="44.13634" lon="2.97785">
        <ele>707</ele>
        <time>2010-01-01T02:25:18Z</time>
      </trkpt>
      <trkpt lat="44.13635" lon="2.97794">
        <ele>707</ele>
        <time>2010-01-01T02:25:20Z</time>
      </trkpt>
      <trkpt lat="44.13635" lon="2.97803">
        <ele>707</ele>
        <time>2010-01-01T02:25:23Z</time>
      </trkpt>
      <trkpt lat="44.13636" lon="2.97812">
        <ele>707</ele>
        <time>2010-01-01T02:25:26Z</time>
      </trkpt>
      <trkpt lat="44.13638" lon="2.97821">
        <ele>707</ele>
        <time>2010-01-01T02:25:28Z</time>
      </trkpt>
      <trkpt lat="44.1364" lon="2.9783">
        <ele>707</ele>
        <time>2010-01-01T02:25:31Z</time>
      </trkpt>
      <trkpt lat="44.13641" lon="2.9784">
        <ele>707</ele>
        <time>2010-01-01T02:25:34Z</time>
      </trkpt>
      <trkpt lat="44.13642" lon="2.97851">
        <ele>707</ele>
        <time>2010-01-01T02:25:37Z</time>
      </trkpt>
      <trkpt lat="44.13641" lon="2.97862">
        <ele>707</ele>
        <time>2010-01-01T02:25:40Z</time>
      </trkpt>
      <trkpt lat="44.13642" lon="2.97873">
        <ele>707</ele>
        <time>2010-01-01T02:25:44Z</time>
      </trkpt>
      <trkpt lat="44.13643" lon="2.97885">
        <ele>707</ele>
        <time>2010-01-01T02:25:47Z</time>
      </trkpt>
      <trkpt lat="44.13646" lon="2.97895">
        <ele>706</ele>
        <time>2010-01-01T02:25:50Z</time>
      </trkpt>
      <trkpt lat="44.1365" lon="2.97905">
        <ele>706</ele>
        <time>2010-01-01T02:25:53Z</time>
      </trkpt>
      <trkpt lat="44.13654" lon="2.97914">
        <ele>705</ele>
        <time>2010-01-01T02:25:57Z</time>
      </trkpt>
      <trkpt lat="44.13657" lon="2.97924">
        <ele>705</ele>
        <time>2010-01-01T02:26:00Z</time>
      </trkpt>
      <trkpt lat="44.1366" lon="2.97935">
        <ele>705</ele>
        <time>2010-01-01T02:26:03Z</time>
      </trkpt>
      <trkpt lat="44.13662" lon="2.97945">
        <ele>705</ele>
        <time>2010-01-01T02:26:06Z</time>
      </trkpt>
      <trkpt lat="44.13664" lon="2.97954">
        <ele>705</ele>
        <time>2010-01-01T02:26:09Z</time>
      </trkpt>
      <trkpt lat="44.13664" lon="2.97963">
        <ele>705</ele>
        <time>2010-01-01T02:26:11Z</time>
      </trkpt>
      <trkpt lat="44.13664" lon="2.97971">
        <ele>706</ele>
        <time>2010-01-01T02:26:13Z</time>
      </trkpt>
      <trkpt lat="44.13664" lon="2.97979">
        <ele>706</ele>
        <time>2010-01-01T02:26:16Z</time>
      </trkpt>
      <trkpt lat="44.13664" lon="2.97986">
        <ele>706</ele>
        <time>2010-01-01T02:26:18Z</time>
      </trkpt>
      <trkpt lat="44.13664" lon="2.97993">
        <ele>706</ele>
        <time>2010-01-01T02:26:20Z</time>
      </trkpt>
      <trkpt lat="44.13664" lon="2.98">
        <ele>706</ele>
        <time>2010-01-01T02:26:22Z</time>
      </trkpt>
      <trkpt lat="44.13664" lon="2.98007">
        <ele>706</ele>
        <time>2010-01-01T02:26:24Z</time>
      </trkpt>
      <trkpt lat="44.13665" lon="2.98014">
        <ele>707</ele>
        <time>2010-01-01T02:26:26Z</time>
      </trkpt>
      <trkpt lat="44.13665" lon="2.98022">
        <ele>707</ele>
        <time>2010-01-01T02:26:28Z</time>
      </trkpt>
      <trkpt lat="44.13666" lon="2.98029">
        <ele>708</ele>
        <time>2010-01-01T02:26:30Z</time>
      </trkpt>
      <trkpt lat="44.13667" lon="2.98037">
        <ele>708</ele>
        <time>2010-01-01T02:26:32Z</time>
      </trkpt>
      <trkpt lat="44.13668" lon="2.98044">
        <ele>708</ele>
        <time>2010-01-01T02:26:35Z</time>
      </trkpt>
      <trkpt lat="44.13668" lon="2.98052">
        <ele>708</ele>
        <time>2010-01-01T02:26:37Z</time>
      </trkpt>
      <trkpt lat="44.13668" lon="2.98059">
        <ele>708</ele>
        <time>2010-01-01T02:26:39Z</time>
      </trkpt>
      <trkpt lat="44.13668" lon="2.98067">
        <ele>709</ele>
        <time>2010-01-01T02:26:41Z</time>
      </trkpt>
      <trkpt lat="44.13668" lon="2.98075">
        <ele>709</ele>
        <time>2010-01-01T02:26:43Z</time>
      </trkpt>
      <trkpt lat="44.13668" lon="2.98083">
        <ele>709</ele>
        <time>2010-01-01T02:26:46Z</time>
      </trkpt>
      <trkpt lat="44.13668" lon="2.98092">
        <ele>709</ele>
        <time>2010-01-01T02:26:48Z</time>
      </trkpt>
      <trkpt lat="44.13668" lon="2.981">
        <ele>709</ele>
        <time>2010-01-01T02:26:51Z</time>
      </trkpt>
      <trkpt lat="44.13667" lon="2.98109">
        <ele>709</ele>
        <time>2010-01-01T02:26:53Z</time>
      </trkpt>
      <trkpt lat="44.13667" lon="2.98117">
        <ele>710</ele>
        <time>2010-01-01T02:26:56Z</time>
      </trkpt>
      <trkpt lat="44.13667" lon="2.98127">
        <ele>710</ele>
        <time>2010-01-01T02:26:58Z</time>
      </trkpt>
      <trkpt lat="44.13667" lon="2.98136">
        <ele>710</ele>
        <time>2010-01-01T02:27:01Z</time>
      </trkpt>
      <trkpt lat="44.13667" lon="2.98145">
        <ele>710</ele>
        <time>2010-01-01T02:27:04Z</time>
      </trkpt>
      <trkpt lat="44.13666" lon="2.98154">
        <ele>710</ele>
        <time>2010-01-01T02:27:06Z</time>
      </trkpt>
      <trkpt lat="44.13666" lon="2.98163">
        <ele>710</ele>
        <time>2010-01-01T02:27:09Z</time>
      </trkpt>
      <trkpt lat="44.13665" lon="2.98171">
        <ele>710</ele>
        <time>2010-01-01T02:27:11Z</time>
      </trkpt>
      <trkpt lat="44.13664" lon="2.98178">
        <ele>710</ele>
        <time>2010-01-01T02:27:13Z</time>
      </trkpt>
      <trkpt lat="44.13663" lon="2.9818">
        <ele>710</ele>
        <time>2010-01-01T02:27:14Z</time>
      </trkpt>
      <trkpt lat="44.13661" lon="2.98179">
        <ele>710</ele>
        <time>2010-01-01T02:27:15Z</time>
      </trkpt>
      <trkpt lat="44.13659" lon="2.98176">
        <ele>711</ele>
        <time>2010-01-01T02:27:16Z</time>
      </trkpt>
      <trkpt lat="44.13657" lon="2.98174">
        <ele>712</ele>
        <time>2010-01-01T02:27:17Z</time>
      </trkpt>
      <trkpt lat="44.13655" lon="2.98171">
        <ele>712</ele>
        <time>2010-01-01T02:27:18Z</time>
      </trkpt>
      <trkpt lat="44.13653" lon="2.9817">
        <ele>712</ele>
        <time>2010-01-01T02:27:19Z</time>
      </trkpt>
      <trkpt lat="44.1365" lon="2.98169">
        <ele>713</ele>
        <time>2010-01-01T02:27:20Z</time>
      </trkpt>
      <trkpt lat="44.13647" lon="2.98169">
        <ele>714</ele>
        <time>2010-01-01T02:27:21Z</time>
      </trkpt>
      <trkpt lat="44.13645" lon="2.9817">
        <ele>714</ele>
        <time>2010-01-01T02:27:22Z</time>
      </trkpt>
      <trkpt lat="44.13642" lon="2.98169">
        <ele>715</ele>
        <time>2010-01-01T02:27:23Z</time>
      </trkpt>
      <trkpt lat="44.1364" lon="2.98169">
        <ele>715</ele>
        <time>2010-01-01T02:27:24Z</time>
      </trkpt>
      <trkpt lat="44.13637" lon="2.98169">
        <ele>716</ele>
        <time>2010-01-01T02:27:25Z</time>
      </trkpt>
      <trkpt lat="44.13635" lon="2.98169">
        <ele>716</ele>
        <time>2010-01-01T02:27:26Z</time>
      </trkpt>
      <trkpt lat="44.13633" lon="2.9817">
        <ele>717</ele>
        <time>2010-01-01T02:27:27Z</time>
      </trkpt>
      <trkpt lat="44.13631" lon="2.9817">
        <ele>717</ele>
        <time>2010-01-01T02:27:28Z</time>
      </trkpt>
      <trkpt lat="44.13629" lon="2.98171">
        <ele>718</ele>
        <time>2010-01-01T02:27:29Z</time>
      </trkpt>
      <trkpt lat="44.13626" lon="2.98173">
        <ele>718</ele>
        <time>2010-01-01T02:27:30Z</time>
      </trkpt>
      <trkpt lat="44.13625" lon="2.98174">
        <ele>718</ele>
        <time>2010-01-01T02:27:31Z</time>
      </trkpt>
      <trkpt lat="44.13623" lon="2.98174">
        <ele>719</ele>
        <time>2010-01-01T02:27:31Z</time>
      </trkpt>
      <trkpt lat="44.1362" lon="2.98175">
        <ele>719</ele>
        <time>2010-01-01T02:27:32Z</time>
      </trkpt>
      <trkpt lat="44.13618" lon="2.98176">
        <ele>720</ele>
        <time>2010-01-01T02:27:33Z</time>
      </trkpt>
      <trkpt lat="44.13616" lon="2.98176">
        <ele>720</ele>
        <time>2010-01-01T02:27:34Z</time>
      </trkpt>
      <trkpt lat="44.13614" lon="2.98177">
        <ele>721</ele>
        <time>2010-01-01T02:27:35Z</time>
      </trkpt>
      <trkpt lat="44.13611" lon="2.98177">
        <ele>721</ele>
        <time>2010-01-01T02:27:36Z</time>
      </trkpt>
      <trkpt lat="44.1361" lon="2.98178">
        <ele>722</ele>
        <time>2010-01-01T02:27:37Z</time>
      </trkpt>
      <trkpt lat="44.13608" lon="2.98177">
        <ele>722</ele>
        <time>2010-01-01T02:27:37Z</time>
      </trkpt>
      <trkpt lat="44.13606" lon="2.98177">
        <ele>722</ele>
        <time>2010-01-01T02:27:38Z</time>
      </trkpt>
      <trkpt lat="44.13604" lon="2.98178">
        <ele>722</ele>
        <time>2010-01-01T02:27:39Z</time>
      </trkpt>
      <trkpt lat="44.13602" lon="2.98179">
        <ele>723</ele>
        <time>2010-01-01T02:27:40Z</time>
      </trkpt>
      <trkpt lat="44.136" lon="2.98181">
        <ele>723</ele>
        <time>2010-01-01T02:27:41Z</time>
      </trkpt>
      <trkpt lat="44.13598" lon="2.98182">
        <ele>724</ele>
        <time>2010-01-01T02:27:42Z</time>
      </trkpt>
      <trkpt lat="44.13596" lon="2.98183">
        <ele>724</ele>
        <time>2010-01-01T02:27:43Z</time>
      </trkpt>
      <trkpt lat="44.13594" lon="2.98185">
        <ele>725</ele>
        <time>2010-01-01T02:27:44Z</time>
      </trkpt>
      <trkpt lat="44.13592" lon="2.98187">
        <ele>725</ele>
        <time>2010-01-01T02:27:45Z</time>
      </trkpt>
      <trkpt lat="44.1359" lon="2.98189">
        <ele>725</ele>
        <time>2010-01-01T02:27:46Z</time>
      </trkpt>
      <trkpt lat="44.13588" lon="2.98191">
        <ele>726</ele>
        <time>2010-01-01T02:27:47Z</time>
      </trkpt>
      <trkpt lat="44.13586" lon="2.98193">
        <ele>726</ele>
        <time>2010-01-01T02:27:47Z</time>
      </trkpt>
      <trkpt lat="44.13582" lon="2.98195">
        <ele>727</ele>
        <time>2010-01-01T02:27:49Z</time>
      </trkpt>
      <trkpt lat="44.1358" lon="2.98196">
        <ele>727</ele>
        <time>2010-01-01T02:27:50Z</time>
      </trkpt>
      <trkpt lat="44.13577" lon="2.98197">
        <ele>727</ele>
        <time>2010-01-01T02:27:51Z</time>
      </trkpt>
      <trkpt lat="44.13574" lon="2.98199">
        <ele>727</ele>
        <time>2010-01-01T02:27:53Z</time>
      </trkpt>
      <trkpt lat="44.13571" lon="2.98201">
        <ele>728</ele>
        <time>2010-01-01T02:27:54Z</time>
      </trkpt>
      <trkpt lat="44.13567" lon="2.98202">
        <ele>728</ele>
        <time>2010-01-01T02:27:56Z</time>
      </trkpt>
      <trkpt lat="44.13564" lon="2.98204">
        <ele>728</ele>
        <time>2010-01-01T02:27:57Z</time>
      </trkpt>
      <trkpt lat="44.13562" lon="2.98206">
        <ele>728</ele>
        <time>2010-01-01T02:27:58Z</time>
      </trkpt>
      <trkpt lat="44.13559" lon="2.98208">
        <ele>729</ele>
        <time>2010-01-01T02:27:59Z</time>
      </trkpt>
      <trkpt lat="44.13556" lon="2.98211">
        <ele>729</ele>
        <time>2010-01-01T02:28:01Z</time>
      </trkpt>
      <trkpt lat="44.13554" lon="2.98213">
        <ele>729</ele>
        <time>2010-01-01T02:28:02Z</time>
      </trkpt>
      <trkpt lat="44.13551" lon="2.98216">
        <ele>729</ele>
        <time>2010-01-01T02:28:03Z</time>
      </trkpt>
      <trkpt lat="44.13547" lon="2.98219">
        <ele>730</ele>
        <time>2010-01-01T02:28:05Z</time>
      </trkpt>
      <trkpt lat="44.13544" lon="2.98223">
        <ele>730</ele>
        <time>2010-01-01T02:28:07Z</time>
      </trkpt>
      <trkpt lat="44.13542" lon="2.98227">
        <ele>730</ele>
        <time>2010-01-01T02:28:08Z</time>
      </trkpt>
      <trkpt lat="44.13539" lon="2.98231">
        <ele>730</ele>
        <time>2010-01-01T02:28:10Z</time>
      </trkpt>
      <trkpt lat="44.13536" lon="2.98235">
        <ele>730</ele>
        <time>2010-01-01T02:28:11Z</time>
      </trkpt>
      <trkpt lat="44.13533" lon="2.9824">
        <ele>730</ele>
        <time>2010-01-01T02:28:13Z</time>
      </trkpt>
      <trkpt lat="44.1353" lon="2.98243">
        <ele>730</ele>
        <time>2010-01-01T02:28:15Z</time>
      </trkpt>
      <trkpt lat="44.13526" lon="2.98246">
        <ele>731</ele>
        <time>2010-01-01T02:28:16Z</time>
      </trkpt>
      <trkpt lat="44.13523" lon="2.98249">
        <ele>731</ele>
        <time>2010-01-01T02:28:18Z</time>
      </trkpt>
      <trkpt lat="44.1352" lon="2.98253">
        <ele>731</ele>
        <time>2010-01-01T02:28:20Z</time>
      </trkpt>
      <trkpt lat="44.13517" lon="2.98257">
        <ele>731</ele>
        <time>2010-01-01T02:28:21Z</time>
      </trkpt>
      <trkpt lat="44.13513" lon="2.98261">
        <ele>731</ele>
        <time>2010-01-01T02:28:23Z</time>
      </trkpt>
      <trkpt lat="44.1351" lon="2.98265">
        <ele>731</ele>
        <time>2010-01-01T02:28:25Z</time>
      </trkpt>
      <trkpt lat="44.13506" lon="2.9827">
        <ele>731</ele>
        <time>2010-01-01T02:28:27Z</time>
      </trkpt>
      <trkpt lat="44.13502" lon="2.98275">
        <ele>731</ele>
        <time>2010-01-01T02:28:29Z</time>
      </trkpt>
      <trkpt lat="44.13498" lon="2.9828">
        <ele>731</ele>
        <time>2010-01-01T02:28:31Z</time>
      </trkpt>
      <trkpt lat="44.13495" lon="2.98286">
        <ele>731</ele>
        <time>2010-01-01T02:28:34Z</time>
      </trkpt>
      <trkpt lat="44.13491" lon="2.98292">
        <ele>731</ele>
        <time>2010-01-01T02:28:36Z</time>
      </trkpt>
      <trkpt lat="44.13487" lon="2.98297">
        <ele>731</ele>
        <time>2010-01-01T02:28:38Z</time>
      </trkpt>
      <trkpt lat="44.13482" lon="2.98302">
        <ele>731</ele>
        <time>2010-01-01T02:28:40Z</time>
      </trkpt>
      <trkpt lat="44.13478" lon="2.98307">
        <ele>730</ele>
        <time>2010-01-01T02:28:43Z</time>
      </trkpt>
      <trkpt lat="44.13472" lon="2.98313">
        <ele>730</ele>
        <time>2010-01-01T02:28:45Z</time>
      </trkpt>
      <trkpt lat="44.13467" lon="2.98317">
        <ele>730</ele>
        <time>2010-01-01T02:28:48Z</time>
      </trkpt>
      <trkpt lat="44.1346" lon="2.98321">
        <ele>730</ele>
        <time>2010-01-01T02:28:51Z</time>
      </trkpt>
      <trkpt lat="44.13453" lon="2.98326">
        <ele>729</ele>
        <time>2010-01-01T02:28:54Z</time>
      </trkpt>
      <trkpt lat="44.13446" lon="2.98335">
        <ele>729</ele>
        <time>2010-01-01T02:28:58Z</time>
      </trkpt>
      <trkpt lat="44.13441" lon="2.98345">
        <ele>728</ele>
        <time>2010-01-01T02:29:01Z</time>
      </trkpt>
      <trkpt lat="44.13436" lon="2.98354">
        <ele>728</ele>
        <time>2010-01-01T02:29:05Z</time>
      </trkpt>
      <trkpt lat="44.13431" lon="2.98364">
        <ele>728</ele>
        <time>2010-01-01T02:29:08Z</time>
      </trkpt>
      <trkpt lat="44.13425" lon="2.98371">
        <ele>728</ele>
        <time>2010-01-01T02:29:11Z</time>
      </trkpt>
      <trkpt lat="44.1342" lon="2.98377">
        <ele>728</ele>
        <time>2010-01-01T02:29:14Z</time>
      </trkpt>
      <trkpt lat="44.13415" lon="2.98383">
        <ele>728</ele>
        <time>2010-01-01T02:29:17Z</time>
      </trkpt>
      <trkpt lat="44.13409" lon="2.98388">
        <ele>728</ele>
        <time>2010-01-01T02:29:19Z</time>
      </trkpt>
      <trkpt lat="44.13402" lon="2.98393">
        <ele>727</ele>
        <time>2010-01-01T02:29:22Z</time>
      </trkpt>
      <trkpt lat="44.13394" lon="2.98397">
        <ele>727</ele>
        <time>2010-01-01T02:29:26Z</time>
      </trkpt>
      <trkpt lat="44.13385" lon="2.984">
        <ele>726</ele>
        <time>2010-01-01T02:29:30Z</time>
      </trkpt>
      <trkpt lat="44.13375" lon="2.98403">
        <ele>725</ele>
        <time>2010-01-01T02:29:34Z</time>
      </trkpt>
      <trkpt lat="44.13364" lon="2.98407">
        <ele>724</ele>
        <time>2010-01-01T02:29:38Z</time>
      </trkpt>
      <trkpt lat="44.13354" lon="2.98412">
        <ele>723</ele>
        <time>2010-01-01T02:29:42Z</time>
      </trkpt>
      <trkpt lat="44.13344" lon="2.98418">
        <ele>723</ele>
        <time>2010-01-01T02:29:47Z</time>
      </trkpt>
      <trkpt lat="44.13334" lon="2.98426">
        <ele>723</ele>
        <time>2010-01-01T02:29:51Z</time>
      </trkpt>
      <trkpt lat="44.13326" lon="2.98436">
        <ele>722</ele>
        <time>2010-01-01T02:29:56Z</time>
      </trkpt>
      <trkpt lat="44.13317" lon="2.98447">
        <ele>721</ele>
        <time>2010-01-01T02:30:01Z</time>
      </trkpt>
      <trkpt lat="44.13308" lon="2.98458">
        <ele>719</ele>
        <time>2010-01-01T02:30:05Z</time>
      </trkpt>
      <trkpt lat="44.13299" lon="2.98472">
        <ele>717</ele>
        <time>2010-01-01T02:30:11Z</time>
      </trkpt>
      <trkpt lat="44.13294" lon="2.9849">
        <ele>715</ele>
        <time>2010-01-01T02:30:16Z</time>
      </trkpt>
      <trkpt lat="44.13293" lon="2.98511">
        <ele>713</ele>
        <time>2010-01-01T02:30:22Z</time>
      </trkpt>
      <trkpt lat="44.13295" lon="2.98532">
        <ele>711</ele>
        <time>2010-01-01T02:30:28Z</time>
      </trkpt>
      <trkpt lat="44.133" lon="2.98554">
        <ele>711</ele>
        <time>2010-01-01T02:30:35Z</time>
      </trkpt>
      <trkpt lat="44.13303" lon="2.98573">
        <ele>710</ele>
        <time>2010-01-01T02:30:41Z</time>
      </trkpt>
      <trkpt lat="44.13302" lon="2.98585">
        <ele>708</ele>
        <time>2010-01-01T02:30:44Z</time>
      </trkpt>
      <trkpt lat="44.13299" lon="2.98588">
        <ele>707</ele>
        <time>2010-01-01T02:30:46Z</time>
      </trkpt>
      <trkpt lat="44.13295" lon="2.98583">
        <ele>706</ele>
        <time>2010-01-01T02:30:48Z</time>
      </trkpt>
      <trkpt lat="44.13292" lon="2.98577">
        <ele>706</ele>
        <time>2010-01-01T02:30:50Z</time>
      </trkpt>
      <trkpt lat="44.13288" lon="2.98568">
        <ele>705</ele>
        <time>2010-01-01T02:30:53Z</time>
      </trkpt>
      <trkpt lat="44.13284" lon="2.98559">
        <ele>705</ele>
        <time>2010-01-01T02:30:56Z</time>
      </trkpt>
      <trkpt lat="44.1328" lon="2.98549">
        <ele>704</ele>
        <time>2010-01-01T02:30:59Z</time>
      </trkpt>
      <trkpt lat="44.13277" lon="2.9854">
        <ele>704</ele>
        <time>2010-01-01T02:31:03Z</time>
      </trkpt>
      <trkpt lat="44.13273" lon="2.9853">
        <ele>705</ele>
        <time>2010-01-01T02:31:06Z</time>
      </trkpt>
      <trkpt lat="44.1327" lon="2.98518">
        <ele>706</ele>
        <time>2010-01-01T02:31:09Z</time>
      </trkpt>
      <trkpt lat="44.13265" lon="2.98507">
        <ele>707</ele>
        <time>2010-01-01T02:31:13Z</time>
      </trkpt>
      <trkpt lat="44.13261" lon="2.98498">
        <ele>707</ele>
        <time>2010-01-01T02:31:16Z</time>
      </trkpt>
      <trkpt lat="44.13258" lon="2.9849">
        <ele>707</ele>
        <time>2010-01-01T02:31:19Z</time>
      </trkpt>
      <trkpt lat="44.13254" lon="2.98483">
        <ele>707</ele>
        <time>2010-01-01T02:31:21Z</time>
      </trkpt>
      <trkpt lat="44.13252" lon="2.98478">
        <ele>707</ele>
        <time>2010-01-01T02:31:23Z</time>
      </trkpt>
      <trkpt lat="44.13248" lon="2.98475">
        <ele>707</ele>
        <time>2010-01-01T02:31:25Z</time>
      </trkpt>
      <trkpt lat="44.13243" lon="2.98471">
        <ele>706</ele>
        <time>2010-01-01T02:31:27Z</time>
      </trkpt>
      <trkpt lat="44.13239" lon="2.98467">
        <ele>706</ele>
        <time>2010-01-01T02:31:29Z</time>
      </trkpt>
      <trkpt lat="44.13235" lon="2.98467">
        <ele>705</ele>
        <time>2010-01-01T02:31:31Z</time>
      </trkpt>
      <trkpt lat="44.13228" lon="2.98469">
        <ele>704</ele>
        <time>2010-01-01T02:31:33Z</time>
      </trkpt>
      <trkpt lat="44.13217" lon="2.98468">
        <ele>702</ele>
        <time>2010-01-01T02:31:38Z</time>
      </trkpt>
      <trkpt lat="44.13207" lon="2.98465">
        <ele>701</ele>
        <time>2010-01-01T02:31:42Z</time>
      </trkpt>
      <trkpt lat="44.132" lon="2.98464">
        <ele>700</ele>
        <time>2010-01-01T02:31:45Z</time>
      </trkpt>
      <trkpt lat="44.13192" lon="2.98463">
        <ele>699</ele>
        <time>2010-01-01T02:31:48Z</time>
      </trkpt>
      <trkpt lat="44.13184" lon="2.98463">
        <ele>698</ele>
        <time>2010-01-01T02:31:51Z</time>
      </trkpt>
      <trkpt lat="44.13176" lon="2.9846">
        <ele>697</ele>
        <time>2010-01-01T02:31:54Z</time>
      </trkpt>
      <trkpt lat="44.13171" lon="2.98452">
        <ele>697</ele>
        <time>2010-01-01T02:31:57Z</time>
      </trkpt>
      <trkpt lat="44.13166" lon="2.98447">
        <ele>697</ele>
        <time>2010-01-01T02:32:00Z</time>
      </trkpt>
      <trkpt lat="44.13162" lon="2.98446">
        <ele>697</ele>
        <time>2010-01-01T02:32:01Z</time>
      </trkpt>
      <trkpt lat="44.13159" lon="2.98443">
        <ele>697</ele>
        <time>2010-01-01T02:32:03Z</time>
      </trkpt>
      <trkpt lat="44.13155" lon="2.9844">
        <ele>698</ele>
        <time>2010-01-01T02:32:05Z</time>
      </trkpt>
      <trkpt lat="44.13152" lon="2.98435">
        <ele>698</ele>
        <time>2010-01-01T02:32:07Z</time>
      </trkpt>
      <trkpt lat="44.1315" lon="2.9843">
        <ele>698</ele>
        <time>2010-01-01T02:32:08Z</time>
      </trkpt>
      <trkpt lat="44.13146" lon="2.98424">
        <ele>699</ele>
        <time>2010-01-01T02:32:11Z</time>
      </trkpt>
      <trkpt lat="44.13137" lon="2.98421">
        <ele>699</ele>
        <time>2010-01-01T02:32:14Z</time>
      </trkpt>
      <trkpt lat="44.13133" lon="2.9842">
        <ele>699</ele>
        <time>2010-01-01T02:32:16Z</time>
      </trkpt>
      <trkpt lat="44.13127" lon="2.98417">
        <ele>699</ele>
        <time>2010-01-01T02:32:19Z</time>
      </trkpt>
      <trkpt lat="44.13122" lon="2.98415">
        <ele>700</ele>
        <time>2010-01-01T02:32:21Z</time>
      </trkpt>
      <trkpt lat="44.13116" lon="2.98416">
        <ele>700</ele>
        <time>2010-01-01T02:32:23Z</time>
      </trkpt>
      <trkpt lat="44.13109" lon="2.98415">
        <ele>700</ele>
        <time>2010-01-01T02:32:26Z</time>
      </trkpt>
      <trkpt lat="44.13102" lon="2.98413">
        <ele>700</ele>
        <time>2010-01-01T02:32:29Z</time>
      </trkpt>
      <trkpt lat="44.13093" lon="2.98412">
        <ele>700</ele>
        <time>2010-01-01T02:32:32Z</time>
      </trkpt>
      <trkpt lat="44.13086" lon="2.98417">
        <ele>699</ele>
        <time>2010-01-01T02:32:35Z</time>
      </trkpt>
      <trkpt lat="44.13078" lon="2.98421">
        <ele>699</ele>
        <time>2010-01-01T02:32:39Z</time>
      </trkpt>
      <trkpt lat="44.1307" lon="2.98422">
        <ele>699</ele>
        <time>2010-01-01T02:32:42Z</time>
      </trkpt>
      <trkpt lat="44.13061" lon="2.98425">
        <ele>698</ele>
        <time>2010-01-01T02:32:46Z</time>
      </trkpt>
      <trkpt lat="44.13054" lon="2.98433">
        <ele>697</ele>
        <time>2010-01-01T02:32:49Z</time>
      </trkpt>
      <trkpt lat="44.13052" lon="2.98446">
        <ele>696</ele>
        <time>2010-01-01T02:32:53Z</time>
      </trkpt>
      <trkpt lat="44.13047" lon="2.98459">
        <ele>695</ele>
        <time>2010-01-01T02:32:57Z</time>
      </trkpt>
      <trkpt lat="44.1304" lon="2.98467">
        <ele>694</ele>
        <time>2010-01-01T02:33:01Z</time>
      </trkpt>
      <trkpt lat="44.1303" lon="2.98473">
        <ele>694</ele>
        <time>2010-01-01T02:33:05Z</time>
      </trkpt>
      <trkpt lat="44.13022" lon="2.98481">
        <ele>693</ele>
        <time>2010-01-01T02:33:09Z</time>
      </trkpt>
      <trkpt lat="44.13016" lon="2.98485">
        <ele>692</ele>
        <time>2010-01-01T02:33:12Z</time>
      </trkpt>
      <trkpt lat="44.13011" lon="2.98479">
        <ele>693</ele>
        <time>2010-01-01T02:33:15Z</time>
      </trkpt>
      <trkpt lat="44.13003" lon="2.98474">
        <ele>693</ele>
        <time>2010-01-01T02:33:18Z</time>
      </trkpt>
      <trkpt lat="44.12994" lon="2.9847">
        <ele>692</ele>
        <time>2010-01-01T02:33:22Z</time>
      </trkpt>
      <trkpt lat="44.12986" lon="2.98467">
        <ele>691</ele>
        <time>2010-01-01T02:33:25Z</time>
      </trkpt>
      <trkpt lat="44.12978" lon="2.98463">
        <ele>691</ele>
        <time>2010-01-01T02:33:29Z</time>
      </trkpt>
      <trkpt lat="44.12969" lon="2.98456">
        <ele>691</ele>
        <time>2010-01-01T02:33:33Z</time>
      </trkpt>
      <trkpt lat="44.12962" lon="2.98446">
        <ele>691</ele>
        <time>2010-01-01T02:33:37Z</time>
      </trkpt>
      <trkpt lat="44.12953" lon="2.98445">
        <ele>691</ele>
        <time>2010-01-01T02:33:40Z</time>
      </trkpt>
      <trkpt lat="44.12944" lon="2.98443">
        <ele>690</ele>
        <time>2010-01-01T02:33:44Z</time>
      </trkpt>
      <trkpt lat="44.12933" lon="2.98443">
        <ele>690</ele>
        <time>2010-01-01T02:33:48Z</time>
      </trkpt>
      <trkpt lat="44.12923" lon="2.98443">
        <ele>689</ele>
        <time>2010-01-01T02:33:52Z</time>
      </trkpt>
      <trkpt lat="44.12913" lon="2.98442">
        <ele>688</ele>
        <time>2010-01-01T02:33:56Z</time>
      </trkpt>
      <trkpt lat="44.12902" lon="2.9844">
        <ele>686</ele>
        <time>2010-01-01T02:34:01Z</time>
      </trkpt>
      <trkpt lat="44.1289" lon="2.98439">
        <ele>684</ele>
        <time>2010-01-01T02:34:06Z</time>
      </trkpt>
      <trkpt lat="44.12877" lon="2.98438">
        <ele>682</ele>
        <time>2010-01-01T02:34:11Z</time>
      </trkpt>
      <trkpt lat="44.12865" lon="2.98437">
        <ele>681</ele>
        <time>2010-01-01T02:34:16Z</time>
      </trkpt>
      <trkpt lat="44.12854" lon="2.98434">
        <ele>679</ele>
        <time>2010-01-01T02:34:20Z</time>
      </trkpt>
      <trkpt lat="44.12844" lon="2.98432">
        <ele>678</ele>
        <time>2010-01-01T02:34:24Z</time>
      </trkpt>
      <trkpt lat="44.12832" lon="2.98433">
        <ele>677</ele>
        <time>2010-01-01T02:34:29Z</time>
      </trkpt>
      <trkpt lat="44.1282" lon="2.9844">
        <ele>677</ele>
        <time>2010-01-01T02:34:34Z</time>
      </trkpt>
      <trkpt lat="44.12807" lon="2.98448">
        <ele>676</ele>
        <time>2010-01-01T02:34:40Z</time>
      </trkpt>
      <trkpt lat="44.12794" lon="2.98457">
        <ele>675</ele>
        <time>2010-01-01T02:34:46Z</time>
      </trkpt>
      <trkpt lat="44.12781" lon="2.98464">
        <ele>674</ele>
        <time>2010-01-01T02:34:51Z</time>
      </trkpt>
      <trkpt lat="44.12768" lon="2.98471">
        <ele>673</ele>
        <time>2010-01-01T02:34:57Z</time>
      </trkpt>
      <trkpt lat="44.12756" lon="2.98481">
        <ele>672</ele>
        <time>2010-01-01T02:35:03Z</time>
      </trkpt>
      <trkpt lat="44.12743" lon="2.98491">
        <ele>671</ele>
        <time>2010-01-01T02:35:08Z</time>
      </trkpt>
      <trkpt lat="44.1273" lon="2.98497">
        <ele>670</ele>
        <time>2010-01-01T02:35:14Z</time>
      </trkpt>
      <trkpt lat="44.12717" lon="2.98503">
        <ele>667</ele>
        <time>2010-01-01T02:35:19Z</time>
      </trkpt>
      <trkpt lat="44.12705" lon="2.98511">
        <ele>665</ele>
        <time>2010-01-01T02:35:25Z</time>
      </trkpt>
      <trkpt lat="44.12696" lon="2.98523">
        <ele>664</ele>
        <time>2010-01-01T02:35:30Z</time>
      </trkpt>
      <trkpt lat="44.12685" lon="2.98534">
        <ele>662</ele>
        <time>2010-01-01T02:35:35Z</time>
      </trkpt>
      <trkpt lat="44.12675" lon="2.98546">
        <ele>660</ele>
        <time>2010-01-01T02:35:40Z</time>
      </trkpt>
      <trkpt lat="44.12667" lon="2.98558">
        <ele>660</ele>
        <time>2010-01-01T02:35:45Z</time>
      </trkpt>
      <trkpt lat="44.12658" lon="2.98566">
        <ele>657</ele>
        <time>2010-01-01T02:35:49Z</time>
      </trkpt>
      <trkpt lat="44.1265" lon="2.98577">
        <ele>655</ele>
        <time>2010-01-01T02:35:54Z</time>
      </trkpt>
      <trkpt lat="44.12643" lon="2.98587">
        <ele>654</ele>
        <time>2010-01-01T02:35:58Z</time>
      </trkpt>
      <trkpt lat="44.12637" lon="2.98598">
        <ele>652</ele>
        <time>2010-01-01T02:36:02Z</time>
      </trkpt>
      <trkpt lat="44.12629" lon="2.98608">
        <ele>650</ele>
        <time>2010-01-01T02:36:06Z</time>
      </trkpt>
      <trkpt lat="44.12622" lon="2.9862">
        <ele>648</ele>
        <time>2010-01-01T02:36:11Z</time>
      </trkpt>
      <trkpt lat="44.12616" lon="2.98632">
        <ele>647</ele>
        <time>2010-01-01T02:36:15Z</time>
      </trkpt>
      <trkpt lat="44.12609" lon="2.98639">
        <ele>645</ele>
        <time>2010-01-01T02:36:18Z</time>
      </trkpt>
      <trkpt lat="44.12602" lon="2.98648">
        <ele>644</ele>
        <time>2010-01-01T02:36:22Z</time>
      </trkpt>
      <trkpt lat="44.12596" lon="2.98657">
        <ele>644</ele>
        <time>2010-01-01T02:36:25Z</time>
      </trkpt>
      <trkpt lat="44.1259" lon="2.98666">
        <ele>644</ele>
        <time>2010-01-01T02:36:29Z</time>
      </trkpt>
      <trkpt lat="44.12584" lon="2.98676">
        <ele>644</ele>
        <time>2010-01-01T02:36:33Z</time>
      </trkpt>
      <trkpt lat="44.12576" lon="2.98684">
        <ele>643</ele>
        <time>2010-01-01T02:36:37Z</time>
      </trkpt>
      <trkpt lat="44.1257" lon="2.98693">
        <ele>643</ele>
        <time>2010-01-01T02:36:40Z</time>
      </trkpt>
      <trkpt lat="44.12563" lon="2.98702">
        <ele>642</ele>
        <time>2010-01-01T02:36:44Z</time>
      </trkpt>
      <trkpt lat="44.12556" lon="2.98707">
        <ele>641</ele>
        <time>2010-01-01T02:36:47Z</time>
      </trkpt>
      <trkpt lat="44.1255" lon="2.98714">
        <ele>640</ele>
        <time>2010-01-01T02:36:50Z</time>
      </trkpt>
      <trkpt lat="44.12544" lon="2.98722">
        <ele>639</ele>
        <time>2010-01-01T02:36:53Z</time>
      </trkpt>
      <trkpt lat="44.12538" lon="2.98728">
        <ele>636</ele>
        <time>2010-01-01T02:36:57Z</time>
      </trkpt>
      <trkpt lat="44.12532" lon="2.98736">
        <ele>633</ele>
        <time>2010-01-01T02:37:00Z</time>
      </trkpt>
      <trkpt lat="44.12527" lon="2.98744">
        <ele>631</ele>
        <time>2010-01-01T02:37:03Z</time>
      </trkpt>
      <trkpt lat="44.12522" lon="2.9875">
        <ele>629</ele>
        <time>2010-01-01T02:37:06Z</time>
      </trkpt>
      <trkpt lat="44.12516" lon="2.98756">
        <ele>626</ele>
        <time>2010-01-01T02:37:08Z</time>
      </trkpt>
      <trkpt lat="44.12513" lon="2.98762">
        <ele>624</ele>
        <time>2010-01-01T02:37:11Z</time>
      </trkpt>
      <trkpt lat="44.12508" lon="2.98765">
        <ele>622</ele>
        <time>2010-01-01T02:37:13Z</time>
      </trkpt>
      <trkpt lat="44.12503" lon="2.98768">
        <ele>620</ele>
        <time>2010-01-01T02:37:15Z</time>
      </trkpt>
      <trkpt lat="44.12498" lon="2.98773">
        <ele>618</ele>
        <time>2010-01-01T02:37:17Z</time>
      </trkpt>
      <trkpt lat="44.12494" lon="2.98782">
        <ele>616</ele>
        <time>2010-01-01T02:37:20Z</time>
      </trkpt>
      <trkpt lat="44.1249" lon="2.98788">
        <ele>613</ele>
        <time>2010-01-01T02:37:23Z</time>
      </trkpt>
      <trkpt lat="44.12484" lon="2.98795">
        <ele>611</ele>
        <time>2010-01-01T02:37:26Z</time>
      </trkpt>
      <trkpt lat="44.1248" lon="2.98803">
        <ele>609</ele>
        <time>2010-01-01T02:37:29Z</time>
      </trkpt>
      <trkpt lat="44.12475" lon="2.98808">
        <ele>607</ele>
        <time>2010-01-01T02:37:31Z</time>
      </trkpt>
      <trkpt lat="44.12471" lon="2.98814">
        <ele>605</ele>
        <time>2010-01-01T02:37:33Z</time>
      </trkpt>
      <trkpt lat="44.12469" lon="2.98819">
        <ele>604</ele>
        <time>2010-01-01T02:37:35Z</time>
      </trkpt>
      <trkpt lat="44.12469" lon="2.98825">
        <ele>604</ele>
        <time>2010-01-01T02:37:37Z</time>
      </trkpt>
      <trkpt lat="44.12465" lon="2.98829">
        <ele>602</ele>
        <time>2010-01-01T02:37:38Z</time>
      </trkpt>
      <trkpt lat="44.1246" lon="2.98832">
        <ele>601</ele>
        <time>2010-01-01T02:37:41Z</time>
      </trkpt>
      <trkpt lat="44.12456" lon="2.98835">
        <ele>600</ele>
        <time>2010-01-01T02:37:43Z</time>
      </trkpt>
      <trkpt lat="44.12451" lon="2.98834">
        <ele>599</ele>
        <time>2010-01-01T02:37:45Z</time>
      </trkpt>
      <trkpt lat="44.12446" lon="2.98835">
        <ele>598</ele>
        <time>2010-01-01T02:37:46Z</time>
      </trkpt>
      <trkpt lat="44.12442" lon="2.98839">
        <ele>596</ele>
        <time>2010-01-01T02:37:49Z</time>
      </trkpt>
      <trkpt lat="44.12435" lon="2.98842">
        <ele>594</ele>
        <time>2010-01-01T02:37:51Z</time>
      </trkpt>
      <trkpt lat="44.12429" lon="2.98845">
        <ele>592</ele>
        <time>2010-01-01T02:37:54Z</time>
      </trkpt>
      <trkpt lat="44.12424" lon="2.98848">
        <ele>590</ele>
        <time>2010-01-01T02:37:56Z</time>
      </trkpt>
      <trkpt lat="44.12419" lon="2.98851">
        <ele>589</ele>
        <time>2010-01-01T02:37:58Z</time>
      </trkpt>
      <trkpt lat="44.12414" lon="2.98854">
        <ele>587</ele>
        <time>2010-01-01T02:38:00Z</time>
      </trkpt>
      <trkpt lat="44.12409" lon="2.98854">
        <ele>585</ele>
        <time>2010-01-01T02:38:02Z</time>
      </trkpt>
      <trkpt lat="44.12404" lon="2.98854">
        <ele>584</ele>
        <time>2010-01-01T02:38:04Z</time>
      </trkpt>
      <trkpt lat="44.124" lon="2.98856">
        <ele>582</ele>
        <time>2010-01-01T02:38:06Z</time>
      </trkpt>
      <trkpt lat="44.12395" lon="2.98857">
        <ele>580</ele>
        <time>2010-01-01T02:38:08Z</time>
      </trkpt>
      <trkpt lat="44.1239" lon="2.9886">
        <ele>579</ele>
        <time>2010-01-01T02:38:10Z</time>
      </trkpt>
      <trkpt lat="44.12386" lon="2.98861">
        <ele>578</ele>
        <time>2010-01-01T02:38:12Z</time>
      </trkpt>
      <trkpt lat="44.12382" lon="2.98864">
        <ele>576</ele>
        <time>2010-01-01T02:38:14Z</time>
      </trkpt>
      <trkpt lat="44.12378" lon="2.98868">
        <ele>575</ele>
        <time>2010-01-01T02:38:16Z</time>
      </trkpt>
      <trkpt lat="44.12373" lon="2.98869">
        <ele>574</ele>
        <time>2010-01-01T02:38:18Z</time>
      </trkpt>
      <trkpt lat="44.1237" lon="2.98871">
        <ele>573</ele>
        <time>2010-01-01T02:38:19Z</time>
      </trkpt>
      <trkpt lat="44.12365" lon="2.98872">
        <ele>571</ele>
        <time>2010-01-01T02:38:21Z</time>
      </trkpt>
      <trkpt lat="44.1236" lon="2.98874">
        <ele>570</ele>
        <time>2010-01-01T02:38:23Z</time>
      </trkpt>
      <trkpt lat="44.12355" lon="2.98875">
        <ele>568</ele>
        <time>2010-01-01T02:38:25Z</time>
      </trkpt>
      <trkpt lat="44.12351" lon="2.98876">
        <ele>567</ele>
        <time>2010-01-01T02:38:27Z</time>
      </trkpt>
      <trkpt lat="44.12346" lon="2.98877">
        <ele>565</ele>
        <time>2010-01-01T02:38:29Z</time>
      </trkpt>
      <trkpt lat="44.12341" lon="2.9888">
        <ele>564</ele>
        <time>2010-01-01T02:38:31Z</time>
      </trkpt>
      <trkpt lat="44.12336" lon="2.98883">
        <ele>562</ele>
        <time>2010-01-01T02:38:33Z</time>
      </trkpt>
      <trkpt lat="44.1233" lon="2.98885">
        <ele>561</ele>
        <time>2010-01-01T02:38:36Z</time>
      </trkpt>
      <trkpt lat="44.12322" lon="2.98889">
        <ele>558</ele>
        <time>2010-01-01T02:38:39Z</time>
      </trkpt>
      <trkpt lat="44.12315" lon="2.98893">
        <ele>556</ele>
        <time>2010-01-01T02:38:42Z</time>
      </trkpt>
      <trkpt lat="44.12308" lon="2.98895">
        <ele>554</ele>
        <time>2010-01-01T02:38:45Z</time>
      </trkpt>
      <trkpt lat="44.123" lon="2.98898">
        <ele>551</ele>
        <time>2010-01-01T02:38:48Z</time>
      </trkpt>
      <trkpt lat="44.12292" lon="2.98902">
        <ele>550</ele>
        <time>2010-01-01T02:38:52Z</time>
      </trkpt>
      <trkpt lat="44.12285" lon="2.98906">
        <ele>548</ele>
        <time>2010-01-01T02:38:55Z</time>
      </trkpt>
      <trkpt lat="44.12277" lon="2.98908">
        <ele>546</ele>
        <time>2010-01-01T02:38:58Z</time>
      </trkpt>
      <trkpt lat="44.12271" lon="2.98911">
        <ele>545</ele>
        <time>2010-01-01T02:39:01Z</time>
      </trkpt>
      <trkpt lat="44.12265" lon="2.98913">
        <ele>545</ele>
        <time>2010-01-01T02:39:03Z</time>
      </trkpt>
      <trkpt lat="44.1226" lon="2.98916">
        <ele>544</ele>
        <time>2010-01-01T02:39:05Z</time>
      </trkpt>
      <trkpt lat="44.12253" lon="2.9892">
        <ele>543</ele>
        <time>2010-01-01T02:39:08Z</time>
      </trkpt>
      <trkpt lat="44.12247" lon="2.98926">
        <ele>541</ele>
        <time>2010-01-01T02:39:11Z</time>
      </trkpt>
      <trkpt lat="44.12241" lon="2.98933">
        <ele>540</ele>
        <time>2010-01-01T02:39:14Z</time>
      </trkpt>
      <trkpt lat="44.12236" lon="2.98939">
        <ele>539</ele>
        <time>2010-01-01T02:39:17Z</time>
      </trkpt>
      <trkpt lat="44.12231" lon="2.98942">
        <ele>538</ele>
        <time>2010-01-01T02:39:19Z</time>
      </trkpt>
      <trkpt lat="44.12224" lon="2.98945">
        <ele>537</ele>
        <time>2010-01-01T02:39:22Z</time>
      </trkpt>
      <trkpt lat="44.1222" lon="2.98948">
        <ele>535</ele>
        <time>2010-01-01T02:39:24Z</time>
      </trkpt>
      <trkpt lat="44.12217" lon="2.98951">
        <ele>534</ele>
        <time>2010-01-01T02:39:25Z</time>
      </trkpt>
      <trkpt lat="44.12216" lon="2.98953">
        <ele>534</ele>
        <time>2010-01-01T02:39:26Z</time>
      </trkpt>
      <trkpt lat="44.12215" lon="2.98955">
        <ele>533</ele>
        <time>2010-01-01T02:39:27Z</time>
      </trkpt>
      <trkpt lat="44.12212" lon="2.98962">
        <ele>531</ele>
        <time>2010-01-01T02:39:29Z</time>
      </trkpt>
      <trkpt lat="44.12208" lon="2.98967">
        <ele>530</ele>
        <time>2010-01-01T02:39:31Z</time>
      </trkpt>
      <trkpt lat="44.12206" lon="2.98972">
        <ele>528</ele>
        <time>2010-01-01T02:39:33Z</time>
      </trkpt>
      <trkpt lat="44.12205" lon="2.98978">
        <ele>527</ele>
        <time>2010-01-01T02:39:35Z</time>
      </trkpt>
      <trkpt lat="44.12204" lon="2.98983">
        <ele>527</ele>
        <time>2010-01-01T02:39:36Z</time>
      </trkpt>
      <trkpt lat="44.12202" lon="2.98988">
        <ele>526</ele>
        <time>2010-01-01T02:39:38Z</time>
      </trkpt>
      <trkpt lat="44.12199" lon="2.98991">
        <ele>524</ele>
        <time>2010-01-01T02:39:39Z</time>
      </trkpt>
      <trkpt lat="44.12197" lon="2.98995">
        <ele>524</ele>
        <time>2010-01-01T02:39:41Z</time>
      </trkpt>
      <trkpt lat="44.12194" lon="2.98998">
        <ele>523</ele>
        <time>2010-01-01T02:39:42Z</time>
      </trkpt>
      <trkpt lat="44.12189" lon="2.98999">
        <ele>522</ele>
        <time>2010-01-01T02:39:44Z</time>
      </trkpt>
      <trkpt lat="44.12185" lon="2.99004">
        <ele>521</ele>
        <time>2010-01-01T02:39:46Z</time>
      </trkpt>
      <trkpt lat="44.12181" lon="2.99009">
        <ele>520</ele>
        <time>2010-01-01T02:39:48Z</time>
      </trkpt>
      <trkpt lat="44.12179" lon="2.99015">
        <ele>519</ele>
        <time>2010-01-01T02:39:50Z</time>
      </trkpt>
      <trkpt lat="44.12175" lon="2.99025">
        <ele>519</ele>
        <time>2010-01-01T02:39:54Z</time>
      </trkpt>
      <trkpt lat="44.12169" lon="2.99033">
        <ele>518</ele>
        <time>2010-01-01T02:39:57Z</time>
      </trkpt>
      <trkpt lat="44.12164" lon="2.99042">
        <ele>518</ele>
        <time>2010-01-01T02:40:00Z</time>
      </trkpt>
      <trkpt lat="44.12159" lon="2.99051">
        <ele>518</ele>
        <time>2010-01-01T02:40:03Z</time>
      </trkpt>
      <trkpt lat="44.12153" lon="2.99061">
        <ele>519</ele>
        <time>2010-01-01T02:40:07Z</time>
      </trkpt>
      <trkpt lat="44.12146" lon="2.99069">
        <ele>520</ele>
        <time>2010-01-01T02:40:11Z</time>
      </trkpt>
      <trkpt lat="44.12139" lon="2.99073">
        <ele>520</ele>
        <time>2010-01-01T02:40:14Z</time>
      </trkpt>
      <trkpt lat="44.12132" lon="2.99075">
        <ele>520</ele>
        <time>2010-01-01T02:40:17Z</time>
      </trkpt>
      <trkpt lat="44.12126" lon="2.99077">
        <ele>519</ele>
        <time>2010-01-01T02:40:19Z</time>
      </trkpt>
      <trkpt lat="44.1212" lon="2.99077">
        <ele>519</ele>
        <time>2010-01-01T02:40:21Z</time>
      </trkpt>
      <trkpt lat="44.12117" lon="2.99078">
        <ele>519</ele>
        <time>2010-01-01T02:40:23Z</time>
      </trkpt>
      <trkpt lat="44.12113" lon="2.99079">
        <ele>519</ele>
        <time>2010-01-01T02:40:24Z</time>
      </trkpt>
      <trkpt lat="44.12109" lon="2.99079">
        <ele>519</ele>
        <time>2010-01-01T02:40:26Z</time>
      </trkpt>
      <trkpt lat="44.12104" lon="2.99079">
        <ele>518</ele>
        <time>2010-01-01T02:40:28Z</time>
      </trkpt>
      <trkpt lat="44.12098" lon="2.9908">
        <ele>518</ele>
        <time>2010-01-01T02:40:31Z</time>
      </trkpt>
      <trkpt lat="44.12091" lon="2.9908">
        <ele>518</ele>
        <time>2010-01-01T02:40:33Z</time>
      </trkpt>
      <trkpt lat="44.12083" lon="2.99079">
        <ele>518</ele>
        <time>2010-01-01T02:40:37Z</time>
      </trkpt>
      <trkpt lat="44.12075" lon="2.99079">
        <ele>518</ele>
        <time>2010-01-01T02:40:40Z</time>
      </trkpt>
      <trkpt lat="44.12068" lon="2.99078">
        <ele>518</ele>
        <time>2010-01-01T02:40:43Z</time>
      </trkpt>
      <trkpt lat="44.1206" lon="2.99078">
        <ele>518</ele>
        <time>2010-01-01T02:40:46Z</time>
      </trkpt>
      <trkpt lat="44.12054" lon="2.99078">
        <ele>517</ele>
        <time>2010-01-01T02:40:48Z</time>
      </trkpt>
      <trkpt lat="44.12047" lon="2.99078">
        <ele>517</ele>
        <time>2010-01-01T02:40:51Z</time>
      </trkpt>
      <trkpt lat="44.12038" lon="2.99075">
        <ele>516</ele>
        <time>2010-01-01T02:40:55Z</time>
      </trkpt>
      <trkpt lat="44.12025" lon="2.99073">
        <ele>515</ele>
        <time>2010-01-01T02:41:00Z</time>
      </trkpt>
      <trkpt lat="44.12007" lon="2.99075">
        <ele>514</ele>
        <time>2010-01-01T02:41:07Z</time>
      </trkpt>
      <trkpt lat="44.11994" lon="2.99078">
        <ele>515</ele>
        <time>2010-01-01T02:41:12Z</time>
      </trkpt>
      <trkpt lat="44.1198" lon="2.99082">
        <ele>515</ele>
        <time>2010-01-01T02:41:18Z</time>
      </trkpt>
      <trkpt lat="44.11967" lon="2.99085">
        <ele>514</ele>
        <time>2010-01-01T02:41:23Z</time>
      </trkpt>
      <trkpt lat="44.11954" lon="2.99087">
        <ele>513</ele>
        <time>2010-01-01T02:41:29Z</time>
      </trkpt>
      <trkpt lat="44.11941" lon="2.99089">
        <ele>512</ele>
        <time>2010-01-01T02:41:34Z</time>
      </trkpt>
      <trkpt lat="44.1193" lon="2.99092">
        <ele>512</ele>
        <time>2010-01-01T02:41:38Z</time>
      </trkpt>
      <trkpt lat="44.11919" lon="2.99095">
        <ele>511</ele>
        <time>2010-01-01T02:41:43Z</time>
      </trkpt>
      <trkpt lat="44.11908" lon="2.99097">
        <ele>511</ele>
        <time>2010-01-01T02:41:47Z</time>
      </trkpt>
      <trkpt lat="44.11895" lon="2.99099">
        <ele>511</ele>
        <time>2010-01-01T02:41:52Z</time>
      </trkpt>
      <trkpt lat="44.11884" lon="2.99102">
        <ele>510</ele>
        <time>2010-01-01T02:41:57Z</time>
      </trkpt>
      <trkpt lat="44.11872" lon="2.99105">
        <ele>511</ele>
        <time>2010-01-01T02:42:02Z</time>
      </trkpt>
      <trkpt lat="44.11861" lon="2.99109">
        <ele>510</ele>
        <time>2010-01-01T02:42:06Z</time>
      </trkpt>
      <trkpt lat="44.11853" lon="2.99112">
        <ele>510</ele>
        <time>2010-01-01T02:42:10Z</time>
      </trkpt>
      <trkpt lat="44.11841" lon="2.99116">
        <ele>509</ele>
        <time>2010-01-01T02:42:14Z</time>
      </trkpt>
      <trkpt lat="44.11829" lon="2.9912">
        <ele>509</ele>
        <time>2010-01-01T02:42:20Z</time>
      </trkpt>
      <trkpt lat="44.11817" lon="2.99124">
        <ele>509</ele>
        <time>2010-01-01T02:42:25Z</time>
      </trkpt>
      <trkpt lat="44.11804" lon="2.99127">
        <ele>509</ele>
        <time>2010-01-01T02:42:30Z</time>
      </trkpt>
      <trkpt lat="44.11792" lon="2.99132">
        <ele>509</ele>
        <time>2010-01-01T02:42:35Z</time>
      </trkpt>
      <trkpt lat="44.1178" lon="2.99137">
        <ele>508</ele>
        <time>2010-01-01T02:42:40Z</time>
      </trkpt>
      <trkpt lat="44.11769" lon="2.99142">
        <ele>508</ele>
        <time>2010-01-01T02:42:44Z</time>
      </trkpt>
      <trkpt lat="44.11758" lon="2.99147">
        <ele>507</ele>
        <time>2010-01-01T02:42:49Z</time>
      </trkpt>
      <trkpt lat="44.11746" lon="2.99153">
        <ele>506</ele>
        <time>2010-01-01T02:42:54Z</time>
      </trkpt>
      <trkpt lat="44.11735" lon="2.99158">
        <ele>506</ele>
        <time>2010-01-01T02:42:59Z</time>
      </trkpt>
      <trkpt lat="44.11723" lon="2.99164">
        <ele>505</ele>
        <time>2010-01-01T02:43:04Z</time>
      </trkpt>
      <trkpt lat="44.11713" lon="2.99169">
        <ele>505</ele>
        <time>2010-01-01T02:43:08Z</time>
      </trkpt>
      <trkpt lat="44.11702" lon="2.99175">
        <ele>505</ele>
        <time>2010-01-01T02:43:13Z</time>
      </trkpt>
      <trkpt lat="44.11692" lon="2.99181">
        <ele>505</ele>
        <time>2010-01-01T02:43:17Z</time>
      </trkpt>
      <trkpt lat="44.11681" lon="2.99187">
        <ele>504</ele>
        <time>2010-01-01T02:43:22Z</time>
      </trkpt>
      <trkpt lat="44.11671" lon="2.99194">
        <ele>503</ele>
        <time>2010-01-01T02:43:26Z</time>
      </trkpt>
      <trkpt lat="44.11661" lon="2.99201">
        <ele>502</ele>
        <time>2010-01-01T02:43:31Z</time>
      </trkpt>
      <trkpt lat="44.1165" lon="2.99208">
        <ele>501</ele>
        <time>2010-01-01T02:43:36Z</time>
      </trkpt>
      <trkpt lat="44.11641" lon="2.99217">
        <ele>500</ele>
        <time>2010-01-01T02:43:40Z</time>
      </trkpt>
      <trkpt lat="44.11631" lon="2.99228">
        <ele>501</ele>
        <time>2010-01-01T02:43:45Z</time>
      </trkpt>
      <trkpt lat="44.11622" lon="2.99237">
        <ele>501</ele>
        <time>2010-01-01T02:43:50Z</time>
      </trkpt>
      <trkpt lat="44.11614" lon="2.99244">
        <ele>501</ele>
        <time>2010-01-01T02:43:54Z</time>
      </trkpt>
      <trkpt lat="44.11605" lon="2.99252">
        <ele>501</ele>
        <time>2010-01-01T02:43:58Z</time>
      </trkpt>
      <trkpt lat="44.11596" lon="2.99259">
        <ele>502</ele>
        <time>2010-01-01T02:44:02Z</time>
      </trkpt>
      <trkpt lat="44.11586" lon="2.99266">
        <ele>503</ele>
        <time>2010-01-01T02:44:06Z</time>
      </trkpt>
      <trkpt lat="44.11576" lon="2.99274">
        <ele>503</ele>
        <time>2010-01-01T02:44:11Z</time>
      </trkpt>
      <trkpt lat="44.11564" lon="2.99281">
        <ele>502</ele>
        <time>2010-01-01T02:44:16Z</time>
      </trkpt>
      <trkpt lat="44.1155" lon="2.99288">
        <ele>501</ele>
        <time>2010-01-01T02:44:22Z</time>
      </trkpt>
      <trkpt lat="44.11538" lon="2.99295">
        <ele>500</ele>
        <time>2010-01-01T02:44:27Z</time>
      </trkpt>
      <trkpt lat="44.11524" lon="2.993">
        <ele>500</ele>
        <time>2010-01-01T02:44:33Z</time>
      </trkpt>
      <trkpt lat="44.11511" lon="2.99302">
        <ele>499</ele>
        <time>2010-01-01T02:44:39Z</time>
      </trkpt>
      <trkpt lat="44.11497" lon="2.99307">
        <ele>498</ele>
        <time>2010-01-01T02:44:44Z</time>
      </trkpt>
      <trkpt lat="44.11486" lon="2.99314">
        <ele>498</ele>
        <time>2010-01-01T02:44:49Z</time>
      </trkpt>
      <trkpt lat="44.11475" lon="2.99319">
        <ele>498</ele>
        <time>2010-01-01T02:44:54Z</time>
      </trkpt>
      <trkpt lat="44.11462" lon="2.99325">
        <ele>497</ele>
        <time>2010-01-01T02:44:59Z</time>
      </trkpt>
      <trkpt lat="44.11447" lon="2.99332">
        <ele>497</ele>
        <time>2010-01-01T02:45:06Z</time>
      </trkpt>
      <trkpt lat="44.11432" lon="2.99339">
        <ele>495</ele>
        <time>2010-01-01T02:45:12Z</time>
      </trkpt>
      <trkpt lat="44.11418" lon="2.99346">
        <ele>494</ele>
        <time>2010-01-01T02:45:18Z</time>
      </trkpt>
      <trkpt lat="44.11404" lon="2.99352">
        <ele>494</ele>
        <time>2010-01-01T02:45:24Z</time>
      </trkpt>
      <trkpt lat="44.11391" lon="2.99358">
        <ele>495</ele>
        <time>2010-01-01T02:45:29Z</time>
      </trkpt>
      <trkpt lat="44.11378" lon="2.99365">
        <ele>495</ele>
        <time>2010-01-01T02:45:35Z</time>
      </trkpt>
      <trkpt lat="44.11368" lon="2.99372">
        <ele>495</ele>
        <time>2010-01-01T02:45:39Z</time>
      </trkpt>
      <trkpt lat="44.11354" lon="2.99381">
        <ele>495</ele>
        <time>2010-01-01T02:45:45Z</time>
      </trkpt>
      <trkpt lat="44.11342" lon="2.99391">
        <ele>494</ele>
        <time>2010-01-01T02:45:51Z</time>
      </trkpt>
      <trkpt lat="44.11331" lon="2.99401">
        <ele>493</ele>
        <time>2010-01-01T02:45:56Z</time>
      </trkpt>
      <trkpt lat="44.1132" lon="2.99409">
        <ele>492</ele>
        <time>2010-01-01T02:46:01Z</time>
      </trkpt>
      <trkpt lat="44.11308" lon="2.99417">
        <ele>491</ele>
        <time>2010-01-01T02:46:07Z</time>
      </trkpt>
      <trkpt lat="44.11297" lon="2.99426">
        <ele>491</ele>
        <time>2010-01-01T02:46:12Z</time>
      </trkpt>
      <trkpt lat="44.11287" lon="2.99435">
        <ele>490</ele>
        <time>2010-01-01T02:46:17Z</time>
      </trkpt>
      <trkpt lat="44.11278" lon="2.99447">
        <ele>490</ele>
        <time>2010-01-01T02:46:21Z</time>
      </trkpt>
      <trkpt lat="44.1127" lon="2.9946">
        <ele>490</ele>
        <time>2010-01-01T02:46:26Z</time>
      </trkpt>
      <trkpt lat="44.11265" lon="2.99475">
        <ele>490</ele>
        <time>2010-01-01T02:46:31Z</time>
      </trkpt>
      <trkpt lat="44.11263" lon="2.9949">
        <ele>490</ele>
        <time>2010-01-01T02:46:35Z</time>
      </trkpt>
      <trkpt lat="44.11261" lon="2.99505">
        <ele>491</ele>
        <time>2010-01-01T02:46:40Z</time>
      </trkpt>
      <trkpt lat="44.1126" lon="2.99519">
        <ele>491</ele>
        <time>2010-01-01T02:46:44Z</time>
      </trkpt>
      <trkpt lat="44.11257" lon="2.99533">
        <ele>491</ele>
        <time>2010-01-01T02:46:48Z</time>
      </trkpt>
      <trkpt lat="44.11251" lon="2.99546">
        <ele>490</ele>
        <time>2010-01-01T02:46:53Z</time>
      </trkpt>
      <trkpt lat="44.11243" lon="2.99558">
        <ele>489</ele>
        <time>2010-01-01T02:46:57Z</time>
      </trkpt>
      <trkpt lat="44.11233" lon="2.99567">
        <ele>488</ele>
        <time>2010-01-01T02:47:02Z</time>
      </trkpt>
      <trkpt lat="44.11224" lon="2.99576">
        <ele>486</ele>
        <time>2010-01-01T02:47:07Z</time>
      </trkpt>
      <trkpt lat="44.11215" lon="2.99585">
        <ele>486</ele>
        <time>2010-01-01T02:47:11Z</time>
      </trkpt>
      <trkpt lat="44.11206" lon="2.99593">
        <ele>485</ele>
        <time>2010-01-01T02:47:15Z</time>
      </trkpt>
      <trkpt lat="44.11198" lon="2.99601">
        <ele>485</ele>
        <time>2010-01-01T02:47:19Z</time>
      </trkpt>
      <trkpt lat="44.1119" lon="2.99609">
        <ele>484</ele>
        <time>2010-01-01T02:47:23Z</time>
      </trkpt>
      <trkpt lat="44.11183" lon="2.99617">
        <ele>484</ele>
        <time>2010-01-01T02:47:27Z</time>
      </trkpt>
      <trkpt lat="44.11175" lon="2.99623">
        <ele>485</ele>
        <time>2010-01-01T02:47:30Z</time>
      </trkpt>
      <trkpt lat="44.11169" lon="2.99629">
        <ele>485</ele>
        <time>2010-01-01T02:47:33Z</time>
      </trkpt>
      <trkpt lat="44.11167" lon="2.99637">
        <ele>485</ele>
        <time>2010-01-01T02:47:36Z</time>
      </trkpt>
      <trkpt lat="44.11166" lon="2.99642">
        <ele>486</ele>
        <time>2010-01-01T02:47:37Z</time>
      </trkpt>
      <trkpt lat="44.11165" lon="2.99648">
        <ele>487</ele>
        <time>2010-01-01T02:47:39Z</time>
      </trkpt>
      <trkpt lat="44.11164" lon="2.99655">
        <ele>488</ele>
        <time>2010-01-01T02:47:41Z</time>
      </trkpt>
      <trkpt lat="44.11164" lon="2.9966">
        <ele>489</ele>
        <time>2010-01-01T02:47:43Z</time>
      </trkpt>
      <trkpt lat="44.11166" lon="2.99666">
        <ele>489</ele>
        <time>2010-01-01T02:47:44Z</time>
      </trkpt>
      <trkpt lat="44.11169" lon="2.99671">
        <ele>490</ele>
        <time>2010-01-01T02:47:46Z</time>
      </trkpt>
      <trkpt lat="44.1117" lon="2.99677">
        <ele>491</ele>
        <time>2010-01-01T02:47:48Z</time>
      </trkpt>
      <trkpt lat="44.11173" lon="2.99682">
        <ele>492</ele>
        <time>2010-01-01T02:47:50Z</time>
      </trkpt>
      <trkpt lat="44.11176" lon="2.99688">
        <ele>493</ele>
        <time>2010-01-01T02:47:52Z</time>
      </trkpt>
      <trkpt lat="44.11178" lon="2.99694">
        <ele>493</ele>
        <time>2010-01-01T02:47:54Z</time>
      </trkpt>
      <trkpt lat="44.1118" lon="2.997">
        <ele>494</ele>
        <time>2010-01-01T02:47:56Z</time>
      </trkpt>
      <trkpt lat="44.11183" lon="2.99706">
        <ele>494</ele>
        <time>2010-01-01T02:47:58Z</time>
      </trkpt>
      <trkpt lat="44.11186" lon="2.99712">
        <ele>494</ele>
        <time>2010-01-01T02:48:00Z</time>
      </trkpt>
      <trkpt lat="44.11188" lon="2.99718">
        <ele>494</ele>
        <time>2010-01-01T02:48:02Z</time>
      </trkpt>
      <trkpt lat="44.1119" lon="2.99725">
        <ele>494</ele>
        <time>2010-01-01T02:48:04Z</time>
      </trkpt>
      <trkpt lat="44.11192" lon="2.99732">
        <ele>494</ele>
        <time>2010-01-01T02:48:06Z</time>
      </trkpt>
      <trkpt lat="44.11195" lon="2.99739">
        <ele>494</ele>
        <time>2010-01-01T02:48:08Z</time>
      </trkpt>
      <trkpt lat="44.11198" lon="2.99747">
        <ele>494</ele>
        <time>2010-01-01T02:48:11Z</time>
      </trkpt>
      <trkpt lat="44.112" lon="2.99755">
        <ele>495</ele>
        <time>2010-01-01T02:48:13Z</time>
      </trkpt>
      <trkpt lat="44.11203" lon="2.99762">
        <ele>495</ele>
        <time>2010-01-01T02:48:16Z</time>
      </trkpt>
      <trkpt lat="44.11205" lon="2.9977">
        <ele>496</ele>
        <time>2010-01-01T02:48:18Z</time>
      </trkpt>
      <trkpt lat="44.11207" lon="2.99777">
        <ele>496</ele>
        <time>2010-01-01T02:48:21Z</time>
      </trkpt>
      <trkpt lat="44.1121" lon="2.99785">
        <ele>497</ele>
        <time>2010-01-01T02:48:23Z</time>
      </trkpt>
      <trkpt lat="44.11213" lon="2.99792">
        <ele>497</ele>
        <time>2010-01-01T02:48:25Z</time>
      </trkpt>
      <trkpt lat="44.11216" lon="2.998">
        <ele>497</ele>
        <time>2010-01-01T02:48:28Z</time>
      </trkpt>
      <trkpt lat="44.11218" lon="2.99807">
        <ele>498</ele>
        <time>2010-01-01T02:48:30Z</time>
      </trkpt>
      <trkpt lat="44.11221" lon="2.99815">
        <ele>498</ele>
        <time>2010-01-01T02:48:33Z</time>
      </trkpt>
      <trkpt lat="44.11224" lon="2.99822">
        <ele>498</ele>
        <time>2010-01-01T02:48:35Z</time>
      </trkpt>
      <trkpt lat="44.11227" lon="2.99829">
        <ele>498</ele>
        <time>2010-01-01T02:48:37Z</time>
      </trkpt>
      <trkpt lat="44.1123" lon="2.99837">
        <ele>499</ele>
        <time>2010-01-01T02:48:40Z</time>
      </trkpt>
      <trkpt lat="44.11232" lon="2.99844">
        <ele>499</ele>
        <time>2010-01-01T02:48:42Z</time>
      </trkpt>
      <trkpt lat="44.11235" lon="2.99851">
        <ele>499</ele>
        <time>2010-01-01T02:48:44Z</time>
      </trkpt>
      <trkpt lat="44.11238" lon="2.99858">
        <ele>499</ele>
        <time>2010-01-01T02:48:47Z</time>
      </trkpt>
      <trkpt lat="44.11241" lon="2.99866">
        <ele>499</ele>
        <time>2010-01-01T02:48:49Z</time>
      </trkpt>
      <trkpt lat="44.11244" lon="2.99874">
        <ele>499</ele>
        <time>2010-01-01T02:48:52Z</time>
      </trkpt>
      <trkpt lat="44.11247" lon="2.99881">
        <ele>499</ele>
        <time>2010-01-01T02:48:54Z</time>
      </trkpt>
      <trkpt lat="44.1125" lon="2.99889">
        <ele>499</ele>
        <time>2010-01-01T02:48:57Z</time>
      </trkpt>
      <trkpt lat="44.11253" lon="2.99896">
        <ele>499</ele>
        <time>2010-01-01T02:48:59Z</time>
      </trkpt>
      <trkpt lat="44.11257" lon="2.99904">
        <ele>499</ele>
        <time>2010-01-01T02:49:02Z</time>
      </trkpt>
      <trkpt lat="44.11259" lon="2.99912">
        <ele>499</ele>
        <time>2010-01-01T02:49:04Z</time>
      </trkpt>
      <trkpt lat="44.11262" lon="2.99919">
        <ele>499</ele>
        <time>2010-01-01T02:49:07Z</time>
      </trkpt>
      <trkpt lat="44.11265" lon="2.99926">
        <ele>499</ele>
        <time>2010-01-01T02:49:09Z</time>
      </trkpt>
      <trkpt lat="44.11268" lon="2.99934">
        <ele>500</ele>
        <time>2010-01-01T02:49:12Z</time>
      </trkpt>
      <trkpt lat="44.11271" lon="2.99942">
        <ele>500</ele>
        <time>2010-01-01T02:49:14Z</time>
      </trkpt>
      <trkpt lat="44.11274" lon="2.99949">
        <ele>501</ele>
        <time>2010-01-01T02:49:17Z</time>
      </trkpt>
      <trkpt lat="44.11277" lon="2.99956">
        <ele>501</ele>
        <time>2010-01-01T02:49:19Z</time>
      </trkpt>
      <trkpt lat="44.1128" lon="2.99964">
        <ele>501</ele>
        <time>2010-01-01T02:49:22Z</time>
      </trkpt>
      <trkpt lat="44.11284" lon="2.99971">
        <ele>501</ele>
        <time>2010-01-01T02:49:24Z</time>
      </trkpt>
      <trkpt lat="44.11288" lon="2.99978">
        <ele>501</ele>
        <time>2010-01-01T02:49:27Z</time>
      </trkpt>
      <trkpt lat="44.11291" lon="2.99985">
        <ele>501</ele>
        <time>2010-01-01T02:49:29Z</time>
      </trkpt>
      <trkpt lat="44.11294" lon="2.99992">
        <ele>501</ele>
        <time>2010-01-01T02:49:32Z</time>
      </trkpt>
      <trkpt lat="44.11298" lon="3">
        <ele>501</ele>
        <time>2010-01-01T02:49:34Z</time>
      </trkpt>
      <trkpt lat="44.11301" lon="3.00007">
        <ele>501</ele>
        <time>2010-01-01T02:49:37Z</time>
      </trkpt>
      <trkpt lat="44.11304" lon="3.00015">
        <ele>501</ele>
        <time>2010-01-01T02:49:39Z</time>
      </trkpt>
      <trkpt lat="44.11308" lon="3.00022">
        <ele>501</ele>
        <time>2010-01-01T02:49:42Z</time>
      </trkpt>
      <trkpt lat="44.11312" lon="3.0003">
        <ele>502</ele>
        <time>2010-01-01T02:49:44Z</time>
      </trkpt>
      <trkpt lat="44.11315" lon="3.00037">
        <ele>502</ele>
        <time>2010-01-01T02:49:47Z</time>
      </trkpt>
      <trkpt lat="44.11318" lon="3.00044">
        <ele>503</ele>
        <time>2010-01-01T02:49:49Z</time>
      </trkpt>
      <trkpt lat="44.11322" lon="3.00051">
        <ele>504</ele>
        <time>2010-01-01T02:49:52Z</time>
      </trkpt>
      <trkpt lat="44.11325" lon="3.00058">
        <ele>504</ele>
        <time>2010-01-01T02:49:54Z</time>
      </trkpt>
      <trkpt lat="44.11329" lon="3.00065">
        <ele>504</ele>
        <time>2010-01-01T02:49:57Z</time>
      </trkpt>
      <trkpt lat="44.11334" lon="3.00072">
        <ele>504</ele>
        <time>2010-01-01T02:49:59Z</time>
      </trkpt>
      <trkpt lat="44.11338" lon="3.00078">
        <ele>504</ele>
        <time>2010-01-01T02:50:02Z</time>
      </trkpt>
      <trkpt lat="44.11342" lon="3.00084">
        <ele>504</ele>
        <time>2010-01-01T02:50:04Z</time>
      </trkpt>
      <trkpt lat="44.11345" lon="3.00091">
        <ele>505</ele>
        <time>2010-01-01T02:50:07Z</time>
      </trkpt>
      <trkpt lat="44.11348" lon="3.00097">
        <ele>506</ele>
        <time>2010-01-01T02:50:09Z</time>
      </trkpt>
      <trkpt lat="44.1135" lon="3.00104">
        <ele>506</ele>
        <time>2010-01-01T02:50:11Z</time>
      </trkpt>
      <trkpt lat="44.11354" lon="3.00111">
        <ele>507</ele>
        <time>2010-01-01T02:50:13Z</time>
      </trkpt>
      <trkpt lat="44.11357" lon="3.00118">
        <ele>508</ele>
        <time>2010-01-01T02:50:15Z</time>
      </trkpt>
      <trkpt lat="44.11359" lon="3.00125">
        <ele>508</ele>
        <time>2010-01-01T02:50:18Z</time>
      </trkpt>
      <trkpt lat="44.11361" lon="3.00132">
        <ele>509</ele>
        <time>2010-01-01T02:50:20Z</time>
      </trkpt>
      <trkpt lat="44.11363" lon="3.0014">
        <ele>509</ele>
        <time>2010-01-01T02:50:22Z</time>
      </trkpt>
      <trkpt lat="44.11366" lon="3.00147">
        <ele>509</ele>
        <time>2010-01-01T02:50:25Z</time>
      </trkpt>
      <trkpt lat="44.11367" lon="3.00155">
        <ele>510</ele>
        <time>2010-01-01T02:50:27Z</time>
      </trkpt>
      <trkpt lat="44.11369" lon="3.00162">
        <ele>510</ele>
        <time>2010-01-01T02:50:29Z</time>
      </trkpt>
      <trkpt lat="44.11372" lon="3.0017">
        <ele>510</ele>
        <time>2010-01-01T02:50:32Z</time>
      </trkpt>
      <trkpt lat="44.11377" lon="3.00177">
        <ele>510</ele>
        <time>2010-01-01T02:50:35Z</time>
      </trkpt>
      <trkpt lat="44.11381" lon="3.00184">
        <ele>510</ele>
        <time>2010-01-01T02:50:37Z</time>
      </trkpt>
      <trkpt lat="44.11385" lon="3.00189">
        <ele>511</ele>
        <time>2010-01-01T02:50:39Z</time>
      </trkpt>
      <trkpt lat="44.1139" lon="3.00195">
        <ele>510</ele>
        <time>2010-01-01T02:50:42Z</time>
      </trkpt>
      <trkpt lat="44.11394" lon="3.00201">
        <ele>511</ele>
        <time>2010-01-01T02:50:44Z</time>
      </trkpt>
      <trkpt lat="44.11398" lon="3.00206">
        <ele>510</ele>
        <time>2010-01-01T02:50:46Z</time>
      </trkpt>
      <trkpt lat="44.11402" lon="3.00212">
        <ele>510</ele>
        <time>2010-01-01T02:50:49Z</time>
      </trkpt>
      <trkpt lat="44.11407" lon="3.00218">
        <ele>510</ele>
        <time>2010-01-01T02:50:51Z</time>
      </trkpt>
      <trkpt lat="44.11412" lon="3.00223">
        <ele>510</ele>
        <time>2010-01-01T02:50:54Z</time>
      </trkpt>
      <trkpt lat="44.11416" lon="3.00227">
        <ele>509</ele>
        <time>2010-01-01T02:50:56Z</time>
      </trkpt>
      <trkpt lat="44.11421" lon="3.00233">
        <ele>509</ele>
        <time>2010-01-01T02:50:58Z</time>
      </trkpt>
      <trkpt lat="44.11425" lon="3.00238">
        <ele>509</ele>
        <time>2010-01-01T02:51:01Z</time>
      </trkpt>
      <trkpt lat="44.11428" lon="3.00245">
        <ele>509</ele>
        <time>2010-01-01T02:51:03Z</time>
      </trkpt>
      <trkpt lat="44.11432" lon="3.00252">
        <ele>510</ele>
        <time>2010-01-01T02:51:05Z</time>
      </trkpt>
      <trkpt lat="44.11435" lon="3.00258">
        <ele>510</ele>
        <time>2010-01-01T02:51:08Z</time>
      </trkpt>
      <trkpt lat="44.11439" lon="3.00264">
        <ele>510</ele>
        <time>2010-01-01T02:51:10Z</time>
      </trkpt>
      <trkpt lat="44.11442" lon="3.0027">
        <ele>510</ele>
        <time>2010-01-01T02:51:12Z</time>
      </trkpt>
      <trkpt lat="44.11463" lon="3.00302">
        <ele>511</ele>
        <time>2010-01-01T02:51:24Z</time>
      </trkpt>
      <trkpt lat="44.11469" lon="3.0031">
        <ele>511</ele>
        <time>2010-01-01T02:51:28Z</time>
      </trkpt>
      <trkpt lat="44.11473" lon="3.00319">
        <ele>511</ele>
        <time>2010-01-01T02:51:31Z</time>
      </trkpt>
      <trkpt lat="44.1148" lon="3.00328">
        <ele>511</ele>
        <time>2010-01-01T02:51:35Z</time>
      </trkpt>
      <trkpt lat="44.11486" lon="3.00338">
        <ele>512</ele>
        <time>2010-01-01T02:51:39Z</time>
      </trkpt>
      <trkpt lat="44.11493" lon="3.00351">
        <ele>513</ele>
        <time>2010-01-01T02:51:43Z</time>
      </trkpt>
      <trkpt lat="44.11499" lon="3.00367">
        <ele>513</ele>
        <time>2010-01-01T02:51:48Z</time>
      </trkpt>
      <trkpt lat="44.11505" lon="3.00383">
        <ele>514</ele>
        <time>2010-01-01T02:51:54Z</time>
      </trkpt>
      <trkpt lat="44.11511" lon="3.00399">
        <ele>516</ele>
        <time>2010-01-01T02:51:59Z</time>
      </trkpt>
      <trkpt lat="44.11516" lon="3.00413">
        <ele>517</ele>
        <time>2010-01-01T02:52:03Z</time>
      </trkpt>
      <trkpt lat="44.11522" lon="3.00428">
        <ele>518</ele>
        <time>2010-01-01T02:52:08Z</time>
      </trkpt>
      <trkpt lat="44.11527" lon="3.00442">
        <ele>517</ele>
        <time>2010-01-01T02:52:13Z</time>
      </trkpt>
      <trkpt lat="44.11533" lon="3.00454">
        <ele>518</ele>
        <time>2010-01-01T02:52:17Z</time>
      </trkpt>
      <trkpt lat="44.11537" lon="3.00464">
        <ele>519</ele>
        <time>2010-01-01T02:52:20Z</time>
      </trkpt>
      <trkpt lat="44.11541" lon="3.00473">
        <ele>519</ele>
        <time>2010-01-01T02:52:23Z</time>
      </trkpt>
      <trkpt lat="44.11544" lon="3.00481">
        <ele>520</ele>
        <time>2010-01-01T02:52:26Z</time>
      </trkpt>
      <trkpt lat="44.11548" lon="3.0049">
        <ele>521</ele>
        <time>2010-01-01T02:52:29Z</time>
      </trkpt>
      <trkpt lat="44.11552" lon="3.00497">
        <ele>521</ele>
        <time>2010-01-01T02:52:31Z</time>
      </trkpt>
      <trkpt lat="44.11556" lon="3.00504">
        <ele>521</ele>
        <time>2010-01-01T02:52:34Z</time>
      </trkpt>
      <trkpt lat="44.1156" lon="3.00512">
        <ele>521</ele>
        <time>2010-01-01T02:52:37Z</time>
      </trkpt>
      <trkpt lat="44.11565" lon="3.0052">
        <ele>522</ele>
        <time>2010-01-01T02:52:40Z</time>
      </trkpt>
      <trkpt lat="44.1157" lon="3.00527">
        <ele>522</ele>
        <time>2010-01-01T02:52:42Z</time>
      </trkpt>
      <trkpt lat="44.11574" lon="3.00535">
        <ele>522</ele>
        <time>2010-01-01T02:52:45Z</time>
      </trkpt>
      <trkpt lat="44.11579" lon="3.00543">
        <ele>523</ele>
        <time>2010-01-01T02:52:48Z</time>
      </trkpt>
      <trkpt lat="44.11584" lon="3.0055">
        <ele>523</ele>
        <time>2010-01-01T02:52:51Z</time>
      </trkpt>
      <trkpt lat="44.11589" lon="3.00558">
        <ele>523</ele>
        <time>2010-01-01T02:52:54Z</time>
      </trkpt>
      <trkpt lat="44.11594" lon="3.00566">
        <ele>524</ele>
        <time>2010-01-01T02:52:57Z</time>
      </trkpt>
      <trkpt lat="44.11599" lon="3.00574">
        <ele>524</ele>
        <time>2010-01-01T02:53:01Z</time>
      </trkpt>
      <trkpt lat="44.11604" lon="3.00582">
        <ele>524</ele>
        <time>2010-01-01T02:53:04Z</time>
      </trkpt>
      <trkpt lat="44.11609" lon="3.0059">
        <ele>524</ele>
        <time>2010-01-01T02:53:06Z</time>
      </trkpt>
      <trkpt lat="44.11613" lon="3.00598">
        <ele>525</ele>
        <time>2010-01-01T02:53:09Z</time>
      </trkpt>
      <trkpt lat="44.11617" lon="3.00605">
        <ele>525</ele>
        <time>2010-01-01T02:53:12Z</time>
      </trkpt>
      <trkpt lat="44.11621" lon="3.00613">
        <ele>526</ele>
        <time>2010-01-01T02:53:15Z</time>
      </trkpt>
      <trkpt lat="44.11624" lon="3.00621">
        <ele>526</ele>
        <time>2010-01-01T02:53:17Z</time>
      </trkpt>
      <trkpt lat="44.11627" lon="3.0063">
        <ele>526</ele>
        <time>2010-01-01T02:53:20Z</time>
      </trkpt>
      <trkpt lat="44.1163" lon="3.00638">
        <ele>527</ele>
        <time>2010-01-01T02:53:23Z</time>
      </trkpt>
      <trkpt lat="44.11633" lon="3.00647">
        <ele>527</ele>
        <time>2010-01-01T02:53:26Z</time>
      </trkpt>
      <trkpt lat="44.11636" lon="3.00655">
        <ele>528</ele>
        <time>2010-01-01T02:53:28Z</time>
      </trkpt>
      <trkpt lat="44.11639" lon="3.00663">
        <ele>528</ele>
        <time>2010-01-01T02:53:31Z</time>
      </trkpt>
      <trkpt lat="44.11642" lon="3.00671">
        <ele>528</ele>
        <time>2010-01-01T02:53:33Z</time>
      </trkpt>
      <trkpt lat="44.11645" lon="3.00678">
        <ele>529</ele>
        <time>2010-01-01T02:53:36Z</time>
      </trkpt>
      <trkpt lat="44.11649" lon="3.00685">
        <ele>529</ele>
        <time>2010-01-01T02:53:38Z</time>
      </trkpt>
      <trkpt lat="44.11652" lon="3.00693">
        <ele>528</ele>
        <time>2010-01-01T02:53:41Z</time>
      </trkpt>
      <trkpt lat="44.11656" lon="3.007">
        <ele>528</ele>
        <time>2010-01-01T02:53:43Z</time>
      </trkpt>
      <trkpt lat="44.1166" lon="3.00707">
        <ele>528</ele>
        <time>2010-01-01T02:53:46Z</time>
      </trkpt>
      <trkpt lat="44.11664" lon="3.00715">
        <ele>528</ele>
        <time>2010-01-01T02:53:49Z</time>
      </trkpt>
      <trkpt lat="44.11667" lon="3.00722">
        <ele>528</ele>
        <time>2010-01-01T02:53:51Z</time>
      </trkpt>
      <trkpt lat="44.11671" lon="3.00729">
        <ele>529</ele>
        <time>2010-01-01T02:53:54Z</time>
      </trkpt>
      <trkpt lat="44.11674" lon="3.00736">
        <ele>530</ele>
        <time>2010-01-01T02:53:56Z</time>
      </trkpt>
      <trkpt lat="44.11676" lon="3.00741">
        <ele>530</ele>
        <time>2010-01-01T02:53:58Z</time>
      </trkpt>
      <trkpt lat="44.11676" lon="3.00742">
        <ele>530</ele>
        <time>2010-01-01T02:53:58Z</time>
      </trkpt>
      <trkpt lat="44.11676" lon="3.00742">
        <ele>530</ele>
        <time>2010-01-01T02:53:58Z</time>
      </trkpt>
      <trkpt lat="44.11676" lon="3.00742">
        <ele>530</ele>
        <time>2010-01-01T02:53:58Z</time>
      </trkpt>
      <trkpt lat="44.11682" lon="3.00749">
        <ele>530</ele>
        <time>2010-01-01T02:54:01Z</time>
      </trkpt>
      <trkpt lat="44.11682" lon="3.00751">
        <ele>530</ele>
        <time>2010-01-01T02:54:02Z</time>
      </trkpt>
      <trkpt lat="44.11683" lon="3.00754">
        <ele>530</ele>
        <time>2010-01-01T02:54:02Z</time>
      </trkpt>
      <trkpt lat="44.11684" lon="3.00758">
        <ele>531</ele>
        <time>2010-01-01T02:54:04Z</time>
      </trkpt>
      <trkpt lat="44.11686" lon="3.00762">
        <ele>531</ele>
        <time>2010-01-01T02:54:05Z</time>
      </trkpt>
      <trkpt lat="44.11689" lon="3.00767">
        <ele>531</ele>
        <time>2010-01-01T02:54:07Z</time>
      </trkpt>
      <trkpt lat="44.11691" lon="3.00773">
        <ele>532</ele>
        <time>2010-01-01T02:54:09Z</time>
      </trkpt>
      <trkpt lat="44.11694" lon="3.00781">
        <ele>532</ele>
        <time>2010-01-01T02:54:11Z</time>
      </trkpt>
      <trkpt lat="44.11697" lon="3.0079">
        <ele>533</ele>
        <time>2010-01-01T02:54:14Z</time>
      </trkpt>
      <trkpt lat="44.11701" lon="3.00797">
        <ele>533</ele>
        <time>2010-01-01T02:54:17Z</time>
      </trkpt>
      <trkpt lat="44.11704" lon="3.00803">
        <ele>533</ele>
        <time>2010-01-01T02:54:19Z</time>
      </trkpt>
      <trkpt lat="44.11707" lon="3.0081">
        <ele>534</ele>
        <time>2010-01-01T02:54:21Z</time>
      </trkpt>
      <trkpt lat="44.1171" lon="3.00817">
        <ele>534</ele>
        <time>2010-01-01T02:54:24Z</time>
      </trkpt>
      <trkpt lat="44.11713" lon="3.00824">
        <ele>534</ele>
        <time>2010-01-01T02:54:26Z</time>
      </trkpt>
      <trkpt lat="44.11717" lon="3.0083">
        <ele>534</ele>
        <time>2010-01-01T02:54:28Z</time>
      </trkpt>
      <trkpt lat="44.1172" lon="3.00837">
        <ele>534</ele>
        <time>2010-01-01T02:54:30Z</time>
      </trkpt>
      <trkpt lat="44.11723" lon="3.00843">
        <ele>534</ele>
        <time>2010-01-01T02:54:33Z</time>
      </trkpt>
      <trkpt lat="44.11726" lon="3.00849">
        <ele>534</ele>
        <time>2010-01-01T02:54:35Z</time>
      </trkpt>
      <trkpt lat="44.11729" lon="3.00855">
        <ele>535</ele>
        <time>2010-01-01T02:54:37Z</time>
      </trkpt>
      <trkpt lat="44.11732" lon="3.00861">
        <ele>535</ele>
        <time>2010-01-01T02:54:39Z</time>
      </trkpt>
      <trkpt lat="44.11735" lon="3.00867">
        <ele>536</ele>
        <time>2010-01-01T02:54:41Z</time>
      </trkpt>
      <trkpt lat="44.11738" lon="3.00872">
        <ele>536</ele>
        <time>2010-01-01T02:54:43Z</time>
      </trkpt>
      <trkpt lat="44.11741" lon="3.00877">
        <ele>536</ele>
        <time>2010-01-01T02:54:45Z</time>
      </trkpt>
      <trkpt lat="44.11744" lon="3.00883">
        <ele>537</ele>
        <time>2010-01-01T02:54:47Z</time>
      </trkpt>
      <trkpt lat="44.11748" lon="3.00888">
        <ele>537</ele>
        <time>2010-01-01T02:54:49Z</time>
      </trkpt>
      <trkpt lat="44.11751" lon="3.00893">
        <ele>537</ele>
        <time>2010-01-01T02:54:51Z</time>
      </trkpt>
      <trkpt lat="44.11755" lon="3.00899">
        <ele>538</ele>
        <time>2010-01-01T02:54:53Z</time>
      </trkpt>
      <trkpt lat="44.11759" lon="3.00904">
        <ele>538</ele>
        <time>2010-01-01T02:54:55Z</time>
      </trkpt>
      <trkpt lat="44.11762" lon="3.0091">
        <ele>538</ele>
        <time>2010-01-01T02:54:58Z</time>
      </trkpt>
      <trkpt lat="44.11766" lon="3.00916">
        <ele>538</ele>
        <time>2010-01-01T02:55:00Z</time>
      </trkpt>
      <trkpt lat="44.1177" lon="3.00921">
        <ele>539</ele>
        <time>2010-01-01T02:55:02Z</time>
      </trkpt>
      <trkpt lat="44.11774" lon="3.00926">
        <ele>540</ele>
        <time>2010-01-01T02:55:04Z</time>
      </trkpt>
      <trkpt lat="44.11778" lon="3.00931">
        <ele>540</ele>
        <time>2010-01-01T02:55:06Z</time>
      </trkpt>
      <trkpt lat="44.11781" lon="3.00937">
        <ele>541</ele>
        <time>2010-01-01T02:55:08Z</time>
      </trkpt>
      <trkpt lat="44.11785" lon="3.00942">
        <ele>542</ele>
        <time>2010-01-01T02:55:11Z</time>
      </trkpt>
      <trkpt lat="44.11789" lon="3.00946">
        <ele>542</ele>
        <time>2010-01-01T02:55:13Z</time>
      </trkpt>
      <trkpt lat="44.11793" lon="3.00951">
        <ele>542</ele>
        <time>2010-01-01T02:55:15Z</time>
      </trkpt>
      <trkpt lat="44.11798" lon="3.00956">
        <ele>542</ele>
        <time>2010-01-01T02:55:17Z</time>
      </trkpt>
      <trkpt lat="44.11802" lon="3.00961">
        <ele>542</ele>
        <time>2010-01-01T02:55:19Z</time>
      </trkpt>
      <trkpt lat="44.11807" lon="3.00968">
        <ele>542</ele>
        <time>2010-01-01T02:55:22Z</time>
      </trkpt>
      <trkpt lat="44.11812" lon="3.00974">
        <ele>543</ele>
        <time>2010-01-01T02:55:25Z</time>
      </trkpt>
      <trkpt lat="44.11817" lon="3.0098">
        <ele>543</ele>
        <time>2010-01-01T02:55:27Z</time>
      </trkpt>
      <trkpt lat="44.11822" lon="3.00985">
        <ele>543</ele>
        <time>2010-01-01T02:55:30Z</time>
      </trkpt>
      <trkpt lat="44.11827" lon="3.00991">
        <ele>543</ele>
        <time>2010-01-01T02:55:32Z</time>
      </trkpt>
      <trkpt lat="44.11831" lon="3.00996">
        <ele>542</ele>
        <time>2010-01-01T02:55:35Z</time>
      </trkpt>
      <trkpt lat="44.11835" lon="3.01001">
        <ele>542</ele>
        <time>2010-01-01T02:55:37Z</time>
      </trkpt>
      <trkpt lat="44.11838" lon="3.01006">
        <ele>542</ele>
        <time>2010-01-01T02:55:39Z</time>
      </trkpt>
      <trkpt lat="44.11841" lon="3.01011">
        <ele>542</ele>
        <time>2010-01-01T02:55:41Z</time>
      </trkpt>
      <trkpt lat="44.11844" lon="3.01016">
        <ele>542</ele>
        <time>2010-01-01T02:55:42Z</time>
      </trkpt>
      <trkpt lat="44.11846" lon="3.01022">
        <ele>542</ele>
        <time>2010-01-01T02:55:44Z</time>
      </trkpt>
      <trkpt lat="44.11849" lon="3.01027">
        <ele>542</ele>
        <time>2010-01-01T02:55:46Z</time>
      </trkpt>
      <trkpt lat="44.11851" lon="3.01033">
        <ele>542</ele>
        <time>2010-01-01T02:55:48Z</time>
      </trkpt>
      <trkpt lat="44.11854" lon="3.01039">
        <ele>543</ele>
        <time>2010-01-01T02:55:50Z</time>
      </trkpt>
      <trkpt lat="44.11856" lon="3.01044">
        <ele>543</ele>
        <time>2010-01-01T02:55:52Z</time>
      </trkpt>
      <trkpt lat="44.11858" lon="3.0105">
        <ele>543</ele>
        <time>2010-01-01T02:55:54Z</time>
      </trkpt>
      <trkpt lat="44.11861" lon="3.01056">
        <ele>544</ele>
        <time>2010-01-01T02:55:56Z</time>
      </trkpt>
      <trkpt lat="44.11863" lon="3.01061">
        <ele>544</ele>
        <time>2010-01-01T02:55:58Z</time>
      </trkpt>
      <trkpt lat="44.11865" lon="3.01067">
        <ele>545</ele>
        <time>2010-01-01T02:55:59Z</time>
      </trkpt>
      <trkpt lat="44.11867" lon="3.01074">
        <ele>545</ele>
        <time>2010-01-01T02:56:01Z</time>
      </trkpt>
      <trkpt lat="44.11869" lon="3.0108">
        <ele>545</ele>
        <time>2010-01-01T02:56:03Z</time>
      </trkpt>
      <trkpt lat="44.11871" lon="3.01085">
        <ele>546</ele>
        <time>2010-01-01T02:56:05Z</time>
      </trkpt>
      <trkpt lat="44.11874" lon="3.01091">
        <ele>546</ele>
        <time>2010-01-01T02:56:07Z</time>
      </trkpt>
      <trkpt lat="44.11876" lon="3.01098">
        <ele>546</ele>
        <time>2010-01-01T02:56:09Z</time>
      </trkpt>
      <trkpt lat="44.11878" lon="3.01104">
        <ele>547</ele>
        <time>2010-01-01T02:56:11Z</time>
      </trkpt>
      <trkpt lat="44.1188" lon="3.0111">
        <ele>547</ele>
        <time>2010-01-01T02:56:13Z</time>
      </trkpt>
      <trkpt lat="44.11881" lon="3.01116">
        <ele>548</ele>
        <time>2010-01-01T02:56:15Z</time>
      </trkpt>
      <trkpt lat="44.11883" lon="3.01122">
        <ele>548</ele>
        <time>2010-01-01T02:56:17Z</time>
      </trkpt>
      <trkpt lat="44.11885" lon="3.01129">
        <ele>549</ele>
        <time>2010-01-01T02:56:19Z</time>
      </trkpt>
      <trkpt lat="44.11886" lon="3.01135">
        <ele>550</ele>
        <time>2010-01-01T02:56:21Z</time>
      </trkpt>
      <trkpt lat="44.11888" lon="3.01141">
        <ele>550</ele>
        <time>2010-01-01T02:56:23Z</time>
      </trkpt>
      <trkpt lat="44.1189" lon="3.01148">
        <ele>551</ele>
        <time>2010-01-01T02:56:25Z</time>
      </trkpt>
      <trkpt lat="44.11892" lon="3.01154">
        <ele>552</ele>
        <time>2010-01-01T02:56:27Z</time>
      </trkpt>
      <trkpt lat="44.11894" lon="3.01161">
        <ele>552</ele>
        <time>2010-01-01T02:56:29Z</time>
      </trkpt>
      <trkpt lat="44.11897" lon="3.01168">
        <ele>553</ele>
        <time>2010-01-01T02:56:31Z</time>
      </trkpt>
      <trkpt lat="44.119" lon="3.01175">
        <ele>553</ele>
        <time>2010-01-01T02:56:33Z</time>
      </trkpt>
      <trkpt lat="44.11903" lon="3.01182">
        <ele>553</ele>
        <time>2010-01-01T02:56:36Z</time>
      </trkpt>
      <trkpt lat="44.11907" lon="3.01189">
        <ele>553</ele>
        <time>2010-01-01T02:56:38Z</time>
      </trkpt>
      <trkpt lat="44.1191" lon="3.01196">
        <ele>553</ele>
        <time>2010-01-01T02:56:41Z</time>
      </trkpt>
      <trkpt lat="44.11913" lon="3.01204">
        <ele>553</ele>
        <time>2010-01-01T02:56:43Z</time>
      </trkpt>
      <trkpt lat="44.11917" lon="3.01212">
        <ele>553</ele>
        <time>2010-01-01T02:56:46Z</time>
      </trkpt>
      <trkpt lat="44.1192" lon="3.01219">
        <ele>553</ele>
        <time>2010-01-01T02:56:49Z</time>
      </trkpt>
      <trkpt lat="44.11925" lon="3.01226">
        <ele>554</ele>
        <time>2010-01-01T02:56:51Z</time>
      </trkpt>
      <trkpt lat="44.11929" lon="3.01234">
        <ele>554</ele>
        <time>2010-01-01T02:56:54Z</time>
      </trkpt>
      <trkpt lat="44.11933" lon="3.0124">
        <ele>554</ele>
        <time>2010-01-01T02:56:57Z</time>
      </trkpt>
      <trkpt lat="44.11937" lon="3.01248">
        <ele>554</ele>
        <time>2010-01-01T02:56:59Z</time>
      </trkpt>
      <trkpt lat="44.11941" lon="3.01254">
        <ele>554</ele>
        <time>2010-01-01T02:57:02Z</time>
      </trkpt>
      <trkpt lat="44.11945" lon="3.01262">
        <ele>554</ele>
        <time>2010-01-01T02:57:04Z</time>
      </trkpt>
      <trkpt lat="44.11949" lon="3.01268">
        <ele>554</ele>
        <time>2010-01-01T02:57:07Z</time>
      </trkpt>
      <trkpt lat="44.11952" lon="3.01275">
        <ele>554</ele>
        <time>2010-01-01T02:57:09Z</time>
      </trkpt>
      <trkpt lat="44.11956" lon="3.01282">
        <ele>554</ele>
        <time>2010-01-01T02:57:12Z</time>
      </trkpt>
      <trkpt lat="44.1196" lon="3.01288">
        <ele>554</ele>
        <time>2010-01-01T02:57:14Z</time>
      </trkpt>
      <trkpt lat="44.11964" lon="3.01294">
        <ele>554</ele>
        <time>2010-01-01T02:57:16Z</time>
      </trkpt>
      <trkpt lat="44.11968" lon="3.01301">
        <ele>554</ele>
        <time>2010-01-01T02:57:19Z</time>
      </trkpt>
      <trkpt lat="44.11972" lon="3.01307">
        <ele>554</ele>
        <time>2010-01-01T02:57:21Z</time>
      </trkpt>
      <trkpt lat="44.11976" lon="3.01314">
        <ele>554</ele>
        <time>2010-01-01T02:57:24Z</time>
      </trkpt>
      <trkpt lat="44.11981" lon="3.0132">
        <ele>554</ele>
        <time>2010-01-01T02:57:27Z</time>
      </trkpt>
      <trkpt lat="44.11986" lon="3.01326">
        <ele>555</ele>
        <time>2010-01-01T02:57:29Z</time>
      </trkpt>
      <trkpt lat="44.1199" lon="3.01332">
        <ele>555</ele>
        <time>2010-01-01T02:57:32Z</time>
      </trkpt>
      <trkpt lat="44.11995" lon="3.01338">
        <ele>555</ele>
        <time>2010-01-01T02:57:34Z</time>
      </trkpt>
      <trkpt lat="44.11999" lon="3.01344">
        <ele>555</ele>
        <time>2010-01-01T02:57:36Z</time>
      </trkpt>
      <trkpt lat="44.12003" lon="3.0135">
        <ele>556</ele>
        <time>2010-01-01T02:57:39Z</time>
      </trkpt>
      <trkpt lat="44.12007" lon="3.01356">
        <ele>556</ele>
        <time>2010-01-01T02:57:41Z</time>
      </trkpt>
      <trkpt lat="44.12011" lon="3.01362">
        <ele>556</ele>
        <time>2010-01-01T02:57:44Z</time>
      </trkpt>
      <trkpt lat="44.12015" lon="3.01367">
        <ele>557</ele>
        <time>2010-01-01T02:57:46Z</time>
      </trkpt>
      <trkpt lat="44.12019" lon="3.01373">
        <ele>557</ele>
        <time>2010-01-01T02:57:48Z</time>
      </trkpt>
      <trkpt lat="44.12024" lon="3.01378">
        <ele>557</ele>
        <time>2010-01-01T02:57:50Z</time>
      </trkpt>
      <trkpt lat="44.12028" lon="3.01383">
        <ele>557</ele>
        <time>2010-01-01T02:57:52Z</time>
      </trkpt>
      <trkpt lat="44.12032" lon="3.01388">
        <ele>558</ele>
        <time>2010-01-01T02:57:55Z</time>
      </trkpt>
      <trkpt lat="44.12036" lon="3.01393">
        <ele>558</ele>
        <time>2010-01-01T02:57:57Z</time>
      </trkpt>
      <trkpt lat="44.12039" lon="3.01399">
        <ele>559</ele>
        <time>2010-01-01T02:57:59Z</time>
      </trkpt>
      <trkpt lat="44.12043" lon="3.01404">
        <ele>560</ele>
        <time>2010-01-01T02:58:01Z</time>
      </trkpt>
      <trkpt lat="44.12046" lon="3.0141">
        <ele>560</ele>
        <time>2010-01-01T02:58:03Z</time>
      </trkpt>
      <trkpt lat="44.1205" lon="3.01415">
        <ele>560</ele>
        <time>2010-01-01T02:58:05Z</time>
      </trkpt>
      <trkpt lat="44.12053" lon="3.0142">
        <ele>561</ele>
        <time>2010-01-01T02:58:07Z</time>
      </trkpt>
      <trkpt lat="44.12056" lon="3.01425">
        <ele>561</ele>
        <time>2010-01-01T02:58:09Z</time>
      </trkpt>
      <trkpt lat="44.12058" lon="3.0143">
        <ele>562</ele>
        <time>2010-01-01T02:58:11Z</time>
      </trkpt>
      <trkpt lat="44.12061" lon="3.01434">
        <ele>562</ele>
        <time>2010-01-01T02:58:12Z</time>
      </trkpt>
      <trkpt lat="44.12064" lon="3.01438">
        <ele>563</ele>
        <time>2010-01-01T02:58:14Z</time>
      </trkpt>
      <trkpt lat="44.12067" lon="3.01443">
        <ele>563</ele>
        <time>2010-01-01T02:58:16Z</time>
      </trkpt>
      <trkpt lat="44.1207" lon="3.01447">
        <ele>563</ele>
        <time>2010-01-01T02:58:18Z</time>
      </trkpt>
      <trkpt lat="44.12073" lon="3.01451">
        <ele>564</ele>
        <time>2010-01-01T02:58:19Z</time>
      </trkpt>
      <trkpt lat="44.12076" lon="3.01455">
        <ele>564</ele>
        <time>2010-01-01T02:58:21Z</time>
      </trkpt>
      <trkpt lat="44.12079" lon="3.01459">
        <ele>564</ele>
        <time>2010-01-01T02:58:23Z</time>
      </trkpt>
      <trkpt lat="44.12082" lon="3.01463">
        <ele>564</ele>
        <time>2010-01-01T02:58:24Z</time>
      </trkpt>
      <trkpt lat="44.12085" lon="3.01467">
        <ele>564</ele>
        <time>2010-01-01T02:58:26Z</time>
      </trkpt>
      <trkpt lat="44.12088" lon="3.01472">
        <ele>565</ele>
        <time>2010-01-01T02:58:27Z</time>
      </trkpt>
      <trkpt lat="44.1209" lon="3.01476">
        <ele>565</ele>
        <time>2010-01-01T02:58:29Z</time>
      </trkpt>
      <trkpt lat="44.12093" lon="3.0148">
        <ele>566</ele>
        <time>2010-01-01T02:58:31Z</time>
      </trkpt>
      <trkpt lat="44.12096" lon="3.01484">
        <ele>566</ele>
        <time>2010-01-01T02:58:32Z</time>
      </trkpt>
      <trkpt lat="44.12098" lon="3.01488">
        <ele>567</ele>
        <time>2010-01-01T02:58:34Z</time>
      </trkpt>
      <trkpt lat="44.12101" lon="3.01492">
        <ele>567</ele>
        <time>2010-01-01T02:58:35Z</time>
      </trkpt>
      <trkpt lat="44.12103" lon="3.01496">
        <ele>568</ele>
        <time>2010-01-01T02:58:37Z</time>
      </trkpt>
      <trkpt lat="44.12106" lon="3.015">
        <ele>568</ele>
        <time>2010-01-01T02:58:39Z</time>
      </trkpt>
      <trkpt lat="44.12109" lon="3.01505">
        <ele>569</ele>
        <time>2010-01-01T02:58:40Z</time>
      </trkpt>
      <trkpt lat="44.12112" lon="3.01508">
        <ele>569</ele>
        <time>2010-01-01T02:58:42Z</time>
      </trkpt>
      <trkpt lat="44.12114" lon="3.01512">
        <ele>570</ele>
        <time>2010-01-01T02:58:43Z</time>
      </trkpt>
      <trkpt lat="44.12117" lon="3.01516">
        <ele>570</ele>
        <time>2010-01-01T02:58:45Z</time>
      </trkpt>
      <trkpt lat="44.12119" lon="3.01519">
        <ele>571</ele>
        <time>2010-01-01T02:58:46Z</time>
      </trkpt>
      <trkpt lat="44.12122" lon="3.01523">
        <ele>571</ele>
        <time>2010-01-01T02:58:48Z</time>
      </trkpt>
      <trkpt lat="44.12125" lon="3.01526">
        <ele>572</ele>
        <time>2010-01-01T02:58:49Z</time>
      </trkpt>
      <trkpt lat="44.12128" lon="3.0153">
        <ele>572</ele>
        <time>2010-01-01T02:58:51Z</time>
      </trkpt>
      <trkpt lat="44.12131" lon="3.01533">
        <ele>573</ele>
        <time>2010-01-01T02:58:52Z</time>
      </trkpt>
      <trkpt lat="44.12134" lon="3.01537">
        <ele>573</ele>
        <time>2010-01-01T02:58:54Z</time>
      </trkpt>
      <trkpt lat="44.12136" lon="3.01541">
        <ele>574</ele>
        <time>2010-01-01T02:58:55Z</time>
      </trkpt>
      <trkpt lat="44.12139" lon="3.01545">
        <ele>574</ele>
        <time>2010-01-01T02:58:57Z</time>
      </trkpt>
      <trkpt lat="44.12142" lon="3.01548">
        <ele>574</ele>
        <time>2010-01-01T02:58:58Z</time>
      </trkpt>
      <trkpt lat="44.12144" lon="3.01552">
        <ele>574</ele>
        <time>2010-01-01T02:59:00Z</time>
      </trkpt>
      <trkpt lat="44.12147" lon="3.01555">
        <ele>575</ele>
        <time>2010-01-01T02:59:01Z</time>
      </trkpt>
      <trkpt lat="44.12149" lon="3.01559">
        <ele>575</ele>
        <time>2010-01-01T02:59:03Z</time>
      </trkpt>
      <trkpt lat="44.12152" lon="3.01563">
        <ele>575</ele>
        <time>2010-01-01T02:59:04Z</time>
      </trkpt>
      <trkpt lat="44.12155" lon="3.01566">
        <ele>576</ele>
        <time>2010-01-01T02:59:06Z</time>
      </trkpt>
      <trkpt lat="44.12157" lon="3.0157">
        <ele>576</ele>
        <time>2010-01-01T02:59:07Z</time>
      </trkpt>
      <trkpt lat="44.1216" lon="3.01573">
        <ele>576</ele>
        <time>2010-01-01T02:59:09Z</time>
      </trkpt>
      <trkpt lat="44.12162" lon="3.01577">
        <ele>576</ele>
        <time>2010-01-01T02:59:10Z</time>
      </trkpt>
      <trkpt lat="44.12164" lon="3.01581">
        <ele>576</ele>
        <time>2010-01-01T02:59:12Z</time>
      </trkpt>
      <trkpt lat="44.12167" lon="3.01584">
        <ele>577</ele>
        <time>2010-01-01T02:59:13Z</time>
      </trkpt>
      <trkpt lat="44.1217" lon="3.01588">
        <ele>577</ele>
        <time>2010-01-01T02:59:14Z</time>
      </trkpt>
      <trkpt lat="44.12172" lon="3.01592">
        <ele>578</ele>
        <time>2010-01-01T02:59:16Z</time>
      </trkpt>
      <trkpt lat="44.12175" lon="3.01595">
        <ele>578</ele>
        <time>2010-01-01T02:59:17Z</time>
      </trkpt>
      <trkpt lat="44.12177" lon="3.01599">
        <ele>578</ele>
        <time>2010-01-01T02:59:19Z</time>
      </trkpt>
      <trkpt lat="44.12179" lon="3.01603">
        <ele>579</ele>
        <time>2010-01-01T02:59:20Z</time>
      </trkpt>
      <trkpt lat="44.12181" lon="3.01607">
        <ele>579</ele>
        <time>2010-01-01T02:59:21Z</time>
      </trkpt>
      <trkpt lat="44.12183" lon="3.01611">
        <ele>580</ele>
        <time>2010-01-01T02:59:23Z</time>
      </trkpt>
      <trkpt lat="44.12186" lon="3.01614">
        <ele>580</ele>
        <time>2010-01-01T02:59:24Z</time>
      </trkpt>
      <trkpt lat="44.12188" lon="3.01618">
        <ele>581</ele>
        <time>2010-01-01T02:59:26Z</time>
      </trkpt>
      <trkpt lat="44.1219" lon="3.01622">
        <ele>581</ele>
        <time>2010-01-01T02:59:27Z</time>
      </trkpt>
      <trkpt lat="44.12192" lon="3.01626">
        <ele>582</ele>
        <time>2010-01-01T02:59:29Z</time>
      </trkpt>
      <trkpt lat="44.12195" lon="3.01631">
        <ele>582</ele>
        <time>2010-01-01T02:59:30Z</time>
      </trkpt>
      <trkpt lat="44.12196" lon="3.01635">
        <ele>583</ele>
        <time>2010-01-01T02:59:32Z</time>
      </trkpt>
      <trkpt lat="44.12199" lon="3.01639">
        <ele>584</ele>
        <time>2010-01-01T02:59:33Z</time>
      </trkpt>
      <trkpt lat="44.12201" lon="3.01644">
        <ele>584</ele>
        <time>2010-01-01T02:59:35Z</time>
      </trkpt>
      <trkpt lat="44.12203" lon="3.01648">
        <ele>584</ele>
        <time>2010-01-01T02:59:36Z</time>
      </trkpt>
      <trkpt lat="44.12204" lon="3.01653">
        <ele>585</ele>
        <time>2010-01-01T02:59:38Z</time>
      </trkpt>
      <trkpt lat="44.12207" lon="3.01657">
        <ele>585</ele>
        <time>2010-01-01T02:59:39Z</time>
      </trkpt>
      <trkpt lat="44.12208" lon="3.01662">
        <ele>586</ele>
        <time>2010-01-01T02:59:41Z</time>
      </trkpt>
      <trkpt lat="44.1221" lon="3.01666">
        <ele>586</ele>
        <time>2010-01-01T02:59:42Z</time>
      </trkpt>
      <trkpt lat="44.12212" lon="3.01671">
        <ele>587</ele>
        <time>2010-01-01T02:59:44Z</time>
      </trkpt>
      <trkpt lat="44.12213" lon="3.01676">
        <ele>587</ele>
        <time>2010-01-01T02:59:45Z</time>
      </trkpt>
      <trkpt lat="44.12215" lon="3.0168">
        <ele>588</ele>
        <time>2010-01-01T02:59:47Z</time>
      </trkpt>
      <trkpt lat="44.12216" lon="3.01686">
        <ele>589</ele>
        <time>2010-01-01T02:59:48Z</time>
      </trkpt>
      <trkpt lat="44.12217" lon="3.01691">
        <ele>589</ele>
        <time>2010-01-01T02:59:50Z</time>
      </trkpt>
      <trkpt lat="44.12219" lon="3.01696">
        <ele>590</ele>
        <time>2010-01-01T02:59:51Z</time>
      </trkpt>
      <trkpt lat="44.1222" lon="3.017">
        <ele>590</ele>
        <time>2010-01-01T02:59:53Z</time>
      </trkpt>
      <trkpt lat="44.12222" lon="3.01705">
        <ele>590</ele>
        <time>2010-01-01T02:59:54Z</time>
      </trkpt>
      <trkpt lat="44.12223" lon="3.0171">
        <ele>590</ele>
        <time>2010-01-01T02:59:56Z</time>
      </trkpt>
      <trkpt lat="44.12224" lon="3.01715">
        <ele>590</ele>
        <time>2010-01-01T02:59:58Z</time>
      </trkpt>
      <trkpt lat="44.12225" lon="3.01721">
        <ele>589</ele>
        <time>2010-01-01T02:59:59Z</time>
      </trkpt>
      <trkpt lat="44.12228" lon="3.01726">
        <ele>589</ele>
        <time>2010-01-01T03:00:01Z</time>
      </trkpt>
      <trkpt lat="44.12229" lon="3.01731">
        <ele>589</ele>
        <time>2010-01-01T03:00:03Z</time>
      </trkpt>
      <trkpt lat="44.12229" lon="3.01737">
        <ele>589</ele>
        <time>2010-01-01T03:00:04Z</time>
      </trkpt>
      <trkpt lat="44.1223" lon="3.01742">
        <ele>589</ele>
        <time>2010-01-01T03:00:06Z</time>
      </trkpt>
      <trkpt lat="44.1223" lon="3.01748">
        <ele>589</ele>
        <time>2010-01-01T03:00:07Z</time>
      </trkpt>
      <trkpt lat="44.12229" lon="3.01754">
        <ele>590</ele>
        <time>2010-01-01T03:00:09Z</time>
      </trkpt>
      <trkpt lat="44.12229" lon="3.01759">
        <ele>590</ele>
        <time>2010-01-01T03:00:11Z</time>
      </trkpt>
      <trkpt lat="44.12229" lon="3.01765">
        <ele>590</ele>
        <time>2010-01-01T03:00:12Z</time>
      </trkpt>
      <trkpt lat="44.12228" lon="3.01771">
        <ele>591</ele>
        <time>2010-01-01T03:00:14Z</time>
      </trkpt>
      <trkpt lat="44.12227" lon="3.01776">
        <ele>591</ele>
        <time>2010-01-01T03:00:15Z</time>
      </trkpt>
      <trkpt lat="44.12227" lon="3.01781">
        <ele>592</ele>
        <time>2010-01-01T03:00:17Z</time>
      </trkpt>
      <trkpt lat="44.12226" lon="3.01787">
        <ele>592</ele>
        <time>2010-01-01T03:00:19Z</time>
      </trkpt>
      <trkpt lat="44.12225" lon="3.01792">
        <ele>593</ele>
        <time>2010-01-01T03:00:20Z</time>
      </trkpt>
      <trkpt lat="44.12223" lon="3.01797">
        <ele>594</ele>
        <time>2010-01-01T03:00:22Z</time>
      </trkpt>
      <trkpt lat="44.12222" lon="3.01803">
        <ele>594</ele>
        <time>2010-01-01T03:00:23Z</time>
      </trkpt>
      <trkpt lat="44.12221" lon="3.01808">
        <ele>595</ele>
        <time>2010-01-01T03:00:25Z</time>
      </trkpt>
      <trkpt lat="44.1222" lon="3.01814">
        <ele>596</ele>
        <time>2010-01-01T03:00:27Z</time>
      </trkpt>
      <trkpt lat="44.12218" lon="3.01818">
        <ele>597</ele>
        <time>2010-01-01T03:00:28Z</time>
      </trkpt>
      <trkpt lat="44.12216" lon="3.01824">
        <ele>598</ele>
        <time>2010-01-01T03:00:30Z</time>
      </trkpt>
      <trkpt lat="44.12215" lon="3.01828">
        <ele>598</ele>
        <time>2010-01-01T03:00:31Z</time>
      </trkpt>
      <trkpt lat="44.12214" lon="3.01833">
        <ele>599</ele>
        <time>2010-01-01T03:00:33Z</time>
      </trkpt>
      <trkpt lat="44.12213" lon="3.01839">
        <ele>599</ele>
        <time>2010-01-01T03:00:35Z</time>
      </trkpt>
      <trkpt lat="44.12212" lon="3.01844">
        <ele>600</ele>
        <time>2010-01-01T03:00:36Z</time>
      </trkpt>
      <trkpt lat="44.12211" lon="3.01849">
        <ele>600</ele>
        <time>2010-01-01T03:00:38Z</time>
      </trkpt>
      <trkpt lat="44.1221" lon="3.01854">
        <ele>601</ele>
        <time>2010-01-01T03:00:39Z</time>
      </trkpt>
      <trkpt lat="44.12209" lon="3.01859">
        <ele>601</ele>
        <time>2010-01-01T03:00:40Z</time>
      </trkpt>
      <trkpt lat="44.12208" lon="3.01863">
        <ele>602</ele>
        <time>2010-01-01T03:00:42Z</time>
      </trkpt>
      <trkpt lat="44.12207" lon="3.01868">
        <ele>602</ele>
        <time>2010-01-01T03:00:43Z</time>
      </trkpt>
      <trkpt lat="44.12206" lon="3.01872">
        <ele>602</ele>
        <time>2010-01-01T03:00:45Z</time>
      </trkpt>
      <trkpt lat="44.12205" lon="3.01877">
        <ele>603</ele>
        <time>2010-01-01T03:00:46Z</time>
      </trkpt>
      <trkpt lat="44.12204" lon="3.01882">
        <ele>603</ele>
        <time>2010-01-01T03:00:47Z</time>
      </trkpt>
      <trkpt lat="44.12203" lon="3.01886">
        <ele>604</ele>
        <time>2010-01-01T03:00:49Z</time>
      </trkpt>
      <trkpt lat="44.12202" lon="3.01891">
        <ele>604</ele>
        <time>2010-01-01T03:00:50Z</time>
      </trkpt>
      <trkpt lat="44.12201" lon="3.01895">
        <ele>604</ele>
        <time>2010-01-01T03:00:51Z</time>
      </trkpt>
      <trkpt lat="44.122" lon="3.019">
        <ele>605</ele>
        <time>2010-01-01T03:00:53Z</time>
      </trkpt>
      <trkpt lat="44.12199" lon="3.01904">
        <ele>605</ele>
        <time>2010-01-01T03:00:54Z</time>
      </trkpt>
      <trkpt lat="44.12198" lon="3.01908">
        <ele>605</ele>
        <time>2010-01-01T03:00:55Z</time>
      </trkpt>
      <trkpt lat="44.12197" lon="3.01913">
        <ele>605</ele>
        <time>2010-01-01T03:00:57Z</time>
      </trkpt>
      <trkpt lat="44.12197" lon="3.01917">
        <ele>606</ele>
        <time>2010-01-01T03:00:58Z</time>
      </trkpt>
      <trkpt lat="44.12197" lon="3.01922">
        <ele>606</ele>
        <time>2010-01-01T03:00:59Z</time>
      </trkpt>
      <trkpt lat="44.12197" lon="3.01926">
        <ele>607</ele>
        <time>2010-01-01T03:01:01Z</time>
      </trkpt>
      <trkpt lat="44.12196" lon="3.01931">
        <ele>607</ele>
        <time>2010-01-01T03:01:02Z</time>
      </trkpt>
      <trkpt lat="44.12196" lon="3.01935">
        <ele>608</ele>
        <time>2010-01-01T03:01:03Z</time>
      </trkpt>
      <trkpt lat="44.12196" lon="3.0194">
        <ele>608</ele>
        <time>2010-01-01T03:01:04Z</time>
      </trkpt>
      <trkpt lat="44.12196" lon="3.01944">
        <ele>609</ele>
        <time>2010-01-01T03:01:06Z</time>
      </trkpt>
      <trkpt lat="44.12196" lon="3.01949">
        <ele>609</ele>
        <time>2010-01-01T03:01:07Z</time>
      </trkpt>
      <trkpt lat="44.12195" lon="3.01953">
        <ele>610</ele>
        <time>2010-01-01T03:01:08Z</time>
      </trkpt>
      <trkpt lat="44.12195" lon="3.01958">
        <ele>611</ele>
        <time>2010-01-01T03:01:10Z</time>
      </trkpt>
      <trkpt lat="44.12195" lon="3.01962">
        <ele>611</ele>
        <time>2010-01-01T03:01:11Z</time>
      </trkpt>
      <trkpt lat="44.12196" lon="3.01967">
        <ele>611</ele>
        <time>2010-01-01T03:01:12Z</time>
      </trkpt>
      <trkpt lat="44.12195" lon="3.01971">
        <ele>612</ele>
        <time>2010-01-01T03:01:14Z</time>
      </trkpt>
      <trkpt lat="44.12196" lon="3.01976">
        <ele>612</ele>
        <time>2010-01-01T03:01:15Z</time>
      </trkpt>
      <trkpt lat="44.12196" lon="3.0198">
        <ele>613</ele>
        <time>2010-01-01T03:01:16Z</time>
      </trkpt>
      <trkpt lat="44.12196" lon="3.01984">
        <ele>613</ele>
        <time>2010-01-01T03:01:17Z</time>
      </trkpt>
      <trkpt lat="44.12196" lon="3.01988">
        <ele>613</ele>
        <time>2010-01-01T03:01:18Z</time>
      </trkpt>
      <trkpt lat="44.12197" lon="3.01992">
        <ele>614</ele>
        <time>2010-01-01T03:01:20Z</time>
      </trkpt>
      <trkpt lat="44.12197" lon="3.01996">
        <ele>614</ele>
        <time>2010-01-01T03:01:21Z</time>
      </trkpt>
      <trkpt lat="44.12196" lon="3.02">
        <ele>615</ele>
        <time>2010-01-01T03:01:22Z</time>
      </trkpt>
      <trkpt lat="44.12196" lon="3.02005">
        <ele>615</ele>
        <time>2010-01-01T03:01:23Z</time>
      </trkpt>
      <trkpt lat="44.12197" lon="3.02009">
        <ele>616</ele>
        <time>2010-01-01T03:01:24Z</time>
      </trkpt>
      <trkpt lat="44.12196" lon="3.02013">
        <ele>616</ele>
        <time>2010-01-01T03:01:26Z</time>
      </trkpt>
      <trkpt lat="44.12196" lon="3.02017">
        <ele>617</ele>
        <time>2010-01-01T03:01:27Z</time>
      </trkpt>
      <trkpt lat="44.12196" lon="3.02021">
        <ele>617</ele>
        <time>2010-01-01T03:01:28Z</time>
      </trkpt>
      <trkpt lat="44.12196" lon="3.02026">
        <ele>618</ele>
        <time>2010-01-01T03:01:29Z</time>
      </trkpt>
      <trkpt lat="44.12196" lon="3.0203">
        <ele>618</ele>
        <time>2010-01-01T03:01:30Z</time>
      </trkpt>
      <trkpt lat="44.12196" lon="3.02033">
        <ele>618</ele>
        <time>2010-01-01T03:01:31Z</time>
      </trkpt>
      <trkpt lat="44.12196" lon="3.02037">
        <ele>619</ele>
        <time>2010-01-01T03:01:33Z</time>
      </trkpt>
      <trkpt lat="44.12196" lon="3.02041">
        <ele>619</ele>
        <time>2010-01-01T03:01:34Z</time>
      </trkpt>
      <trkpt lat="44.12195" lon="3.02044">
        <ele>619</ele>
        <time>2010-01-01T03:01:35Z</time>
      </trkpt>
      <trkpt lat="44.12195" lon="3.02048">
        <ele>619</ele>
        <time>2010-01-01T03:01:36Z</time>
      </trkpt>
      <trkpt lat="44.12195" lon="3.02052">
        <ele>620</ele>
        <time>2010-01-01T03:01:37Z</time>
      </trkpt>
      <trkpt lat="44.12195" lon="3.02056">
        <ele>620</ele>
        <time>2010-01-01T03:01:38Z</time>
      </trkpt>
      <trkpt lat="44.12195" lon="3.0206">
        <ele>621</ele>
        <time>2010-01-01T03:01:39Z</time>
      </trkpt>
      <trkpt lat="44.12195" lon="3.02064">
        <ele>620</ele>
        <time>2010-01-01T03:01:40Z</time>
      </trkpt>
      <trkpt lat="44.12195" lon="3.02068">
        <ele>621</ele>
        <time>2010-01-01T03:01:42Z</time>
      </trkpt>
      <trkpt lat="44.12196" lon="3.02072">
        <ele>620</ele>
        <time>2010-01-01T03:01:43Z</time>
      </trkpt>
      <trkpt lat="44.12196" lon="3.02076">
        <ele>621</ele>
        <time>2010-01-01T03:01:44Z</time>
      </trkpt>
      <trkpt lat="44.12196" lon="3.0208">
        <ele>621</ele>
        <time>2010-01-01T03:01:45Z</time>
      </trkpt>
      <trkpt lat="44.12196" lon="3.02084">
        <ele>621</ele>
        <time>2010-01-01T03:01:46Z</time>
      </trkpt>
      <trkpt lat="44.12196" lon="3.02088">
        <ele>621</ele>
        <time>2010-01-01T03:01:47Z</time>
      </trkpt>
      <trkpt lat="44.12196" lon="3.02093">
        <ele>621</ele>
        <time>2010-01-01T03:01:49Z</time>
      </trkpt>
      <trkpt lat="44.12195" lon="3.02097">
        <ele>622</ele>
        <time>2010-01-01T03:01:50Z</time>
      </trkpt>
      <trkpt lat="44.12195" lon="3.02101">
        <ele>622</ele>
        <time>2010-01-01T03:01:51Z</time>
      </trkpt>
      <trkpt lat="44.12196" lon="3.02105">
        <ele>622</ele>
        <time>2010-01-01T03:01:52Z</time>
      </trkpt>
      <trkpt lat="44.12196" lon="3.02109">
        <ele>622</ele>
        <time>2010-01-01T03:01:53Z</time>
      </trkpt>
      <trkpt lat="44.12197" lon="3.02114">
        <ele>622</ele>
        <time>2010-01-01T03:01:55Z</time>
      </trkpt>
      <trkpt lat="44.12198" lon="3.02118">
        <ele>622</ele>
        <time>2010-01-01T03:01:56Z</time>
      </trkpt>
      <trkpt lat="44.12198" lon="3.02122">
        <ele>622</ele>
        <time>2010-01-01T03:01:57Z</time>
      </trkpt>
      <trkpt lat="44.12198" lon="3.02125">
        <ele>622</ele>
        <time>2010-01-01T03:01:58Z</time>
      </trkpt>
      <trkpt lat="44.12198" lon="3.02129">
        <ele>622</ele>
        <time>2010-01-01T03:01:59Z</time>
      </trkpt>
      <trkpt lat="44.12198" lon="3.02133">
        <ele>622</ele>
        <time>2010-01-01T03:02:00Z</time>
      </trkpt>
      <trkpt lat="44.12198" lon="3.02137">
        <ele>622</ele>
        <time>2010-01-01T03:02:01Z</time>
      </trkpt>
      <trkpt lat="44.12197" lon="3.0214">
        <ele>623</ele>
        <time>2010-01-01T03:02:02Z</time>
      </trkpt>
      <trkpt lat="44.12197" lon="3.02144">
        <ele>623</ele>
        <time>2010-01-01T03:02:03Z</time>
      </trkpt>
      <trkpt lat="44.12197" lon="3.02148">
        <ele>624</ele>
        <time>2010-01-01T03:02:05Z</time>
      </trkpt>
      <trkpt lat="44.12198" lon="3.02152">
        <ele>624</ele>
        <time>2010-01-01T03:02:06Z</time>
      </trkpt>
      <trkpt lat="44.12198" lon="3.02156">
        <ele>625</ele>
        <time>2010-01-01T03:02:07Z</time>
      </trkpt>
      <trkpt lat="44.12198" lon="3.0216">
        <ele>625</ele>
        <time>2010-01-01T03:02:08Z</time>
      </trkpt>
      <trkpt lat="44.12198" lon="3.02163">
        <ele>626</ele>
        <time>2010-01-01T03:02:09Z</time>
      </trkpt>
      <trkpt lat="44.12198" lon="3.02167">
        <ele>626</ele>
        <time>2010-01-01T03:02:10Z</time>
      </trkpt>
      <trkpt lat="44.12197" lon="3.02171">
        <ele>627</ele>
        <time>2010-01-01T03:02:11Z</time>
      </trkpt>
      <trkpt lat="44.12197" lon="3.02175">
        <ele>628</ele>
        <time>2010-01-01T03:02:13Z</time>
      </trkpt>
      <trkpt lat="44.12196" lon="3.02179">
        <ele>629</ele>
        <time>2010-01-01T03:02:14Z</time>
      </trkpt>
      <trkpt lat="44.12197" lon="3.02183">
        <ele>629</ele>
        <time>2010-01-01T03:02:15Z</time>
      </trkpt>
      <trkpt lat="44.12197" lon="3.02187">
        <ele>630</ele>
        <time>2010-01-01T03:02:16Z</time>
      </trkpt>
      <trkpt lat="44.12196" lon="3.02191">
        <ele>631</ele>
        <time>2010-01-01T03:02:17Z</time>
      </trkpt>
      <trkpt lat="44.12195" lon="3.02195">
        <ele>631</ele>
        <time>2010-01-01T03:02:18Z</time>
      </trkpt>
      <trkpt lat="44.12195" lon="3.02199">
        <ele>632</ele>
        <time>2010-01-01T03:02:20Z</time>
      </trkpt>
      <trkpt lat="44.12194" lon="3.02203">
        <ele>632</ele>
        <time>2010-01-01T03:02:21Z</time>
      </trkpt>
      <trkpt lat="44.12194" lon="3.02207">
        <ele>632</ele>
        <time>2010-01-01T03:02:22Z</time>
      </trkpt>
      <trkpt lat="44.12193" lon="3.0221">
        <ele>633</ele>
        <time>2010-01-01T03:02:23Z</time>
      </trkpt>
      <trkpt lat="44.12192" lon="3.02215">
        <ele>633</ele>
        <time>2010-01-01T03:02:24Z</time>
      </trkpt>
      <trkpt lat="44.12191" lon="3.02218">
        <ele>634</ele>
        <time>2010-01-01T03:02:25Z</time>
      </trkpt>
      <trkpt lat="44.1219" lon="3.02222">
        <ele>634</ele>
        <time>2010-01-01T03:02:26Z</time>
      </trkpt>
      <trkpt lat="44.12189" lon="3.02226">
        <ele>635</ele>
        <time>2010-01-01T03:02:27Z</time>
      </trkpt>
      <trkpt lat="44.12188" lon="3.02229">
        <ele>635</ele>
        <time>2010-01-01T03:02:29Z</time>
      </trkpt>
      <trkpt lat="44.12188" lon="3.02233">
        <ele>636</ele>
        <time>2010-01-01T03:02:30Z</time>
      </trkpt>
      <trkpt lat="44.12187" lon="3.02237">
        <ele>636</ele>
        <time>2010-01-01T03:02:31Z</time>
      </trkpt>
      <trkpt lat="44.12186" lon="3.0224">
        <ele>636</ele>
        <time>2010-01-01T03:02:32Z</time>
      </trkpt>
      <trkpt lat="44.12186" lon="3.02244">
        <ele>637</ele>
        <time>2010-01-01T03:02:33Z</time>
      </trkpt>
      <trkpt lat="44.12185" lon="3.02248">
        <ele>637</ele>
        <time>2010-01-01T03:02:34Z</time>
      </trkpt>
      <trkpt lat="44.12185" lon="3.02252">
        <ele>637</ele>
        <time>2010-01-01T03:02:35Z</time>
      </trkpt>
      <trkpt lat="44.12185" lon="3.02255">
        <ele>637</ele>
        <time>2010-01-01T03:02:36Z</time>
      </trkpt>
      <trkpt lat="44.12184" lon="3.0226">
        <ele>637</ele>
        <time>2010-01-01T03:02:37Z</time>
      </trkpt>
      <trkpt lat="44.12183" lon="3.02263">
        <ele>638</ele>
        <time>2010-01-01T03:02:39Z</time>
      </trkpt>
      <trkpt lat="44.12182" lon="3.02267">
        <ele>638</ele>
        <time>2010-01-01T03:02:40Z</time>
      </trkpt>
      <trkpt lat="44.12181" lon="3.02271">
        <ele>639</ele>
        <time>2010-01-01T03:02:41Z</time>
      </trkpt>
      <trkpt lat="44.1218" lon="3.02274">
        <ele>639</ele>
        <time>2010-01-01T03:02:42Z</time>
      </trkpt>
      <trkpt lat="44.12179" lon="3.02278">
        <ele>639</ele>
        <time>2010-01-01T03:02:43Z</time>
      </trkpt>
      <trkpt lat="44.12179" lon="3.02281">
        <ele>640</ele>
        <time>2010-01-01T03:02:44Z</time>
      </trkpt>
      <trkpt lat="44.12178" lon="3.02285">
        <ele>640</ele>
        <time>2010-01-01T03:02:45Z</time>
      </trkpt>
      <trkpt lat="44.12176" lon="3.02289">
        <ele>641</ele>
        <time>2010-01-01T03:02:47Z</time>
      </trkpt>
      <trkpt lat="44.12175" lon="3.02293">
        <ele>642</ele>
        <time>2010-01-01T03:02:48Z</time>
      </trkpt>
      <trkpt lat="44.12174" lon="3.02296">
        <ele>642</ele>
        <time>2010-01-01T03:02:49Z</time>
      </trkpt>
      <trkpt lat="44.12173" lon="3.023">
        <ele>643</ele>
        <time>2010-01-01T03:02:50Z</time>
      </trkpt>
      <trkpt lat="44.12172" lon="3.02303">
        <ele>643</ele>
        <time>2010-01-01T03:02:51Z</time>
      </trkpt>
      <trkpt lat="44.12172" lon="3.02306">
        <ele>644</ele>
        <time>2010-01-01T03:02:52Z</time>
      </trkpt>
      <trkpt lat="44.12171" lon="3.0231">
        <ele>644</ele>
        <time>2010-01-01T03:02:53Z</time>
      </trkpt>
      <trkpt lat="44.1217" lon="3.02313">
        <ele>645</ele>
        <time>2010-01-01T03:02:54Z</time>
      </trkpt>
      <trkpt lat="44.12169" lon="3.02317">
        <ele>645</ele>
        <time>2010-01-01T03:02:55Z</time>
      </trkpt>
      <trkpt lat="44.12167" lon="3.0232">
        <ele>645</ele>
        <time>2010-01-01T03:02:56Z</time>
      </trkpt>
      <trkpt lat="44.12166" lon="3.02323">
        <ele>646</ele>
        <time>2010-01-01T03:02:57Z</time>
      </trkpt>
      <trkpt lat="44.12165" lon="3.02327">
        <ele>646</ele>
        <time>2010-01-01T03:02:58Z</time>
      </trkpt>
      <trkpt lat="44.12164" lon="3.0233">
        <ele>647</ele>
        <time>2010-01-01T03:02:59Z</time>
      </trkpt>
      <trkpt lat="44.12162" lon="3.02333">
        <ele>647</ele>
        <time>2010-01-01T03:03:00Z</time>
      </trkpt>
      <trkpt lat="44.12161" lon="3.02336">
        <ele>648</ele>
        <time>2010-01-01T03:03:01Z</time>
      </trkpt>
      <trkpt lat="44.1216" lon="3.0234">
        <ele>648</ele>
        <time>2010-01-01T03:03:03Z</time>
      </trkpt>
      <trkpt lat="44.12158" lon="3.02344">
        <ele>649</ele>
        <time>2010-01-01T03:03:04Z</time>
      </trkpt>
      <trkpt lat="44.12157" lon="3.02347">
        <ele>649</ele>
        <time>2010-01-01T03:03:05Z</time>
      </trkpt>
      <trkpt lat="44.12157" lon="3.0235">
        <ele>650</ele>
        <time>2010-01-01T03:03:06Z</time>
      </trkpt>
      <trkpt lat="44.12156" lon="3.02353">
        <ele>650</ele>
        <time>2010-01-01T03:03:07Z</time>
      </trkpt>
      <trkpt lat="44.12155" lon="3.02357">
        <ele>650</ele>
        <time>2010-01-01T03:03:08Z</time>
      </trkpt>
      <trkpt lat="44.12153" lon="3.0236">
        <ele>651</ele>
        <time>2010-01-01T03:03:09Z</time>
      </trkpt>
      <trkpt lat="44.12152" lon="3.02363">
        <ele>651</ele>
        <time>2010-01-01T03:03:10Z</time>
      </trkpt>
      <trkpt lat="44.1215" lon="3.02366">
        <ele>652</ele>
        <time>2010-01-01T03:03:11Z</time>
      </trkpt>
      <trkpt lat="44.12149" lon="3.02369">
        <ele>652</ele>
        <time>2010-01-01T03:03:12Z</time>
      </trkpt>
      <trkpt lat="44.12147" lon="3.02372">
        <ele>653</ele>
        <time>2010-01-01T03:03:13Z</time>
      </trkpt>
      <trkpt lat="44.12146" lon="3.02375">
        <ele>653</ele>
        <time>2010-01-01T03:03:14Z</time>
      </trkpt>
      <trkpt lat="44.12144" lon="3.02379">
        <ele>654</ele>
        <time>2010-01-01T03:03:15Z</time>
      </trkpt>
      <trkpt lat="44.12143" lon="3.02382">
        <ele>654</ele>
        <time>2010-01-01T03:03:16Z</time>
      </trkpt>
      <trkpt lat="44.12142" lon="3.02385">
        <ele>654</ele>
        <time>2010-01-01T03:03:18Z</time>
      </trkpt>
      <trkpt lat="44.12141" lon="3.02388">
        <ele>655</ele>
        <time>2010-01-01T03:03:18Z</time>
      </trkpt>
      <trkpt lat="44.1214" lon="3.02391">
        <ele>655</ele>
        <time>2010-01-01T03:03:20Z</time>
      </trkpt>
      <trkpt lat="44.12138" lon="3.02394">
        <ele>655</ele>
        <time>2010-01-01T03:03:21Z</time>
      </trkpt>
      <trkpt lat="44.12137" lon="3.02397">
        <ele>656</ele>
        <time>2010-01-01T03:03:22Z</time>
      </trkpt>
      <trkpt lat="44.12136" lon="3.02401">
        <ele>656</ele>
        <time>2010-01-01T03:03:23Z</time>
      </trkpt>
      <trkpt lat="44.12134" lon="3.02404">
        <ele>656</ele>
        <time>2010-01-01T03:03:24Z</time>
      </trkpt>
      <trkpt lat="44.12133" lon="3.02407">
        <ele>657</ele>
        <time>2010-01-01T03:03:25Z</time>
      </trkpt>
      <trkpt lat="44.12132" lon="3.02411">
        <ele>657</ele>
        <time>2010-01-01T03:03:26Z</time>
      </trkpt>
      <trkpt lat="44.12131" lon="3.02414">
        <ele>657</ele>
        <time>2010-01-01T03:03:27Z</time>
      </trkpt>
      <trkpt lat="44.1213" lon="3.02418">
        <ele>657</ele>
        <time>2010-01-01T03:03:28Z</time>
      </trkpt>
      <trkpt lat="44.12129" lon="3.02421">
        <ele>657</ele>
        <time>2010-01-01T03:03:29Z</time>
      </trkpt>
      <trkpt lat="44.12128" lon="3.02424">
        <ele>657</ele>
        <time>2010-01-01T03:03:30Z</time>
      </trkpt>
      <trkpt lat="44.12127" lon="3.02427">
        <ele>657</ele>
        <time>2010-01-01T03:03:31Z</time>
      </trkpt>
      <trkpt lat="44.12126" lon="3.0243">
        <ele>657</ele>
        <time>2010-01-01T03:03:32Z</time>
      </trkpt>
      <trkpt lat="44.12125" lon="3.02434">
        <ele>657</ele>
        <time>2010-01-01T03:03:33Z</time>
      </trkpt>
      <trkpt lat="44.12124" lon="3.02437">
        <ele>658</ele>
        <time>2010-01-01T03:03:34Z</time>
      </trkpt>
      <trkpt lat="44.12123" lon="3.0244">
        <ele>658</ele>
        <time>2010-01-01T03:03:35Z</time>
      </trkpt>
      <trkpt lat="44.12122" lon="3.02443">
        <ele>658</ele>
        <time>2010-01-01T03:03:36Z</time>
      </trkpt>
      <trkpt lat="44.12121" lon="3.02446">
        <ele>658</ele>
        <time>2010-01-01T03:03:37Z</time>
      </trkpt>
      <trkpt lat="44.1212" lon="3.02449">
        <ele>659</ele>
        <time>2010-01-01T03:03:38Z</time>
      </trkpt>
      <trkpt lat="44.12119" lon="3.02452">
        <ele>659</ele>
        <time>2010-01-01T03:03:39Z</time>
      </trkpt>
      <trkpt lat="44.12118" lon="3.02454">
        <ele>660</ele>
        <time>2010-01-01T03:03:40Z</time>
      </trkpt>
      <trkpt lat="44.12117" lon="3.02457">
        <ele>660</ele>
        <time>2010-01-01T03:03:41Z</time>
      </trkpt>
      <trkpt lat="44.12116" lon="3.0246">
        <ele>661</ele>
        <time>2010-01-01T03:03:41Z</time>
      </trkpt>
      <trkpt lat="44.12115" lon="3.02463">
        <ele>662</ele>
        <time>2010-01-01T03:03:43Z</time>
      </trkpt>
      <trkpt lat="44.12115" lon="3.02467">
        <ele>662</ele>
        <time>2010-01-01T03:03:44Z</time>
      </trkpt>
      <trkpt lat="44.12114" lon="3.0247">
        <ele>662</ele>
        <time>2010-01-01T03:03:45Z</time>
      </trkpt>
      <trkpt lat="44.12113" lon="3.02474">
        <ele>663</ele>
        <time>2010-01-01T03:03:46Z</time>
      </trkpt>
      <trkpt lat="44.12112" lon="3.02477">
        <ele>664</ele>
        <time>2010-01-01T03:03:47Z</time>
      </trkpt>
      <trkpt lat="44.12112" lon="3.0248">
        <ele>664</ele>
        <time>2010-01-01T03:03:48Z</time>
      </trkpt>
      <trkpt lat="44.12111" lon="3.02484">
        <ele>665</ele>
        <time>2010-01-01T03:03:49Z</time>
      </trkpt>
      <trkpt lat="44.12111" lon="3.02487">
        <ele>665</ele>
        <time>2010-01-01T03:03:50Z</time>
      </trkpt>
      <trkpt lat="44.12111" lon="3.02491">
        <ele>666</ele>
        <time>2010-01-01T03:03:51Z</time>
      </trkpt>
      <trkpt lat="44.1211" lon="3.02494">
        <ele>666</ele>
        <time>2010-01-01T03:03:52Z</time>
      </trkpt>
      <trkpt lat="44.1211" lon="3.02497">
        <ele>666</ele>
        <time>2010-01-01T03:03:53Z</time>
      </trkpt>
      <trkpt lat="44.1211" lon="3.02501">
        <ele>667</ele>
        <time>2010-01-01T03:03:54Z</time>
      </trkpt>
      <trkpt lat="44.12109" lon="3.02504">
        <ele>667</ele>
        <time>2010-01-01T03:03:55Z</time>
      </trkpt>
      <trkpt lat="44.12109" lon="3.02508">
        <ele>668</ele>
        <time>2010-01-01T03:03:56Z</time>
      </trkpt>
      <trkpt lat="44.12109" lon="3.02511">
        <ele>668</ele>
        <time>2010-01-01T03:03:57Z</time>
      </trkpt>
      <trkpt lat="44.12109" lon="3.02515">
        <ele>669</ele>
        <time>2010-01-01T03:03:58Z</time>
      </trkpt>
      <trkpt lat="44.12109" lon="3.02519">
        <ele>669</ele>
        <time>2010-01-01T03:03:59Z</time>
      </trkpt>
      <trkpt lat="44.12108" lon="3.02523">
        <ele>670</ele>
        <time>2010-01-01T03:04:00Z</time>
      </trkpt>
      <trkpt lat="44.12108" lon="3.02527">
        <ele>670</ele>
        <time>2010-01-01T03:04:01Z</time>
      </trkpt>
      <trkpt lat="44.12107" lon="3.02531">
        <ele>671</ele>
        <time>2010-01-01T03:04:02Z</time>
      </trkpt>
      <trkpt lat="44.12106" lon="3.02535">
        <ele>671</ele>
        <time>2010-01-01T03:04:04Z</time>
      </trkpt>
      <trkpt lat="44.12106" lon="3.02539">
        <ele>671</ele>
        <time>2010-01-01T03:04:05Z</time>
      </trkpt>
      <trkpt lat="44.12105" lon="3.02543">
        <ele>672</ele>
        <time>2010-01-01T03:04:06Z</time>
      </trkpt>
      <trkpt lat="44.12104" lon="3.02546">
        <ele>672</ele>
        <time>2010-01-01T03:04:07Z</time>
      </trkpt>
      <trkpt lat="44.12104" lon="3.0255">
        <ele>672</ele>
        <time>2010-01-01T03:04:08Z</time>
      </trkpt>
      <trkpt lat="44.12103" lon="3.02554">
        <ele>673</ele>
        <time>2010-01-01T03:04:09Z</time>
      </trkpt>
      <trkpt lat="44.12103" lon="3.02558">
        <ele>673</ele>
        <time>2010-01-01T03:04:10Z</time>
      </trkpt>
      <trkpt lat="44.12101" lon="3.02561">
        <ele>673</ele>
        <time>2010-01-01T03:04:12Z</time>
      </trkpt>
      <trkpt lat="44.121" lon="3.02565">
        <ele>673</ele>
        <time>2010-01-01T03:04:13Z</time>
      </trkpt>
      <trkpt lat="44.12099" lon="3.02569">
        <ele>674</ele>
        <time>2010-01-01T03:04:14Z</time>
      </trkpt>
      <trkpt lat="44.12097" lon="3.02572">
        <ele>674</ele>
        <time>2010-01-01T03:04:15Z</time>
      </trkpt>
      <trkpt lat="44.12096" lon="3.02576">
        <ele>674</ele>
        <time>2010-01-01T03:04:16Z</time>
      </trkpt>
      <trkpt lat="44.12095" lon="3.02579">
        <ele>674</ele>
        <time>2010-01-01T03:04:17Z</time>
      </trkpt>
      <trkpt lat="44.12093" lon="3.02582">
        <ele>674</ele>
        <time>2010-01-01T03:04:18Z</time>
      </trkpt>
      <trkpt lat="44.12092" lon="3.02586">
        <ele>675</ele>
        <time>2010-01-01T03:04:19Z</time>
      </trkpt>
      <trkpt lat="44.12091" lon="3.02589">
        <ele>675</ele>
        <time>2010-01-01T03:04:20Z</time>
      </trkpt>
      <trkpt lat="44.1209" lon="3.02592">
        <ele>675</ele>
        <time>2010-01-01T03:04:22Z</time>
      </trkpt>
      <trkpt lat="44.12089" lon="3.02596">
        <ele>675</ele>
        <time>2010-01-01T03:04:23Z</time>
      </trkpt>
      <trkpt lat="44.12087" lon="3.02599">
        <ele>675</ele>
        <time>2010-01-01T03:04:24Z</time>
      </trkpt>
      <trkpt lat="44.12086" lon="3.02603">
        <ele>675</ele>
        <time>2010-01-01T03:04:25Z</time>
      </trkpt>
      <trkpt lat="44.12085" lon="3.02608">
        <ele>675</ele>
        <time>2010-01-01T03:04:26Z</time>
      </trkpt>
      <trkpt lat="44.12084" lon="3.02612">
        <ele>676</ele>
        <time>2010-01-01T03:04:28Z</time>
      </trkpt>
      <trkpt lat="44.12082" lon="3.02616">
        <ele>676</ele>
        <time>2010-01-01T03:04:29Z</time>
      </trkpt>
      <trkpt lat="44.1208" lon="3.0262">
        <ele>676</ele>
        <time>2010-01-01T03:04:30Z</time>
      </trkpt>
      <trkpt lat="44.12079" lon="3.02625">
        <ele>676</ele>
        <time>2010-01-01T03:04:32Z</time>
      </trkpt>
      <trkpt lat="44.12078" lon="3.02629">
        <ele>676</ele>
        <time>2010-01-01T03:04:33Z</time>
      </trkpt>
      <trkpt lat="44.12077" lon="3.02634">
        <ele>677</ele>
        <time>2010-01-01T03:04:35Z</time>
      </trkpt>
      <trkpt lat="44.12076" lon="3.02639">
        <ele>677</ele>
        <time>2010-01-01T03:04:36Z</time>
      </trkpt>
      <trkpt lat="44.12074" lon="3.02643">
        <ele>677</ele>
        <time>2010-01-01T03:04:37Z</time>
      </trkpt>
      <trkpt lat="44.12073" lon="3.02648">
        <ele>677</ele>
        <time>2010-01-01T03:04:39Z</time>
      </trkpt>
      <trkpt lat="44.12071" lon="3.02653">
        <ele>678</ele>
        <time>2010-01-01T03:04:41Z</time>
      </trkpt>
      <trkpt lat="44.12068" lon="3.02658">
        <ele>678</ele>
        <time>2010-01-01T03:04:42Z</time>
      </trkpt>
      <trkpt lat="44.12066" lon="3.02663">
        <ele>678</ele>
        <time>2010-01-01T03:04:44Z</time>
      </trkpt>
      <trkpt lat="44.12064" lon="3.02668">
        <ele>679</ele>
        <time>2010-01-01T03:04:46Z</time>
      </trkpt>
      <trkpt lat="44.12062" lon="3.02673">
        <ele>679</ele>
        <time>2010-01-01T03:04:48Z</time>
      </trkpt>
      <trkpt lat="44.12059" lon="3.02678">
        <ele>679</ele>
        <time>2010-01-01T03:04:49Z</time>
      </trkpt>
      <trkpt lat="44.12055" lon="3.02681">
        <ele>679</ele>
        <time>2010-01-01T03:04:51Z</time>
      </trkpt>
      <trkpt lat="44.12052" lon="3.02685">
        <ele>679</ele>
        <time>2010-01-01T03:04:53Z</time>
      </trkpt>
      <trkpt lat="44.12049" lon="3.0269">
        <ele>679</ele>
        <time>2010-01-01T03:04:55Z</time>
      </trkpt>
      <trkpt lat="44.12046" lon="3.02695">
        <ele>679</ele>
        <time>2010-01-01T03:04:56Z</time>
      </trkpt>
      <trkpt lat="44.12044" lon="3.02697">
        <ele>679</ele>
        <time>2010-01-01T03:04:57Z</time>
      </trkpt>
      <trkpt lat="44.12044" lon="3.02698">
        <ele>679</ele>
        <time>2010-01-01T03:04:58Z</time>
      </trkpt>
      <trkpt lat="44.12044" lon="3.02699">
        <ele>679</ele>
        <time>2010-01-01T03:04:58Z</time>
      </trkpt>
      <trkpt lat="44.12044" lon="3.02699">
        <ele>679</ele>
        <time>2010-01-01T03:04:58Z</time>
      </trkpt>
      <trkpt lat="44.12039" lon="3.02703">
        <ele>679</ele>
        <time>2010-01-01T03:05:00Z</time>
      </trkpt>
      <trkpt lat="44.12037" lon="3.02706">
        <ele>679</ele>
        <time>2010-01-01T03:05:01Z</time>
      </trkpt>
      <trkpt lat="44.12033" lon="3.02709">
        <ele>679</ele>
        <time>2010-01-01T03:05:03Z</time>
      </trkpt>
      <trkpt lat="44.1203" lon="3.02713">
        <ele>679</ele>
        <time>2010-01-01T03:05:05Z</time>
      </trkpt>
      <trkpt lat="44.12025" lon="3.02717">
        <ele>679</ele>
        <time>2010-01-01T03:05:07Z</time>
      </trkpt>
      <trkpt lat="44.12018" lon="3.02721">
        <ele>679</ele>
        <time>2010-01-01T03:05:10Z</time>
      </trkpt>
      <trkpt lat="44.12011" lon="3.02727">
        <ele>678</ele>
        <time>2010-01-01T03:05:13Z</time>
      </trkpt>
      <trkpt lat="44.12003" lon="3.02736">
        <ele>678</ele>
        <time>2010-01-01T03:05:17Z</time>
      </trkpt>
      <trkpt lat="44.11994" lon="3.02745">
        <ele>677</ele>
        <time>2010-01-01T03:05:22Z</time>
      </trkpt>
      <trkpt lat="44.11984" lon="3.02755">
        <ele>676</ele>
        <time>2010-01-01T03:05:27Z</time>
      </trkpt>
      <trkpt lat="44.11974" lon="3.02766">
        <ele>676</ele>
        <time>2010-01-01T03:05:32Z</time>
      </trkpt>
      <trkpt lat="44.11964" lon="3.02776">
        <ele>675</ele>
        <time>2010-01-01T03:05:37Z</time>
      </trkpt>
      <trkpt lat="44.11952" lon="3.02786">
        <ele>674</ele>
        <time>2010-01-01T03:05:42Z</time>
      </trkpt>
      <trkpt lat="44.11941" lon="3.02798">
        <ele>673</ele>
        <time>2010-01-01T03:05:48Z</time>
      </trkpt>
      <trkpt lat="44.11929" lon="3.02809">
        <ele>673</ele>
        <time>2010-01-01T03:05:54Z</time>
      </trkpt>
      <trkpt lat="44.11917" lon="3.02821">
        <ele>672</ele>
        <time>2010-01-01T03:06:00Z</time>
      </trkpt>
      <trkpt lat="44.11908" lon="3.02836">
        <ele>670</ele>
        <time>2010-01-01T03:06:05Z</time>
      </trkpt>
      <trkpt lat="44.119" lon="3.02852">
        <ele>669</ele>
        <time>2010-01-01T03:06:11Z</time>
      </trkpt>
      <trkpt lat="44.1189" lon="3.02858">
        <ele>668</ele>
        <time>2010-01-01T03:06:15Z</time>
      </trkpt>
      <trkpt lat="44.1188" lon="3.02854">
        <ele>667</ele>
        <time>2010-01-01T03:06:19Z</time>
      </trkpt>
      <trkpt lat="44.11871" lon="3.02847">
        <ele>667</ele>
        <time>2010-01-01T03:06:24Z</time>
      </trkpt>
      <trkpt lat="44.11861" lon="3.02841">
        <ele>666</ele>
        <time>2010-01-01T03:06:28Z</time>
      </trkpt>
      <trkpt lat="44.11851" lon="3.02835">
        <ele>666</ele>
        <time>2010-01-01T03:06:32Z</time>
      </trkpt>
      <trkpt lat="44.1184" lon="3.02832">
        <ele>667</ele>
        <time>2010-01-01T03:06:37Z</time>
      </trkpt>
      <trkpt lat="44.11829" lon="3.02831">
        <ele>666</ele>
        <time>2010-01-01T03:06:41Z</time>
      </trkpt>
      <trkpt lat="44.11817" lon="3.02832">
        <ele>665</ele>
        <time>2010-01-01T03:06:46Z</time>
      </trkpt>
      <trkpt lat="44.11806" lon="3.02834">
        <ele>665</ele>
        <time>2010-01-01T03:06:50Z</time>
      </trkpt>
      <trkpt lat="44.11795" lon="3.02837">
        <ele>664</ele>
        <time>2010-01-01T03:06:55Z</time>
      </trkpt>
      <trkpt lat="44.11781" lon="3.02842">
        <ele>664</ele>
        <time>2010-01-01T03:07:01Z</time>
      </trkpt>
      <trkpt lat="44.11776" lon="3.02852">
        <ele>664</ele>
        <time>2010-01-01T03:07:04Z</time>
      </trkpt>
      <trkpt lat="44.11776" lon="3.02859">
        <ele>664</ele>
        <time>2010-01-01T03:07:06Z</time>
      </trkpt>
      <trkpt lat="44.11782" lon="3.02862">
        <ele>664</ele>
        <time>2010-01-01T03:07:09Z</time>
      </trkpt>
      <trkpt lat="44.11793" lon="3.02862">
        <ele>664</ele>
        <time>2010-01-01T03:07:13Z</time>
      </trkpt>
      <trkpt lat="44.11806" lon="3.02861">
        <ele>665</ele>
        <time>2010-01-01T03:07:18Z</time>
      </trkpt>
      <trkpt lat="44.1182" lon="3.02859">
        <ele>665</ele>
        <time>2010-01-01T03:07:24Z</time>
      </trkpt>
      <trkpt lat="44.11834" lon="3.02863">
        <ele>665</ele>
        <time>2010-01-01T03:07:30Z</time>
      </trkpt>
      <trkpt lat="44.11844" lon="3.02879">
        <ele>665</ele>
        <time>2010-01-01T03:07:36Z</time>
      </trkpt>
      <trkpt lat="44.11846" lon="3.02899">
        <ele>665</ele>
        <time>2010-01-01T03:07:42Z</time>
      </trkpt>
      <trkpt lat="44.11844" lon="3.02919">
        <ele>664</ele>
        <time>2010-01-01T03:07:48Z</time>
      </trkpt>
      <trkpt lat="44.11843" lon="3.02942">
        <ele>663</ele>
        <time>2010-01-01T03:07:54Z</time>
      </trkpt>
      <trkpt lat="44.11842" lon="3.02963">
        <ele>661</ele>
        <time>2010-01-01T03:08:00Z</time>
      </trkpt>
      <trkpt lat="44.11841" lon="3.02982">
        <ele>659</ele>
        <time>2010-01-01T03:08:06Z</time>
      </trkpt>
      <trkpt lat="44.11838" lon="3.03003">
        <ele>657</ele>
        <time>2010-01-01T03:08:12Z</time>
      </trkpt>
      <trkpt lat="44.11826" lon="3.03017">
        <ele>656</ele>
        <time>2010-01-01T03:08:18Z</time>
      </trkpt>
      <trkpt lat="44.11812" lon="3.03022">
        <ele>656</ele>
        <time>2010-01-01T03:08:24Z</time>
      </trkpt>
      <trkpt lat="44.118" lon="3.03025">
        <ele>656</ele>
        <time>2010-01-01T03:08:29Z</time>
      </trkpt>
      <trkpt lat="44.11789" lon="3.03027">
        <ele>656</ele>
        <time>2010-01-01T03:08:33Z</time>
      </trkpt>
      <trkpt lat="44.11778" lon="3.03031">
        <ele>655</ele>
        <time>2010-01-01T03:08:38Z</time>
      </trkpt>
      <trkpt lat="44.11768" lon="3.03034">
        <ele>656</ele>
        <time>2010-01-01T03:08:42Z</time>
      </trkpt>
      <trkpt lat="44.11759" lon="3.03038">
        <ele>656</ele>
        <time>2010-01-01T03:08:46Z</time>
      </trkpt>
      <trkpt lat="44.11752" lon="3.03047">
        <ele>656</ele>
        <time>2010-01-01T03:08:49Z</time>
      </trkpt>
      <trkpt lat="44.11745" lon="3.0306">
        <ele>655</ele>
        <time>2010-01-01T03:08:54Z</time>
      </trkpt>
      <trkpt lat="44.11737" lon="3.03073">
        <ele>655</ele>
        <time>2010-01-01T03:08:59Z</time>
      </trkpt>
      <trkpt lat="44.1173" lon="3.03086">
        <ele>655</ele>
        <time>2010-01-01T03:09:04Z</time>
      </trkpt>
      <trkpt lat="44.11723" lon="3.03097">
        <ele>655</ele>
        <time>2010-01-01T03:09:08Z</time>
      </trkpt>
      <trkpt lat="44.11717" lon="3.03108">
        <ele>655</ele>
        <time>2010-01-01T03:09:12Z</time>
      </trkpt>
      <trkpt lat="44.1171" lon="3.03118">
        <ele>655</ele>
        <time>2010-01-01T03:09:16Z</time>
      </trkpt>
      <trkpt lat="44.11703" lon="3.03128">
        <ele>655</ele>
        <time>2010-01-01T03:09:20Z</time>
      </trkpt>
      <trkpt lat="44.11695" lon="3.03138">
        <ele>655</ele>
        <time>2010-01-01T03:09:24Z</time>
      </trkpt>
      <trkpt lat="44.11688" lon="3.03148">
        <ele>656</ele>
        <time>2010-01-01T03:09:28Z</time>
      </trkpt>
      <trkpt lat="44.1168" lon="3.03158">
        <ele>656</ele>
        <time>2010-01-01T03:09:32Z</time>
      </trkpt>
      <trkpt lat="44.11672" lon="3.03167">
        <ele>655</ele>
        <time>2010-01-01T03:09:36Z</time>
      </trkpt>
      <trkpt lat="44.11664" lon="3.03175">
        <ele>655</ele>
        <time>2010-01-01T03:09:40Z</time>
      </trkpt>
      <trkpt lat="44.11657" lon="3.03184">
        <ele>654</ele>
        <time>2010-01-01T03:09:44Z</time>
      </trkpt>
      <trkpt lat="44.11649" lon="3.03195">
        <ele>654</ele>
        <time>2010-01-01T03:09:49Z</time>
      </trkpt>
      <trkpt lat="44.11641" lon="3.03206">
        <ele>653</ele>
        <time>2010-01-01T03:09:53Z</time>
      </trkpt>
      <trkpt lat="44.11634" lon="3.03219">
        <ele>653</ele>
        <time>2010-01-01T03:09:58Z</time>
      </trkpt>
      <trkpt lat="44.11627" lon="3.03231">
        <ele>652</ele>
        <time>2010-01-01T03:10:02Z</time>
      </trkpt>
      <trkpt lat="44.1162" lon="3.03244">
        <ele>651</ele>
        <time>2010-01-01T03:10:07Z</time>
      </trkpt>
      <trkpt lat="44.11613" lon="3.03258">
        <ele>650</ele>
        <time>2010-01-01T03:10:12Z</time>
      </trkpt>
      <trkpt lat="44.11606" lon="3.03272">
        <ele>650</ele>
        <time>2010-01-01T03:10:17Z</time>
      </trkpt>
      <trkpt lat="44.11601" lon="3.03287">
        <ele>649</ele>
        <time>2010-01-01T03:10:22Z</time>
      </trkpt>
      <trkpt lat="44.11594" lon="3.03303">
        <ele>649</ele>
        <time>2010-01-01T03:10:27Z</time>
      </trkpt>
      <trkpt lat="44.11588" lon="3.0332">
        <ele>649</ele>
        <time>2010-01-01T03:10:32Z</time>
      </trkpt>
      <trkpt lat="44.11582" lon="3.03336">
        <ele>648</ele>
        <time>2010-01-01T03:10:38Z</time>
      </trkpt>
      <trkpt lat="44.11575" lon="3.03353">
        <ele>647</ele>
        <time>2010-01-01T03:10:43Z</time>
      </trkpt>
      <trkpt lat="44.11567" lon="3.03372">
        <ele>646</ele>
        <time>2010-01-01T03:10:50Z</time>
      </trkpt>
      <trkpt lat="44.11558" lon="3.03391">
        <ele>645</ele>
        <time>2010-01-01T03:10:56Z</time>
      </trkpt>
      <trkpt lat="44.1155" lon="3.03409">
        <ele>644</ele>
        <time>2010-01-01T03:11:02Z</time>
      </trkpt>
      <trkpt lat="44.11541" lon="3.03427">
        <ele>641</ele>
        <time>2010-01-01T03:11:09Z</time>
      </trkpt>
      <trkpt lat="44.11531" lon="3.03444">
        <ele>640</ele>
        <time>2010-01-01T03:11:15Z</time>
      </trkpt>
      <trkpt lat="44.11522" lon="3.03461">
        <ele>638</ele>
        <time>2010-01-01T03:11:21Z</time>
      </trkpt>
      <trkpt lat="44.11513" lon="3.03477">
        <ele>636</ele>
        <time>2010-01-01T03:11:27Z</time>
      </trkpt>
      <trkpt lat="44.11504" lon="3.03492">
        <ele>634</ele>
        <time>2010-01-01T03:11:32Z</time>
      </trkpt>
      <trkpt lat="44.11494" lon="3.03506">
        <ele>631</ele>
        <time>2010-01-01T03:11:38Z</time>
      </trkpt>
      <trkpt lat="44.11484" lon="3.0352">
        <ele>629</ele>
        <time>2010-01-01T03:11:44Z</time>
      </trkpt>
      <trkpt lat="44.11472" lon="3.03533">
        <ele>628</ele>
        <time>2010-01-01T03:11:50Z</time>
      </trkpt>
      <trkpt lat="44.11459" lon="3.03547">
        <ele>627</ele>
        <time>2010-01-01T03:11:56Z</time>
      </trkpt>
      <trkpt lat="44.11445" lon="3.03559">
        <ele>625</ele>
        <time>2010-01-01T03:12:03Z</time>
      </trkpt>
      <trkpt lat="44.1143" lon="3.03571">
        <ele>623</ele>
        <time>2010-01-01T03:12:10Z</time>
      </trkpt>
      <trkpt lat="44.11418" lon="3.03583">
        <ele>621</ele>
        <time>2010-01-01T03:12:16Z</time>
      </trkpt>
      <trkpt lat="44.11407" lon="3.03596">
        <ele>618</ele>
        <time>2010-01-01T03:12:21Z</time>
      </trkpt>
      <trkpt lat="44.11399" lon="3.0361">
        <ele>616</ele>
        <time>2010-01-01T03:12:27Z</time>
      </trkpt>
      <trkpt lat="44.11391" lon="3.03627">
        <ele>613</ele>
        <time>2010-01-01T03:12:33Z</time>
      </trkpt>
      <trkpt lat="44.11383" lon="3.03646">
        <ele>610</ele>
        <time>2010-01-01T03:12:39Z</time>
      </trkpt>
      <trkpt lat="44.11377" lon="3.03665">
        <ele>608</ele>
        <time>2010-01-01T03:12:45Z</time>
      </trkpt>
      <trkpt lat="44.1137" lon="3.03682">
        <ele>606</ele>
        <time>2010-01-01T03:12:50Z</time>
      </trkpt>
      <trkpt lat="44.11362" lon="3.03697">
        <ele>605</ele>
        <time>2010-01-01T03:12:56Z</time>
      </trkpt>
      <trkpt lat="44.11357" lon="3.03711">
        <ele>604</ele>
        <time>2010-01-01T03:13:00Z</time>
      </trkpt>
      <trkpt lat="44.11352" lon="3.03725">
        <ele>604</ele>
        <time>2010-01-01T03:13:05Z</time>
      </trkpt>
      <trkpt lat="44.11346" lon="3.0374">
        <ele>603</ele>
        <time>2010-01-01T03:13:10Z</time>
      </trkpt>
      <trkpt lat="44.11341" lon="3.03756">
        <ele>602</ele>
        <time>2010-01-01T03:13:15Z</time>
      </trkpt>
      <trkpt lat="44.11336" lon="3.03771">
        <ele>601</ele>
        <time>2010-01-01T03:13:20Z</time>
      </trkpt>
      <trkpt lat="44.11332" lon="3.03788">
        <ele>600</ele>
        <time>2010-01-01T03:13:24Z</time>
      </trkpt>
      <trkpt lat="44.1133" lon="3.03805">
        <ele>600</ele>
        <time>2010-01-01T03:13:30Z</time>
      </trkpt>
      <trkpt lat="44.11326" lon="3.03822">
        <ele>598</ele>
        <time>2010-01-01T03:13:35Z</time>
      </trkpt>
      <trkpt lat="44.11322" lon="3.03837">
        <ele>597</ele>
        <time>2010-01-01T03:13:39Z</time>
      </trkpt>
      <trkpt lat="44.1132" lon="3.03849">
        <ele>597</ele>
        <time>2010-01-01T03:13:43Z</time>
      </trkpt>
      <trkpt lat="44.11322" lon="3.03859">
        <ele>597</ele>
        <time>2010-01-01T03:13:46Z</time>
      </trkpt>
      <trkpt lat="44.11328" lon="3.03862">
        <ele>597</ele>
        <time>2010-01-01T03:13:48Z</time>
      </trkpt>
      <trkpt lat="44.11334" lon="3.03863">
        <ele>597</ele>
        <time>2010-01-01T03:13:51Z</time>
      </trkpt>
      <trkpt lat="44.11341" lon="3.03865">
        <ele>598</ele>
        <time>2010-01-01T03:13:54Z</time>
      </trkpt>
      <trkpt lat="44.11348" lon="3.03868">
        <ele>598</ele>
        <time>2010-01-01T03:13:57Z</time>
      </trkpt>
      <trkpt lat="44.11351" lon="3.03878">
        <ele>598</ele>
        <time>2010-01-01T03:14:00Z</time>
      </trkpt>
      <trkpt lat="44.1135" lon="3.03892">
        <ele>598</ele>
        <time>2010-01-01T03:14:04Z</time>
      </trkpt>
      <trkpt lat="44.11345" lon="3.03913">
        <ele>597</ele>
        <time>2010-01-01T03:14:10Z</time>
      </trkpt>
      <trkpt lat="44.1134" lon="3.03936">
        <ele>596</ele>
        <time>2010-01-01T03:14:17Z</time>
      </trkpt>
      <trkpt lat="44.11334" lon="3.03958">
        <ele>594</ele>
        <time>2010-01-01T03:14:24Z</time>
      </trkpt>
      <trkpt lat="44.11326" lon="3.03983">
        <ele>591</ele>
        <time>2010-01-01T03:14:32Z</time>
      </trkpt>
      <trkpt lat="44.11315" lon="3.03994">
        <ele>590</ele>
        <time>2010-01-01T03:14:37Z</time>
      </trkpt>
      <trkpt lat="44.11309" lon="3.04012">
        <ele>589</ele>
        <time>2010-01-01T03:14:43Z</time>
      </trkpt>
      <trkpt lat="44.11311" lon="3.04028">
        <ele>588</ele>
        <time>2010-01-01T03:14:48Z</time>
      </trkpt>
      <trkpt lat="44.1132" lon="3.04037">
        <ele>588</ele>
        <time>2010-01-01T03:14:52Z</time>
      </trkpt>
      <trkpt lat="44.11329" lon="3.04039">
        <ele>588</ele>
        <time>2010-01-01T03:14:56Z</time>
      </trkpt>
      <trkpt lat="44.11341" lon="3.04029">
        <ele>589</ele>
        <time>2010-01-01T03:15:02Z</time>
      </trkpt>
      <trkpt lat="44.11351" lon="3.04026">
        <ele>589</ele>
        <time>2010-01-01T03:15:05Z</time>
      </trkpt>
      <trkpt lat="44.11356" lon="3.04027">
        <ele>589</ele>
        <time>2010-01-01T03:15:07Z</time>
      </trkpt>
      <trkpt lat="44.11366" lon="3.04034">
        <ele>590</ele>
        <time>2010-01-01T03:15:12Z</time>
      </trkpt>
      <trkpt lat="44.11373" lon="3.04043">
        <ele>590</ele>
        <time>2010-01-01T03:15:16Z</time>
      </trkpt>
      <trkpt lat="44.11379" lon="3.04054">
        <ele>590</ele>
        <time>2010-01-01T03:15:20Z</time>
      </trkpt>
      <trkpt lat="44.11383" lon="3.04069">
        <ele>589</ele>
        <time>2010-01-01T03:15:24Z</time>
      </trkpt>
      <trkpt lat="44.11385" lon="3.04089">
        <ele>588</ele>
        <time>2010-01-01T03:15:30Z</time>
      </trkpt>
      <trkpt lat="44.11387" lon="3.0411">
        <ele>588</ele>
        <time>2010-01-01T03:15:36Z</time>
      </trkpt>
      <trkpt lat="44.11389" lon="3.04134">
        <ele>586</ele>
        <time>2010-01-01T03:15:43Z</time>
      </trkpt>
      <trkpt lat="44.11392" lon="3.04161">
        <ele>585</ele>
        <time>2010-01-01T03:15:51Z</time>
      </trkpt>
      <trkpt lat="44.11394" lon="3.04189">
        <ele>582</ele>
        <time>2010-01-01T03:15:59Z</time>
      </trkpt>
      <trkpt lat="44.11397" lon="3.04218">
        <ele>581</ele>
        <time>2010-01-01T03:16:08Z</time>
      </trkpt>
      <trkpt lat="44.11401" lon="3.04244">
        <ele>579</ele>
        <time>2010-01-01T03:16:15Z</time>
      </trkpt>
      <trkpt lat="44.11403" lon="3.04267">
        <ele>577</ele>
        <time>2010-01-01T03:16:22Z</time>
      </trkpt>
      <trkpt lat="44.11408" lon="3.04293">
        <ele>574</ele>
        <time>2010-01-01T03:16:29Z</time>
      </trkpt>
      <trkpt lat="44.11413" lon="3.04315">
        <ele>572</ele>
        <time>2010-01-01T03:16:36Z</time>
      </trkpt>
      <trkpt lat="44.11412" lon="3.04329">
        <ele>571</ele>
        <time>2010-01-01T03:16:40Z</time>
      </trkpt>
      <trkpt lat="44.11417" lon="3.04343">
        <ele>569</ele>
        <time>2010-01-01T03:16:45Z</time>
      </trkpt>
      <trkpt lat="44.11425" lon="3.04369">
        <ele>566</ele>
        <time>2010-01-01T03:16:53Z</time>
      </trkpt>
      <trkpt lat="44.11431" lon="3.04395">
        <ele>564</ele>
        <time>2010-01-01T03:17:01Z</time>
      </trkpt>
      <trkpt lat="44.11436" lon="3.04422">
        <ele>563</ele>
        <time>2010-01-01T03:17:09Z</time>
      </trkpt>
      <trkpt lat="44.11435" lon="3.04449">
        <ele>561</ele>
        <time>2010-01-01T03:17:17Z</time>
      </trkpt>
      <trkpt lat="44.11431" lon="3.04477">
        <ele>559</ele>
        <time>2010-01-01T03:17:25Z</time>
      </trkpt>
      <trkpt lat="44.11426" lon="3.04505">
        <ele>558</ele>
        <time>2010-01-01T03:17:33Z</time>
      </trkpt>
      <trkpt lat="44.11421" lon="3.04532">
        <ele>557</ele>
        <time>2010-01-01T03:17:41Z</time>
      </trkpt>
      <trkpt lat="44.11416" lon="3.0456">
        <ele>556</ele>
        <time>2010-01-01T03:17:49Z</time>
      </trkpt>
      <trkpt lat="44.1141" lon="3.04587">
        <ele>556</ele>
        <time>2010-01-01T03:17:57Z</time>
      </trkpt>
      <trkpt lat="44.11403" lon="3.04614">
        <ele>555</ele>
        <time>2010-01-01T03:18:06Z</time>
      </trkpt>
      <trkpt lat="44.11396" lon="3.04642">
        <ele>554</ele>
        <time>2010-01-01T03:18:14Z</time>
      </trkpt>
      <trkpt lat="44.1139" lon="3.04669">
        <ele>553</ele>
        <time>2010-01-01T03:18:22Z</time>
      </trkpt>
      <trkpt lat="44.11385" lon="3.04696">
        <ele>551</ele>
        <time>2010-01-01T03:18:30Z</time>
      </trkpt>
      <trkpt lat="44.11379" lon="3.04722">
        <ele>551</ele>
        <time>2010-01-01T03:18:38Z</time>
      </trkpt>
      <trkpt lat="44.11373" lon="3.04748">
        <ele>549</ele>
        <time>2010-01-01T03:18:46Z</time>
      </trkpt>
      <trkpt lat="44.11367" lon="3.04772">
        <ele>548</ele>
        <time>2010-01-01T03:18:53Z</time>
      </trkpt>
      <trkpt lat="44.11361" lon="3.04796">
        <ele>547</ele>
        <time>2010-01-01T03:19:01Z</time>
      </trkpt>
      <trkpt lat="44.11355" lon="3.0482">
        <ele>547</ele>
        <time>2010-01-01T03:19:08Z</time>
      </trkpt>
      <trkpt lat="44.1135" lon="3.04844">
        <ele>546</ele>
        <time>2010-01-01T03:19:15Z</time>
      </trkpt>
      <trkpt lat="44.11346" lon="3.04867">
        <ele>546</ele>
        <time>2010-01-01T03:19:22Z</time>
      </trkpt>
      <trkpt lat="44.11342" lon="3.0489">
        <ele>544</ele>
        <time>2010-01-01T03:19:29Z</time>
      </trkpt>
      <trkpt lat="44.11337" lon="3.04912">
        <ele>543</ele>
        <time>2010-01-01T03:19:36Z</time>
      </trkpt>
      <trkpt lat="44.11328" lon="3.04934">
        <ele>542</ele>
        <time>2010-01-01T03:19:43Z</time>
      </trkpt>
      <trkpt lat="44.1132" lon="3.04956">
        <ele>541</ele>
        <time>2010-01-01T03:19:50Z</time>
      </trkpt>
      <trkpt lat="44.11314" lon="3.0498">
        <ele>540</ele>
        <time>2010-01-01T03:19:57Z</time>
      </trkpt>
      <trkpt lat="44.11309" lon="3.05004">
        <ele>539</ele>
        <time>2010-01-01T03:20:04Z</time>
      </trkpt>
      <trkpt lat="44.11303" lon="3.05028">
        <ele>539</ele>
        <time>2010-01-01T03:20:11Z</time>
      </trkpt>
      <trkpt lat="44.11299" lon="3.05052">
        <ele>539</ele>
        <time>2010-01-01T03:20:19Z</time>
      </trkpt>
      <trkpt lat="44.11294" lon="3.05075">
        <ele>539</ele>
        <time>2010-01-01T03:20:26Z</time>
      </trkpt>
      <trkpt lat="44.11288" lon="3.05099">
        <ele>539</ele>
        <time>2010-01-01T03:20:33Z</time>
      </trkpt>
      <trkpt lat="44.11284" lon="3.05123">
        <ele>538</ele>
        <time>2010-01-01T03:20:40Z</time>
      </trkpt>
      <trkpt lat="44.11281" lon="3.05148">
        <ele>538</ele>
        <time>2010-01-01T03:20:47Z</time>
      </trkpt>
      <trkpt lat="44.11282" lon="3.05174">
        <ele>536</ele>
        <time>2010-01-01T03:20:55Z</time>
      </trkpt>
      <trkpt lat="44.11286" lon="3.05198">
        <ele>535</ele>
        <time>2010-01-01T03:21:02Z</time>
      </trkpt>
      <trkpt lat="44.11289" lon="3.05222">
        <ele>533</ele>
        <time>2010-01-01T03:21:09Z</time>
      </trkpt>
      <trkpt lat="44.11288" lon="3.05249">
        <ele>532</ele>
        <time>2010-01-01T03:21:16Z</time>
      </trkpt>
      <trkpt lat="44.11284" lon="3.05277">
        <ele>531</ele>
        <time>2010-01-01T03:21:25Z</time>
      </trkpt>
      <trkpt lat="44.11279" lon="3.05307">
        <ele>529</ele>
        <time>2010-01-01T03:21:34Z</time>
      </trkpt>
      <trkpt lat="44.11273" lon="3.05338">
        <ele>525</ele>
        <time>2010-01-01T03:21:43Z</time>
      </trkpt>
      <trkpt lat="44.11265" lon="3.0537">
        <ele>520</ele>
        <time>2010-01-01T03:21:53Z</time>
      </trkpt>
      <trkpt lat="44.11257" lon="3.05403">
        <ele>517</ele>
        <time>2010-01-01T03:22:02Z</time>
      </trkpt>
      <trkpt lat="44.11248" lon="3.05436">
        <ele>515</ele>
        <time>2010-01-01T03:22:13Z</time>
      </trkpt>
      <trkpt lat="44.1124" lon="3.05473">
        <ele>513</ele>
        <time>2010-01-01T03:22:24Z</time>
      </trkpt>
      <trkpt lat="44.11233" lon="3.05511">
        <ele>509</ele>
        <time>2010-01-01T03:22:35Z</time>
      </trkpt>
      <trkpt lat="44.11224" lon="3.05548">
        <ele>505</ele>
        <time>2010-01-01T03:22:46Z</time>
      </trkpt>
      <trkpt lat="44.11217" lon="3.05584">
        <ele>503</ele>
        <time>2010-01-01T03:22:57Z</time>
      </trkpt>
      <trkpt lat="44.11206" lon="3.05618">
        <ele>502</ele>
        <time>2010-01-01T03:23:08Z</time>
      </trkpt>
      <trkpt lat="44.11191" lon="3.05646">
        <ele>501</ele>
        <time>2010-01-01T03:23:18Z</time>
      </trkpt>
      <trkpt lat="44.11173" lon="3.05672">
        <ele>500</ele>
        <time>2010-01-01T03:23:28Z</time>
      </trkpt>
      <trkpt lat="44.11156" lon="3.05699">
        <ele>500</ele>
        <time>2010-01-01T03:23:38Z</time>
      </trkpt>
      <trkpt lat="44.11141" lon="3.05728">
        <ele>498</ele>
        <time>2010-01-01T03:23:49Z</time>
      </trkpt>
      <trkpt lat="44.11128" lon="3.05759">
        <ele>495</ele>
        <time>2010-01-01T03:23:59Z</time>
      </trkpt>
      <trkpt lat="44.11118" lon="3.05789">
        <ele>494</ele>
        <time>2010-01-01T03:24:08Z</time>
      </trkpt>
      <trkpt lat="44.1111" lon="3.05817">
        <ele>492</ele>
        <time>2010-01-01T03:24:17Z</time>
      </trkpt>
      <trkpt lat="44.11098" lon="3.05841">
        <ele>492</ele>
        <time>2010-01-01T03:24:25Z</time>
      </trkpt>
      <trkpt lat="44.11086" lon="3.0585">
        <ele>491</ele>
        <time>2010-01-01T03:24:31Z</time>
      </trkpt>
      <trkpt lat="44.11085" lon="3.05869">
        <ele>491</ele>
        <time>2010-01-01T03:24:36Z</time>
      </trkpt>
      <trkpt lat="44.11085" lon="3.05889">
        <ele>491</ele>
        <time>2010-01-01T03:24:42Z</time>
      </trkpt>
      <trkpt lat="44.11083" lon="3.05912">
        <ele>491</ele>
        <time>2010-01-01T03:24:49Z</time>
      </trkpt>
      <trkpt lat="44.11074" lon="3.05936">
        <ele>490</ele>
        <time>2010-01-01T03:24:56Z</time>
      </trkpt>
      <trkpt lat="44.11065" lon="3.05961">
        <ele>489</ele>
        <time>2010-01-01T03:25:04Z</time>
      </trkpt>
      <trkpt lat="44.11056" lon="3.05986">
        <ele>487</ele>
        <time>2010-01-01T03:25:13Z</time>
      </trkpt>
      <trkpt lat="44.11045" lon="3.06012">
        <ele>485</ele>
        <time>2010-01-01T03:25:21Z</time>
      </trkpt>
      <trkpt lat="44.1103" lon="3.06034">
        <ele>484</ele>
        <time>2010-01-01T03:25:30Z</time>
      </trkpt>
      <trkpt lat="44.11012" lon="3.06056">
        <ele>481</ele>
        <time>2010-01-01T03:25:39Z</time>
      </trkpt>
      <trkpt lat="44.10995" lon="3.0608">
        <ele>478</ele>
        <time>2010-01-01T03:25:49Z</time>
      </trkpt>
      <trkpt lat="44.10977" lon="3.06105">
        <ele>474</ele>
        <time>2010-01-01T03:25:59Z</time>
      </trkpt>
      <trkpt lat="44.10963" lon="3.06134">
        <ele>472</ele>
        <time>2010-01-01T03:26:09Z</time>
      </trkpt>
      <trkpt lat="44.10952" lon="3.06166">
        <ele>470</ele>
        <time>2010-01-01T03:26:20Z</time>
      </trkpt>
      <trkpt lat="44.10941" lon="3.06199">
        <ele>467</ele>
        <time>2010-01-01T03:26:30Z</time>
      </trkpt>
      <trkpt lat="44.10931" lon="3.06231">
        <ele>465</ele>
        <time>2010-01-01T03:26:40Z</time>
      </trkpt>
      <trkpt lat="44.10925" lon="3.06261">
        <ele>463</ele>
        <time>2010-01-01T03:26:49Z</time>
      </trkpt>
      <trkpt lat="44.10922" lon="3.06278">
        <ele>462</ele>
        <time>2010-01-01T03:26:54Z</time>
      </trkpt>
      <trkpt lat="44.10909" lon="3.06284">
        <ele>460</ele>
        <time>2010-01-01T03:27:00Z</time>
      </trkpt>
      <trkpt lat="44.10903" lon="3.06294">
        <ele>459</ele>
        <time>2010-01-01T03:27:03Z</time>
      </trkpt>
      <trkpt lat="44.10894" lon="3.06312">
        <ele>457</ele>
        <time>2010-01-01T03:27:10Z</time>
      </trkpt>
      <trkpt lat="44.10885" lon="3.06332">
        <ele>457</ele>
        <time>2010-01-01T03:27:16Z</time>
      </trkpt>
      <trkpt lat="44.10875" lon="3.06353">
        <ele>456</ele>
        <time>2010-01-01T03:27:24Z</time>
      </trkpt>
      <trkpt lat="44.10864" lon="3.06372">
        <ele>455</ele>
        <time>2010-01-01T03:27:31Z</time>
      </trkpt>
      <trkpt lat="44.10854" lon="3.0639">
        <ele>453</ele>
        <time>2010-01-01T03:27:37Z</time>
      </trkpt>
      <trkpt lat="44.10839" lon="3.06406">
        <ele>450</ele>
        <time>2010-01-01T03:27:45Z</time>
      </trkpt>
      <trkpt lat="44.10833" lon="3.06411">
        <ele>448</ele>
        <time>2010-01-01T03:27:48Z</time>
      </trkpt>
      <trkpt lat="44.10832" lon="3.06422">
        <ele>448</ele>
        <time>2010-01-01T03:27:51Z</time>
      </trkpt>
      <trkpt lat="44.10827" lon="3.06434">
        <ele>448</ele>
        <time>2010-01-01T03:27:55Z</time>
      </trkpt>
      <trkpt lat="44.10822" lon="3.06439">
        <ele>447</ele>
        <time>2010-01-01T03:27:57Z</time>
      </trkpt>
      <trkpt lat="44.10822" lon="3.06439">
        <ele>447</ele>
        <time>2010-01-01T03:27:57Z</time>
      </trkpt>
      <trkpt lat="44.10822" lon="3.0644">
        <ele>447</ele>
        <time>2010-01-01T03:27:57Z</time>
      </trkpt>
      <trkpt lat="44.10822" lon="3.0644">
        <ele>447</ele>
        <time>2010-01-01T03:27:58Z</time>
      </trkpt>
      <trkpt lat="44.10817" lon="3.06449">
        <ele>446</ele>
        <time>2010-01-01T03:28:01Z</time>
      </trkpt>
      <trkpt lat="44.10814" lon="3.06455">
        <ele>445</ele>
        <time>2010-01-01T03:28:03Z</time>
      </trkpt>
      <trkpt lat="44.10808" lon="3.06464">
        <ele>445</ele>
        <time>2010-01-01T03:28:06Z</time>
      </trkpt>
      <trkpt lat="44.10803" lon="3.06471">
        <ele>444</ele>
        <time>2010-01-01T03:28:09Z</time>
      </trkpt>
      <trkpt lat="44.10802" lon="3.06473">
        <ele>444</ele>
        <time>2010-01-01T03:28:10Z</time>
      </trkpt>
      <trkpt lat="44.10802" lon="3.06473">
        <ele>444</ele>
        <time>2010-01-01T03:28:10Z</time>
      </trkpt>
      <trkpt lat="44.10802" lon="3.06473">
        <ele>444</ele>
        <time>2010-01-01T03:28:10Z</time>
      </trkpt>
      <trkpt lat="44.10793" lon="3.06492">
        <ele>442</ele>
        <time>2010-01-01T03:28:17Z</time>
      </trkpt>
      <trkpt lat="44.10786" lon="3.06507">
        <ele>441</ele>
        <time>2010-01-01T03:28:22Z</time>
      </trkpt>
      <trkpt lat="44.1078" lon="3.06525">
        <ele>440</ele>
        <time>2010-01-01T03:28:28Z</time>
      </trkpt>
      <trkpt lat="44.10773" lon="3.06544">
        <ele>438</ele>
        <time>2010-01-01T03:28:34Z</time>
      </trkpt>
      <trkpt lat="44.10767" lon="3.06562">
        <ele>437</ele>
        <time>2010-01-01T03:28:39Z</time>
      </trkpt>
      <trkpt lat="44.10758" lon="3.06575">
        <ele>434</ele>
        <time>2010-01-01T03:28:45Z</time>
      </trkpt>
      <trkpt lat="44.10746" lon="3.06587">
        <ele>431</ele>
        <time>2010-01-01T03:28:51Z</time>
      </trkpt>
      <trkpt lat="44.10735" lon="3.06603">
        <ele>427</ele>
        <time>2010-01-01T03:28:57Z</time>
      </trkpt>
      <trkpt lat="44.10728" lon="3.06621">
        <ele>424</ele>
        <time>2010-01-01T03:29:03Z</time>
      </trkpt>
      <trkpt lat="44.10726" lon="3.06638">
        <ele>422</ele>
        <time>2010-01-01T03:29:08Z</time>
      </trkpt>
      <trkpt lat="44.10724" lon="3.06653">
        <ele>420</ele>
        <time>2010-01-01T03:29:12Z</time>
      </trkpt>
      <trkpt lat="44.10723" lon="3.06672">
        <ele>418</ele>
        <time>2010-01-01T03:29:18Z</time>
      </trkpt>
      <trkpt lat="44.10719" lon="3.06695">
        <ele>416</ele>
        <time>2010-01-01T03:29:24Z</time>
      </trkpt>
      <trkpt lat="44.10714" lon="3.06719">
        <ele>415</ele>
        <time>2010-01-01T03:29:32Z</time>
      </trkpt>
      <trkpt lat="44.10709" lon="3.06746">
        <ele>414</ele>
        <time>2010-01-01T03:29:39Z</time>
      </trkpt>
      <trkpt lat="44.10705" lon="3.06771">
        <ele>412</ele>
        <time>2010-01-01T03:29:47Z</time>
      </trkpt>
      <trkpt lat="44.10702" lon="3.06787">
        <ele>412</ele>
        <time>2010-01-01T03:29:52Z</time>
      </trkpt>
      <trkpt lat="44.10701" lon="3.06795">
        <ele>412</ele>
        <time>2010-01-01T03:29:54Z</time>
      </trkpt>
      <trkpt lat="44.107" lon="3.06806">
        <ele>412</ele>
        <time>2010-01-01T03:29:57Z</time>
      </trkpt>
      <trkpt lat="44.10698" lon="3.06818">
        <ele>412</ele>
        <time>2010-01-01T03:30:01Z</time>
      </trkpt>
      <trkpt lat="44.10695" lon="3.06832">
        <ele>412</ele>
        <time>2010-01-01T03:30:05Z</time>
      </trkpt>
      <trkpt lat="44.10692" lon="3.06848">
        <ele>411</ele>
        <time>2010-01-01T03:30:10Z</time>
      </trkpt>
      <trkpt lat="44.10688" lon="3.06866">
        <ele>410</ele>
        <time>2010-01-01T03:30:15Z</time>
      </trkpt>
      <trkpt lat="44.10683" lon="3.06885">
        <ele>408</ele>
        <time>2010-01-01T03:30:21Z</time>
      </trkpt>
      <trkpt lat="44.10676" lon="3.06903">
        <ele>407</ele>
        <time>2010-01-01T03:30:27Z</time>
      </trkpt>
      <trkpt lat="44.10668" lon="3.06922">
        <ele>406</ele>
        <time>2010-01-01T03:30:33Z</time>
      </trkpt>
      <trkpt lat="44.10658" lon="3.06943">
        <ele>405</ele>
        <time>2010-01-01T03:30:40Z</time>
      </trkpt>
      <trkpt lat="44.10647" lon="3.06964">
        <ele>403</ele>
        <time>2010-01-01T03:30:48Z</time>
      </trkpt>
      <trkpt lat="44.10635" lon="3.06987">
        <ele>401</ele>
        <time>2010-01-01T03:30:56Z</time>
      </trkpt>
      <trkpt lat="44.10622" lon="3.07008">
        <ele>399</ele>
        <time>2010-01-01T03:31:04Z</time>
      </trkpt>
      <trkpt lat="44.10609" lon="3.07029">
        <ele>398</ele>
        <time>2010-01-01T03:31:12Z</time>
      </trkpt>
      <trkpt lat="44.10597" lon="3.07051">
        <ele>398</ele>
        <time>2010-01-01T03:31:20Z</time>
      </trkpt>
      <trkpt lat="44.10586" lon="3.07072">
        <ele>396</ele>
        <time>2010-01-01T03:31:27Z</time>
      </trkpt>
      <trkpt lat="44.10575" lon="3.07093">
        <ele>395</ele>
        <time>2010-01-01T03:31:35Z</time>
      </trkpt>
      <trkpt lat="44.10566" lon="3.07116">
        <ele>395</ele>
        <time>2010-01-01T03:31:42Z</time>
      </trkpt>
      <trkpt lat="44.10556" lon="3.07139">
        <ele>393</ele>
        <time>2010-01-01T03:31:50Z</time>
      </trkpt>
      <trkpt lat="44.10549" lon="3.07166">
        <ele>392</ele>
        <time>2010-01-01T03:31:58Z</time>
      </trkpt>
      <trkpt lat="44.1054" lon="3.07194">
        <ele>390</ele>
        <time>2010-01-01T03:32:07Z</time>
      </trkpt>
      <trkpt lat="44.10529" lon="3.07222">
        <ele>387</ele>
        <time>2010-01-01T03:32:16Z</time>
      </trkpt>
      <trkpt lat="44.10519" lon="3.07245">
        <ele>387</ele>
        <time>2010-01-01T03:32:24Z</time>
      </trkpt>
      <trkpt lat="44.10514" lon="3.07256">
        <ele>386</ele>
        <time>2010-01-01T03:32:28Z</time>
      </trkpt>
      <trkpt lat="44.10516" lon="3.07261">
        <ele>386</ele>
        <time>2010-01-01T03:32:30Z</time>
      </trkpt>
      <trkpt lat="44.10522" lon="3.07257">
        <ele>386</ele>
        <time>2010-01-01T03:32:32Z</time>
      </trkpt>
      <trkpt lat="44.10527" lon="3.07249">
        <ele>387</ele>
        <time>2010-01-01T03:32:35Z</time>
      </trkpt>
      <trkpt lat="44.10534" lon="3.0724">
        <ele>387</ele>
        <time>2010-01-01T03:32:39Z</time>
      </trkpt>
      <trkpt lat="44.10541" lon="3.07231">
        <ele>387</ele>
        <time>2010-01-01T03:32:43Z</time>
      </trkpt>
      <trkpt lat="44.10548" lon="3.07221">
        <ele>387</ele>
        <time>2010-01-01T03:32:47Z</time>
      </trkpt>
      <trkpt lat="44.10556" lon="3.07213">
        <ele>387</ele>
        <time>2010-01-01T03:32:51Z</time>
      </trkpt>
      <trkpt lat="44.10565" lon="3.07206">
        <ele>388</ele>
        <time>2010-01-01T03:32:55Z</time>
      </trkpt>
      <trkpt lat="44.10575" lon="3.07201">
        <ele>388</ele>
        <time>2010-01-01T03:32:59Z</time>
      </trkpt>
      <trkpt lat="44.10585" lon="3.07199">
        <ele>388</ele>
        <time>2010-01-01T03:33:03Z</time>
      </trkpt>
      <trkpt lat="44.10594" lon="3.07198">
        <ele>388</ele>
        <time>2010-01-01T03:33:07Z</time>
      </trkpt>
      <trkpt lat="44.10603" lon="3.07196">
        <ele>388</ele>
        <time>2010-01-01T03:33:10Z</time>
      </trkpt>
      <trkpt lat="44.10613" lon="3.07194">
        <ele>387</ele>
        <time>2010-01-01T03:33:14Z</time>
      </trkpt>
      <trkpt lat="44.10621" lon="3.072">
        <ele>387</ele>
        <time>2010-01-01T03:33:18Z</time>
      </trkpt>
      <trkpt lat="44.10624" lon="3.0721">
        <ele>387</ele>
        <time>2010-01-01T03:33:22Z</time>
      </trkpt>
      <trkpt lat="44.10625" lon="3.07221">
        <ele>387</ele>
        <time>2010-01-01T03:33:25Z</time>
      </trkpt>
      <trkpt lat="44.10625" lon="3.07234">
        <ele>387</ele>
        <time>2010-01-01T03:33:28Z</time>
      </trkpt>
      <trkpt lat="44.10625" lon="3.07247">
        <ele>387</ele>
        <time>2010-01-01T03:33:32Z</time>
      </trkpt>
      <trkpt lat="44.10625" lon="3.0726">
        <ele>387</ele>
        <time>2010-01-01T03:33:36Z</time>
      </trkpt>
      <trkpt lat="44.10623" lon="3.07273">
        <ele>387</ele>
        <time>2010-01-01T03:33:40Z</time>
      </trkpt>
      <trkpt lat="44.10619" lon="3.07286">
        <ele>386</ele>
        <time>2010-01-01T03:33:44Z</time>
      </trkpt>
      <trkpt lat="44.10615" lon="3.07299">
        <ele>386</ele>
        <time>2010-01-01T03:33:48Z</time>
      </trkpt>
      <trkpt lat="44.10612" lon="3.07312">
        <ele>385</ele>
        <time>2010-01-01T03:33:52Z</time>
      </trkpt>
      <trkpt lat="44.10615" lon="3.0732">
        <ele>386</ele>
        <time>2010-01-01T03:33:54Z</time>
      </trkpt>
      <trkpt lat="44.10618" lon="3.07321">
        <ele>386</ele>
        <time>2010-01-01T03:33:55Z</time>
      </trkpt>
      <trkpt lat="44.10617" lon="3.07322">
        <ele>386</ele>
        <time>2010-01-01T03:33:56Z</time>
      </trkpt>
      <trkpt lat="44.10618" lon="3.07324">
        <ele>386</ele>
        <time>2010-01-01T03:33:56Z</time>
      </trkpt>
      <trkpt lat="44.10619" lon="3.07325">
        <ele>386</ele>
        <time>2010-01-01T03:33:57Z</time>
      </trkpt>
      <trkpt lat="44.1062" lon="3.07324">
        <ele>386</ele>
        <time>2010-01-01T03:33:57Z</time>
      </trkpt>
      <trkpt lat="44.1062" lon="3.07323">
        <ele>386</ele>
        <time>2010-01-01T03:33:58Z</time>
      </trkpt>
    </trkseg>
  </trk>
</gpx>